<?xml version="1.0" encoding="UTF-8" standalone="no" ?>
<gpx xmlns="http://www.topografix.com/GPX/1/1" xmlns:xsi="http://www.w3.org/2001/XMLSchema-instance" xsi:schemaLocation="http://www.topografix.com/GPX/1/1 http://www.topografix.com/GPX/1/1/gpx.xsd" version="1.1" creator="VisuGPX - https://www.visugpx.com">
  <metadata>
    <name>Thiers Roanne 2014</name>
    <desc><![CDATA[8H 47 c est beau]]></desc>
  </metadata>
  <trk>
    <name><![CDATA[THIERS ROANNE 2014]]></name>
    <trkseg>
      <trkpt lat="45.85682" lon="3.54449">
        <ele>293.34</ele>
        <time>2014-12-06T22:53:53Z</time>
      </trkpt>
      <trkpt lat="45.85682" lon="3.5445">
        <ele>292.86</ele>
        <time>2014-12-06T22:53:54Z</time>
      </trkpt>
      <trkpt lat="45.85692" lon="3.5445">
        <ele>299.59</ele>
        <time>2014-12-06T22:54:10Z</time>
      </trkpt>
      <trkpt lat="45.85692" lon="3.5445">
        <ele>304.39</ele>
        <time>2014-12-06T22:54:12Z</time>
      </trkpt>
      <trkpt lat="45.85692" lon="3.5445">
        <ele>309.2</ele>
        <time>2014-12-06T22:54:14Z</time>
      </trkpt>
      <trkpt lat="45.85693" lon="3.54451">
        <ele>313.53</ele>
        <time>2014-12-06T22:54:16Z</time>
      </trkpt>
      <trkpt lat="45.85693" lon="3.54452">
        <ele>317.37</ele>
        <time>2014-12-06T22:54:18Z</time>
      </trkpt>
      <trkpt lat="45.85693" lon="3.54453">
        <ele>321.22</ele>
        <time>2014-12-06T22:54:20Z</time>
      </trkpt>
      <trkpt lat="45.85693" lon="3.54453">
        <ele>325.06</ele>
        <time>2014-12-06T22:54:22Z</time>
      </trkpt>
      <trkpt lat="45.85693" lon="3.54453">
        <ele>325.06</ele>
        <time>2014-12-06T22:54:23Z</time>
      </trkpt>
      <trkpt lat="45.85691" lon="3.54453">
        <ele>328.43</ele>
        <time>2014-12-06T22:54:26Z</time>
      </trkpt>
      <trkpt lat="45.8569" lon="3.54453">
        <ele>331.79</ele>
        <time>2014-12-06T22:54:28Z</time>
      </trkpt>
      <trkpt lat="45.8569" lon="3.54453">
        <ele>335.16</ele>
        <time>2014-12-06T22:54:30Z</time>
      </trkpt>
      <trkpt lat="45.8569" lon="3.54453">
        <ele>338.52</ele>
        <time>2014-12-06T22:54:33Z</time>
      </trkpt>
      <trkpt lat="45.8569" lon="3.54453">
        <ele>342.37</ele>
        <time>2014-12-06T22:54:36Z</time>
      </trkpt>
      <trkpt lat="45.8569" lon="3.54454">
        <ele>346.21</ele>
        <time>2014-12-06T22:54:39Z</time>
      </trkpt>
      <trkpt lat="45.8569" lon="3.54454">
        <ele>350.06</ele>
        <time>2014-12-06T22:54:42Z</time>
      </trkpt>
      <trkpt lat="45.8569" lon="3.54453">
        <ele>353.9</ele>
        <time>2014-12-06T22:54:46Z</time>
      </trkpt>
      <trkpt lat="45.8569" lon="3.54454">
        <ele>357.75</ele>
        <time>2014-12-06T22:54:50Z</time>
      </trkpt>
      <trkpt lat="45.85691" lon="3.54454">
        <ele>361.11</ele>
        <time>2014-12-06T22:54:54Z</time>
      </trkpt>
      <trkpt lat="45.85691" lon="3.54453">
        <ele>364.48</ele>
        <time>2014-12-06T22:54:59Z</time>
      </trkpt>
      <trkpt lat="45.85691" lon="3.5445">
        <ele>367.84</ele>
        <time>2014-12-06T22:55:04Z</time>
      </trkpt>
      <trkpt lat="45.85693" lon="3.5445">
        <ele>371.21</ele>
        <time>2014-12-06T22:55:10Z</time>
      </trkpt>
      <trkpt lat="45.85696" lon="3.54448">
        <ele>374.57</ele>
        <time>2014-12-06T22:55:16Z</time>
      </trkpt>
      <trkpt lat="45.85696" lon="3.54447">
        <ele>376.97</ele>
        <time>2014-12-06T22:55:22Z</time>
      </trkpt>
      <trkpt lat="45.85695" lon="3.54442">
        <ele>379.86</ele>
        <time>2014-12-06T22:55:31Z</time>
      </trkpt>
      <trkpt lat="45.85694" lon="3.54439">
        <ele>383.22</ele>
        <time>2014-12-06T22:55:41Z</time>
      </trkpt>
      <trkpt lat="45.85696" lon="3.54437">
        <ele>385.63</ele>
        <time>2014-12-06T22:55:54Z</time>
      </trkpt>
      <trkpt lat="45.85697" lon="3.54433">
        <ele>387.07</ele>
        <time>2014-12-06T22:56:07Z</time>
      </trkpt>
      <trkpt lat="45.85697" lon="3.5443">
        <ele>387.55</ele>
        <time>2014-12-06T22:56:20Z</time>
      </trkpt>
      <trkpt lat="45.85698" lon="3.54428">
        <ele>388.03</ele>
        <time>2014-12-06T22:56:31Z</time>
      </trkpt>
      <trkpt lat="45.85701" lon="3.54423">
        <ele>387.55</ele>
        <time>2014-12-06T22:56:45Z</time>
      </trkpt>
      <trkpt lat="45.85701" lon="3.54423">
        <ele>387.55</ele>
        <time>2014-12-06T22:56:46Z</time>
      </trkpt>
      <trkpt lat="45.85702" lon="3.54415">
        <ele>387.55</ele>
        <time>2014-12-06T22:56:57Z</time>
      </trkpt>
      <trkpt lat="45.85704" lon="3.54414">
        <ele>387.55</ele>
        <time>2014-12-06T22:57:11Z</time>
      </trkpt>
      <trkpt lat="45.8571" lon="3.54412">
        <ele>388.03</ele>
        <time>2014-12-06T22:57:26Z</time>
      </trkpt>
      <trkpt lat="45.85712" lon="3.54415">
        <ele>388.51</ele>
        <time>2014-12-06T22:57:37Z</time>
      </trkpt>
      <trkpt lat="45.85714" lon="3.54418">
        <ele>388.99</ele>
        <time>2014-12-06T22:57:51Z</time>
      </trkpt>
      <trkpt lat="45.85716" lon="3.5442">
        <ele>388.99</ele>
        <time>2014-12-06T22:58:02Z</time>
      </trkpt>
      <trkpt lat="45.85717" lon="3.5442">
        <ele>388.99</ele>
        <time>2014-12-06T22:58:17Z</time>
      </trkpt>
      <trkpt lat="45.85717" lon="3.54419">
        <ele>388.51</ele>
        <time>2014-12-06T22:58:37Z</time>
      </trkpt>
      <trkpt lat="45.85716" lon="3.54419">
        <ele>388.51</ele>
        <time>2014-12-06T22:58:53Z</time>
      </trkpt>
      <trkpt lat="45.85715" lon="3.54418">
        <ele>388.99</ele>
        <time>2014-12-06T22:59:08Z</time>
      </trkpt>
      <trkpt lat="45.85714" lon="3.54421">
        <ele>388.99</ele>
        <time>2014-12-06T22:59:12Z</time>
      </trkpt>
      <trkpt lat="45.85713" lon="3.54447">
        <ele>391.39</ele>
        <time>2014-12-06T22:59:23Z</time>
      </trkpt>
      <trkpt lat="45.85711" lon="3.54456">
        <ele>392.36</ele>
        <time>2014-12-06T22:59:28Z</time>
      </trkpt>
      <trkpt lat="45.85708" lon="3.54472">
        <ele>393.8</ele>
        <time>2014-12-06T22:59:36Z</time>
      </trkpt>
      <trkpt lat="45.85702" lon="3.54479">
        <ele>394.76</ele>
        <time>2014-12-06T22:59:41Z</time>
      </trkpt>
      <trkpt lat="45.85701" lon="3.54486">
        <ele>395.24</ele>
        <time>2014-12-06T22:59:45Z</time>
      </trkpt>
      <trkpt lat="45.85692" lon="3.54512">
        <ele>396.68</ele>
        <time>2014-12-06T22:59:58Z</time>
      </trkpt>
      <trkpt lat="45.85692" lon="3.54522">
        <ele>397.64</ele>
        <time>2014-12-06T23:00:04Z</time>
      </trkpt>
      <trkpt lat="45.85694" lon="3.54533">
        <ele>398.6</ele>
        <time>2014-12-06T23:00:08Z</time>
      </trkpt>
      <trkpt lat="45.85701" lon="3.54557">
        <ele>400.53</ele>
        <time>2014-12-06T23:00:19Z</time>
      </trkpt>
      <trkpt lat="45.85698" lon="3.54578">
        <ele>401.97</ele>
        <time>2014-12-06T23:00:30Z</time>
      </trkpt>
      <trkpt lat="45.85686" lon="3.54592">
        <ele>402.93</ele>
        <time>2014-12-06T23:00:40Z</time>
      </trkpt>
      <trkpt lat="45.85683" lon="3.546">
        <ele>403.41</ele>
        <time>2014-12-06T23:00:44Z</time>
      </trkpt>
      <trkpt lat="45.85666" lon="3.54622">
        <ele>404.37</ele>
        <time>2014-12-06T23:00:58Z</time>
      </trkpt>
      <trkpt lat="45.85657" lon="3.54634">
        <ele>405.33</ele>
        <time>2014-12-06T23:01:11Z</time>
      </trkpt>
      <trkpt lat="45.85643" lon="3.54637">
        <ele>406.77</ele>
        <time>2014-12-06T23:01:29Z</time>
      </trkpt>
      <trkpt lat="45.85636" lon="3.54637">
        <ele>406.77</ele>
        <time>2014-12-06T23:01:32Z</time>
      </trkpt>
      <trkpt lat="45.85611" lon="3.54648">
        <ele>407.26</ele>
        <time>2014-12-06T23:01:37Z</time>
      </trkpt>
      <trkpt lat="45.85581" lon="3.54675">
        <ele>408.22</ele>
        <time>2014-12-06T23:01:52Z</time>
      </trkpt>
      <trkpt lat="45.85556" lon="3.5466">
        <ele>408.22</ele>
        <time>2014-12-06T23:02:03Z</time>
      </trkpt>
      <trkpt lat="45.85537" lon="3.54669">
        <ele>408.7</ele>
        <time>2014-12-06T23:02:16Z</time>
      </trkpt>
      <trkpt lat="45.85527" lon="3.54679">
        <ele>408.7</ele>
        <time>2014-12-06T23:02:24Z</time>
      </trkpt>
      <trkpt lat="45.85507" lon="3.54694">
        <ele>408.7</ele>
        <time>2014-12-06T23:02:37Z</time>
      </trkpt>
      <trkpt lat="45.85499" lon="3.5472">
        <ele>409.66</ele>
        <time>2014-12-06T23:02:49Z</time>
      </trkpt>
      <trkpt lat="45.85504" lon="3.54741">
        <ele>410.14</ele>
        <time>2014-12-06T23:02:59Z</time>
      </trkpt>
      <trkpt lat="45.85504" lon="3.54746">
        <ele>410.14</ele>
        <time>2014-12-06T23:03:02Z</time>
      </trkpt>
      <trkpt lat="45.85506" lon="3.54757">
        <ele>410.62</ele>
        <time>2014-12-06T23:03:07Z</time>
      </trkpt>
      <trkpt lat="45.85508" lon="3.5477">
        <ele>411.1</ele>
        <time>2014-12-06T23:03:13Z</time>
      </trkpt>
      <trkpt lat="45.85513" lon="3.54788">
        <ele>411.58</ele>
        <time>2014-12-06T23:03:22Z</time>
      </trkpt>
      <trkpt lat="45.85514" lon="3.54802">
        <ele>411.58</ele>
        <time>2014-12-06T23:03:28Z</time>
      </trkpt>
      <trkpt lat="45.85518" lon="3.54811">
        <ele>412.06</ele>
        <time>2014-12-06T23:03:32Z</time>
      </trkpt>
      <trkpt lat="45.8552" lon="3.54816">
        <ele>412.06</ele>
        <time>2014-12-06T23:03:36Z</time>
      </trkpt>
      <trkpt lat="45.85527" lon="3.54832">
        <ele>412.54</ele>
        <time>2014-12-06T23:03:43Z</time>
      </trkpt>
      <trkpt lat="45.85531" lon="3.54838">
        <ele>412.54</ele>
        <time>2014-12-06T23:03:47Z</time>
      </trkpt>
      <trkpt lat="45.85541" lon="3.5485">
        <ele>413.5</ele>
        <time>2014-12-06T23:03:55Z</time>
      </trkpt>
      <trkpt lat="45.85551" lon="3.54864">
        <ele>413.98</ele>
        <time>2014-12-06T23:04:03Z</time>
      </trkpt>
      <trkpt lat="45.85559" lon="3.5487">
        <ele>414.47</ele>
        <time>2014-12-06T23:04:07Z</time>
      </trkpt>
      <trkpt lat="45.85567" lon="3.54869">
        <ele>414.95</ele>
        <time>2014-12-06T23:04:13Z</time>
      </trkpt>
      <trkpt lat="45.85582" lon="3.54869">
        <ele>415.43</ele>
        <time>2014-12-06T23:04:23Z</time>
      </trkpt>
      <trkpt lat="45.85588" lon="3.54869">
        <ele>415.91</ele>
        <time>2014-12-06T23:04:28Z</time>
      </trkpt>
      <trkpt lat="45.85599" lon="3.54864">
        <ele>416.39</ele>
        <time>2014-12-06T23:04:35Z</time>
      </trkpt>
      <trkpt lat="45.85615" lon="3.5487">
        <ele>417.35</ele>
        <time>2014-12-06T23:04:45Z</time>
      </trkpt>
      <trkpt lat="45.85617" lon="3.54871">
        <ele>417.83</ele>
        <time>2014-12-06T23:04:46Z</time>
      </trkpt>
      <trkpt lat="45.85622" lon="3.54868">
        <ele>417.83</ele>
        <time>2014-12-06T23:04:49Z</time>
      </trkpt>
      <trkpt lat="45.85624" lon="3.54868">
        <ele>417.83</ele>
        <time>2014-12-06T23:04:51Z</time>
      </trkpt>
      <trkpt lat="45.85627" lon="3.5487">
        <ele>418.31</ele>
        <time>2014-12-06T23:04:53Z</time>
      </trkpt>
      <trkpt lat="45.85642" lon="3.54889">
        <ele>419.75</ele>
        <time>2014-12-06T23:05:05Z</time>
      </trkpt>
      <trkpt lat="45.85643" lon="3.5489">
        <ele>419.75</ele>
        <time>2014-12-06T23:05:07Z</time>
      </trkpt>
      <trkpt lat="45.85653" lon="3.54913">
        <ele>421.19</ele>
        <time>2014-12-06T23:05:18Z</time>
      </trkpt>
      <trkpt lat="45.85658" lon="3.54928">
        <ele>421.68</ele>
        <time>2014-12-06T23:05:24Z</time>
      </trkpt>
      <trkpt lat="45.85667" lon="3.54939">
        <ele>422.64</ele>
        <time>2014-12-06T23:05:32Z</time>
      </trkpt>
      <trkpt lat="45.8567" lon="3.54946">
        <ele>423.12</ele>
        <time>2014-12-06T23:05:36Z</time>
      </trkpt>
      <trkpt lat="45.85673" lon="3.54954">
        <ele>423.6</ele>
        <time>2014-12-06T23:05:40Z</time>
      </trkpt>
      <trkpt lat="45.85677" lon="3.54957">
        <ele>424.08</ele>
        <time>2014-12-06T23:05:43Z</time>
      </trkpt>
      <trkpt lat="45.85687" lon="3.54963">
        <ele>424.56</ele>
        <time>2014-12-06T23:05:49Z</time>
      </trkpt>
      <trkpt lat="45.85696" lon="3.54973">
        <ele>425.04</ele>
        <time>2014-12-06T23:05:57Z</time>
      </trkpt>
      <trkpt lat="45.85699" lon="3.5498">
        <ele>425.52</ele>
        <time>2014-12-06T23:06:01Z</time>
      </trkpt>
      <trkpt lat="45.85712" lon="3.54994">
        <ele>426.48</ele>
        <time>2014-12-06T23:06:11Z</time>
      </trkpt>
      <trkpt lat="45.85715" lon="3.54995">
        <ele>426.48</ele>
        <time>2014-12-06T23:06:13Z</time>
      </trkpt>
      <trkpt lat="45.85722" lon="3.55">
        <ele>426.96</ele>
        <time>2014-12-06T23:06:17Z</time>
      </trkpt>
      <trkpt lat="45.85728" lon="3.55003">
        <ele>426.96</ele>
        <time>2014-12-06T23:06:20Z</time>
      </trkpt>
      <trkpt lat="45.85735" lon="3.55002">
        <ele>427.44</ele>
        <time>2014-12-06T23:06:24Z</time>
      </trkpt>
      <trkpt lat="45.8574" lon="3.55007">
        <ele>427.92</ele>
        <time>2014-12-06T23:06:28Z</time>
      </trkpt>
      <trkpt lat="45.85742" lon="3.55007">
        <ele>427.92</ele>
        <time>2014-12-06T23:06:30Z</time>
      </trkpt>
      <trkpt lat="45.85749" lon="3.55011">
        <ele>427.92</ele>
        <time>2014-12-06T23:06:34Z</time>
      </trkpt>
      <trkpt lat="45.85757" lon="3.55008">
        <ele>428.4</ele>
        <time>2014-12-06T23:06:39Z</time>
      </trkpt>
      <trkpt lat="45.85762" lon="3.55009">
        <ele>428.4</ele>
        <time>2014-12-06T23:06:41Z</time>
      </trkpt>
      <trkpt lat="45.85774" lon="3.5501">
        <ele>428.89</ele>
        <time>2014-12-06T23:06:48Z</time>
      </trkpt>
      <trkpt lat="45.85788" lon="3.5501">
        <ele>428.89</ele>
        <time>2014-12-06T23:06:56Z</time>
      </trkpt>
      <trkpt lat="45.85797" lon="3.55005">
        <ele>428.89</ele>
        <time>2014-12-06T23:07:02Z</time>
      </trkpt>
      <trkpt lat="45.858" lon="3.55007">
        <ele>428.89</ele>
        <time>2014-12-06T23:07:03Z</time>
      </trkpt>
      <trkpt lat="45.85808" lon="3.55006">
        <ele>429.37</ele>
        <time>2014-12-06T23:07:08Z</time>
      </trkpt>
      <trkpt lat="45.85818" lon="3.55004">
        <ele>429.85</ele>
        <time>2014-12-06T23:07:14Z</time>
      </trkpt>
      <trkpt lat="45.85822" lon="3.55001">
        <ele>429.85</ele>
        <time>2014-12-06T23:07:17Z</time>
      </trkpt>
      <trkpt lat="45.85837" lon="3.54996">
        <ele>429.85</ele>
        <time>2014-12-06T23:07:27Z</time>
      </trkpt>
      <trkpt lat="45.85847" lon="3.5499">
        <ele>430.33</ele>
        <time>2014-12-06T23:07:34Z</time>
      </trkpt>
      <trkpt lat="45.85852" lon="3.54987">
        <ele>430.81</ele>
        <time>2014-12-06T23:07:37Z</time>
      </trkpt>
      <trkpt lat="45.8586" lon="3.54983">
        <ele>430.33</ele>
        <time>2014-12-06T23:07:43Z</time>
      </trkpt>
      <trkpt lat="45.85868" lon="3.54978">
        <ele>430.81</ele>
        <time>2014-12-06T23:07:48Z</time>
      </trkpt>
      <trkpt lat="45.85873" lon="3.54975">
        <ele>430.81</ele>
        <time>2014-12-06T23:07:51Z</time>
      </trkpt>
      <trkpt lat="45.85882" lon="3.54978">
        <ele>431.29</ele>
        <time>2014-12-06T23:07:55Z</time>
      </trkpt>
      <trkpt lat="45.85893" lon="3.54978">
        <ele>431.29</ele>
        <time>2014-12-06T23:08:02Z</time>
      </trkpt>
      <trkpt lat="45.85904" lon="3.54981">
        <ele>431.77</ele>
        <time>2014-12-06T23:08:09Z</time>
      </trkpt>
      <trkpt lat="45.8592" lon="3.54985">
        <ele>432.73</ele>
        <time>2014-12-06T23:08:19Z</time>
      </trkpt>
      <trkpt lat="45.85922" lon="3.54985">
        <ele>432.73</ele>
        <time>2014-12-06T23:08:20Z</time>
      </trkpt>
      <trkpt lat="45.85927" lon="3.54983">
        <ele>433.21</ele>
        <time>2014-12-06T23:08:25Z</time>
      </trkpt>
      <trkpt lat="45.85934" lon="3.54984">
        <ele>433.69</ele>
        <time>2014-12-06T23:08:29Z</time>
      </trkpt>
      <trkpt lat="45.85944" lon="3.54989">
        <ele>434.17</ele>
        <time>2014-12-06T23:08:36Z</time>
      </trkpt>
      <trkpt lat="45.85972" lon="3.5501">
        <ele>435.13</ele>
        <time>2014-12-06T23:08:49Z</time>
      </trkpt>
      <trkpt lat="45.85977" lon="3.55013">
        <ele>436.1</ele>
        <time>2014-12-06T23:08:55Z</time>
      </trkpt>
      <trkpt lat="45.85982" lon="3.55011">
        <ele>436.1</ele>
        <time>2014-12-06T23:09:13Z</time>
      </trkpt>
      <trkpt lat="45.85991" lon="3.55002">
        <ele>436.1</ele>
        <time>2014-12-06T23:09:34Z</time>
      </trkpt>
      <trkpt lat="45.85993" lon="3.55017">
        <ele>436.1</ele>
        <time>2014-12-06T23:09:40Z</time>
      </trkpt>
      <trkpt lat="45.85992" lon="3.55022">
        <ele>436.1</ele>
        <time>2014-12-06T23:09:41Z</time>
      </trkpt>
      <trkpt lat="45.85992" lon="3.55047">
        <ele>438.02</ele>
        <time>2014-12-06T23:09:51Z</time>
      </trkpt>
      <trkpt lat="45.85991" lon="3.55046">
        <ele>438.5</ele>
        <time>2014-12-06T23:09:53Z</time>
      </trkpt>
      <trkpt lat="45.85989" lon="3.55046">
        <ele>438.5</ele>
        <time>2014-12-06T23:09:54Z</time>
      </trkpt>
      <trkpt lat="45.8598" lon="3.5505">
        <ele>438.98</ele>
        <time>2014-12-06T23:09:58Z</time>
      </trkpt>
      <trkpt lat="45.85977" lon="3.55053">
        <ele>439.46</ele>
        <time>2014-12-06T23:09:59Z</time>
      </trkpt>
      <trkpt lat="45.85974" lon="3.55056">
        <ele>438.98</ele>
        <time>2014-12-06T23:10:00Z</time>
      </trkpt>
      <trkpt lat="45.8597" lon="3.55059">
        <ele>439.46</ele>
        <time>2014-12-06T23:10:01Z</time>
      </trkpt>
      <trkpt lat="45.85966" lon="3.55062">
        <ele>438.98</ele>
        <time>2014-12-06T23:10:02Z</time>
      </trkpt>
      <trkpt lat="45.85964" lon="3.55066">
        <ele>439.94</ele>
        <time>2014-12-06T23:10:03Z</time>
      </trkpt>
      <trkpt lat="45.85962" lon="3.55069">
        <ele>439.46</ele>
        <time>2014-12-06T23:10:04Z</time>
      </trkpt>
      <trkpt lat="45.85961" lon="3.55073">
        <ele>439.94</ele>
        <time>2014-12-06T23:10:05Z</time>
      </trkpt>
      <trkpt lat="45.85961" lon="3.55076">
        <ele>439.94</ele>
        <time>2014-12-06T23:10:06Z</time>
      </trkpt>
      <trkpt lat="45.8596" lon="3.5508">
        <ele>440.42</ele>
        <time>2014-12-06T23:10:07Z</time>
      </trkpt>
      <trkpt lat="45.8596" lon="3.55082">
        <ele>440.9</ele>
        <time>2014-12-06T23:10:08Z</time>
      </trkpt>
      <trkpt lat="45.8596" lon="3.55087">
        <ele>440.9</ele>
        <time>2014-12-06T23:10:10Z</time>
      </trkpt>
      <trkpt lat="45.85959" lon="3.55093">
        <ele>440.9</ele>
        <time>2014-12-06T23:10:11Z</time>
      </trkpt>
      <trkpt lat="45.85957" lon="3.55099">
        <ele>441.38</ele>
        <time>2014-12-06T23:10:12Z</time>
      </trkpt>
      <trkpt lat="45.85956" lon="3.55104">
        <ele>441.38</ele>
        <time>2014-12-06T23:10:13Z</time>
      </trkpt>
      <trkpt lat="45.85955" lon="3.55108">
        <ele>441.38</ele>
        <time>2014-12-06T23:10:14Z</time>
      </trkpt>
      <trkpt lat="45.85952" lon="3.55113">
        <ele>441.86</ele>
        <time>2014-12-06T23:10:15Z</time>
      </trkpt>
      <trkpt lat="45.85951" lon="3.55117">
        <ele>441.86</ele>
        <time>2014-12-06T23:10:16Z</time>
      </trkpt>
      <trkpt lat="45.8595" lon="3.55156">
        <ele>444.27</ele>
        <time>2014-12-06T23:10:27Z</time>
      </trkpt>
      <trkpt lat="45.85946" lon="3.55201">
        <ele>445.71</ele>
        <time>2014-12-06T23:10:37Z</time>
      </trkpt>
      <trkpt lat="45.85946" lon="3.55206">
        <ele>445.71</ele>
        <time>2014-12-06T23:10:38Z</time>
      </trkpt>
      <trkpt lat="45.85946" lon="3.55212">
        <ele>445.71</ele>
        <time>2014-12-06T23:10:39Z</time>
      </trkpt>
      <trkpt lat="45.85945" lon="3.55232">
        <ele>446.67</ele>
        <time>2014-12-06T23:10:43Z</time>
      </trkpt>
      <trkpt lat="45.85944" lon="3.55235">
        <ele>446.67</ele>
        <time>2014-12-06T23:10:44Z</time>
      </trkpt>
      <trkpt lat="45.85944" lon="3.55239">
        <ele>447.15</ele>
        <time>2014-12-06T23:10:45Z</time>
      </trkpt>
      <trkpt lat="45.85944" lon="3.55243">
        <ele>447.15</ele>
        <time>2014-12-06T23:10:46Z</time>
      </trkpt>
      <trkpt lat="45.85944" lon="3.55247">
        <ele>447.15</ele>
        <time>2014-12-06T23:10:47Z</time>
      </trkpt>
      <trkpt lat="45.85943" lon="3.55251">
        <ele>447.63</ele>
        <time>2014-12-06T23:10:48Z</time>
      </trkpt>
      <trkpt lat="45.85943" lon="3.55254">
        <ele>447.63</ele>
        <time>2014-12-06T23:10:49Z</time>
      </trkpt>
      <trkpt lat="45.85943" lon="3.55257">
        <ele>447.63</ele>
        <time>2014-12-06T23:10:50Z</time>
      </trkpt>
      <trkpt lat="45.85946" lon="3.55284">
        <ele>448.59</ele>
        <time>2014-12-06T23:11:01Z</time>
      </trkpt>
      <trkpt lat="45.85948" lon="3.55317">
        <ele>450.03</ele>
        <time>2014-12-06T23:11:14Z</time>
      </trkpt>
      <trkpt lat="45.85951" lon="3.55338">
        <ele>451</ele>
        <time>2014-12-06T23:11:24Z</time>
      </trkpt>
      <trkpt lat="45.85951" lon="3.5534">
        <ele>451</ele>
        <time>2014-12-06T23:11:25Z</time>
      </trkpt>
      <trkpt lat="45.85955" lon="3.55367">
        <ele>451.96</ele>
        <time>2014-12-06T23:11:37Z</time>
      </trkpt>
      <trkpt lat="45.85957" lon="3.55375">
        <ele>452.92</ele>
        <time>2014-12-06T23:11:41Z</time>
      </trkpt>
      <trkpt lat="45.85958" lon="3.55376">
        <ele>452.92</ele>
        <time>2014-12-06T23:11:42Z</time>
      </trkpt>
      <trkpt lat="45.85959" lon="3.55378">
        <ele>452.92</ele>
        <time>2014-12-06T23:11:43Z</time>
      </trkpt>
      <trkpt lat="45.8596" lon="3.5538">
        <ele>452.92</ele>
        <time>2014-12-06T23:11:44Z</time>
      </trkpt>
      <trkpt lat="45.85962" lon="3.55381">
        <ele>452.92</ele>
        <time>2014-12-06T23:11:45Z</time>
      </trkpt>
      <trkpt lat="45.85962" lon="3.55382">
        <ele>452.92</ele>
        <time>2014-12-06T23:11:46Z</time>
      </trkpt>
      <trkpt lat="45.85963" lon="3.55382">
        <ele>453.4</ele>
        <time>2014-12-06T23:11:47Z</time>
      </trkpt>
      <trkpt lat="45.85964" lon="3.55383">
        <ele>453.4</ele>
        <time>2014-12-06T23:11:48Z</time>
      </trkpt>
      <trkpt lat="45.85966" lon="3.55384">
        <ele>453.88</ele>
        <time>2014-12-06T23:11:49Z</time>
      </trkpt>
      <trkpt lat="45.85967" lon="3.55386">
        <ele>453.88</ele>
        <time>2014-12-06T23:11:50Z</time>
      </trkpt>
      <trkpt lat="45.85969" lon="3.55387">
        <ele>453.88</ele>
        <time>2014-12-06T23:11:51Z</time>
      </trkpt>
      <trkpt lat="45.85971" lon="3.55388">
        <ele>453.88</ele>
        <time>2014-12-06T23:11:52Z</time>
      </trkpt>
      <trkpt lat="45.85972" lon="3.55388">
        <ele>454.36</ele>
        <time>2014-12-06T23:11:53Z</time>
      </trkpt>
      <trkpt lat="45.85974" lon="3.55389">
        <ele>454.36</ele>
        <time>2014-12-06T23:11:54Z</time>
      </trkpt>
      <trkpt lat="45.85976" lon="3.55389">
        <ele>454.36</ele>
        <time>2014-12-06T23:11:55Z</time>
      </trkpt>
      <trkpt lat="45.85977" lon="3.55389">
        <ele>454.84</ele>
        <time>2014-12-06T23:11:56Z</time>
      </trkpt>
      <trkpt lat="45.85979" lon="3.55389">
        <ele>454.84</ele>
        <time>2014-12-06T23:11:57Z</time>
      </trkpt>
      <trkpt lat="45.8598" lon="3.55388">
        <ele>454.84</ele>
        <time>2014-12-06T23:11:58Z</time>
      </trkpt>
      <trkpt lat="45.85993" lon="3.55377">
        <ele>456.28</ele>
        <time>2014-12-06T23:12:07Z</time>
      </trkpt>
      <trkpt lat="45.86014" lon="3.55369">
        <ele>457.24</ele>
        <time>2014-12-06T23:12:20Z</time>
      </trkpt>
      <trkpt lat="45.86031" lon="3.55365">
        <ele>458.21</ele>
        <time>2014-12-06T23:12:31Z</time>
      </trkpt>
      <trkpt lat="45.86053" lon="3.55356">
        <ele>459.65</ele>
        <time>2014-12-06T23:12:45Z</time>
      </trkpt>
      <trkpt lat="45.86056" lon="3.55356">
        <ele>460.13</ele>
        <time>2014-12-06T23:12:47Z</time>
      </trkpt>
      <trkpt lat="45.86058" lon="3.55357">
        <ele>460.13</ele>
        <time>2014-12-06T23:12:48Z</time>
      </trkpt>
      <trkpt lat="45.86073" lon="3.55352">
        <ele>460.61</ele>
        <time>2014-12-06T23:12:57Z</time>
      </trkpt>
      <trkpt lat="45.86079" lon="3.55351">
        <ele>461.57</ele>
        <time>2014-12-06T23:13:00Z</time>
      </trkpt>
      <trkpt lat="45.86092" lon="3.55349">
        <ele>461.57</ele>
        <time>2014-12-06T23:13:07Z</time>
      </trkpt>
      <trkpt lat="45.86093" lon="3.55349">
        <ele>461.57</ele>
        <time>2014-12-06T23:13:08Z</time>
      </trkpt>
      <trkpt lat="45.86112" lon="3.55344">
        <ele>462.05</ele>
        <time>2014-12-06T23:13:20Z</time>
      </trkpt>
      <trkpt lat="45.86122" lon="3.55343">
        <ele>462.53</ele>
        <time>2014-12-06T23:13:26Z</time>
      </trkpt>
      <trkpt lat="45.86133" lon="3.5534">
        <ele>463.01</ele>
        <time>2014-12-06T23:13:33Z</time>
      </trkpt>
      <trkpt lat="45.86135" lon="3.5534">
        <ele>463.01</ele>
        <time>2014-12-06T23:13:34Z</time>
      </trkpt>
      <trkpt lat="45.86136" lon="3.5534">
        <ele>463.01</ele>
        <time>2014-12-06T23:13:35Z</time>
      </trkpt>
      <trkpt lat="45.86139" lon="3.55339">
        <ele>463.49</ele>
        <time>2014-12-06T23:13:37Z</time>
      </trkpt>
      <trkpt lat="45.86141" lon="3.5534">
        <ele>463.49</ele>
        <time>2014-12-06T23:13:38Z</time>
      </trkpt>
      <trkpt lat="45.86143" lon="3.5534">
        <ele>463.49</ele>
        <time>2014-12-06T23:13:39Z</time>
      </trkpt>
      <trkpt lat="45.86145" lon="3.5534">
        <ele>463.97</ele>
        <time>2014-12-06T23:13:40Z</time>
      </trkpt>
      <trkpt lat="45.86146" lon="3.5534">
        <ele>463.49</ele>
        <time>2014-12-06T23:13:41Z</time>
      </trkpt>
      <trkpt lat="45.86147" lon="3.55341">
        <ele>463.49</ele>
        <time>2014-12-06T23:13:42Z</time>
      </trkpt>
      <trkpt lat="45.86149" lon="3.55342">
        <ele>463.97</ele>
        <time>2014-12-06T23:13:43Z</time>
      </trkpt>
      <trkpt lat="45.8615" lon="3.55344">
        <ele>463.97</ele>
        <time>2014-12-06T23:13:44Z</time>
      </trkpt>
      <trkpt lat="45.86152" lon="3.55346">
        <ele>463.97</ele>
        <time>2014-12-06T23:13:45Z</time>
      </trkpt>
      <trkpt lat="45.86154" lon="3.55347">
        <ele>463.97</ele>
        <time>2014-12-06T23:13:46Z</time>
      </trkpt>
      <trkpt lat="45.86164" lon="3.55354">
        <ele>464.45</ele>
        <time>2014-12-06T23:13:52Z</time>
      </trkpt>
      <trkpt lat="45.86165" lon="3.55354">
        <ele>464.93</ele>
        <time>2014-12-06T23:13:53Z</time>
      </trkpt>
      <trkpt lat="45.86166" lon="3.55355">
        <ele>464.93</ele>
        <time>2014-12-06T23:13:54Z</time>
      </trkpt>
      <trkpt lat="45.86167" lon="3.55356">
        <ele>464.93</ele>
        <time>2014-12-06T23:13:55Z</time>
      </trkpt>
      <trkpt lat="45.86169" lon="3.55356">
        <ele>464.93</ele>
        <time>2014-12-06T23:13:56Z</time>
      </trkpt>
      <trkpt lat="45.8617" lon="3.55358">
        <ele>465.42</ele>
        <time>2014-12-06T23:13:57Z</time>
      </trkpt>
      <trkpt lat="45.86172" lon="3.55359">
        <ele>465.42</ele>
        <time>2014-12-06T23:13:58Z</time>
      </trkpt>
      <trkpt lat="45.86181" lon="3.55362">
        <ele>465.9</ele>
        <time>2014-12-06T23:14:04Z</time>
      </trkpt>
      <trkpt lat="45.86189" lon="3.55368">
        <ele>465.9</ele>
        <time>2014-12-06T23:14:08Z</time>
      </trkpt>
      <trkpt lat="45.86194" lon="3.55371">
        <ele>466.38</ele>
        <time>2014-12-06T23:14:11Z</time>
      </trkpt>
      <trkpt lat="45.86196" lon="3.55372">
        <ele>466.38</ele>
        <time>2014-12-06T23:14:12Z</time>
      </trkpt>
      <trkpt lat="45.86215" lon="3.55379">
        <ele>467.34</ele>
        <time>2014-12-06T23:14:25Z</time>
      </trkpt>
      <trkpt lat="45.86237" lon="3.5539">
        <ele>467.82</ele>
        <time>2014-12-06T23:14:39Z</time>
      </trkpt>
      <trkpt lat="45.86241" lon="3.55392">
        <ele>468.3</ele>
        <time>2014-12-06T23:14:42Z</time>
      </trkpt>
      <trkpt lat="45.86243" lon="3.55392">
        <ele>468.3</ele>
        <time>2014-12-06T23:14:43Z</time>
      </trkpt>
      <trkpt lat="45.86258" lon="3.55398">
        <ele>469.26</ele>
        <time>2014-12-06T23:14:53Z</time>
      </trkpt>
      <trkpt lat="45.86272" lon="3.55408">
        <ele>470.22</ele>
        <time>2014-12-06T23:15:02Z</time>
      </trkpt>
      <trkpt lat="45.86279" lon="3.55418">
        <ele>470.7</ele>
        <time>2014-12-06T23:15:08Z</time>
      </trkpt>
      <trkpt lat="45.8628" lon="3.55419">
        <ele>470.7</ele>
        <time>2014-12-06T23:15:09Z</time>
      </trkpt>
      <trkpt lat="45.86281" lon="3.5542">
        <ele>470.7</ele>
        <time>2014-12-06T23:15:10Z</time>
      </trkpt>
      <trkpt lat="45.86283" lon="3.55421">
        <ele>470.7</ele>
        <time>2014-12-06T23:15:11Z</time>
      </trkpt>
      <trkpt lat="45.86285" lon="3.55423">
        <ele>470.7</ele>
        <time>2014-12-06T23:15:12Z</time>
      </trkpt>
      <trkpt lat="45.86286" lon="3.55425">
        <ele>470.7</ele>
        <time>2014-12-06T23:15:13Z</time>
      </trkpt>
      <trkpt lat="45.86298" lon="3.55441">
        <ele>471.18</ele>
        <time>2014-12-06T23:15:22Z</time>
      </trkpt>
      <trkpt lat="45.86299" lon="3.55442">
        <ele>471.18</ele>
        <time>2014-12-06T23:15:23Z</time>
      </trkpt>
      <trkpt lat="45.863" lon="3.55444">
        <ele>471.66</ele>
        <time>2014-12-06T23:15:24Z</time>
      </trkpt>
      <trkpt lat="45.86302" lon="3.55445">
        <ele>471.66</ele>
        <time>2014-12-06T23:15:25Z</time>
      </trkpt>
      <trkpt lat="45.86303" lon="3.55447">
        <ele>471.66</ele>
        <time>2014-12-06T23:15:26Z</time>
      </trkpt>
      <trkpt lat="45.86305" lon="3.55448">
        <ele>471.66</ele>
        <time>2014-12-06T23:15:27Z</time>
      </trkpt>
      <trkpt lat="45.86306" lon="3.5545">
        <ele>471.66</ele>
        <time>2014-12-06T23:15:28Z</time>
      </trkpt>
      <trkpt lat="45.86307" lon="3.55451">
        <ele>471.66</ele>
        <time>2014-12-06T23:15:29Z</time>
      </trkpt>
      <trkpt lat="45.86308" lon="3.55453">
        <ele>471.66</ele>
        <time>2014-12-06T23:15:30Z</time>
      </trkpt>
      <trkpt lat="45.86309" lon="3.55454">
        <ele>471.66</ele>
        <time>2014-12-06T23:15:31Z</time>
      </trkpt>
      <trkpt lat="45.8631" lon="3.55456">
        <ele>472.14</ele>
        <time>2014-12-06T23:15:32Z</time>
      </trkpt>
      <trkpt lat="45.86311" lon="3.55457">
        <ele>472.14</ele>
        <time>2014-12-06T23:15:33Z</time>
      </trkpt>
      <trkpt lat="45.86313" lon="3.55458">
        <ele>472.14</ele>
        <time>2014-12-06T23:15:34Z</time>
      </trkpt>
      <trkpt lat="45.86314" lon="3.55459">
        <ele>472.14</ele>
        <time>2014-12-06T23:15:35Z</time>
      </trkpt>
      <trkpt lat="45.86315" lon="3.5546">
        <ele>472.14</ele>
        <time>2014-12-06T23:15:36Z</time>
      </trkpt>
      <trkpt lat="45.86321" lon="3.55466">
        <ele>472.63</ele>
        <time>2014-12-06T23:15:40Z</time>
      </trkpt>
      <trkpt lat="45.86322" lon="3.55468">
        <ele>472.63</ele>
        <time>2014-12-06T23:15:41Z</time>
      </trkpt>
      <trkpt lat="45.86331" lon="3.55481">
        <ele>473.11</ele>
        <time>2014-12-06T23:15:49Z</time>
      </trkpt>
      <trkpt lat="45.86332" lon="3.55482">
        <ele>473.59</ele>
        <time>2014-12-06T23:15:50Z</time>
      </trkpt>
      <trkpt lat="45.86334" lon="3.55485">
        <ele>473.59</ele>
        <time>2014-12-06T23:15:52Z</time>
      </trkpt>
      <trkpt lat="45.86338" lon="3.55506">
        <ele>474.07</ele>
        <time>2014-12-06T23:16:02Z</time>
      </trkpt>
      <trkpt lat="45.86337" lon="3.55532">
        <ele>475.03</ele>
        <time>2014-12-06T23:16:12Z</time>
      </trkpt>
      <trkpt lat="45.86338" lon="3.5554">
        <ele>475.51</ele>
        <time>2014-12-06T23:16:15Z</time>
      </trkpt>
      <trkpt lat="45.86337" lon="3.55543">
        <ele>475.51</ele>
        <time>2014-12-06T23:16:16Z</time>
      </trkpt>
      <trkpt lat="45.86336" lon="3.55568">
        <ele>475.99</ele>
        <time>2014-12-06T23:16:26Z</time>
      </trkpt>
      <trkpt lat="45.86332" lon="3.55584">
        <ele>476.47</ele>
        <time>2014-12-06T23:16:33Z</time>
      </trkpt>
      <trkpt lat="45.86331" lon="3.55587">
        <ele>476.47</ele>
        <time>2014-12-06T23:16:34Z</time>
      </trkpt>
      <trkpt lat="45.8633" lon="3.55589">
        <ele>476.47</ele>
        <time>2014-12-06T23:16:35Z</time>
      </trkpt>
      <trkpt lat="45.86321" lon="3.55605">
        <ele>477.43</ele>
        <time>2014-12-06T23:16:44Z</time>
      </trkpt>
      <trkpt lat="45.8632" lon="3.55607">
        <ele>477.43</ele>
        <time>2014-12-06T23:16:45Z</time>
      </trkpt>
      <trkpt lat="45.86314" lon="3.55625">
        <ele>477.91</ele>
        <time>2014-12-06T23:16:54Z</time>
      </trkpt>
      <trkpt lat="45.86313" lon="3.55626">
        <ele>477.91</ele>
        <time>2014-12-06T23:16:55Z</time>
      </trkpt>
      <trkpt lat="45.86312" lon="3.55637">
        <ele>478.39</ele>
        <time>2014-12-06T23:17:00Z</time>
      </trkpt>
      <trkpt lat="45.86311" lon="3.55639">
        <ele>478.39</ele>
        <time>2014-12-06T23:17:01Z</time>
      </trkpt>
      <trkpt lat="45.86311" lon="3.55641">
        <ele>478.87</ele>
        <time>2014-12-06T23:17:02Z</time>
      </trkpt>
      <trkpt lat="45.86311" lon="3.55642">
        <ele>478.87</ele>
        <time>2014-12-06T23:17:03Z</time>
      </trkpt>
      <trkpt lat="45.8631" lon="3.55644">
        <ele>478.39</ele>
        <time>2014-12-06T23:17:04Z</time>
      </trkpt>
      <trkpt lat="45.86308" lon="3.55652">
        <ele>478.87</ele>
        <time>2014-12-06T23:17:08Z</time>
      </trkpt>
      <trkpt lat="45.86308" lon="3.55654">
        <ele>478.87</ele>
        <time>2014-12-06T23:17:09Z</time>
      </trkpt>
      <trkpt lat="45.86308" lon="3.55656">
        <ele>478.87</ele>
        <time>2014-12-06T23:17:10Z</time>
      </trkpt>
      <trkpt lat="45.86308" lon="3.55659">
        <ele>479.35</ele>
        <time>2014-12-06T23:17:11Z</time>
      </trkpt>
      <trkpt lat="45.86307" lon="3.55661">
        <ele>478.87</ele>
        <time>2014-12-06T23:17:12Z</time>
      </trkpt>
      <trkpt lat="45.86307" lon="3.55664">
        <ele>479.35</ele>
        <time>2014-12-06T23:17:13Z</time>
      </trkpt>
      <trkpt lat="45.86307" lon="3.55667">
        <ele>479.35</ele>
        <time>2014-12-06T23:17:14Z</time>
      </trkpt>
      <trkpt lat="45.86307" lon="3.5567">
        <ele>479.35</ele>
        <time>2014-12-06T23:17:15Z</time>
      </trkpt>
      <trkpt lat="45.86307" lon="3.55672">
        <ele>479.35</ele>
        <time>2014-12-06T23:17:16Z</time>
      </trkpt>
      <trkpt lat="45.86307" lon="3.55675">
        <ele>479.35</ele>
        <time>2014-12-06T23:17:17Z</time>
      </trkpt>
      <trkpt lat="45.86303" lon="3.55698">
        <ele>480.32</ele>
        <time>2014-12-06T23:17:27Z</time>
      </trkpt>
      <trkpt lat="45.86304" lon="3.55707">
        <ele>480.8</ele>
        <time>2014-12-06T23:17:31Z</time>
      </trkpt>
      <trkpt lat="45.86306" lon="3.55733">
        <ele>481.28</ele>
        <time>2014-12-06T23:17:42Z</time>
      </trkpt>
      <trkpt lat="45.86306" lon="3.55736">
        <ele>481.28</ele>
        <time>2014-12-06T23:17:43Z</time>
      </trkpt>
      <trkpt lat="45.86306" lon="3.55738">
        <ele>481.76</ele>
        <time>2014-12-06T23:17:44Z</time>
      </trkpt>
      <trkpt lat="45.86307" lon="3.5574">
        <ele>481.28</ele>
        <time>2014-12-06T23:17:45Z</time>
      </trkpt>
      <trkpt lat="45.86307" lon="3.55743">
        <ele>481.76</ele>
        <time>2014-12-06T23:17:46Z</time>
      </trkpt>
      <trkpt lat="45.86308" lon="3.55745">
        <ele>481.76</ele>
        <time>2014-12-06T23:17:47Z</time>
      </trkpt>
      <trkpt lat="45.86308" lon="3.55747">
        <ele>481.76</ele>
        <time>2014-12-06T23:17:48Z</time>
      </trkpt>
      <trkpt lat="45.86314" lon="3.55764">
        <ele>482.72</ele>
        <time>2014-12-06T23:17:55Z</time>
      </trkpt>
      <trkpt lat="45.86316" lon="3.55768">
        <ele>482.72</ele>
        <time>2014-12-06T23:17:57Z</time>
      </trkpt>
      <trkpt lat="45.86321" lon="3.55799">
        <ele>483.68</ele>
        <time>2014-12-06T23:18:09Z</time>
      </trkpt>
      <trkpt lat="45.86321" lon="3.55807">
        <ele>484.16</ele>
        <time>2014-12-06T23:18:12Z</time>
      </trkpt>
      <trkpt lat="45.8632" lon="3.55809">
        <ele>484.16</ele>
        <time>2014-12-06T23:18:13Z</time>
      </trkpt>
      <trkpt lat="45.8632" lon="3.55811">
        <ele>484.16</ele>
        <time>2014-12-06T23:18:14Z</time>
      </trkpt>
      <trkpt lat="45.86319" lon="3.55813">
        <ele>484.16</ele>
        <time>2014-12-06T23:18:15Z</time>
      </trkpt>
      <trkpt lat="45.86319" lon="3.55816">
        <ele>484.16</ele>
        <time>2014-12-06T23:18:16Z</time>
      </trkpt>
      <trkpt lat="45.86319" lon="3.55819">
        <ele>484.16</ele>
        <time>2014-12-06T23:18:17Z</time>
      </trkpt>
      <trkpt lat="45.86309" lon="3.55846">
        <ele>485.12</ele>
        <time>2014-12-06T23:18:29Z</time>
      </trkpt>
      <trkpt lat="45.86303" lon="3.55854">
        <ele>485.6</ele>
        <time>2014-12-06T23:18:34Z</time>
      </trkpt>
      <trkpt lat="45.86302" lon="3.55855">
        <ele>485.6</ele>
        <time>2014-12-06T23:18:35Z</time>
      </trkpt>
      <trkpt lat="45.86301" lon="3.55857">
        <ele>485.6</ele>
        <time>2014-12-06T23:18:36Z</time>
      </trkpt>
      <trkpt lat="45.8629" lon="3.5588">
        <ele>486.56</ele>
        <time>2014-12-06T23:18:48Z</time>
      </trkpt>
      <trkpt lat="45.86286" lon="3.55884">
        <ele>486.56</ele>
        <time>2014-12-06T23:18:51Z</time>
      </trkpt>
      <trkpt lat="45.86285" lon="3.55885">
        <ele>486.56</ele>
        <time>2014-12-06T23:18:52Z</time>
      </trkpt>
      <trkpt lat="45.86284" lon="3.55887">
        <ele>486.56</ele>
        <time>2014-12-06T23:18:53Z</time>
      </trkpt>
      <trkpt lat="45.86283" lon="3.55889">
        <ele>487.05</ele>
        <time>2014-12-06T23:18:54Z</time>
      </trkpt>
      <trkpt lat="45.86282" lon="3.55891">
        <ele>486.56</ele>
        <time>2014-12-06T23:18:55Z</time>
      </trkpt>
      <trkpt lat="45.8628" lon="3.55893">
        <ele>487.05</ele>
        <time>2014-12-06T23:18:56Z</time>
      </trkpt>
      <trkpt lat="45.8628" lon="3.55895">
        <ele>487.05</ele>
        <time>2014-12-06T23:18:57Z</time>
      </trkpt>
      <trkpt lat="45.86279" lon="3.55897">
        <ele>487.05</ele>
        <time>2014-12-06T23:18:58Z</time>
      </trkpt>
      <trkpt lat="45.86278" lon="3.55898">
        <ele>487.05</ele>
        <time>2014-12-06T23:18:59Z</time>
      </trkpt>
      <trkpt lat="45.86277" lon="3.55899">
        <ele>487.05</ele>
        <time>2014-12-06T23:19:00Z</time>
      </trkpt>
      <trkpt lat="45.86275" lon="3.55901">
        <ele>487.53</ele>
        <time>2014-12-06T23:19:01Z</time>
      </trkpt>
      <trkpt lat="45.86275" lon="3.55902">
        <ele>487.53</ele>
        <time>2014-12-06T23:19:02Z</time>
      </trkpt>
      <trkpt lat="45.86271" lon="3.55916">
        <ele>487.53</ele>
        <time>2014-12-06T23:19:08Z</time>
      </trkpt>
      <trkpt lat="45.86271" lon="3.55918">
        <ele>488.01</ele>
        <time>2014-12-06T23:19:09Z</time>
      </trkpt>
      <trkpt lat="45.86271" lon="3.55921">
        <ele>488.01</ele>
        <time>2014-12-06T23:19:10Z</time>
      </trkpt>
      <trkpt lat="45.8627" lon="3.55924">
        <ele>488.01</ele>
        <time>2014-12-06T23:19:11Z</time>
      </trkpt>
      <trkpt lat="45.8627" lon="3.55926">
        <ele>488.01</ele>
        <time>2014-12-06T23:19:12Z</time>
      </trkpt>
      <trkpt lat="45.8627" lon="3.55929">
        <ele>488.01</ele>
        <time>2014-12-06T23:19:13Z</time>
      </trkpt>
      <trkpt lat="45.86271" lon="3.55931">
        <ele>488.01</ele>
        <time>2014-12-06T23:19:14Z</time>
      </trkpt>
      <trkpt lat="45.86272" lon="3.55938">
        <ele>488.49</ele>
        <time>2014-12-06T23:19:18Z</time>
      </trkpt>
      <trkpt lat="45.86272" lon="3.55941">
        <ele>488.49</ele>
        <time>2014-12-06T23:19:19Z</time>
      </trkpt>
      <trkpt lat="45.86273" lon="3.55943">
        <ele>488.49</ele>
        <time>2014-12-06T23:19:20Z</time>
      </trkpt>
      <trkpt lat="45.86273" lon="3.55945">
        <ele>488.49</ele>
        <time>2014-12-06T23:19:21Z</time>
      </trkpt>
      <trkpt lat="45.86274" lon="3.55948">
        <ele>488.49</ele>
        <time>2014-12-06T23:19:22Z</time>
      </trkpt>
      <trkpt lat="45.86282" lon="3.55973">
        <ele>489.93</ele>
        <time>2014-12-06T23:19:35Z</time>
      </trkpt>
      <trkpt lat="45.86293" lon="3.55993">
        <ele>490.89</ele>
        <time>2014-12-06T23:19:47Z</time>
      </trkpt>
      <trkpt lat="45.86309" lon="3.56007">
        <ele>491.85</ele>
        <time>2014-12-06T23:19:59Z</time>
      </trkpt>
      <trkpt lat="45.86326" lon="3.56021">
        <ele>492.81</ele>
        <time>2014-12-06T23:20:12Z</time>
      </trkpt>
      <trkpt lat="45.86327" lon="3.56021">
        <ele>493.29</ele>
        <time>2014-12-06T23:20:13Z</time>
      </trkpt>
      <trkpt lat="45.86347" lon="3.56035">
        <ele>494.26</ele>
        <time>2014-12-06T23:20:26Z</time>
      </trkpt>
      <trkpt lat="45.86348" lon="3.56036">
        <ele>494.74</ele>
        <time>2014-12-06T23:20:27Z</time>
      </trkpt>
      <trkpt lat="45.8635" lon="3.56037">
        <ele>494.26</ele>
        <time>2014-12-06T23:20:28Z</time>
      </trkpt>
      <trkpt lat="45.86351" lon="3.56038">
        <ele>494.26</ele>
        <time>2014-12-06T23:20:29Z</time>
      </trkpt>
      <trkpt lat="45.86353" lon="3.5604">
        <ele>494.26</ele>
        <time>2014-12-06T23:20:30Z</time>
      </trkpt>
      <trkpt lat="45.86354" lon="3.56041">
        <ele>494.74</ele>
        <time>2014-12-06T23:20:31Z</time>
      </trkpt>
      <trkpt lat="45.86355" lon="3.56042">
        <ele>494.74</ele>
        <time>2014-12-06T23:20:32Z</time>
      </trkpt>
      <trkpt lat="45.86372" lon="3.56047">
        <ele>495.7</ele>
        <time>2014-12-06T23:20:44Z</time>
      </trkpt>
      <trkpt lat="45.86373" lon="3.56048">
        <ele>495.7</ele>
        <time>2014-12-06T23:20:45Z</time>
      </trkpt>
      <trkpt lat="45.86375" lon="3.56049">
        <ele>496.18</ele>
        <time>2014-12-06T23:20:46Z</time>
      </trkpt>
      <trkpt lat="45.86377" lon="3.56049">
        <ele>496.18</ele>
        <time>2014-12-06T23:20:47Z</time>
      </trkpt>
      <trkpt lat="45.86378" lon="3.5605">
        <ele>496.18</ele>
        <time>2014-12-06T23:20:48Z</time>
      </trkpt>
      <trkpt lat="45.8638" lon="3.5605">
        <ele>496.18</ele>
        <time>2014-12-06T23:20:49Z</time>
      </trkpt>
      <trkpt lat="45.86381" lon="3.5605">
        <ele>496.18</ele>
        <time>2014-12-06T23:20:50Z</time>
      </trkpt>
      <trkpt lat="45.86382" lon="3.5605">
        <ele>496.18</ele>
        <time>2014-12-06T23:20:51Z</time>
      </trkpt>
      <trkpt lat="45.86384" lon="3.56051">
        <ele>496.66</ele>
        <time>2014-12-06T23:20:52Z</time>
      </trkpt>
      <trkpt lat="45.86385" lon="3.56053">
        <ele>496.66</ele>
        <time>2014-12-06T23:20:53Z</time>
      </trkpt>
      <trkpt lat="45.86386" lon="3.56054">
        <ele>496.66</ele>
        <time>2014-12-06T23:20:54Z</time>
      </trkpt>
      <trkpt lat="45.86392" lon="3.56058">
        <ele>497.14</ele>
        <time>2014-12-06T23:20:58Z</time>
      </trkpt>
      <trkpt lat="45.86396" lon="3.56058">
        <ele>497.62</ele>
        <time>2014-12-06T23:21:01Z</time>
      </trkpt>
      <trkpt lat="45.86397" lon="3.56059">
        <ele>497.62</ele>
        <time>2014-12-06T23:21:02Z</time>
      </trkpt>
      <trkpt lat="45.86398" lon="3.5606">
        <ele>497.62</ele>
        <time>2014-12-06T23:21:03Z</time>
      </trkpt>
      <trkpt lat="45.864" lon="3.56061">
        <ele>497.14</ele>
        <time>2014-12-06T23:21:04Z</time>
      </trkpt>
      <trkpt lat="45.86402" lon="3.56062">
        <ele>497.62</ele>
        <time>2014-12-06T23:21:05Z</time>
      </trkpt>
      <trkpt lat="45.86406" lon="3.56064">
        <ele>498.1</ele>
        <time>2014-12-06T23:21:08Z</time>
      </trkpt>
      <trkpt lat="45.86415" lon="3.56066">
        <ele>498.58</ele>
        <time>2014-12-06T23:21:14Z</time>
      </trkpt>
      <trkpt lat="45.86417" lon="3.56068">
        <ele>498.58</ele>
        <time>2014-12-06T23:21:15Z</time>
      </trkpt>
      <trkpt lat="45.86418" lon="3.5607">
        <ele>498.58</ele>
        <time>2014-12-06T23:21:16Z</time>
      </trkpt>
      <trkpt lat="45.86432" lon="3.56083">
        <ele>499.54</ele>
        <time>2014-12-06T23:21:26Z</time>
      </trkpt>
      <trkpt lat="45.86442" lon="3.56091">
        <ele>500.02</ele>
        <time>2014-12-06T23:21:32Z</time>
      </trkpt>
      <trkpt lat="45.86443" lon="3.56092">
        <ele>500.02</ele>
        <time>2014-12-06T23:21:33Z</time>
      </trkpt>
      <trkpt lat="45.86445" lon="3.56094">
        <ele>500.02</ele>
        <time>2014-12-06T23:21:34Z</time>
      </trkpt>
      <trkpt lat="45.86461" lon="3.561">
        <ele>500.98</ele>
        <time>2014-12-06T23:21:45Z</time>
      </trkpt>
      <trkpt lat="45.8648" lon="3.56111">
        <ele>502.43</ele>
        <time>2014-12-06T23:21:57Z</time>
      </trkpt>
      <trkpt lat="45.86497" lon="3.56115">
        <ele>503.39</ele>
        <time>2014-12-06T23:22:08Z</time>
      </trkpt>
      <trkpt lat="45.86515" lon="3.56115">
        <ele>504.35</ele>
        <time>2014-12-06T23:22:20Z</time>
      </trkpt>
      <trkpt lat="45.86516" lon="3.56115">
        <ele>504.35</ele>
        <time>2014-12-06T23:22:21Z</time>
      </trkpt>
      <trkpt lat="45.86518" lon="3.56116">
        <ele>504.83</ele>
        <time>2014-12-06T23:22:22Z</time>
      </trkpt>
      <trkpt lat="45.86519" lon="3.56116">
        <ele>504.83</ele>
        <time>2014-12-06T23:22:23Z</time>
      </trkpt>
      <trkpt lat="45.86521" lon="3.56117">
        <ele>505.31</ele>
        <time>2014-12-06T23:22:24Z</time>
      </trkpt>
      <trkpt lat="45.86522" lon="3.56117">
        <ele>504.83</ele>
        <time>2014-12-06T23:22:25Z</time>
      </trkpt>
      <trkpt lat="45.86523" lon="3.56117">
        <ele>505.31</ele>
        <time>2014-12-06T23:22:26Z</time>
      </trkpt>
      <trkpt lat="45.86526" lon="3.56117">
        <ele>505.31</ele>
        <time>2014-12-06T23:22:28Z</time>
      </trkpt>
      <trkpt lat="45.86528" lon="3.56118">
        <ele>505.79</ele>
        <time>2014-12-06T23:22:29Z</time>
      </trkpt>
      <trkpt lat="45.86529" lon="3.56118">
        <ele>505.79</ele>
        <time>2014-12-06T23:22:30Z</time>
      </trkpt>
      <trkpt lat="45.86531" lon="3.56119">
        <ele>505.79</ele>
        <time>2014-12-06T23:22:31Z</time>
      </trkpt>
      <trkpt lat="45.86545" lon="3.56122">
        <ele>506.27</ele>
        <time>2014-12-06T23:22:40Z</time>
      </trkpt>
      <trkpt lat="45.86548" lon="3.56125">
        <ele>506.27</ele>
        <time>2014-12-06T23:22:42Z</time>
      </trkpt>
      <trkpt lat="45.86549" lon="3.56126">
        <ele>506.27</ele>
        <time>2014-12-06T23:22:43Z</time>
      </trkpt>
      <trkpt lat="45.8655" lon="3.56127">
        <ele>506.27</ele>
        <time>2014-12-06T23:22:44Z</time>
      </trkpt>
      <trkpt lat="45.86552" lon="3.56129">
        <ele>506.27</ele>
        <time>2014-12-06T23:22:45Z</time>
      </trkpt>
      <trkpt lat="45.86553" lon="3.5613">
        <ele>506.27</ele>
        <time>2014-12-06T23:22:46Z</time>
      </trkpt>
      <trkpt lat="45.86555" lon="3.56131">
        <ele>506.27</ele>
        <time>2014-12-06T23:22:47Z</time>
      </trkpt>
      <trkpt lat="45.86556" lon="3.56132">
        <ele>506.75</ele>
        <time>2014-12-06T23:22:48Z</time>
      </trkpt>
      <trkpt lat="45.86558" lon="3.56132">
        <ele>506.27</ele>
        <time>2014-12-06T23:22:49Z</time>
      </trkpt>
      <trkpt lat="45.86559" lon="3.56133">
        <ele>506.75</ele>
        <time>2014-12-06T23:22:50Z</time>
      </trkpt>
      <trkpt lat="45.8656" lon="3.56134">
        <ele>506.75</ele>
        <time>2014-12-06T23:22:51Z</time>
      </trkpt>
      <trkpt lat="45.86562" lon="3.56134">
        <ele>506.75</ele>
        <time>2014-12-06T23:22:52Z</time>
      </trkpt>
      <trkpt lat="45.86564" lon="3.56134">
        <ele>506.75</ele>
        <time>2014-12-06T23:22:53Z</time>
      </trkpt>
      <trkpt lat="45.86572" lon="3.56135">
        <ele>507.23</ele>
        <time>2014-12-06T23:22:58Z</time>
      </trkpt>
      <trkpt lat="45.86574" lon="3.56134">
        <ele>507.71</ele>
        <time>2014-12-06T23:22:59Z</time>
      </trkpt>
      <trkpt lat="45.86575" lon="3.56135">
        <ele>507.71</ele>
        <time>2014-12-06T23:23:00Z</time>
      </trkpt>
      <trkpt lat="45.86579" lon="3.56137">
        <ele>508.19</ele>
        <time>2014-12-06T23:23:03Z</time>
      </trkpt>
      <trkpt lat="45.86581" lon="3.56136">
        <ele>508.19</ele>
        <time>2014-12-06T23:23:04Z</time>
      </trkpt>
      <trkpt lat="45.86587" lon="3.56134">
        <ele>508.19</ele>
        <time>2014-12-06T23:23:08Z</time>
      </trkpt>
      <trkpt lat="45.86588" lon="3.56133">
        <ele>508.67</ele>
        <time>2014-12-06T23:23:09Z</time>
      </trkpt>
      <trkpt lat="45.86605" lon="3.56137">
        <ele>509.64</ele>
        <time>2014-12-06T23:23:19Z</time>
      </trkpt>
      <trkpt lat="45.86607" lon="3.56137">
        <ele>509.16</ele>
        <time>2014-12-06T23:23:20Z</time>
      </trkpt>
      <trkpt lat="45.86609" lon="3.56138">
        <ele>509.16</ele>
        <time>2014-12-06T23:23:21Z</time>
      </trkpt>
      <trkpt lat="45.8661" lon="3.56139">
        <ele>509.64</ele>
        <time>2014-12-06T23:23:22Z</time>
      </trkpt>
      <trkpt lat="45.86612" lon="3.5614">
        <ele>509.16</ele>
        <time>2014-12-06T23:23:23Z</time>
      </trkpt>
      <trkpt lat="45.86613" lon="3.56142">
        <ele>509.64</ele>
        <time>2014-12-06T23:23:24Z</time>
      </trkpt>
      <trkpt lat="45.86614" lon="3.56144">
        <ele>509.64</ele>
        <time>2014-12-06T23:23:25Z</time>
      </trkpt>
      <trkpt lat="45.86616" lon="3.56145">
        <ele>509.64</ele>
        <time>2014-12-06T23:23:26Z</time>
      </trkpt>
      <trkpt lat="45.86617" lon="3.56147">
        <ele>509.64</ele>
        <time>2014-12-06T23:23:27Z</time>
      </trkpt>
      <trkpt lat="45.86619" lon="3.56148">
        <ele>509.64</ele>
        <time>2014-12-06T23:23:28Z</time>
      </trkpt>
      <trkpt lat="45.8662" lon="3.56149">
        <ele>510.12</ele>
        <time>2014-12-06T23:23:29Z</time>
      </trkpt>
      <trkpt lat="45.86625" lon="3.56151">
        <ele>510.12</ele>
        <time>2014-12-06T23:23:32Z</time>
      </trkpt>
      <trkpt lat="45.86638" lon="3.56156">
        <ele>510.6</ele>
        <time>2014-12-06T23:23:40Z</time>
      </trkpt>
      <trkpt lat="45.86639" lon="3.56156">
        <ele>511.08</ele>
        <time>2014-12-06T23:23:41Z</time>
      </trkpt>
      <trkpt lat="45.86641" lon="3.56156">
        <ele>511.08</ele>
        <time>2014-12-06T23:23:42Z</time>
      </trkpt>
      <trkpt lat="45.86648" lon="3.56158">
        <ele>511.56</ele>
        <time>2014-12-06T23:23:47Z</time>
      </trkpt>
      <trkpt lat="45.86649" lon="3.56159">
        <ele>511.56</ele>
        <time>2014-12-06T23:23:48Z</time>
      </trkpt>
      <trkpt lat="45.86655" lon="3.56163">
        <ele>511.56</ele>
        <time>2014-12-06T23:23:52Z</time>
      </trkpt>
      <trkpt lat="45.86656" lon="3.56165">
        <ele>511.56</ele>
        <time>2014-12-06T23:23:53Z</time>
      </trkpt>
      <trkpt lat="45.86657" lon="3.56166">
        <ele>511.56</ele>
        <time>2014-12-06T23:23:54Z</time>
      </trkpt>
      <trkpt lat="45.86658" lon="3.56168">
        <ele>512.04</ele>
        <time>2014-12-06T23:23:55Z</time>
      </trkpt>
      <trkpt lat="45.8667" lon="3.56185">
        <ele>512.52</ele>
        <time>2014-12-06T23:24:05Z</time>
      </trkpt>
      <trkpt lat="45.86671" lon="3.56187">
        <ele>513</ele>
        <time>2014-12-06T23:24:06Z</time>
      </trkpt>
      <trkpt lat="45.86673" lon="3.56188">
        <ele>513</ele>
        <time>2014-12-06T23:24:07Z</time>
      </trkpt>
      <trkpt lat="45.86674" lon="3.5619">
        <ele>513</ele>
        <time>2014-12-06T23:24:08Z</time>
      </trkpt>
      <trkpt lat="45.86675" lon="3.56191">
        <ele>513</ele>
        <time>2014-12-06T23:24:09Z</time>
      </trkpt>
      <trkpt lat="45.86676" lon="3.56192">
        <ele>513.48</ele>
        <time>2014-12-06T23:24:10Z</time>
      </trkpt>
      <trkpt lat="45.86678" lon="3.56193">
        <ele>513</ele>
        <time>2014-12-06T23:24:11Z</time>
      </trkpt>
      <trkpt lat="45.86679" lon="3.56195">
        <ele>513.48</ele>
        <time>2014-12-06T23:24:12Z</time>
      </trkpt>
      <trkpt lat="45.8668" lon="3.56197">
        <ele>513.48</ele>
        <time>2014-12-06T23:24:13Z</time>
      </trkpt>
      <trkpt lat="45.86681" lon="3.56198">
        <ele>513.48</ele>
        <time>2014-12-06T23:24:14Z</time>
      </trkpt>
      <trkpt lat="45.86683" lon="3.562">
        <ele>513.48</ele>
        <time>2014-12-06T23:24:16Z</time>
      </trkpt>
      <trkpt lat="45.86686" lon="3.56206">
        <ele>513.96</ele>
        <time>2014-12-06T23:24:19Z</time>
      </trkpt>
      <trkpt lat="45.86686" lon="3.56213">
        <ele>514.44</ele>
        <time>2014-12-06T23:24:23Z</time>
      </trkpt>
      <trkpt lat="45.86689" lon="3.56216">
        <ele>514.44</ele>
        <time>2014-12-06T23:24:26Z</time>
      </trkpt>
      <trkpt lat="45.86691" lon="3.56217">
        <ele>514.92</ele>
        <time>2014-12-06T23:24:27Z</time>
      </trkpt>
      <trkpt lat="45.86693" lon="3.56218">
        <ele>514.92</ele>
        <time>2014-12-06T23:24:28Z</time>
      </trkpt>
      <trkpt lat="45.86694" lon="3.56219">
        <ele>514.92</ele>
        <time>2014-12-06T23:24:29Z</time>
      </trkpt>
      <trkpt lat="45.86696" lon="3.5622">
        <ele>514.92</ele>
        <time>2014-12-06T23:24:30Z</time>
      </trkpt>
      <trkpt lat="45.86697" lon="3.56222">
        <ele>514.92</ele>
        <time>2014-12-06T23:24:31Z</time>
      </trkpt>
      <trkpt lat="45.86698" lon="3.56224">
        <ele>514.92</ele>
        <time>2014-12-06T23:24:32Z</time>
      </trkpt>
      <trkpt lat="45.86699" lon="3.56225">
        <ele>514.92</ele>
        <time>2014-12-06T23:24:33Z</time>
      </trkpt>
      <trkpt lat="45.867" lon="3.56227">
        <ele>515.4</ele>
        <time>2014-12-06T23:24:34Z</time>
      </trkpt>
      <trkpt lat="45.86701" lon="3.56228">
        <ele>515.4</ele>
        <time>2014-12-06T23:24:35Z</time>
      </trkpt>
      <trkpt lat="45.86709" lon="3.56246">
        <ele>515.88</ele>
        <time>2014-12-06T23:24:44Z</time>
      </trkpt>
      <trkpt lat="45.86709" lon="3.56248">
        <ele>515.88</ele>
        <time>2014-12-06T23:24:45Z</time>
      </trkpt>
      <trkpt lat="45.86712" lon="3.56271">
        <ele>516.85</ele>
        <time>2014-12-06T23:24:55Z</time>
      </trkpt>
      <trkpt lat="45.86711" lon="3.56273">
        <ele>516.85</ele>
        <time>2014-12-06T23:24:56Z</time>
      </trkpt>
      <trkpt lat="45.86709" lon="3.56284">
        <ele>517.33</ele>
        <time>2014-12-06T23:25:01Z</time>
      </trkpt>
      <trkpt lat="45.86708" lon="3.56285">
        <ele>517.81</ele>
        <time>2014-12-06T23:25:02Z</time>
      </trkpt>
      <trkpt lat="45.86705" lon="3.56288">
        <ele>517.81</ele>
        <time>2014-12-06T23:25:04Z</time>
      </trkpt>
      <trkpt lat="45.86704" lon="3.56289">
        <ele>518.29</ele>
        <time>2014-12-06T23:25:05Z</time>
      </trkpt>
      <trkpt lat="45.86703" lon="3.5629">
        <ele>518.29</ele>
        <time>2014-12-06T23:25:06Z</time>
      </trkpt>
      <trkpt lat="45.86691" lon="3.56291">
        <ele>519.25</ele>
        <time>2014-12-06T23:25:17Z</time>
      </trkpt>
      <trkpt lat="45.86682" lon="3.56287">
        <ele>519.73</ele>
        <time>2014-12-06T23:25:26Z</time>
      </trkpt>
      <trkpt lat="45.86671" lon="3.56288">
        <ele>520.69</ele>
        <time>2014-12-06T23:25:32Z</time>
      </trkpt>
      <trkpt lat="45.86668" lon="3.56288">
        <ele>520.69</ele>
        <time>2014-12-06T23:25:33Z</time>
      </trkpt>
      <trkpt lat="45.86667" lon="3.56287">
        <ele>520.69</ele>
        <time>2014-12-06T23:25:34Z</time>
      </trkpt>
      <trkpt lat="45.86665" lon="3.56286">
        <ele>520.69</ele>
        <time>2014-12-06T23:25:35Z</time>
      </trkpt>
      <trkpt lat="45.86663" lon="3.56286">
        <ele>520.69</ele>
        <time>2014-12-06T23:25:36Z</time>
      </trkpt>
      <trkpt lat="45.86662" lon="3.56286">
        <ele>520.69</ele>
        <time>2014-12-06T23:25:37Z</time>
      </trkpt>
      <trkpt lat="45.86658" lon="3.56288">
        <ele>520.69</ele>
        <time>2014-12-06T23:25:39Z</time>
      </trkpt>
      <trkpt lat="45.86656" lon="3.56289">
        <ele>521.17</ele>
        <time>2014-12-06T23:25:40Z</time>
      </trkpt>
      <trkpt lat="45.86654" lon="3.5629">
        <ele>521.17</ele>
        <time>2014-12-06T23:25:41Z</time>
      </trkpt>
      <trkpt lat="45.86652" lon="3.5629">
        <ele>521.17</ele>
        <time>2014-12-06T23:25:42Z</time>
      </trkpt>
      <trkpt lat="45.86651" lon="3.5629">
        <ele>521.65</ele>
        <time>2014-12-06T23:25:43Z</time>
      </trkpt>
      <trkpt lat="45.86649" lon="3.56291">
        <ele>521.17</ele>
        <time>2014-12-06T23:25:44Z</time>
      </trkpt>
      <trkpt lat="45.86639" lon="3.56297">
        <ele>521.65</ele>
        <time>2014-12-06T23:25:49Z</time>
      </trkpt>
      <trkpt lat="45.86638" lon="3.56299">
        <ele>521.65</ele>
        <time>2014-12-06T23:25:50Z</time>
      </trkpt>
      <trkpt lat="45.86637" lon="3.563">
        <ele>522.13</ele>
        <time>2014-12-06T23:25:51Z</time>
      </trkpt>
      <trkpt lat="45.86635" lon="3.56301">
        <ele>521.65</ele>
        <time>2014-12-06T23:25:52Z</time>
      </trkpt>
      <trkpt lat="45.86633" lon="3.56301">
        <ele>522.13</ele>
        <time>2014-12-06T23:25:53Z</time>
      </trkpt>
      <trkpt lat="45.86632" lon="3.56301">
        <ele>522.13</ele>
        <time>2014-12-06T23:25:54Z</time>
      </trkpt>
      <trkpt lat="45.86631" lon="3.56302">
        <ele>522.13</ele>
        <time>2014-12-06T23:25:55Z</time>
      </trkpt>
      <trkpt lat="45.86628" lon="3.56304">
        <ele>522.13</ele>
        <time>2014-12-06T23:25:56Z</time>
      </trkpt>
      <trkpt lat="45.86626" lon="3.56306">
        <ele>522.61</ele>
        <time>2014-12-06T23:25:57Z</time>
      </trkpt>
      <trkpt lat="45.86625" lon="3.56307">
        <ele>522.61</ele>
        <time>2014-12-06T23:25:58Z</time>
      </trkpt>
      <trkpt lat="45.86623" lon="3.56307">
        <ele>522.61</ele>
        <time>2014-12-06T23:26:00Z</time>
      </trkpt>
      <trkpt lat="45.86609" lon="3.56322">
        <ele>523.09</ele>
        <time>2014-12-06T23:26:11Z</time>
      </trkpt>
      <trkpt lat="45.86606" lon="3.56324">
        <ele>523.58</ele>
        <time>2014-12-06T23:26:13Z</time>
      </trkpt>
      <trkpt lat="45.86602" lon="3.56328">
        <ele>524.06</ele>
        <time>2014-12-06T23:26:18Z</time>
      </trkpt>
      <trkpt lat="45.866" lon="3.56329">
        <ele>524.06</ele>
        <time>2014-12-06T23:26:19Z</time>
      </trkpt>
      <trkpt lat="45.86598" lon="3.56332">
        <ele>524.06</ele>
        <time>2014-12-06T23:26:20Z</time>
      </trkpt>
      <trkpt lat="45.8658" lon="3.56354">
        <ele>525.02</ele>
        <time>2014-12-06T23:26:32Z</time>
      </trkpt>
      <trkpt lat="45.86564" lon="3.56371">
        <ele>525.98</ele>
        <time>2014-12-06T23:26:44Z</time>
      </trkpt>
      <trkpt lat="45.86562" lon="3.56375">
        <ele>525.98</ele>
        <time>2014-12-06T23:26:46Z</time>
      </trkpt>
      <trkpt lat="45.86559" lon="3.56378">
        <ele>525.98</ele>
        <time>2014-12-06T23:26:48Z</time>
      </trkpt>
      <trkpt lat="45.86552" lon="3.56389">
        <ele>526.46</ele>
        <time>2014-12-06T23:26:54Z</time>
      </trkpt>
      <trkpt lat="45.86536" lon="3.5641">
        <ele>527.9</ele>
        <time>2014-12-06T23:27:08Z</time>
      </trkpt>
      <trkpt lat="45.86524" lon="3.56431">
        <ele>528.86</ele>
        <time>2014-12-06T23:27:20Z</time>
      </trkpt>
      <trkpt lat="45.86515" lon="3.56459">
        <ele>529.82</ele>
        <time>2014-12-06T23:27:31Z</time>
      </trkpt>
      <trkpt lat="45.86511" lon="3.56488">
        <ele>530.79</ele>
        <time>2014-12-06T23:27:43Z</time>
      </trkpt>
      <trkpt lat="45.86518" lon="3.56514">
        <ele>531.75</ele>
        <time>2014-12-06T23:27:55Z</time>
      </trkpt>
      <trkpt lat="45.86522" lon="3.56518">
        <ele>532.23</ele>
        <time>2014-12-06T23:27:58Z</time>
      </trkpt>
      <trkpt lat="45.86546" lon="3.56517">
        <ele>533.19</ele>
        <time>2014-12-06T23:28:12Z</time>
      </trkpt>
      <trkpt lat="45.86561" lon="3.56515">
        <ele>534.15</ele>
        <time>2014-12-06T23:28:22Z</time>
      </trkpt>
      <trkpt lat="45.86567" lon="3.56515">
        <ele>534.63</ele>
        <time>2014-12-06T23:28:26Z</time>
      </trkpt>
      <trkpt lat="45.86587" lon="3.5652">
        <ele>536.07</ele>
        <time>2014-12-06T23:28:38Z</time>
      </trkpt>
      <trkpt lat="45.86595" lon="3.56517">
        <ele>536.07</ele>
        <time>2014-12-06T23:28:43Z</time>
      </trkpt>
      <trkpt lat="45.86602" lon="3.56519">
        <ele>536.55</ele>
        <time>2014-12-06T23:28:48Z</time>
      </trkpt>
      <trkpt lat="45.86621" lon="3.56525">
        <ele>537.51</ele>
        <time>2014-12-06T23:29:00Z</time>
      </trkpt>
      <trkpt lat="45.86631" lon="3.56536">
        <ele>537.99</ele>
        <time>2014-12-06T23:29:07Z</time>
      </trkpt>
      <trkpt lat="45.86635" lon="3.56545">
        <ele>538.48</ele>
        <time>2014-12-06T23:29:12Z</time>
      </trkpt>
      <trkpt lat="45.86638" lon="3.56556">
        <ele>538.96</ele>
        <time>2014-12-06T23:29:17Z</time>
      </trkpt>
      <trkpt lat="45.86641" lon="3.56566">
        <ele>538.96</ele>
        <time>2014-12-06T23:29:22Z</time>
      </trkpt>
      <trkpt lat="45.86651" lon="3.56592">
        <ele>540.4</ele>
        <time>2014-12-06T23:29:34Z</time>
      </trkpt>
      <trkpt lat="45.86652" lon="3.56594">
        <ele>540.4</ele>
        <time>2014-12-06T23:29:35Z</time>
      </trkpt>
      <trkpt lat="45.86657" lon="3.56607">
        <ele>540.88</ele>
        <time>2014-12-06T23:29:40Z</time>
      </trkpt>
      <trkpt lat="45.86666" lon="3.56618">
        <ele>541.36</ele>
        <time>2014-12-06T23:29:47Z</time>
      </trkpt>
      <trkpt lat="45.86683" lon="3.5662">
        <ele>542.8</ele>
        <time>2014-12-06T23:29:59Z</time>
      </trkpt>
      <trkpt lat="45.86695" lon="3.56623">
        <ele>543.28</ele>
        <time>2014-12-06T23:30:06Z</time>
      </trkpt>
      <trkpt lat="45.86702" lon="3.56624">
        <ele>543.28</ele>
        <time>2014-12-06T23:30:10Z</time>
      </trkpt>
      <trkpt lat="45.86711" lon="3.56627">
        <ele>543.76</ele>
        <time>2014-12-06T23:30:15Z</time>
      </trkpt>
      <trkpt lat="45.8673" lon="3.56628">
        <ele>545.2</ele>
        <time>2014-12-06T23:30:27Z</time>
      </trkpt>
      <trkpt lat="45.86745" lon="3.56629">
        <ele>545.69</ele>
        <time>2014-12-06T23:30:36Z</time>
      </trkpt>
      <trkpt lat="45.86753" lon="3.56627">
        <ele>546.17</ele>
        <time>2014-12-06T23:30:41Z</time>
      </trkpt>
      <trkpt lat="45.86763" lon="3.56632">
        <ele>546.65</ele>
        <time>2014-12-06T23:30:48Z</time>
      </trkpt>
      <trkpt lat="45.86781" lon="3.56632">
        <ele>547.61</ele>
        <time>2014-12-06T23:31:00Z</time>
      </trkpt>
      <trkpt lat="45.86805" lon="3.56634">
        <ele>548.57</ele>
        <time>2014-12-06T23:31:16Z</time>
      </trkpt>
      <trkpt lat="45.86826" lon="3.56638">
        <ele>550.01</ele>
        <time>2014-12-06T23:31:28Z</time>
      </trkpt>
      <trkpt lat="45.86837" lon="3.56638">
        <ele>550.01</ele>
        <time>2014-12-06T23:31:35Z</time>
      </trkpt>
      <trkpt lat="45.86844" lon="3.56641">
        <ele>550.49</ele>
        <time>2014-12-06T23:31:39Z</time>
      </trkpt>
      <trkpt lat="45.86864" lon="3.56652">
        <ele>551.45</ele>
        <time>2014-12-06T23:31:52Z</time>
      </trkpt>
      <trkpt lat="45.86879" lon="3.56656">
        <ele>552.41</ele>
        <time>2014-12-06T23:32:02Z</time>
      </trkpt>
      <trkpt lat="45.86887" lon="3.56662">
        <ele>552.9</ele>
        <time>2014-12-06T23:32:08Z</time>
      </trkpt>
      <trkpt lat="45.869" lon="3.56671">
        <ele>553.86</ele>
        <time>2014-12-06T23:32:16Z</time>
      </trkpt>
      <trkpt lat="45.86906" lon="3.56678">
        <ele>553.86</ele>
        <time>2014-12-06T23:32:20Z</time>
      </trkpt>
      <trkpt lat="45.86908" lon="3.5668">
        <ele>553.86</ele>
        <time>2014-12-06T23:32:22Z</time>
      </trkpt>
      <trkpt lat="45.86919" lon="3.56695">
        <ele>554.82</ele>
        <time>2014-12-06T23:32:33Z</time>
      </trkpt>
      <trkpt lat="45.8693" lon="3.56706">
        <ele>555.3</ele>
        <time>2014-12-06T23:32:40Z</time>
      </trkpt>
      <trkpt lat="45.86933" lon="3.56711">
        <ele>555.78</ele>
        <time>2014-12-06T23:32:43Z</time>
      </trkpt>
      <trkpt lat="45.86951" lon="3.56729">
        <ele>556.26</ele>
        <time>2014-12-06T23:32:56Z</time>
      </trkpt>
      <trkpt lat="45.86968" lon="3.56741">
        <ele>557.22</ele>
        <time>2014-12-06T23:33:08Z</time>
      </trkpt>
      <trkpt lat="45.86971" lon="3.56743">
        <ele>557.7</ele>
        <time>2014-12-06T23:33:10Z</time>
      </trkpt>
      <trkpt lat="45.86974" lon="3.56744">
        <ele>557.7</ele>
        <time>2014-12-06T23:33:12Z</time>
      </trkpt>
      <trkpt lat="45.86977" lon="3.56746">
        <ele>557.7</ele>
        <time>2014-12-06T23:33:14Z</time>
      </trkpt>
      <trkpt lat="45.86986" lon="3.56746">
        <ele>558.66</ele>
        <time>2014-12-06T23:33:19Z</time>
      </trkpt>
      <trkpt lat="45.87005" lon="3.56744">
        <ele>559.62</ele>
        <time>2014-12-06T23:33:31Z</time>
      </trkpt>
      <trkpt lat="45.87027" lon="3.56744">
        <ele>560.59</ele>
        <time>2014-12-06T23:33:44Z</time>
      </trkpt>
      <trkpt lat="45.87039" lon="3.56746">
        <ele>561.07</ele>
        <time>2014-12-06T23:33:51Z</time>
      </trkpt>
      <trkpt lat="45.87048" lon="3.56746">
        <ele>562.03</ele>
        <time>2014-12-06T23:33:57Z</time>
      </trkpt>
      <trkpt lat="45.87061" lon="3.56743">
        <ele>562.51</ele>
        <time>2014-12-06T23:34:05Z</time>
      </trkpt>
      <trkpt lat="45.8707" lon="3.56744">
        <ele>562.99</ele>
        <time>2014-12-06T23:34:10Z</time>
      </trkpt>
      <trkpt lat="45.87088" lon="3.56755">
        <ele>563.95</ele>
        <time>2014-12-06T23:34:24Z</time>
      </trkpt>
      <trkpt lat="45.8709" lon="3.56758">
        <ele>564.43</ele>
        <time>2014-12-06T23:34:26Z</time>
      </trkpt>
      <trkpt lat="45.871" lon="3.56769">
        <ele>564.91</ele>
        <time>2014-12-06T23:34:34Z</time>
      </trkpt>
      <trkpt lat="45.87118" lon="3.56789">
        <ele>565.87</ele>
        <time>2014-12-06T23:34:47Z</time>
      </trkpt>
      <trkpt lat="45.87123" lon="3.56794">
        <ele>566.35</ele>
        <time>2014-12-06T23:34:51Z</time>
      </trkpt>
      <trkpt lat="45.87134" lon="3.56819">
        <ele>567.8</ele>
        <time>2014-12-06T23:35:05Z</time>
      </trkpt>
      <trkpt lat="45.8714" lon="3.5683">
        <ele>568.28</ele>
        <time>2014-12-06T23:35:11Z</time>
      </trkpt>
      <trkpt lat="45.87153" lon="3.56852">
        <ele>568.76</ele>
        <time>2014-12-06T23:35:23Z</time>
      </trkpt>
      <trkpt lat="45.87165" lon="3.56873">
        <ele>569.72</ele>
        <time>2014-12-06T23:35:34Z</time>
      </trkpt>
      <trkpt lat="45.87171" lon="3.56881">
        <ele>569.72</ele>
        <time>2014-12-06T23:35:39Z</time>
      </trkpt>
      <trkpt lat="45.87183" lon="3.56897">
        <ele>571.16</ele>
        <time>2014-12-06T23:35:49Z</time>
      </trkpt>
      <trkpt lat="45.87206" lon="3.56919">
        <ele>572.12</ele>
        <time>2014-12-06T23:36:06Z</time>
      </trkpt>
      <trkpt lat="45.87208" lon="3.5692">
        <ele>572.6</ele>
        <time>2014-12-06T23:36:07Z</time>
      </trkpt>
      <trkpt lat="45.87216" lon="3.56927">
        <ele>573.08</ele>
        <time>2014-12-06T23:36:12Z</time>
      </trkpt>
      <trkpt lat="45.87228" lon="3.56934">
        <ele>573.08</ele>
        <time>2014-12-06T23:36:20Z</time>
      </trkpt>
      <trkpt lat="45.87247" lon="3.5695">
        <ele>573.08</ele>
        <time>2014-12-06T23:36:32Z</time>
      </trkpt>
      <trkpt lat="45.87263" lon="3.56971">
        <ele>573.56</ele>
        <time>2014-12-06T23:36:46Z</time>
      </trkpt>
      <trkpt lat="45.87273" lon="3.56996">
        <ele>574.04</ele>
        <time>2014-12-06T23:36:58Z</time>
      </trkpt>
      <trkpt lat="45.87275" lon="3.57006">
        <ele>574.04</ele>
        <time>2014-12-06T23:37:02Z</time>
      </trkpt>
      <trkpt lat="45.87276" lon="3.57013">
        <ele>574.04</ele>
        <time>2014-12-06T23:37:05Z</time>
      </trkpt>
      <trkpt lat="45.87279" lon="3.5702">
        <ele>573.56</ele>
        <time>2014-12-06T23:37:09Z</time>
      </trkpt>
      <trkpt lat="45.87284" lon="3.57036">
        <ele>574.04</ele>
        <time>2014-12-06T23:37:16Z</time>
      </trkpt>
      <trkpt lat="45.87298" lon="3.57056">
        <ele>574.53</ele>
        <time>2014-12-06T23:37:27Z</time>
      </trkpt>
      <trkpt lat="45.87302" lon="3.57063">
        <ele>574.53</ele>
        <time>2014-12-06T23:37:31Z</time>
      </trkpt>
      <trkpt lat="45.87316" lon="3.57081">
        <ele>574.53</ele>
        <time>2014-12-06T23:37:41Z</time>
      </trkpt>
      <trkpt lat="45.87328" lon="3.57101">
        <ele>574.53</ele>
        <time>2014-12-06T23:37:51Z</time>
      </trkpt>
      <trkpt lat="45.87339" lon="3.57125">
        <ele>575.01</ele>
        <time>2014-12-06T23:38:04Z</time>
      </trkpt>
      <trkpt lat="45.8734" lon="3.57133">
        <ele>575.49</ele>
        <time>2014-12-06T23:38:08Z</time>
      </trkpt>
      <trkpt lat="45.87341" lon="3.57148">
        <ele>575.97</ele>
        <time>2014-12-06T23:38:15Z</time>
      </trkpt>
      <trkpt lat="45.87347" lon="3.57167">
        <ele>577.41</ele>
        <time>2014-12-06T23:38:26Z</time>
      </trkpt>
      <trkpt lat="45.8735" lon="3.57173">
        <ele>577.89</ele>
        <time>2014-12-06T23:38:29Z</time>
      </trkpt>
      <trkpt lat="45.87355" lon="3.57178">
        <ele>578.37</ele>
        <time>2014-12-06T23:38:33Z</time>
      </trkpt>
      <trkpt lat="45.8737" lon="3.57193">
        <ele>579.33</ele>
        <time>2014-12-06T23:38:44Z</time>
      </trkpt>
      <trkpt lat="45.87384" lon="3.57202">
        <ele>580.29</ele>
        <time>2014-12-06T23:38:54Z</time>
      </trkpt>
      <trkpt lat="45.87391" lon="3.5721">
        <ele>581.25</ele>
        <time>2014-12-06T23:39:01Z</time>
      </trkpt>
      <trkpt lat="45.874" lon="3.57229">
        <ele>582.22</ele>
        <time>2014-12-06T23:39:11Z</time>
      </trkpt>
      <trkpt lat="45.87404" lon="3.57246">
        <ele>582.7</ele>
        <time>2014-12-06T23:39:19Z</time>
      </trkpt>
      <trkpt lat="45.87417" lon="3.57272">
        <ele>583.66</ele>
        <time>2014-12-06T23:39:33Z</time>
      </trkpt>
      <trkpt lat="45.87429" lon="3.57292">
        <ele>585.1</ele>
        <time>2014-12-06T23:39:44Z</time>
      </trkpt>
      <trkpt lat="45.87431" lon="3.57295">
        <ele>585.1</ele>
        <time>2014-12-06T23:39:46Z</time>
      </trkpt>
      <trkpt lat="45.87441" lon="3.5732">
        <ele>586.54</ele>
        <time>2014-12-06T23:39:59Z</time>
      </trkpt>
      <trkpt lat="45.87451" lon="3.57345">
        <ele>587.5</ele>
        <time>2014-12-06T23:40:11Z</time>
      </trkpt>
      <trkpt lat="45.87462" lon="3.57372">
        <ele>588.95</ele>
        <time>2014-12-06T23:40:24Z</time>
      </trkpt>
      <trkpt lat="45.8747" lon="3.574">
        <ele>589.91</ele>
        <time>2014-12-06T23:40:37Z</time>
      </trkpt>
      <trkpt lat="45.87478" lon="3.5742">
        <ele>591.35</ele>
        <time>2014-12-06T23:40:47Z</time>
      </trkpt>
      <trkpt lat="45.87482" lon="3.57427">
        <ele>591.35</ele>
        <time>2014-12-06T23:40:51Z</time>
      </trkpt>
      <trkpt lat="45.8749" lon="3.57437">
        <ele>592.31</ele>
        <time>2014-12-06T23:40:58Z</time>
      </trkpt>
      <trkpt lat="45.87502" lon="3.57449">
        <ele>592.79</ele>
        <time>2014-12-06T23:41:07Z</time>
      </trkpt>
      <trkpt lat="45.87509" lon="3.5745">
        <ele>593.27</ele>
        <time>2014-12-06T23:41:12Z</time>
      </trkpt>
      <trkpt lat="45.87529" lon="3.57449">
        <ele>595.19</ele>
        <time>2014-12-06T23:41:26Z</time>
      </trkpt>
      <trkpt lat="45.87547" lon="3.57436">
        <ele>596.15</ele>
        <time>2014-12-06T23:41:38Z</time>
      </trkpt>
      <trkpt lat="45.87553" lon="3.57425">
        <ele>596.64</ele>
        <time>2014-12-06T23:41:45Z</time>
      </trkpt>
      <trkpt lat="45.87555" lon="3.57422">
        <ele>597.12</ele>
        <time>2014-12-06T23:41:48Z</time>
      </trkpt>
      <trkpt lat="45.87555" lon="3.57418">
        <ele>597.12</ele>
        <time>2014-12-06T23:41:50Z</time>
      </trkpt>
      <trkpt lat="45.87558" lon="3.57414">
        <ele>597.6</ele>
        <time>2014-12-06T23:41:54Z</time>
      </trkpt>
      <trkpt lat="45.87557" lon="3.57387">
        <ele>598.56</ele>
        <time>2014-12-06T23:42:08Z</time>
      </trkpt>
      <trkpt lat="45.87553" lon="3.5736">
        <ele>600</ele>
        <time>2014-12-06T23:42:19Z</time>
      </trkpt>
      <trkpt lat="45.87553" lon="3.57353">
        <ele>600.48</ele>
        <time>2014-12-06T23:42:22Z</time>
      </trkpt>
      <trkpt lat="45.87554" lon="3.5735">
        <ele>600.96</ele>
        <time>2014-12-06T23:42:23Z</time>
      </trkpt>
      <trkpt lat="45.87562" lon="3.57328">
        <ele>601.92</ele>
        <time>2014-12-06T23:42:34Z</time>
      </trkpt>
      <trkpt lat="45.87567" lon="3.57314">
        <ele>602.4</ele>
        <time>2014-12-06T23:42:41Z</time>
      </trkpt>
      <trkpt lat="45.8758" lon="3.57293">
        <ele>603.85</ele>
        <time>2014-12-06T23:42:52Z</time>
      </trkpt>
      <trkpt lat="45.87591" lon="3.57281">
        <ele>604.81</ele>
        <time>2014-12-06T23:43:02Z</time>
      </trkpt>
      <trkpt lat="45.87602" lon="3.57266">
        <ele>606.25</ele>
        <time>2014-12-06T23:43:11Z</time>
      </trkpt>
      <trkpt lat="45.8761" lon="3.57254">
        <ele>607.21</ele>
        <time>2014-12-06T23:43:20Z</time>
      </trkpt>
      <trkpt lat="45.87609" lon="3.57225">
        <ele>609.13</ele>
        <time>2014-12-06T23:43:33Z</time>
      </trkpt>
      <trkpt lat="45.87607" lon="3.57215">
        <ele>609.61</ele>
        <time>2014-12-06T23:43:37Z</time>
      </trkpt>
      <trkpt lat="45.87609" lon="3.572">
        <ele>610.57</ele>
        <time>2014-12-06T23:43:42Z</time>
      </trkpt>
      <trkpt lat="45.87608" lon="3.57196">
        <ele>610.57</ele>
        <time>2014-12-06T23:43:44Z</time>
      </trkpt>
      <trkpt lat="45.87607" lon="3.57192">
        <ele>611.06</ele>
        <time>2014-12-06T23:43:46Z</time>
      </trkpt>
      <trkpt lat="45.87604" lon="3.57188">
        <ele>611.06</ele>
        <time>2014-12-06T23:43:48Z</time>
      </trkpt>
      <trkpt lat="45.87598" lon="3.57171">
        <ele>612.02</ele>
        <time>2014-12-06T23:43:57Z</time>
      </trkpt>
      <trkpt lat="45.87593" lon="3.57146">
        <ele>613.46</ele>
        <time>2014-12-06T23:44:09Z</time>
      </trkpt>
      <trkpt lat="45.87592" lon="3.57141">
        <ele>613.94</ele>
        <time>2014-12-06T23:44:12Z</time>
      </trkpt>
      <trkpt lat="45.87596" lon="3.5712">
        <ele>614.9</ele>
        <time>2014-12-06T23:44:22Z</time>
      </trkpt>
      <trkpt lat="45.87605" lon="3.57108">
        <ele>616.34</ele>
        <time>2014-12-06T23:44:33Z</time>
      </trkpt>
      <trkpt lat="45.8761" lon="3.57105">
        <ele>616.34</ele>
        <time>2014-12-06T23:44:37Z</time>
      </trkpt>
      <trkpt lat="45.87623" lon="3.57105">
        <ele>617.78</ele>
        <time>2014-12-06T23:44:46Z</time>
      </trkpt>
      <trkpt lat="45.87627" lon="3.57107">
        <ele>617.78</ele>
        <time>2014-12-06T23:44:48Z</time>
      </trkpt>
      <trkpt lat="45.87633" lon="3.57111">
        <ele>618.26</ele>
        <time>2014-12-06T23:44:54Z</time>
      </trkpt>
      <trkpt lat="45.87639" lon="3.5711">
        <ele>618.75</ele>
        <time>2014-12-06T23:44:57Z</time>
      </trkpt>
      <trkpt lat="45.87649" lon="3.5712">
        <ele>619.23</ele>
        <time>2014-12-06T23:45:02Z</time>
      </trkpt>
      <trkpt lat="45.87651" lon="3.57123">
        <ele>619.23</ele>
        <time>2014-12-06T23:45:03Z</time>
      </trkpt>
      <trkpt lat="45.87658" lon="3.57129">
        <ele>619.71</ele>
        <time>2014-12-06T23:45:07Z</time>
      </trkpt>
      <trkpt lat="45.87673" lon="3.57148">
        <ele>620.19</ele>
        <time>2014-12-06T23:45:15Z</time>
      </trkpt>
      <trkpt lat="45.8768" lon="3.57155">
        <ele>620.19</ele>
        <time>2014-12-06T23:45:19Z</time>
      </trkpt>
      <trkpt lat="45.87701" lon="3.57173">
        <ele>622.11</ele>
        <time>2014-12-06T23:45:32Z</time>
      </trkpt>
      <trkpt lat="45.87702" lon="3.57174">
        <ele>622.11</ele>
        <time>2014-12-06T23:45:33Z</time>
      </trkpt>
      <trkpt lat="45.87705" lon="3.57176">
        <ele>622.59</ele>
        <time>2014-12-06T23:45:35Z</time>
      </trkpt>
      <trkpt lat="45.8772" lon="3.57178">
        <ele>623.55</ele>
        <time>2014-12-06T23:45:45Z</time>
      </trkpt>
      <trkpt lat="45.87728" lon="3.57177">
        <ele>624.03</ele>
        <time>2014-12-06T23:45:51Z</time>
      </trkpt>
      <trkpt lat="45.87738" lon="3.57158">
        <ele>625.47</ele>
        <time>2014-12-06T23:46:02Z</time>
      </trkpt>
      <trkpt lat="45.87748" lon="3.57138">
        <ele>626.44</ele>
        <time>2014-12-06T23:46:13Z</time>
      </trkpt>
      <trkpt lat="45.87757" lon="3.57118">
        <ele>627.88</ele>
        <time>2014-12-06T23:46:24Z</time>
      </trkpt>
      <trkpt lat="45.87764" lon="3.57096">
        <ele>628.84</ele>
        <time>2014-12-06T23:46:34Z</time>
      </trkpt>
      <trkpt lat="45.8777" lon="3.57078">
        <ele>629.8</ele>
        <time>2014-12-06T23:46:42Z</time>
      </trkpt>
      <trkpt lat="45.87778" lon="3.57064">
        <ele>630.76</ele>
        <time>2014-12-06T23:46:49Z</time>
      </trkpt>
      <trkpt lat="45.87786" lon="3.5706">
        <ele>631.24</ele>
        <time>2014-12-06T23:46:55Z</time>
      </trkpt>
      <trkpt lat="45.8779" lon="3.5706">
        <ele>631.72</ele>
        <time>2014-12-06T23:46:58Z</time>
      </trkpt>
      <trkpt lat="45.87797" lon="3.57064">
        <ele>632.2</ele>
        <time>2014-12-06T23:47:03Z</time>
      </trkpt>
      <trkpt lat="45.87816" lon="3.57075">
        <ele>633.65</ele>
        <time>2014-12-06T23:47:15Z</time>
      </trkpt>
      <trkpt lat="45.8782" lon="3.57087">
        <ele>633.65</ele>
        <time>2014-12-06T23:47:19Z</time>
      </trkpt>
      <trkpt lat="45.87835" lon="3.57108">
        <ele>635.09</ele>
        <time>2014-12-06T23:47:32Z</time>
      </trkpt>
      <trkpt lat="45.87844" lon="3.57116">
        <ele>635.57</ele>
        <time>2014-12-06T23:47:37Z</time>
      </trkpt>
      <trkpt lat="45.87859" lon="3.57123">
        <ele>637.01</ele>
        <time>2014-12-06T23:47:47Z</time>
      </trkpt>
      <trkpt lat="45.87861" lon="3.57124">
        <ele>637.01</ele>
        <time>2014-12-06T23:47:49Z</time>
      </trkpt>
      <trkpt lat="45.87874" lon="3.57136">
        <ele>637.97</ele>
        <time>2014-12-06T23:47:58Z</time>
      </trkpt>
      <trkpt lat="45.87882" lon="3.57149">
        <ele>638.93</ele>
        <time>2014-12-06T23:48:05Z</time>
      </trkpt>
      <trkpt lat="45.87896" lon="3.57172">
        <ele>640.38</ele>
        <time>2014-12-06T23:48:18Z</time>
      </trkpt>
      <trkpt lat="45.87914" lon="3.57205">
        <ele>641.82</ele>
        <time>2014-12-06T23:48:33Z</time>
      </trkpt>
      <trkpt lat="45.87928" lon="3.57231">
        <ele>641.82</ele>
        <time>2014-12-06T23:48:46Z</time>
      </trkpt>
      <trkpt lat="45.8793" lon="3.57233">
        <ele>642.3</ele>
        <time>2014-12-06T23:48:47Z</time>
      </trkpt>
      <trkpt lat="45.87935" lon="3.57236">
        <ele>642.78</ele>
        <time>2014-12-06T23:48:50Z</time>
      </trkpt>
      <trkpt lat="45.87951" lon="3.57257">
        <ele>643.74</ele>
        <time>2014-12-06T23:49:02Z</time>
      </trkpt>
      <trkpt lat="45.87963" lon="3.57283">
        <ele>644.22</ele>
        <time>2014-12-06T23:49:13Z</time>
      </trkpt>
      <trkpt lat="45.87978" lon="3.57311">
        <ele>644.7</ele>
        <time>2014-12-06T23:49:27Z</time>
      </trkpt>
      <trkpt lat="45.87986" lon="3.57338">
        <ele>645.66</ele>
        <time>2014-12-06T23:49:39Z</time>
      </trkpt>
      <trkpt lat="45.87988" lon="3.57353">
        <ele>646.14</ele>
        <time>2014-12-06T23:49:46Z</time>
      </trkpt>
      <trkpt lat="45.87988" lon="3.57383">
        <ele>647.1</ele>
        <time>2014-12-06T23:49:59Z</time>
      </trkpt>
      <trkpt lat="45.8799" lon="3.57395">
        <ele>647.59</ele>
        <time>2014-12-06T23:50:05Z</time>
      </trkpt>
      <trkpt lat="45.87992" lon="3.57402">
        <ele>647.59</ele>
        <time>2014-12-06T23:50:08Z</time>
      </trkpt>
      <trkpt lat="45.87995" lon="3.5742">
        <ele>648.07</ele>
        <time>2014-12-06T23:50:16Z</time>
      </trkpt>
      <trkpt lat="45.88003" lon="3.57435">
        <ele>648.55</ele>
        <time>2014-12-06T23:50:24Z</time>
      </trkpt>
      <trkpt lat="45.88016" lon="3.57455">
        <ele>649.03</ele>
        <time>2014-12-06T23:50:35Z</time>
      </trkpt>
      <trkpt lat="45.88018" lon="3.57459">
        <ele>649.03</ele>
        <time>2014-12-06T23:50:37Z</time>
      </trkpt>
      <trkpt lat="45.88034" lon="3.57471">
        <ele>649.51</ele>
        <time>2014-12-06T23:50:47Z</time>
      </trkpt>
      <trkpt lat="45.88054" lon="3.57478">
        <ele>650.95</ele>
        <time>2014-12-06T23:51:01Z</time>
      </trkpt>
      <trkpt lat="45.88057" lon="3.57478">
        <ele>650.95</ele>
        <time>2014-12-06T23:51:03Z</time>
      </trkpt>
      <trkpt lat="45.88067" lon="3.57482">
        <ele>650.95</ele>
        <time>2014-12-06T23:51:09Z</time>
      </trkpt>
      <trkpt lat="45.88088" lon="3.57488">
        <ele>651.43</ele>
        <time>2014-12-06T23:51:22Z</time>
      </trkpt>
      <trkpt lat="45.88092" lon="3.57487">
        <ele>651.91</ele>
        <time>2014-12-06T23:51:25Z</time>
      </trkpt>
      <trkpt lat="45.88095" lon="3.57489">
        <ele>651.91</ele>
        <time>2014-12-06T23:51:27Z</time>
      </trkpt>
      <trkpt lat="45.88105" lon="3.57492">
        <ele>652.39</ele>
        <time>2014-12-06T23:51:33Z</time>
      </trkpt>
      <trkpt lat="45.88115" lon="3.57492">
        <ele>652.87</ele>
        <time>2014-12-06T23:51:39Z</time>
      </trkpt>
      <trkpt lat="45.88122" lon="3.57493">
        <ele>652.87</ele>
        <time>2014-12-06T23:51:44Z</time>
      </trkpt>
      <trkpt lat="45.88133" lon="3.57497">
        <ele>653.83</ele>
        <time>2014-12-06T23:51:51Z</time>
      </trkpt>
      <trkpt lat="45.8815" lon="3.57501">
        <ele>654.8</ele>
        <time>2014-12-06T23:52:02Z</time>
      </trkpt>
      <trkpt lat="45.88156" lon="3.57505">
        <ele>654.8</ele>
        <time>2014-12-06T23:52:06Z</time>
      </trkpt>
      <trkpt lat="45.8816" lon="3.57506">
        <ele>655.28</ele>
        <time>2014-12-06T23:52:08Z</time>
      </trkpt>
      <trkpt lat="45.88166" lon="3.57507">
        <ele>655.76</ele>
        <time>2014-12-06T23:52:12Z</time>
      </trkpt>
      <trkpt lat="45.88185" lon="3.57515">
        <ele>656.72</ele>
        <time>2014-12-06T23:52:22Z</time>
      </trkpt>
      <trkpt lat="45.88192" lon="3.5752">
        <ele>657.68</ele>
        <time>2014-12-06T23:52:27Z</time>
      </trkpt>
      <trkpt lat="45.88198" lon="3.5752">
        <ele>658.64</ele>
        <time>2014-12-06T23:52:31Z</time>
      </trkpt>
      <trkpt lat="45.88216" lon="3.57527">
        <ele>660.08</ele>
        <time>2014-12-06T23:52:44Z</time>
      </trkpt>
      <trkpt lat="45.88223" lon="3.57529">
        <ele>660.56</ele>
        <time>2014-12-06T23:52:49Z</time>
      </trkpt>
      <trkpt lat="45.88231" lon="3.57532">
        <ele>661.04</ele>
        <time>2014-12-06T23:52:54Z</time>
      </trkpt>
      <trkpt lat="45.88251" lon="3.57541">
        <ele>662.01</ele>
        <time>2014-12-06T23:53:05Z</time>
      </trkpt>
      <trkpt lat="45.88259" lon="3.57554">
        <ele>662.01</ele>
        <time>2014-12-06T23:53:12Z</time>
      </trkpt>
      <trkpt lat="45.88268" lon="3.57576">
        <ele>663.93</ele>
        <time>2014-12-06T23:53:24Z</time>
      </trkpt>
      <trkpt lat="45.88274" lon="3.57599">
        <ele>664.41</ele>
        <time>2014-12-06T23:53:34Z</time>
      </trkpt>
      <trkpt lat="45.88275" lon="3.57607">
        <ele>664.41</ele>
        <time>2014-12-06T23:53:38Z</time>
      </trkpt>
      <trkpt lat="45.8828" lon="3.57634">
        <ele>663.93</ele>
        <time>2014-12-06T23:53:53Z</time>
      </trkpt>
      <trkpt lat="45.88286" lon="3.57653">
        <ele>662.49</ele>
        <time>2014-12-06T23:54:02Z</time>
      </trkpt>
      <trkpt lat="45.88287" lon="3.57661">
        <ele>662.01</ele>
        <time>2014-12-06T23:54:06Z</time>
      </trkpt>
      <trkpt lat="45.88291" lon="3.57674">
        <ele>661.04</ele>
        <time>2014-12-06T23:54:12Z</time>
      </trkpt>
      <trkpt lat="45.88295" lon="3.57685">
        <ele>660.56</ele>
        <time>2014-12-06T23:54:17Z</time>
      </trkpt>
      <trkpt lat="45.88304" lon="3.57711">
        <ele>658.16</ele>
        <time>2014-12-06T23:54:30Z</time>
      </trkpt>
      <trkpt lat="45.88308" lon="3.57719">
        <ele>657.68</ele>
        <time>2014-12-06T23:54:34Z</time>
      </trkpt>
      <trkpt lat="45.88317" lon="3.57741">
        <ele>655.76</ele>
        <time>2014-12-06T23:54:45Z</time>
      </trkpt>
      <trkpt lat="45.88326" lon="3.57752">
        <ele>654.8</ele>
        <time>2014-12-06T23:54:52Z</time>
      </trkpt>
      <trkpt lat="45.88336" lon="3.57778">
        <ele>652.87</ele>
        <time>2014-12-06T23:55:03Z</time>
      </trkpt>
      <trkpt lat="45.88338" lon="3.57783">
        <ele>652.87</ele>
        <time>2014-12-06T23:55:05Z</time>
      </trkpt>
      <trkpt lat="45.88341" lon="3.57792">
        <ele>651.43</ele>
        <time>2014-12-06T23:55:09Z</time>
      </trkpt>
      <trkpt lat="45.88345" lon="3.57806">
        <ele>650.47</ele>
        <time>2014-12-06T23:55:15Z</time>
      </trkpt>
      <trkpt lat="45.88354" lon="3.57823">
        <ele>649.51</ele>
        <time>2014-12-06T23:55:25Z</time>
      </trkpt>
      <trkpt lat="45.88362" lon="3.57838">
        <ele>648.55</ele>
        <time>2014-12-06T23:55:32Z</time>
      </trkpt>
      <trkpt lat="45.88363" lon="3.57842">
        <ele>648.07</ele>
        <time>2014-12-06T23:55:34Z</time>
      </trkpt>
      <trkpt lat="45.88373" lon="3.57864">
        <ele>647.59</ele>
        <time>2014-12-06T23:55:44Z</time>
      </trkpt>
      <trkpt lat="45.88379" lon="3.57873">
        <ele>647.1</ele>
        <time>2014-12-06T23:55:49Z</time>
      </trkpt>
      <trkpt lat="45.88388" lon="3.57888">
        <ele>647.1</ele>
        <time>2014-12-06T23:55:56Z</time>
      </trkpt>
      <trkpt lat="45.88396" lon="3.579">
        <ele>646.62</ele>
        <time>2014-12-06T23:56:02Z</time>
      </trkpt>
      <trkpt lat="45.88407" lon="3.57917">
        <ele>647.1</ele>
        <time>2014-12-06T23:56:11Z</time>
      </trkpt>
      <trkpt lat="45.88412" lon="3.57924">
        <ele>646.62</ele>
        <time>2014-12-06T23:56:15Z</time>
      </trkpt>
      <trkpt lat="45.88427" lon="3.57942">
        <ele>647.1</ele>
        <time>2014-12-06T23:56:26Z</time>
      </trkpt>
      <trkpt lat="45.88442" lon="3.57968">
        <ele>645.66</ele>
        <time>2014-12-06T23:56:38Z</time>
      </trkpt>
      <trkpt lat="45.88453" lon="3.57986">
        <ele>644.22</ele>
        <time>2014-12-06T23:56:49Z</time>
      </trkpt>
      <trkpt lat="45.88461" lon="3.57995">
        <ele>643.74</ele>
        <time>2014-12-06T23:56:54Z</time>
      </trkpt>
      <trkpt lat="45.88465" lon="3.58005">
        <ele>643.26</ele>
        <time>2014-12-06T23:56:58Z</time>
      </trkpt>
      <trkpt lat="45.88476" lon="3.5803">
        <ele>641.34</ele>
        <time>2014-12-06T23:57:10Z</time>
      </trkpt>
      <trkpt lat="45.88478" lon="3.58034">
        <ele>641.34</ele>
        <time>2014-12-06T23:57:12Z</time>
      </trkpt>
      <trkpt lat="45.88482" lon="3.58054">
        <ele>640.38</ele>
        <time>2014-12-06T23:57:20Z</time>
      </trkpt>
      <trkpt lat="45.88483" lon="3.58064">
        <ele>639.41</ele>
        <time>2014-12-06T23:57:24Z</time>
      </trkpt>
      <trkpt lat="45.88483" lon="3.58092">
        <ele>637.01</ele>
        <time>2014-12-06T23:57:35Z</time>
      </trkpt>
      <trkpt lat="45.88482" lon="3.58094">
        <ele>637.49</ele>
        <time>2014-12-06T23:57:36Z</time>
      </trkpt>
      <trkpt lat="45.8848" lon="3.58123">
        <ele>636.05</ele>
        <time>2014-12-06T23:57:46Z</time>
      </trkpt>
      <trkpt lat="45.88478" lon="3.58158">
        <ele>634.13</ele>
        <time>2014-12-06T23:58:00Z</time>
      </trkpt>
      <trkpt lat="45.88481" lon="3.58186">
        <ele>631.72</ele>
        <time>2014-12-06T23:58:13Z</time>
      </trkpt>
      <trkpt lat="45.8849" lon="3.58225">
        <ele>628.84</ele>
        <time>2014-12-06T23:58:27Z</time>
      </trkpt>
      <trkpt lat="45.88492" lon="3.58245">
        <ele>626.44</ele>
        <time>2014-12-06T23:58:35Z</time>
      </trkpt>
      <trkpt lat="45.88493" lon="3.5825">
        <ele>625.96</ele>
        <time>2014-12-06T23:58:37Z</time>
      </trkpt>
      <trkpt lat="45.88493" lon="3.58263">
        <ele>625.47</ele>
        <time>2014-12-06T23:58:41Z</time>
      </trkpt>
      <trkpt lat="45.88491" lon="3.58274">
        <ele>624.03</ele>
        <time>2014-12-06T23:58:46Z</time>
      </trkpt>
      <trkpt lat="45.88487" lon="3.58282">
        <ele>623.07</ele>
        <time>2014-12-06T23:58:51Z</time>
      </trkpt>
      <trkpt lat="45.88485" lon="3.58295">
        <ele>621.15</ele>
        <time>2014-12-06T23:58:59Z</time>
      </trkpt>
      <trkpt lat="45.88475" lon="3.58308">
        <ele>618.75</ele>
        <time>2014-12-06T23:59:06Z</time>
      </trkpt>
      <trkpt lat="45.88463" lon="3.5831">
        <ele>617.3</ele>
        <time>2014-12-06T23:59:11Z</time>
      </trkpt>
      <trkpt lat="45.88453" lon="3.58322">
        <ele>616.34</ele>
        <time>2014-12-06T23:59:15Z</time>
      </trkpt>
      <trkpt lat="45.88446" lon="3.58328">
        <ele>615.38</ele>
        <time>2014-12-06T23:59:17Z</time>
      </trkpt>
      <trkpt lat="45.88443" lon="3.58361">
        <ele>612.02</ele>
        <time>2014-12-06T23:59:27Z</time>
      </trkpt>
      <trkpt lat="45.88447" lon="3.58382">
        <ele>610.57</ele>
        <time>2014-12-06T23:59:35Z</time>
      </trkpt>
      <trkpt lat="45.88449" lon="3.58385">
        <ele>610.09</ele>
        <time>2014-12-06T23:59:37Z</time>
      </trkpt>
      <trkpt lat="45.88468" lon="3.58403">
        <ele>608.17</ele>
        <time>2014-12-06T23:59:48Z</time>
      </trkpt>
      <trkpt lat="45.88477" lon="3.58412">
        <ele>606.25</ele>
        <time>2014-12-06T23:59:54Z</time>
      </trkpt>
      <trkpt lat="45.88479" lon="3.58413">
        <ele>605.77</ele>
        <time>2014-12-06T23:59:55Z</time>
      </trkpt>
      <trkpt lat="45.88484" lon="3.58428">
        <ele>604.81</ele>
        <time>2014-12-07T00:00:01Z</time>
      </trkpt>
      <trkpt lat="45.88488" lon="3.58473">
        <ele>603.36</ele>
        <time>2014-12-07T00:00:13Z</time>
      </trkpt>
      <trkpt lat="45.8849" lon="3.58509">
        <ele>602.88</ele>
        <time>2014-12-07T00:00:22Z</time>
      </trkpt>
      <trkpt lat="45.88492" lon="3.58516">
        <ele>602.88</ele>
        <time>2014-12-07T00:00:24Z</time>
      </trkpt>
      <trkpt lat="45.88494" lon="3.58531">
        <ele>601.92</ele>
        <time>2014-12-07T00:00:29Z</time>
      </trkpt>
      <trkpt lat="45.885" lon="3.58567">
        <ele>600.48</ele>
        <time>2014-12-07T00:00:41Z</time>
      </trkpt>
      <trkpt lat="45.88499" lon="3.58602">
        <ele>600</ele>
        <time>2014-12-07T00:00:54Z</time>
      </trkpt>
      <trkpt lat="45.88495" lon="3.58629">
        <ele>601.44</ele>
        <time>2014-12-07T00:01:06Z</time>
      </trkpt>
      <trkpt lat="45.88489" lon="3.58655">
        <ele>602.4</ele>
        <time>2014-12-07T00:01:20Z</time>
      </trkpt>
      <trkpt lat="45.88487" lon="3.58663">
        <ele>602.4</ele>
        <time>2014-12-07T00:01:24Z</time>
      </trkpt>
      <trkpt lat="45.88486" lon="3.58666">
        <ele>602.88</ele>
        <time>2014-12-07T00:01:26Z</time>
      </trkpt>
      <trkpt lat="45.88479" lon="3.58678">
        <ele>603.36</ele>
        <time>2014-12-07T00:01:33Z</time>
      </trkpt>
      <trkpt lat="45.8847" lon="3.58683">
        <ele>602.88</ele>
        <time>2014-12-07T00:01:37Z</time>
      </trkpt>
      <trkpt lat="45.88463" lon="3.58694">
        <ele>603.36</ele>
        <time>2014-12-07T00:01:43Z</time>
      </trkpt>
      <trkpt lat="45.88452" lon="3.58711">
        <ele>604.33</ele>
        <time>2014-12-07T00:01:54Z</time>
      </trkpt>
      <trkpt lat="45.88448" lon="3.58715">
        <ele>604.81</ele>
        <time>2014-12-07T00:01:57Z</time>
      </trkpt>
      <trkpt lat="45.88436" lon="3.58721">
        <ele>605.29</ele>
        <time>2014-12-07T00:02:06Z</time>
      </trkpt>
      <trkpt lat="45.88423" lon="3.58733">
        <ele>606.73</ele>
        <time>2014-12-07T00:02:17Z</time>
      </trkpt>
      <trkpt lat="45.88406" lon="3.58747">
        <ele>608.65</ele>
        <time>2014-12-07T00:02:29Z</time>
      </trkpt>
      <trkpt lat="45.88391" lon="3.5877">
        <ele>610.57</ele>
        <time>2014-12-07T00:02:43Z</time>
      </trkpt>
      <trkpt lat="45.88382" lon="3.58795">
        <ele>612.02</ele>
        <time>2014-12-07T00:02:55Z</time>
      </trkpt>
      <trkpt lat="45.88371" lon="3.58819">
        <ele>613.94</ele>
        <time>2014-12-07T00:03:09Z</time>
      </trkpt>
      <trkpt lat="45.88357" lon="3.58839">
        <ele>616.34</ele>
        <time>2014-12-07T00:03:22Z</time>
      </trkpt>
      <trkpt lat="45.88347" lon="3.58856">
        <ele>617.3</ele>
        <time>2014-12-07T00:03:33Z</time>
      </trkpt>
      <trkpt lat="45.88338" lon="3.58871">
        <ele>618.75</ele>
        <time>2014-12-07T00:03:43Z</time>
      </trkpt>
      <trkpt lat="45.88325" lon="3.58889">
        <ele>620.67</ele>
        <time>2014-12-07T00:03:55Z</time>
      </trkpt>
      <trkpt lat="45.88309" lon="3.58907">
        <ele>622.59</ele>
        <time>2014-12-07T00:04:07Z</time>
      </trkpt>
      <trkpt lat="45.88295" lon="3.58922">
        <ele>624.03</ele>
        <time>2014-12-07T00:04:20Z</time>
      </trkpt>
      <trkpt lat="45.88287" lon="3.58939">
        <ele>625.47</ele>
        <time>2014-12-07T00:04:29Z</time>
      </trkpt>
      <trkpt lat="45.88273" lon="3.58958">
        <ele>627.88</ele>
        <time>2014-12-07T00:04:42Z</time>
      </trkpt>
      <trkpt lat="45.88261" lon="3.58977">
        <ele>629.32</ele>
        <time>2014-12-07T00:04:54Z</time>
      </trkpt>
      <trkpt lat="45.88254" lon="3.59001">
        <ele>631.24</ele>
        <time>2014-12-07T00:05:07Z</time>
      </trkpt>
      <trkpt lat="45.88243" lon="3.59023">
        <ele>633.17</ele>
        <time>2014-12-07T00:05:18Z</time>
      </trkpt>
      <trkpt lat="45.88236" lon="3.59047">
        <ele>635.57</ele>
        <time>2014-12-07T00:05:33Z</time>
      </trkpt>
      <trkpt lat="45.8823" lon="3.59063">
        <ele>636.53</ele>
        <time>2014-12-07T00:05:42Z</time>
      </trkpt>
      <trkpt lat="45.88217" lon="3.59086">
        <ele>638.93</ele>
        <time>2014-12-07T00:05:55Z</time>
      </trkpt>
      <trkpt lat="45.88207" lon="3.59108">
        <ele>641.34</ele>
        <time>2014-12-07T00:06:07Z</time>
      </trkpt>
      <trkpt lat="45.882" lon="3.5913">
        <ele>642.78</ele>
        <time>2014-12-07T00:06:18Z</time>
      </trkpt>
      <trkpt lat="45.88201" lon="3.59141">
        <ele>644.22</ele>
        <time>2014-12-07T00:06:23Z</time>
      </trkpt>
      <trkpt lat="45.88198" lon="3.59154">
        <ele>644.7</ele>
        <time>2014-12-07T00:06:29Z</time>
      </trkpt>
      <trkpt lat="45.8819" lon="3.59185">
        <ele>645.18</ele>
        <time>2014-12-07T00:06:43Z</time>
      </trkpt>
      <trkpt lat="45.88185" lon="3.59207">
        <ele>645.18</ele>
        <time>2014-12-07T00:06:52Z</time>
      </trkpt>
      <trkpt lat="45.88164" lon="3.5922">
        <ele>645.18</ele>
        <time>2014-12-07T00:07:05Z</time>
      </trkpt>
      <trkpt lat="45.88142" lon="3.59233">
        <ele>644.22</ele>
        <time>2014-12-07T00:07:17Z</time>
      </trkpt>
      <trkpt lat="45.88141" lon="3.59235">
        <ele>644.22</ele>
        <time>2014-12-07T00:07:18Z</time>
      </trkpt>
      <trkpt lat="45.88126" lon="3.59262">
        <ele>641.34</ele>
        <time>2014-12-07T00:07:30Z</time>
      </trkpt>
      <trkpt lat="45.8812" lon="3.59296">
        <ele>638.45</ele>
        <time>2014-12-07T00:07:40Z</time>
      </trkpt>
      <trkpt lat="45.88123" lon="3.59326">
        <ele>636.53</ele>
        <time>2014-12-07T00:07:48Z</time>
      </trkpt>
      <trkpt lat="45.88139" lon="3.5935">
        <ele>633.65</ele>
        <time>2014-12-07T00:07:57Z</time>
      </trkpt>
      <trkpt lat="45.88157" lon="3.59373">
        <ele>630.76</ele>
        <time>2014-12-07T00:08:08Z</time>
      </trkpt>
      <trkpt lat="45.88168" lon="3.59398">
        <ele>627.88</ele>
        <time>2014-12-07T00:08:17Z</time>
      </trkpt>
      <trkpt lat="45.88174" lon="3.59438">
        <ele>624.99</ele>
        <time>2014-12-07T00:08:28Z</time>
      </trkpt>
      <trkpt lat="45.88179" lon="3.59467">
        <ele>621.63</ele>
        <time>2014-12-07T00:08:37Z</time>
      </trkpt>
      <trkpt lat="45.8818" lon="3.59471">
        <ele>621.15</ele>
        <time>2014-12-07T00:08:38Z</time>
      </trkpt>
      <trkpt lat="45.8818" lon="3.59485">
        <ele>620.19</ele>
        <time>2014-12-07T00:08:42Z</time>
      </trkpt>
      <trkpt lat="45.8818" lon="3.59488">
        <ele>619.23</ele>
        <time>2014-12-07T00:08:43Z</time>
      </trkpt>
      <trkpt lat="45.88182" lon="3.59502">
        <ele>617.78</ele>
        <time>2014-12-07T00:08:47Z</time>
      </trkpt>
      <trkpt lat="45.88184" lon="3.59523">
        <ele>617.3</ele>
        <time>2014-12-07T00:08:53Z</time>
      </trkpt>
      <trkpt lat="45.88184" lon="3.59547">
        <ele>614.9</ele>
        <time>2014-12-07T00:09:00Z</time>
      </trkpt>
      <trkpt lat="45.88185" lon="3.59562">
        <ele>613.46</ele>
        <time>2014-12-07T00:09:04Z</time>
      </trkpt>
      <trkpt lat="45.88186" lon="3.59578">
        <ele>612.5</ele>
        <time>2014-12-07T00:09:08Z</time>
      </trkpt>
      <trkpt lat="45.88185" lon="3.59622">
        <ele>609.13</ele>
        <time>2014-12-07T00:09:19Z</time>
      </trkpt>
      <trkpt lat="45.88194" lon="3.59651">
        <ele>606.73</ele>
        <time>2014-12-07T00:09:28Z</time>
      </trkpt>
      <trkpt lat="45.88196" lon="3.59655">
        <ele>606.73</ele>
        <time>2014-12-07T00:09:29Z</time>
      </trkpt>
      <trkpt lat="45.88212" lon="3.59682">
        <ele>604.33</ele>
        <time>2014-12-07T00:09:39Z</time>
      </trkpt>
      <trkpt lat="45.88221" lon="3.597">
        <ele>602.88</ele>
        <time>2014-12-07T00:09:45Z</time>
      </trkpt>
      <trkpt lat="45.88234" lon="3.59738">
        <ele>601.92</ele>
        <time>2014-12-07T00:09:57Z</time>
      </trkpt>
      <trkpt lat="45.88237" lon="3.59767">
        <ele>601.92</ele>
        <time>2014-12-07T00:10:06Z</time>
      </trkpt>
      <trkpt lat="45.88239" lon="3.59777">
        <ele>601.44</ele>
        <time>2014-12-07T00:10:09Z</time>
      </trkpt>
      <trkpt lat="45.88239" lon="3.5979">
        <ele>601.44</ele>
        <time>2014-12-07T00:10:13Z</time>
      </trkpt>
      <trkpt lat="45.88246" lon="3.59825">
        <ele>600.96</ele>
        <time>2014-12-07T00:10:24Z</time>
      </trkpt>
      <trkpt lat="45.88246" lon="3.59835">
        <ele>601.44</ele>
        <time>2014-12-07T00:10:28Z</time>
      </trkpt>
      <trkpt lat="45.88246" lon="3.59839">
        <ele>601.44</ele>
        <time>2014-12-07T00:10:30Z</time>
      </trkpt>
      <trkpt lat="45.88244" lon="3.59851">
        <ele>601.44</ele>
        <time>2014-12-07T00:10:36Z</time>
      </trkpt>
      <trkpt lat="45.88242" lon="3.59863">
        <ele>600.96</ele>
        <time>2014-12-07T00:10:41Z</time>
      </trkpt>
      <trkpt lat="45.88239" lon="3.59872">
        <ele>601.44</ele>
        <time>2014-12-07T00:10:46Z</time>
      </trkpt>
      <trkpt lat="45.88221" lon="3.59892">
        <ele>601.44</ele>
        <time>2014-12-07T00:11:01Z</time>
      </trkpt>
      <trkpt lat="45.88202" lon="3.59899">
        <ele>601.92</ele>
        <time>2014-12-07T00:11:13Z</time>
      </trkpt>
      <trkpt lat="45.88195" lon="3.59903">
        <ele>602.4</ele>
        <time>2014-12-07T00:11:17Z</time>
      </trkpt>
      <trkpt lat="45.88188" lon="3.59906">
        <ele>602.4</ele>
        <time>2014-12-07T00:11:22Z</time>
      </trkpt>
      <trkpt lat="45.88168" lon="3.59913">
        <ele>604.33</ele>
        <time>2014-12-07T00:11:34Z</time>
      </trkpt>
      <trkpt lat="45.8815" lon="3.59921">
        <ele>606.25</ele>
        <time>2014-12-07T00:11:46Z</time>
      </trkpt>
      <trkpt lat="45.88146" lon="3.59924">
        <ele>607.21</ele>
        <time>2014-12-07T00:11:50Z</time>
      </trkpt>
      <trkpt lat="45.88141" lon="3.59925">
        <ele>608.17</ele>
        <time>2014-12-07T00:11:54Z</time>
      </trkpt>
      <trkpt lat="45.8813" lon="3.5993">
        <ele>609.61</ele>
        <time>2014-12-07T00:12:00Z</time>
      </trkpt>
      <trkpt lat="45.88118" lon="3.59937">
        <ele>611.54</ele>
        <time>2014-12-07T00:12:11Z</time>
      </trkpt>
      <trkpt lat="45.88097" lon="3.59945">
        <ele>615.38</ele>
        <time>2014-12-07T00:12:24Z</time>
      </trkpt>
      <trkpt lat="45.88076" lon="3.59961">
        <ele>617.3</ele>
        <time>2014-12-07T00:12:37Z</time>
      </trkpt>
      <trkpt lat="45.88058" lon="3.59974">
        <ele>618.26</ele>
        <time>2014-12-07T00:12:51Z</time>
      </trkpt>
      <trkpt lat="45.8805" lon="3.59974">
        <ele>619.23</ele>
        <time>2014-12-07T00:12:57Z</time>
      </trkpt>
      <trkpt lat="45.88036" lon="3.59972">
        <ele>621.15</ele>
        <time>2014-12-07T00:13:08Z</time>
      </trkpt>
      <trkpt lat="45.88032" lon="3.59973">
        <ele>621.63</ele>
        <time>2014-12-07T00:13:11Z</time>
      </trkpt>
      <trkpt lat="45.88022" lon="3.59977">
        <ele>623.07</ele>
        <time>2014-12-07T00:13:19Z</time>
      </trkpt>
      <trkpt lat="45.88012" lon="3.59985">
        <ele>624.51</ele>
        <time>2014-12-07T00:13:27Z</time>
      </trkpt>
      <trkpt lat="45.88007" lon="3.59991">
        <ele>625.47</ele>
        <time>2014-12-07T00:13:31Z</time>
      </trkpt>
      <trkpt lat="45.88004" lon="3.59995">
        <ele>625.47</ele>
        <time>2014-12-07T00:13:34Z</time>
      </trkpt>
      <trkpt lat="45.87996" lon="3.60011">
        <ele>627.4</ele>
        <time>2014-12-07T00:13:43Z</time>
      </trkpt>
      <trkpt lat="45.87986" lon="3.60019">
        <ele>628.36</ele>
        <time>2014-12-07T00:13:47Z</time>
      </trkpt>
      <trkpt lat="45.87982" lon="3.60039">
        <ele>629.8</ele>
        <time>2014-12-07T00:13:57Z</time>
      </trkpt>
      <trkpt lat="45.87982" lon="3.60071">
        <ele>632.68</ele>
        <time>2014-12-07T00:14:10Z</time>
      </trkpt>
      <trkpt lat="45.87988" lon="3.60099">
        <ele>635.09</ele>
        <time>2014-12-07T00:14:22Z</time>
      </trkpt>
      <trkpt lat="45.8799" lon="3.60105">
        <ele>636.05</ele>
        <time>2014-12-07T00:14:26Z</time>
      </trkpt>
      <trkpt lat="45.87996" lon="3.60119">
        <ele>637.97</ele>
        <time>2014-12-07T00:14:34Z</time>
      </trkpt>
      <trkpt lat="45.88007" lon="3.60132">
        <ele>639.89</ele>
        <time>2014-12-07T00:14:43Z</time>
      </trkpt>
      <trkpt lat="45.8801" lon="3.60133">
        <ele>640.86</ele>
        <time>2014-12-07T00:14:45Z</time>
      </trkpt>
      <trkpt lat="45.88021" lon="3.60145">
        <ele>642.3</ele>
        <time>2014-12-07T00:14:54Z</time>
      </trkpt>
      <trkpt lat="45.88032" lon="3.60152">
        <ele>643.26</ele>
        <time>2014-12-07T00:15:01Z</time>
      </trkpt>
      <trkpt lat="45.88042" lon="3.60162">
        <ele>644.22</ele>
        <time>2014-12-07T00:15:08Z</time>
      </trkpt>
      <trkpt lat="45.8805" lon="3.60172">
        <ele>644.7</ele>
        <time>2014-12-07T00:15:15Z</time>
      </trkpt>
      <trkpt lat="45.88067" lon="3.60189">
        <ele>645.18</ele>
        <time>2014-12-07T00:15:29Z</time>
      </trkpt>
      <trkpt lat="45.88079" lon="3.60197">
        <ele>645.66</ele>
        <time>2014-12-07T00:15:39Z</time>
      </trkpt>
      <trkpt lat="45.88094" lon="3.60208">
        <ele>645.18</ele>
        <time>2014-12-07T00:15:52Z</time>
      </trkpt>
      <trkpt lat="45.88095" lon="3.60209">
        <ele>645.18</ele>
        <time>2014-12-07T00:15:53Z</time>
      </trkpt>
      <trkpt lat="45.88097" lon="3.60213">
        <ele>643.74</ele>
        <time>2014-12-07T00:16:06Z</time>
      </trkpt>
      <trkpt lat="45.88097" lon="3.60215">
        <ele>643.74</ele>
        <time>2014-12-07T00:16:35Z</time>
      </trkpt>
      <trkpt lat="45.88097" lon="3.60214">
        <ele>643.26</ele>
        <time>2014-12-07T00:17:05Z</time>
      </trkpt>
      <trkpt lat="45.88096" lon="3.60213">
        <ele>643.26</ele>
        <time>2014-12-07T00:17:33Z</time>
      </trkpt>
      <trkpt lat="45.88094" lon="3.60211">
        <ele>643.26</ele>
        <time>2014-12-07T00:18:06Z</time>
      </trkpt>
      <trkpt lat="45.88095" lon="3.60213">
        <ele>643.74</ele>
        <time>2014-12-07T00:18:34Z</time>
      </trkpt>
      <trkpt lat="45.88096" lon="3.60213">
        <ele>642.78</ele>
        <time>2014-12-07T00:19:04Z</time>
      </trkpt>
      <trkpt lat="45.88096" lon="3.60213">
        <ele>642.78</ele>
        <time>2014-12-07T00:19:33Z</time>
      </trkpt>
      <trkpt lat="45.88096" lon="3.60213">
        <ele>642.78</ele>
        <time>2014-12-07T00:20:01Z</time>
      </trkpt>
      <trkpt lat="45.88096" lon="3.60213">
        <ele>642.78</ele>
        <time>2014-12-07T00:20:29Z</time>
      </trkpt>
      <trkpt lat="45.88095" lon="3.60213">
        <ele>642.3</ele>
        <time>2014-12-07T00:20:56Z</time>
      </trkpt>
      <trkpt lat="45.88095" lon="3.60213">
        <ele>642.3</ele>
        <time>2014-12-07T00:21:25Z</time>
      </trkpt>
      <trkpt lat="45.88096" lon="3.60213">
        <ele>641.82</ele>
        <time>2014-12-07T00:22:01Z</time>
      </trkpt>
      <trkpt lat="45.88096" lon="3.60213">
        <ele>641.82</ele>
        <time>2014-12-07T00:22:31Z</time>
      </trkpt>
      <trkpt lat="45.88096" lon="3.60213">
        <ele>641.82</ele>
        <time>2014-12-07T00:23:01Z</time>
      </trkpt>
      <trkpt lat="45.88096" lon="3.60214">
        <ele>641.34</ele>
        <time>2014-12-07T00:23:34Z</time>
      </trkpt>
      <trkpt lat="45.88096" lon="3.60214">
        <ele>640.86</ele>
        <time>2014-12-07T00:24:10Z</time>
      </trkpt>
      <trkpt lat="45.88097" lon="3.60213">
        <ele>642.3</ele>
        <time>2014-12-07T00:24:21Z</time>
      </trkpt>
      <trkpt lat="45.88105" lon="3.60217">
        <ele>642.3</ele>
        <time>2014-12-07T00:24:36Z</time>
      </trkpt>
      <trkpt lat="45.88109" lon="3.60218">
        <ele>641.82</ele>
        <time>2014-12-07T00:24:40Z</time>
      </trkpt>
      <trkpt lat="45.88135" lon="3.60224">
        <ele>641.34</ele>
        <time>2014-12-07T00:24:52Z</time>
      </trkpt>
      <trkpt lat="45.88165" lon="3.60228">
        <ele>640.38</ele>
        <time>2014-12-07T00:25:03Z</time>
      </trkpt>
      <trkpt lat="45.88197" lon="3.60233">
        <ele>637.97</ele>
        <time>2014-12-07T00:25:14Z</time>
      </trkpt>
      <trkpt lat="45.88225" lon="3.60252">
        <ele>636.05</ele>
        <time>2014-12-07T00:25:25Z</time>
      </trkpt>
      <trkpt lat="45.88244" lon="3.60281">
        <ele>633.17</ele>
        <time>2014-12-07T00:25:36Z</time>
      </trkpt>
      <trkpt lat="45.88246" lon="3.60285">
        <ele>632.68</ele>
        <time>2014-12-07T00:25:37Z</time>
      </trkpt>
      <trkpt lat="45.8826" lon="3.60335">
        <ele>629.8</ele>
        <time>2014-12-07T00:25:49Z</time>
      </trkpt>
      <trkpt lat="45.88261" lon="3.60373">
        <ele>628.36</ele>
        <time>2014-12-07T00:25:59Z</time>
      </trkpt>
      <trkpt lat="45.88267" lon="3.60421">
        <ele>626.44</ele>
        <time>2014-12-07T00:26:10Z</time>
      </trkpt>
      <trkpt lat="45.88271" lon="3.6047">
        <ele>624.03</ele>
        <time>2014-12-07T00:26:21Z</time>
      </trkpt>
      <trkpt lat="45.88271" lon="3.60506">
        <ele>622.59</ele>
        <time>2014-12-07T00:26:29Z</time>
      </trkpt>
      <trkpt lat="45.88272" lon="3.60551">
        <ele>620.19</ele>
        <time>2014-12-07T00:26:40Z</time>
      </trkpt>
      <trkpt lat="45.88268" lon="3.606">
        <ele>617.3</ele>
        <time>2014-12-07T00:26:51Z</time>
      </trkpt>
      <trkpt lat="45.88246" lon="3.60635">
        <ele>616.34</ele>
        <time>2014-12-07T00:27:03Z</time>
      </trkpt>
      <trkpt lat="45.88231" lon="3.60662">
        <ele>613.94</ele>
        <time>2014-12-07T00:27:12Z</time>
      </trkpt>
      <trkpt lat="45.88204" lon="3.60696">
        <ele>611.54</ele>
        <time>2014-12-07T00:27:23Z</time>
      </trkpt>
      <trkpt lat="45.88183" lon="3.60729">
        <ele>607.69</ele>
        <time>2014-12-07T00:27:33Z</time>
      </trkpt>
      <trkpt lat="45.88181" lon="3.60732">
        <ele>607.69</ele>
        <time>2014-12-07T00:27:34Z</time>
      </trkpt>
      <trkpt lat="45.88169" lon="3.60776">
        <ele>605.77</ele>
        <time>2014-12-07T00:27:45Z</time>
      </trkpt>
      <trkpt lat="45.88155" lon="3.60815">
        <ele>604.81</ele>
        <time>2014-12-07T00:27:56Z</time>
      </trkpt>
      <trkpt lat="45.88146" lon="3.60862">
        <ele>603.36</ele>
        <time>2014-12-07T00:28:08Z</time>
      </trkpt>
      <trkpt lat="45.88137" lon="3.60897">
        <ele>601.92</ele>
        <time>2014-12-07T00:28:18Z</time>
      </trkpt>
      <trkpt lat="45.88137" lon="3.60937">
        <ele>600.48</ele>
        <time>2014-12-07T00:28:28Z</time>
      </trkpt>
      <trkpt lat="45.88134" lon="3.60988">
        <ele>599.04</ele>
        <time>2014-12-07T00:28:40Z</time>
      </trkpt>
      <trkpt lat="45.88129" lon="3.61026">
        <ele>598.08</ele>
        <time>2014-12-07T00:28:50Z</time>
      </trkpt>
      <trkpt lat="45.88127" lon="3.61039">
        <ele>597.12</ele>
        <time>2014-12-07T00:28:55Z</time>
      </trkpt>
      <trkpt lat="45.8812" lon="3.61088">
        <ele>595.67</ele>
        <time>2014-12-07T00:29:06Z</time>
      </trkpt>
      <trkpt lat="45.8811" lon="3.61132">
        <ele>593.75</ele>
        <time>2014-12-07T00:29:18Z</time>
      </trkpt>
      <trkpt lat="45.881" lon="3.61159">
        <ele>592.31</ele>
        <time>2014-12-07T00:29:27Z</time>
      </trkpt>
      <trkpt lat="45.88097" lon="3.61167">
        <ele>591.83</ele>
        <time>2014-12-07T00:29:30Z</time>
      </trkpt>
      <trkpt lat="45.88089" lon="3.61201">
        <ele>590.39</ele>
        <time>2014-12-07T00:29:41Z</time>
      </trkpt>
      <trkpt lat="45.88083" lon="3.61236">
        <ele>587.5</ele>
        <time>2014-12-07T00:29:52Z</time>
      </trkpt>
      <trkpt lat="45.88093" lon="3.61275">
        <ele>584.14</ele>
        <time>2014-12-07T00:30:04Z</time>
      </trkpt>
      <trkpt lat="45.88107" lon="3.6131">
        <ele>582.7</ele>
        <time>2014-12-07T00:30:15Z</time>
      </trkpt>
      <trkpt lat="45.88116" lon="3.61342">
        <ele>581.25</ele>
        <time>2014-12-07T00:30:26Z</time>
      </trkpt>
      <trkpt lat="45.88119" lon="3.61352">
        <ele>581.25</ele>
        <time>2014-12-07T00:30:32Z</time>
      </trkpt>
      <trkpt lat="45.88115" lon="3.61377">
        <ele>580.29</ele>
        <time>2014-12-07T00:30:45Z</time>
      </trkpt>
      <trkpt lat="45.8811" lon="3.61389">
        <ele>580.29</ele>
        <time>2014-12-07T00:30:52Z</time>
      </trkpt>
      <trkpt lat="45.88104" lon="3.61408">
        <ele>580.77</ele>
        <time>2014-12-07T00:31:01Z</time>
      </trkpt>
      <trkpt lat="45.88102" lon="3.61412">
        <ele>581.25</ele>
        <time>2014-12-07T00:31:03Z</time>
      </trkpt>
      <trkpt lat="45.88093" lon="3.61435">
        <ele>581.73</ele>
        <time>2014-12-07T00:31:14Z</time>
      </trkpt>
      <trkpt lat="45.88093" lon="3.61444">
        <ele>581.73</ele>
        <time>2014-12-07T00:31:18Z</time>
      </trkpt>
      <trkpt lat="45.88093" lon="3.6145">
        <ele>582.22</ele>
        <time>2014-12-07T00:31:21Z</time>
      </trkpt>
      <trkpt lat="45.88101" lon="3.61474">
        <ele>583.66</ele>
        <time>2014-12-07T00:31:32Z</time>
      </trkpt>
      <trkpt lat="45.88107" lon="3.61483">
        <ele>584.14</ele>
        <time>2014-12-07T00:31:37Z</time>
      </trkpt>
      <trkpt lat="45.88118" lon="3.61493">
        <ele>585.58</ele>
        <time>2014-12-07T00:31:45Z</time>
      </trkpt>
      <trkpt lat="45.88125" lon="3.61497">
        <ele>587.02</ele>
        <time>2014-12-07T00:31:50Z</time>
      </trkpt>
      <trkpt lat="45.8814" lon="3.61504">
        <ele>589.43</ele>
        <time>2014-12-07T00:32:04Z</time>
      </trkpt>
      <trkpt lat="45.88146" lon="3.61508">
        <ele>590.39</ele>
        <time>2014-12-07T00:32:09Z</time>
      </trkpt>
      <trkpt lat="45.88153" lon="3.61518">
        <ele>591.35</ele>
        <time>2014-12-07T00:32:15Z</time>
      </trkpt>
      <trkpt lat="45.88162" lon="3.61534">
        <ele>592.79</ele>
        <time>2014-12-07T00:32:24Z</time>
      </trkpt>
      <trkpt lat="45.88174" lon="3.61561">
        <ele>594.71</ele>
        <time>2014-12-07T00:32:38Z</time>
      </trkpt>
      <trkpt lat="45.88175" lon="3.61565">
        <ele>595.19</ele>
        <time>2014-12-07T00:32:40Z</time>
      </trkpt>
      <trkpt lat="45.88178" lon="3.61574">
        <ele>595.19</ele>
        <time>2014-12-07T00:32:44Z</time>
      </trkpt>
      <trkpt lat="45.88179" lon="3.61578">
        <ele>595.67</ele>
        <time>2014-12-07T00:32:46Z</time>
      </trkpt>
      <trkpt lat="45.8818" lon="3.61586">
        <ele>596.15</ele>
        <time>2014-12-07T00:32:50Z</time>
      </trkpt>
      <trkpt lat="45.88185" lon="3.616">
        <ele>597.6</ele>
        <time>2014-12-07T00:32:58Z</time>
      </trkpt>
      <trkpt lat="45.88186" lon="3.61612">
        <ele>598.56</ele>
        <time>2014-12-07T00:33:03Z</time>
      </trkpt>
      <trkpt lat="45.88191" lon="3.61628">
        <ele>600</ele>
        <time>2014-12-07T00:33:10Z</time>
      </trkpt>
      <trkpt lat="45.88188" lon="3.61648">
        <ele>602.4</ele>
        <time>2014-12-07T00:33:20Z</time>
      </trkpt>
      <trkpt lat="45.88189" lon="3.61653">
        <ele>602.88</ele>
        <time>2014-12-07T00:33:22Z</time>
      </trkpt>
      <trkpt lat="45.88189" lon="3.61663">
        <ele>603.85</ele>
        <time>2014-12-07T00:33:27Z</time>
      </trkpt>
      <trkpt lat="45.88186" lon="3.61672">
        <ele>604.81</ele>
        <time>2014-12-07T00:33:32Z</time>
      </trkpt>
      <trkpt lat="45.88181" lon="3.61682">
        <ele>605.77</ele>
        <time>2014-12-07T00:33:38Z</time>
      </trkpt>
      <trkpt lat="45.88179" lon="3.61694">
        <ele>606.73</ele>
        <time>2014-12-07T00:33:44Z</time>
      </trkpt>
      <trkpt lat="45.88178" lon="3.61702">
        <ele>606.73</ele>
        <time>2014-12-07T00:33:48Z</time>
      </trkpt>
      <trkpt lat="45.88169" lon="3.61724">
        <ele>610.09</ele>
        <time>2014-12-07T00:33:59Z</time>
      </trkpt>
      <trkpt lat="45.88169" lon="3.61727">
        <ele>609.13</ele>
        <time>2014-12-07T00:34:00Z</time>
      </trkpt>
      <trkpt lat="45.88169" lon="3.61737">
        <ele>609.61</ele>
        <time>2014-12-07T00:34:05Z</time>
      </trkpt>
      <trkpt lat="45.88168" lon="3.61741">
        <ele>605.77</ele>
        <time>2014-12-07T00:34:07Z</time>
      </trkpt>
      <trkpt lat="45.88168" lon="3.61743">
        <ele>613.46</ele>
        <time>2014-12-07T00:34:08Z</time>
      </trkpt>
      <trkpt lat="45.88168" lon="3.61763">
        <ele>612.5</ele>
        <time>2014-12-07T00:34:18Z</time>
      </trkpt>
      <trkpt lat="45.88168" lon="3.61766">
        <ele>612.98</ele>
        <time>2014-12-07T00:34:20Z</time>
      </trkpt>
      <trkpt lat="45.88169" lon="3.61775">
        <ele>613.46</ele>
        <time>2014-12-07T00:34:24Z</time>
      </trkpt>
      <trkpt lat="45.88168" lon="3.6178">
        <ele>613.94</ele>
        <time>2014-12-07T00:34:27Z</time>
      </trkpt>
      <trkpt lat="45.88172" lon="3.61789">
        <ele>614.9</ele>
        <time>2014-12-07T00:34:31Z</time>
      </trkpt>
      <trkpt lat="45.88174" lon="3.61794">
        <ele>615.38</ele>
        <time>2014-12-07T00:34:33Z</time>
      </trkpt>
      <trkpt lat="45.88174" lon="3.61802">
        <ele>616.34</ele>
        <time>2014-12-07T00:34:37Z</time>
      </trkpt>
      <trkpt lat="45.88177" lon="3.61817">
        <ele>617.3</ele>
        <time>2014-12-07T00:34:44Z</time>
      </trkpt>
      <trkpt lat="45.88179" lon="3.61829">
        <ele>618.75</ele>
        <time>2014-12-07T00:34:50Z</time>
      </trkpt>
      <trkpt lat="45.88181" lon="3.61838">
        <ele>619.23</ele>
        <time>2014-12-07T00:34:54Z</time>
      </trkpt>
      <trkpt lat="45.88177" lon="3.61846">
        <ele>620.67</ele>
        <time>2014-12-07T00:35:00Z</time>
      </trkpt>
      <trkpt lat="45.88171" lon="3.61865">
        <ele>623.07</ele>
        <time>2014-12-07T00:35:11Z</time>
      </trkpt>
      <trkpt lat="45.88168" lon="3.6187">
        <ele>623.07</ele>
        <time>2014-12-07T00:35:14Z</time>
      </trkpt>
      <trkpt lat="45.88159" lon="3.61888">
        <ele>625.47</ele>
        <time>2014-12-07T00:35:24Z</time>
      </trkpt>
      <trkpt lat="45.88157" lon="3.61895">
        <ele>626.44</ele>
        <time>2014-12-07T00:35:28Z</time>
      </trkpt>
      <trkpt lat="45.88136" lon="3.61913">
        <ele>628.84</ele>
        <time>2014-12-07T00:35:40Z</time>
      </trkpt>
      <trkpt lat="45.88126" lon="3.61926">
        <ele>630.28</ele>
        <time>2014-12-07T00:35:48Z</time>
      </trkpt>
      <trkpt lat="45.88119" lon="3.61938">
        <ele>631.72</ele>
        <time>2014-12-07T00:35:54Z</time>
      </trkpt>
      <trkpt lat="45.88109" lon="3.61958">
        <ele>633.65</ele>
        <time>2014-12-07T00:36:04Z</time>
      </trkpt>
      <trkpt lat="45.88099" lon="3.61976">
        <ele>634.61</ele>
        <time>2014-12-07T00:36:14Z</time>
      </trkpt>
      <trkpt lat="45.88098" lon="3.61979">
        <ele>634.61</ele>
        <time>2014-12-07T00:36:15Z</time>
      </trkpt>
      <trkpt lat="45.88094" lon="3.61986">
        <ele>635.09</ele>
        <time>2014-12-07T00:36:19Z</time>
      </trkpt>
      <trkpt lat="45.88092" lon="3.61998">
        <ele>635.09</ele>
        <time>2014-12-07T00:36:24Z</time>
      </trkpt>
      <trkpt lat="45.88112" lon="3.6203">
        <ele>636.05</ele>
        <time>2014-12-07T00:36:39Z</time>
      </trkpt>
      <trkpt lat="45.88132" lon="3.62047">
        <ele>636.05</ele>
        <time>2014-12-07T00:36:53Z</time>
      </trkpt>
      <trkpt lat="45.88156" lon="3.62057">
        <ele>637.01</ele>
        <time>2014-12-07T00:37:06Z</time>
      </trkpt>
      <trkpt lat="45.88178" lon="3.62067">
        <ele>636.53</ele>
        <time>2014-12-07T00:37:19Z</time>
      </trkpt>
      <trkpt lat="45.882" lon="3.62078">
        <ele>637.49</ele>
        <time>2014-12-07T00:37:32Z</time>
      </trkpt>
      <trkpt lat="45.88204" lon="3.62082">
        <ele>636.53</ele>
        <time>2014-12-07T00:37:35Z</time>
      </trkpt>
      <trkpt lat="45.88203" lon="3.62108">
        <ele>638.45</ele>
        <time>2014-12-07T00:37:46Z</time>
      </trkpt>
      <trkpt lat="45.88203" lon="3.62128">
        <ele>638.93</ele>
        <time>2014-12-07T00:37:54Z</time>
      </trkpt>
      <trkpt lat="45.882" lon="3.62144">
        <ele>639.89</ele>
        <time>2014-12-07T00:38:01Z</time>
      </trkpt>
      <trkpt lat="45.88201" lon="3.62157">
        <ele>639.89</ele>
        <time>2014-12-07T00:38:06Z</time>
      </trkpt>
      <trkpt lat="45.88207" lon="3.62195">
        <ele>640.86</ele>
        <time>2014-12-07T00:38:22Z</time>
      </trkpt>
      <trkpt lat="45.88219" lon="3.62214">
        <ele>641.34</ele>
        <time>2014-12-07T00:38:34Z</time>
      </trkpt>
      <trkpt lat="45.88235" lon="3.62233">
        <ele>641.34</ele>
        <time>2014-12-07T00:38:46Z</time>
      </trkpt>
      <trkpt lat="45.88245" lon="3.62248">
        <ele>641.34</ele>
        <time>2014-12-07T00:38:56Z</time>
      </trkpt>
      <trkpt lat="45.88255" lon="3.62263">
        <ele>640.86</ele>
        <time>2014-12-07T00:39:05Z</time>
      </trkpt>
      <trkpt lat="45.88261" lon="3.62271">
        <ele>640.86</ele>
        <time>2014-12-07T00:39:09Z</time>
      </trkpt>
      <trkpt lat="45.8827" lon="3.62301">
        <ele>640.86</ele>
        <time>2014-12-07T00:39:24Z</time>
      </trkpt>
      <trkpt lat="45.88272" lon="3.62316">
        <ele>640.38</ele>
        <time>2014-12-07T00:39:29Z</time>
      </trkpt>
      <trkpt lat="45.88274" lon="3.62329">
        <ele>640.38</ele>
        <time>2014-12-07T00:39:34Z</time>
      </trkpt>
      <trkpt lat="45.88276" lon="3.62368">
        <ele>639.89</ele>
        <time>2014-12-07T00:39:49Z</time>
      </trkpt>
      <trkpt lat="45.88276" lon="3.62396">
        <ele>638.93</ele>
        <time>2014-12-07T00:40:01Z</time>
      </trkpt>
      <trkpt lat="45.88272" lon="3.62417">
        <ele>638.93</ele>
        <time>2014-12-07T00:40:10Z</time>
      </trkpt>
      <trkpt lat="45.88265" lon="3.6245">
        <ele>636.05</ele>
        <time>2014-12-07T00:40:23Z</time>
      </trkpt>
      <trkpt lat="45.88264" lon="3.62454">
        <ele>637.01</ele>
        <time>2014-12-07T00:40:25Z</time>
      </trkpt>
      <trkpt lat="45.88259" lon="3.62468">
        <ele>636.53</ele>
        <time>2014-12-07T00:40:31Z</time>
      </trkpt>
      <trkpt lat="45.8825" lon="3.62484">
        <ele>635.09</ele>
        <time>2014-12-07T00:40:38Z</time>
      </trkpt>
      <trkpt lat="45.88239" lon="3.62504">
        <ele>633.65</ele>
        <time>2014-12-07T00:40:46Z</time>
      </trkpt>
      <trkpt lat="45.88229" lon="3.62522">
        <ele>632.2</ele>
        <time>2014-12-07T00:40:53Z</time>
      </trkpt>
      <trkpt lat="45.88215" lon="3.62544">
        <ele>630.76</ele>
        <time>2014-12-07T00:41:01Z</time>
      </trkpt>
      <trkpt lat="45.88205" lon="3.62561">
        <ele>628.84</ele>
        <time>2014-12-07T00:41:07Z</time>
      </trkpt>
      <trkpt lat="45.88195" lon="3.6258">
        <ele>627.88</ele>
        <time>2014-12-07T00:41:13Z</time>
      </trkpt>
      <trkpt lat="45.88186" lon="3.62615">
        <ele>625.47</ele>
        <time>2014-12-07T00:41:24Z</time>
      </trkpt>
      <trkpt lat="45.88183" lon="3.62621">
        <ele>624.99</ele>
        <time>2014-12-07T00:41:26Z</time>
      </trkpt>
      <trkpt lat="45.88179" lon="3.62631">
        <ele>624.03</ele>
        <time>2014-12-07T00:41:29Z</time>
      </trkpt>
      <trkpt lat="45.88176" lon="3.62644">
        <ele>623.55</ele>
        <time>2014-12-07T00:41:33Z</time>
      </trkpt>
      <trkpt lat="45.88172" lon="3.62657">
        <ele>623.07</ele>
        <time>2014-12-07T00:41:37Z</time>
      </trkpt>
      <trkpt lat="45.88171" lon="3.6268">
        <ele>623.55</ele>
        <time>2014-12-07T00:41:45Z</time>
      </trkpt>
      <trkpt lat="45.88153" lon="3.6271">
        <ele>626.44</ele>
        <time>2014-12-07T00:42:02Z</time>
      </trkpt>
      <trkpt lat="45.88141" lon="3.62733">
        <ele>627.88</ele>
        <time>2014-12-07T00:42:14Z</time>
      </trkpt>
      <trkpt lat="45.88136" lon="3.62747">
        <ele>628.84</ele>
        <time>2014-12-07T00:42:21Z</time>
      </trkpt>
      <trkpt lat="45.88117" lon="3.62773">
        <ele>629.32</ele>
        <time>2014-12-07T00:42:35Z</time>
      </trkpt>
      <trkpt lat="45.88113" lon="3.62782">
        <ele>628.84</ele>
        <time>2014-12-07T00:42:39Z</time>
      </trkpt>
      <trkpt lat="45.88107" lon="3.62803">
        <ele>628.36</ele>
        <time>2014-12-07T00:42:49Z</time>
      </trkpt>
      <trkpt lat="45.88102" lon="3.62815">
        <ele>629.32</ele>
        <time>2014-12-07T00:42:56Z</time>
      </trkpt>
      <trkpt lat="45.88095" lon="3.6283">
        <ele>629.8</ele>
        <time>2014-12-07T00:43:03Z</time>
      </trkpt>
      <trkpt lat="45.88089" lon="3.62839">
        <ele>631.24</ele>
        <time>2014-12-07T00:43:08Z</time>
      </trkpt>
      <trkpt lat="45.88075" lon="3.62857">
        <ele>634.13</ele>
        <time>2014-12-07T00:43:20Z</time>
      </trkpt>
      <trkpt lat="45.88062" lon="3.62868">
        <ele>636.53</ele>
        <time>2014-12-07T00:43:29Z</time>
      </trkpt>
      <trkpt lat="45.88058" lon="3.62875">
        <ele>637.49</ele>
        <time>2014-12-07T00:43:33Z</time>
      </trkpt>
      <trkpt lat="45.8805" lon="3.62884">
        <ele>637.97</ele>
        <time>2014-12-07T00:43:38Z</time>
      </trkpt>
      <trkpt lat="45.88032" lon="3.62905">
        <ele>639.89</ele>
        <time>2014-12-07T00:43:51Z</time>
      </trkpt>
      <trkpt lat="45.88029" lon="3.62911">
        <ele>639.89</ele>
        <time>2014-12-07T00:43:54Z</time>
      </trkpt>
      <trkpt lat="45.88021" lon="3.62919">
        <ele>640.38</ele>
        <time>2014-12-07T00:43:59Z</time>
      </trkpt>
      <trkpt lat="45.88016" lon="3.62932">
        <ele>640.38</ele>
        <time>2014-12-07T00:44:06Z</time>
      </trkpt>
      <trkpt lat="45.88005" lon="3.62953">
        <ele>639.89</ele>
        <time>2014-12-07T00:44:16Z</time>
      </trkpt>
      <trkpt lat="45.88002" lon="3.62962">
        <ele>639.89</ele>
        <time>2014-12-07T00:44:20Z</time>
      </trkpt>
      <trkpt lat="45.87996" lon="3.62971">
        <ele>640.38</ele>
        <time>2014-12-07T00:44:26Z</time>
      </trkpt>
      <trkpt lat="45.87993" lon="3.62979">
        <ele>640.38</ele>
        <time>2014-12-07T00:44:30Z</time>
      </trkpt>
      <trkpt lat="45.87985" lon="3.62999">
        <ele>640.86</ele>
        <time>2014-12-07T00:44:40Z</time>
      </trkpt>
      <trkpt lat="45.87978" lon="3.63008">
        <ele>641.34</ele>
        <time>2014-12-07T00:44:46Z</time>
      </trkpt>
      <trkpt lat="45.87961" lon="3.63025">
        <ele>640.38</ele>
        <time>2014-12-07T00:44:58Z</time>
      </trkpt>
      <trkpt lat="45.87951" lon="3.63039">
        <ele>639.89</ele>
        <time>2014-12-07T00:45:07Z</time>
      </trkpt>
      <trkpt lat="45.87941" lon="3.63051">
        <ele>639.89</ele>
        <time>2014-12-07T00:45:15Z</time>
      </trkpt>
      <trkpt lat="45.87935" lon="3.63059">
        <ele>639.41</ele>
        <time>2014-12-07T00:45:19Z</time>
      </trkpt>
      <trkpt lat="45.87929" lon="3.63078">
        <ele>638.45</ele>
        <time>2014-12-07T00:45:25Z</time>
      </trkpt>
      <trkpt lat="45.87923" lon="3.63102">
        <ele>634.61</ele>
        <time>2014-12-07T00:45:33Z</time>
      </trkpt>
      <trkpt lat="45.87921" lon="3.63135">
        <ele>632.2</ele>
        <time>2014-12-07T00:45:42Z</time>
      </trkpt>
      <trkpt lat="45.87929" lon="3.63176">
        <ele>631.72</ele>
        <time>2014-12-07T00:45:56Z</time>
      </trkpt>
      <trkpt lat="45.8793" lon="3.63207">
        <ele>631.24</ele>
        <time>2014-12-07T00:46:09Z</time>
      </trkpt>
      <trkpt lat="45.87927" lon="3.63236">
        <ele>631.72</ele>
        <time>2014-12-07T00:46:21Z</time>
      </trkpt>
      <trkpt lat="45.87925" lon="3.63263">
        <ele>630.76</ele>
        <time>2014-12-07T00:46:34Z</time>
      </trkpt>
      <trkpt lat="45.87916" lon="3.63293">
        <ele>631.24</ele>
        <time>2014-12-07T00:46:48Z</time>
      </trkpt>
      <trkpt lat="45.87917" lon="3.63308">
        <ele>632.2</ele>
        <time>2014-12-07T00:46:54Z</time>
      </trkpt>
      <trkpt lat="45.87912" lon="3.63342">
        <ele>632.2</ele>
        <time>2014-12-07T00:47:08Z</time>
      </trkpt>
      <trkpt lat="45.87911" lon="3.63367">
        <ele>632.68</ele>
        <time>2014-12-07T00:47:20Z</time>
      </trkpt>
      <trkpt lat="45.87906" lon="3.63401">
        <ele>634.13</ele>
        <time>2014-12-07T00:47:34Z</time>
      </trkpt>
      <trkpt lat="45.87902" lon="3.63431">
        <ele>635.57</ele>
        <time>2014-12-07T00:47:47Z</time>
      </trkpt>
      <trkpt lat="45.87898" lon="3.63462">
        <ele>637.49</ele>
        <time>2014-12-07T00:48:01Z</time>
      </trkpt>
      <trkpt lat="45.87894" lon="3.63492">
        <ele>640.38</ele>
        <time>2014-12-07T00:48:15Z</time>
      </trkpt>
      <trkpt lat="45.87893" lon="3.63517">
        <ele>642.3</ele>
        <time>2014-12-07T00:48:26Z</time>
      </trkpt>
      <trkpt lat="45.87887" lon="3.63548">
        <ele>644.7</ele>
        <time>2014-12-07T00:48:42Z</time>
      </trkpt>
      <trkpt lat="45.87882" lon="3.63571">
        <ele>645.66</ele>
        <time>2014-12-07T00:48:53Z</time>
      </trkpt>
      <trkpt lat="45.87874" lon="3.63584">
        <ele>647.1</ele>
        <time>2014-12-07T00:49:01Z</time>
      </trkpt>
      <trkpt lat="45.87866" lon="3.63595">
        <ele>648.07</ele>
        <time>2014-12-07T00:49:09Z</time>
      </trkpt>
      <trkpt lat="45.87851" lon="3.63616">
        <ele>649.03</ele>
        <time>2014-12-07T00:49:22Z</time>
      </trkpt>
      <trkpt lat="45.87847" lon="3.63622">
        <ele>649.51</ele>
        <time>2014-12-07T00:49:26Z</time>
      </trkpt>
      <trkpt lat="45.87832" lon="3.63635">
        <ele>650.95</ele>
        <time>2014-12-07T00:49:39Z</time>
      </trkpt>
      <trkpt lat="45.87827" lon="3.63641">
        <ele>651.91</ele>
        <time>2014-12-07T00:49:44Z</time>
      </trkpt>
      <trkpt lat="45.87824" lon="3.63647">
        <ele>652.39</ele>
        <time>2014-12-07T00:49:48Z</time>
      </trkpt>
      <trkpt lat="45.87814" lon="3.6366">
        <ele>654.31</ele>
        <time>2014-12-07T00:49:59Z</time>
      </trkpt>
      <trkpt lat="45.87796" lon="3.63683">
        <ele>656.72</ele>
        <time>2014-12-07T00:50:12Z</time>
      </trkpt>
      <trkpt lat="45.87771" lon="3.63705">
        <ele>658.16</ele>
        <time>2014-12-07T00:50:25Z</time>
      </trkpt>
      <trkpt lat="45.8776" lon="3.63728">
        <ele>659.12</ele>
        <time>2014-12-07T00:50:37Z</time>
      </trkpt>
      <trkpt lat="45.87747" lon="3.63751">
        <ele>658.16</ele>
        <time>2014-12-07T00:50:49Z</time>
      </trkpt>
      <trkpt lat="45.8773" lon="3.63781">
        <ele>655.76</ele>
        <time>2014-12-07T00:51:00Z</time>
      </trkpt>
      <trkpt lat="45.8772" lon="3.63814">
        <ele>654.8</ele>
        <time>2014-12-07T00:51:10Z</time>
      </trkpt>
      <trkpt lat="45.87714" lon="3.6386">
        <ele>653.35</ele>
        <time>2014-12-07T00:51:23Z</time>
      </trkpt>
      <trkpt lat="45.87705" lon="3.63893">
        <ele>652.39</ele>
        <time>2014-12-07T00:51:34Z</time>
      </trkpt>
      <trkpt lat="45.87694" lon="3.6391">
        <ele>652.87</ele>
        <time>2014-12-07T00:51:41Z</time>
      </trkpt>
      <trkpt lat="45.87673" lon="3.63921">
        <ele>653.83</ele>
        <time>2014-12-07T00:51:55Z</time>
      </trkpt>
      <trkpt lat="45.8765" lon="3.63935">
        <ele>655.28</ele>
        <time>2014-12-07T00:52:10Z</time>
      </trkpt>
      <trkpt lat="45.87628" lon="3.63949">
        <ele>657.2</ele>
        <time>2014-12-07T00:52:25Z</time>
      </trkpt>
      <trkpt lat="45.87626" lon="3.63951">
        <ele>657.68</ele>
        <time>2014-12-07T00:52:27Z</time>
      </trkpt>
      <trkpt lat="45.87621" lon="3.63957">
        <ele>657.68</ele>
        <time>2014-12-07T00:52:31Z</time>
      </trkpt>
      <trkpt lat="45.87615" lon="3.63965">
        <ele>657.2</ele>
        <time>2014-12-07T00:52:36Z</time>
      </trkpt>
      <trkpt lat="45.87609" lon="3.63971">
        <ele>656.72</ele>
        <time>2014-12-07T00:52:40Z</time>
      </trkpt>
      <trkpt lat="45.8759" lon="3.64">
        <ele>653.83</ele>
        <time>2014-12-07T00:52:54Z</time>
      </trkpt>
      <trkpt lat="45.87576" lon="3.64023">
        <ele>652.39</ele>
        <time>2014-12-07T00:53:04Z</time>
      </trkpt>
      <trkpt lat="45.87558" lon="3.6405">
        <ele>650.47</ele>
        <time>2014-12-07T00:53:14Z</time>
      </trkpt>
      <trkpt lat="45.87543" lon="3.64059">
        <ele>650.95</ele>
        <time>2014-12-07T00:53:18Z</time>
      </trkpt>
      <trkpt lat="45.8754" lon="3.64067">
        <ele>651.43</ele>
        <time>2014-12-07T00:53:22Z</time>
      </trkpt>
      <trkpt lat="45.87531" lon="3.64085">
        <ele>652.39</ele>
        <time>2014-12-07T00:53:34Z</time>
      </trkpt>
      <trkpt lat="45.87515" lon="3.64098">
        <ele>655.28</ele>
        <time>2014-12-07T00:53:46Z</time>
      </trkpt>
      <trkpt lat="45.87507" lon="3.64106">
        <ele>657.2</ele>
        <time>2014-12-07T00:53:52Z</time>
      </trkpt>
      <trkpt lat="45.87489" lon="3.64125">
        <ele>660.56</ele>
        <time>2014-12-07T00:54:05Z</time>
      </trkpt>
      <trkpt lat="45.87474" lon="3.64147">
        <ele>662.49</ele>
        <time>2014-12-07T00:54:18Z</time>
      </trkpt>
      <trkpt lat="45.87467" lon="3.64167">
        <ele>663.93</ele>
        <time>2014-12-07T00:54:28Z</time>
      </trkpt>
      <trkpt lat="45.87462" lon="3.64178">
        <ele>664.41</ele>
        <time>2014-12-07T00:54:34Z</time>
      </trkpt>
      <trkpt lat="45.87456" lon="3.64188">
        <ele>665.37</ele>
        <time>2014-12-07T00:54:40Z</time>
      </trkpt>
      <trkpt lat="45.87452" lon="3.64219">
        <ele>666.81</ele>
        <time>2014-12-07T00:54:53Z</time>
      </trkpt>
      <trkpt lat="45.87451" lon="3.64248">
        <ele>668.73</ele>
        <time>2014-12-07T00:55:06Z</time>
      </trkpt>
      <trkpt lat="45.87447" lon="3.64282">
        <ele>669.7</ele>
        <time>2014-12-07T00:55:20Z</time>
      </trkpt>
      <trkpt lat="45.8744" lon="3.64304">
        <ele>670.18</ele>
        <time>2014-12-07T00:55:30Z</time>
      </trkpt>
      <trkpt lat="45.87439" lon="3.64317">
        <ele>669.7</ele>
        <time>2014-12-07T00:55:35Z</time>
      </trkpt>
      <trkpt lat="45.87437" lon="3.64327">
        <ele>669.7</ele>
        <time>2014-12-07T00:55:39Z</time>
      </trkpt>
      <trkpt lat="45.87433" lon="3.64367">
        <ele>668.25</ele>
        <time>2014-12-07T00:55:50Z</time>
      </trkpt>
      <trkpt lat="45.87433" lon="3.64375">
        <ele>667.77</ele>
        <time>2014-12-07T00:55:52Z</time>
      </trkpt>
      <trkpt lat="45.87433" lon="3.6439">
        <ele>666.81</ele>
        <time>2014-12-07T00:55:56Z</time>
      </trkpt>
      <trkpt lat="45.87427" lon="3.64444">
        <ele>664.89</ele>
        <time>2014-12-07T00:56:10Z</time>
      </trkpt>
      <trkpt lat="45.87425" lon="3.64483">
        <ele>663.45</ele>
        <time>2014-12-07T00:56:21Z</time>
      </trkpt>
      <trkpt lat="45.87426" lon="3.6452">
        <ele>660.56</ele>
        <time>2014-12-07T00:56:31Z</time>
      </trkpt>
      <trkpt lat="45.87422" lon="3.64561">
        <ele>659.12</ele>
        <time>2014-12-07T00:56:41Z</time>
      </trkpt>
      <trkpt lat="45.87415" lon="3.64602">
        <ele>658.16</ele>
        <time>2014-12-07T00:56:53Z</time>
      </trkpt>
      <trkpt lat="45.87412" lon="3.64633">
        <ele>657.68</ele>
        <time>2014-12-07T00:57:01Z</time>
      </trkpt>
      <trkpt lat="45.87411" lon="3.64643">
        <ele>657.68</ele>
        <time>2014-12-07T00:57:05Z</time>
      </trkpt>
      <trkpt lat="45.87406" lon="3.64673">
        <ele>657.2</ele>
        <time>2014-12-07T00:57:18Z</time>
      </trkpt>
      <trkpt lat="45.87406" lon="3.64677">
        <ele>657.2</ele>
        <time>2014-12-07T00:57:20Z</time>
      </trkpt>
      <trkpt lat="45.87399" lon="3.64712">
        <ele>656.24</ele>
        <time>2014-12-07T00:57:35Z</time>
      </trkpt>
      <trkpt lat="45.87398" lon="3.64717">
        <ele>656.24</ele>
        <time>2014-12-07T00:57:37Z</time>
      </trkpt>
      <trkpt lat="45.87392" lon="3.64749">
        <ele>655.76</ele>
        <time>2014-12-07T00:57:50Z</time>
      </trkpt>
      <trkpt lat="45.87379" lon="3.64773">
        <ele>656.24</ele>
        <time>2014-12-07T00:58:02Z</time>
      </trkpt>
      <trkpt lat="45.87372" lon="3.64784">
        <ele>656.72</ele>
        <time>2014-12-07T00:58:09Z</time>
      </trkpt>
      <trkpt lat="45.87365" lon="3.64789">
        <ele>656.72</ele>
        <time>2014-12-07T00:58:13Z</time>
      </trkpt>
      <trkpt lat="45.87358" lon="3.64801">
        <ele>656.72</ele>
        <time>2014-12-07T00:58:21Z</time>
      </trkpt>
      <trkpt lat="45.87342" lon="3.64816">
        <ele>656.24</ele>
        <time>2014-12-07T00:58:33Z</time>
      </trkpt>
      <trkpt lat="45.87324" lon="3.64829">
        <ele>654.8</ele>
        <time>2014-12-07T00:58:43Z</time>
      </trkpt>
      <trkpt lat="45.87317" lon="3.64838">
        <ele>654.31</ele>
        <time>2014-12-07T00:58:47Z</time>
      </trkpt>
      <trkpt lat="45.87302" lon="3.64871">
        <ele>652.39</ele>
        <time>2014-12-07T00:58:58Z</time>
      </trkpt>
      <trkpt lat="45.87297" lon="3.64908">
        <ele>649.51</ele>
        <time>2014-12-07T00:59:07Z</time>
      </trkpt>
      <trkpt lat="45.87297" lon="3.6492">
        <ele>649.03</ele>
        <time>2014-12-07T00:59:10Z</time>
      </trkpt>
      <trkpt lat="45.8729" lon="3.64962">
        <ele>645.18</ele>
        <time>2014-12-07T00:59:21Z</time>
      </trkpt>
      <trkpt lat="45.87291" lon="3.64997">
        <ele>641.82</ele>
        <time>2014-12-07T00:59:29Z</time>
      </trkpt>
      <trkpt lat="45.87291" lon="3.65001">
        <ele>641.82</ele>
        <time>2014-12-07T00:59:30Z</time>
      </trkpt>
      <trkpt lat="45.87291" lon="3.65027">
        <ele>639.41</ele>
        <time>2014-12-07T00:59:36Z</time>
      </trkpt>
      <trkpt lat="45.87296" lon="3.65054">
        <ele>636.05</ele>
        <time>2014-12-07T00:59:43Z</time>
      </trkpt>
      <trkpt lat="45.87308" lon="3.6509">
        <ele>632.68</ele>
        <time>2014-12-07T00:59:52Z</time>
      </trkpt>
      <trkpt lat="45.8731" lon="3.65093">
        <ele>632.2</ele>
        <time>2014-12-07T00:59:53Z</time>
      </trkpt>
      <trkpt lat="45.87332" lon="3.65128">
        <ele>630.28</ele>
        <time>2014-12-07T01:00:06Z</time>
      </trkpt>
      <trkpt lat="45.87346" lon="3.65144">
        <ele>630.28</ele>
        <time>2014-12-07T01:00:14Z</time>
      </trkpt>
      <trkpt lat="45.87357" lon="3.65153">
        <ele>629.8</ele>
        <time>2014-12-07T01:00:21Z</time>
      </trkpt>
      <trkpt lat="45.8737" lon="3.65177">
        <ele>629.8</ele>
        <time>2014-12-07T01:00:35Z</time>
      </trkpt>
      <trkpt lat="45.87373" lon="3.65191">
        <ele>630.28</ele>
        <time>2014-12-07T01:00:41Z</time>
      </trkpt>
      <trkpt lat="45.87373" lon="3.65202">
        <ele>629.32</ele>
        <time>2014-12-07T01:00:45Z</time>
      </trkpt>
      <trkpt lat="45.87368" lon="3.65213">
        <ele>629.32</ele>
        <time>2014-12-07T01:00:51Z</time>
      </trkpt>
      <trkpt lat="45.87342" lon="3.65225">
        <ele>628.36</ele>
        <time>2014-12-07T01:01:03Z</time>
      </trkpt>
      <trkpt lat="45.87329" lon="3.65229">
        <ele>627.4</ele>
        <time>2014-12-07T01:01:08Z</time>
      </trkpt>
      <trkpt lat="45.87314" lon="3.65238">
        <ele>624.99</ele>
        <time>2014-12-07T01:01:14Z</time>
      </trkpt>
      <trkpt lat="45.87277" lon="3.65242">
        <ele>623.55</ele>
        <time>2014-12-07T01:01:29Z</time>
      </trkpt>
      <trkpt lat="45.87276" lon="3.65247">
        <ele>623.55</ele>
        <time>2014-12-07T01:01:30Z</time>
      </trkpt>
      <trkpt lat="45.87263" lon="3.65257">
        <ele>623.55</ele>
        <time>2014-12-07T01:01:34Z</time>
      </trkpt>
      <trkpt lat="45.87252" lon="3.65269">
        <ele>623.55</ele>
        <time>2014-12-07T01:01:42Z</time>
      </trkpt>
      <trkpt lat="45.87235" lon="3.65291">
        <ele>624.51</ele>
        <time>2014-12-07T01:01:55Z</time>
      </trkpt>
      <trkpt lat="45.87231" lon="3.65308">
        <ele>625.47</ele>
        <time>2014-12-07T01:02:02Z</time>
      </trkpt>
      <trkpt lat="45.87229" lon="3.6534">
        <ele>625.47</ele>
        <time>2014-12-07T01:02:16Z</time>
      </trkpt>
      <trkpt lat="45.87231" lon="3.65363">
        <ele>624.99</ele>
        <time>2014-12-07T01:02:26Z</time>
      </trkpt>
      <trkpt lat="45.87229" lon="3.65406">
        <ele>624.51</ele>
        <time>2014-12-07T01:02:43Z</time>
      </trkpt>
      <trkpt lat="45.8722" lon="3.65432">
        <ele>623.55</ele>
        <time>2014-12-07T01:02:55Z</time>
      </trkpt>
      <trkpt lat="45.87203" lon="3.65455">
        <ele>621.15</ele>
        <time>2014-12-07T01:03:10Z</time>
      </trkpt>
      <trkpt lat="45.87183" lon="3.65475">
        <ele>618.75</ele>
        <time>2014-12-07T01:03:25Z</time>
      </trkpt>
      <trkpt lat="45.87163" lon="3.65497">
        <ele>617.3</ele>
        <time>2014-12-07T01:03:38Z</time>
      </trkpt>
      <trkpt lat="45.87151" lon="3.6552">
        <ele>616.34</ele>
        <time>2014-12-07T01:03:50Z</time>
      </trkpt>
      <trkpt lat="45.87141" lon="3.65549">
        <ele>615.38</ele>
        <time>2014-12-07T01:04:01Z</time>
      </trkpt>
      <trkpt lat="45.8713" lon="3.65586">
        <ele>612.02</ele>
        <time>2014-12-07T01:04:12Z</time>
      </trkpt>
      <trkpt lat="45.87126" lon="3.65602">
        <ele>610.57</ele>
        <time>2014-12-07T01:04:16Z</time>
      </trkpt>
      <trkpt lat="45.87119" lon="3.65627">
        <ele>608.17</ele>
        <time>2014-12-07T01:04:23Z</time>
      </trkpt>
      <trkpt lat="45.8711" lon="3.65656">
        <ele>605.77</ele>
        <time>2014-12-07T01:04:32Z</time>
      </trkpt>
      <trkpt lat="45.87106" lon="3.6567">
        <ele>604.81</ele>
        <time>2014-12-07T01:04:36Z</time>
      </trkpt>
      <trkpt lat="45.87104" lon="3.6571">
        <ele>604.33</ele>
        <time>2014-12-07T01:04:48Z</time>
      </trkpt>
      <trkpt lat="45.87106" lon="3.65721">
        <ele>604.33</ele>
        <time>2014-12-07T01:04:52Z</time>
      </trkpt>
      <trkpt lat="45.87119" lon="3.65747">
        <ele>604.33</ele>
        <time>2014-12-07T01:05:06Z</time>
      </trkpt>
      <trkpt lat="45.87123" lon="3.65777">
        <ele>604.81</ele>
        <time>2014-12-07T01:05:19Z</time>
      </trkpt>
      <trkpt lat="45.87127" lon="3.65798">
        <ele>605.29</ele>
        <time>2014-12-07T01:05:28Z</time>
      </trkpt>
      <trkpt lat="45.8713" lon="3.65823">
        <ele>605.77</ele>
        <time>2014-12-07T01:05:39Z</time>
      </trkpt>
      <trkpt lat="45.87136" lon="3.65846">
        <ele>606.73</ele>
        <time>2014-12-07T01:05:50Z</time>
      </trkpt>
      <trkpt lat="45.87136" lon="3.65853">
        <ele>606.73</ele>
        <time>2014-12-07T01:05:53Z</time>
      </trkpt>
      <trkpt lat="45.87135" lon="3.65882">
        <ele>607.21</ele>
        <time>2014-12-07T01:06:05Z</time>
      </trkpt>
      <trkpt lat="45.87132" lon="3.65907">
        <ele>607.69</ele>
        <time>2014-12-07T01:06:16Z</time>
      </trkpt>
      <trkpt lat="45.87129" lon="3.6593">
        <ele>608.17</ele>
        <time>2014-12-07T01:06:27Z</time>
      </trkpt>
      <trkpt lat="45.87123" lon="3.65954">
        <ele>608.65</ele>
        <time>2014-12-07T01:06:39Z</time>
      </trkpt>
      <trkpt lat="45.8712" lon="3.65986">
        <ele>609.61</ele>
        <time>2014-12-07T01:06:52Z</time>
      </trkpt>
      <trkpt lat="45.87118" lon="3.66022">
        <ele>610.09</ele>
        <time>2014-12-07T01:07:07Z</time>
      </trkpt>
      <trkpt lat="45.8712" lon="3.66046">
        <ele>610.57</ele>
        <time>2014-12-07T01:07:18Z</time>
      </trkpt>
      <trkpt lat="45.87121" lon="3.66062">
        <ele>610.57</ele>
        <time>2014-12-07T01:07:25Z</time>
      </trkpt>
      <trkpt lat="45.87125" lon="3.66088">
        <ele>611.06</ele>
        <time>2014-12-07T01:07:37Z</time>
      </trkpt>
      <trkpt lat="45.87128" lon="3.66104">
        <ele>611.06</ele>
        <time>2014-12-07T01:07:43Z</time>
      </trkpt>
      <trkpt lat="45.87137" lon="3.66142">
        <ele>611.54</ele>
        <time>2014-12-07T01:07:58Z</time>
      </trkpt>
      <trkpt lat="45.87143" lon="3.66174">
        <ele>612.02</ele>
        <time>2014-12-07T01:08:11Z</time>
      </trkpt>
      <trkpt lat="45.87148" lon="3.66212">
        <ele>612.02</ele>
        <time>2014-12-07T01:08:26Z</time>
      </trkpt>
      <trkpt lat="45.87149" lon="3.66219">
        <ele>612.5</ele>
        <time>2014-12-07T01:08:29Z</time>
      </trkpt>
      <trkpt lat="45.87153" lon="3.66239">
        <ele>612.5</ele>
        <time>2014-12-07T01:08:37Z</time>
      </trkpt>
      <trkpt lat="45.8716" lon="3.66269">
        <ele>612.98</ele>
        <time>2014-12-07T01:08:50Z</time>
      </trkpt>
      <trkpt lat="45.87168" lon="3.66297">
        <ele>612.98</ele>
        <time>2014-12-07T01:09:02Z</time>
      </trkpt>
      <trkpt lat="45.87169" lon="3.66301">
        <ele>613.46</ele>
        <time>2014-12-07T01:09:04Z</time>
      </trkpt>
      <trkpt lat="45.87177" lon="3.66335">
        <ele>613.46</ele>
        <time>2014-12-07T01:09:18Z</time>
      </trkpt>
      <trkpt lat="45.87178" lon="3.66339">
        <ele>612.98</ele>
        <time>2014-12-07T01:09:20Z</time>
      </trkpt>
      <trkpt lat="45.87181" lon="3.66373">
        <ele>613.46</ele>
        <time>2014-12-07T01:09:35Z</time>
      </trkpt>
      <trkpt lat="45.87179" lon="3.66405">
        <ele>613.46</ele>
        <time>2014-12-07T01:09:48Z</time>
      </trkpt>
      <trkpt lat="45.87177" lon="3.66435">
        <ele>612.98</ele>
        <time>2014-12-07T01:10:00Z</time>
      </trkpt>
      <trkpt lat="45.87177" lon="3.66472">
        <ele>612.5</ele>
        <time>2014-12-07T01:10:15Z</time>
      </trkpt>
      <trkpt lat="45.8718" lon="3.66501">
        <ele>612.02</ele>
        <time>2014-12-07T01:10:27Z</time>
      </trkpt>
      <trkpt lat="45.87183" lon="3.66534">
        <ele>611.54</ele>
        <time>2014-12-07T01:10:40Z</time>
      </trkpt>
      <trkpt lat="45.87189" lon="3.66571">
        <ele>610.57</ele>
        <time>2014-12-07T01:10:55Z</time>
      </trkpt>
      <trkpt lat="45.87192" lon="3.66601">
        <ele>610.09</ele>
        <time>2014-12-07T01:11:07Z</time>
      </trkpt>
      <trkpt lat="45.87197" lon="3.66634">
        <ele>609.13</ele>
        <time>2014-12-07T01:11:21Z</time>
      </trkpt>
      <trkpt lat="45.87201" lon="3.66662">
        <ele>609.13</ele>
        <time>2014-12-07T01:11:33Z</time>
      </trkpt>
      <trkpt lat="45.87205" lon="3.66694">
        <ele>608.65</ele>
        <time>2014-12-07T01:11:46Z</time>
      </trkpt>
      <trkpt lat="45.8721" lon="3.66725">
        <ele>608.65</ele>
        <time>2014-12-07T01:12:00Z</time>
      </trkpt>
      <trkpt lat="45.8721" lon="3.66728">
        <ele>608.65</ele>
        <time>2014-12-07T01:12:01Z</time>
      </trkpt>
      <trkpt lat="45.87212" lon="3.66759">
        <ele>609.13</ele>
        <time>2014-12-07T01:12:14Z</time>
      </trkpt>
      <trkpt lat="45.87214" lon="3.66787">
        <ele>609.61</ele>
        <time>2014-12-07T01:12:26Z</time>
      </trkpt>
      <trkpt lat="45.87216" lon="3.66817">
        <ele>610.09</ele>
        <time>2014-12-07T01:12:39Z</time>
      </trkpt>
      <trkpt lat="45.87218" lon="3.66847">
        <ele>611.06</ele>
        <time>2014-12-07T01:12:52Z</time>
      </trkpt>
      <trkpt lat="45.8722" lon="3.66868">
        <ele>611.06</ele>
        <time>2014-12-07T01:13:01Z</time>
      </trkpt>
      <trkpt lat="45.87222" lon="3.66883">
        <ele>611.54</ele>
        <time>2014-12-07T01:13:07Z</time>
      </trkpt>
      <trkpt lat="45.87225" lon="3.66916">
        <ele>612.5</ele>
        <time>2014-12-07T01:13:20Z</time>
      </trkpt>
      <trkpt lat="45.87227" lon="3.66937">
        <ele>612.98</ele>
        <time>2014-12-07T01:13:29Z</time>
      </trkpt>
      <trkpt lat="45.87229" lon="3.66946">
        <ele>612.98</ele>
        <time>2014-12-07T01:13:33Z</time>
      </trkpt>
      <trkpt lat="45.87228" lon="3.66953">
        <ele>613.46</ele>
        <time>2014-12-07T01:13:36Z</time>
      </trkpt>
      <trkpt lat="45.87231" lon="3.66979">
        <ele>613.46</ele>
        <time>2014-12-07T01:13:47Z</time>
      </trkpt>
      <trkpt lat="45.87236" lon="3.67012">
        <ele>614.42</ele>
        <time>2014-12-07T01:14:00Z</time>
      </trkpt>
      <trkpt lat="45.87239" lon="3.67042">
        <ele>615.38</ele>
        <time>2014-12-07T01:14:12Z</time>
      </trkpt>
      <trkpt lat="45.87242" lon="3.67069">
        <ele>615.86</ele>
        <time>2014-12-07T01:14:24Z</time>
      </trkpt>
      <trkpt lat="45.87245" lon="3.67095">
        <ele>616.82</ele>
        <time>2014-12-07T01:14:35Z</time>
      </trkpt>
      <trkpt lat="45.87247" lon="3.67116">
        <ele>616.82</ele>
        <time>2014-12-07T01:14:46Z</time>
      </trkpt>
      <trkpt lat="45.87248" lon="3.67125">
        <ele>617.3</ele>
        <time>2014-12-07T01:14:50Z</time>
      </trkpt>
      <trkpt lat="45.87248" lon="3.67135">
        <ele>617.78</ele>
        <time>2014-12-07T01:14:54Z</time>
      </trkpt>
      <trkpt lat="45.87248" lon="3.6716">
        <ele>617.78</ele>
        <time>2014-12-07T01:15:05Z</time>
      </trkpt>
      <trkpt lat="45.87248" lon="3.67185">
        <ele>617.78</ele>
        <time>2014-12-07T01:15:16Z</time>
      </trkpt>
      <trkpt lat="45.87246" lon="3.67204">
        <ele>617.78</ele>
        <time>2014-12-07T01:15:24Z</time>
      </trkpt>
      <trkpt lat="45.87244" lon="3.67214">
        <ele>617.78</ele>
        <time>2014-12-07T01:15:28Z</time>
      </trkpt>
      <trkpt lat="45.87243" lon="3.67226">
        <ele>617.3</ele>
        <time>2014-12-07T01:15:33Z</time>
      </trkpt>
      <trkpt lat="45.87239" lon="3.67255">
        <ele>617.3</ele>
        <time>2014-12-07T01:15:45Z</time>
      </trkpt>
      <trkpt lat="45.87237" lon="3.67275">
        <ele>617.3</ele>
        <time>2014-12-07T01:15:53Z</time>
      </trkpt>
      <trkpt lat="45.87236" lon="3.67282">
        <ele>617.3</ele>
        <time>2014-12-07T01:15:56Z</time>
      </trkpt>
      <trkpt lat="45.87232" lon="3.67311">
        <ele>617.3</ele>
        <time>2014-12-07T01:16:09Z</time>
      </trkpt>
      <trkpt lat="45.8723" lon="3.67347">
        <ele>616.34</ele>
        <time>2014-12-07T01:16:23Z</time>
      </trkpt>
      <trkpt lat="45.87229" lon="3.67356">
        <ele>616.82</ele>
        <time>2014-12-07T01:16:27Z</time>
      </trkpt>
      <trkpt lat="45.87228" lon="3.67391">
        <ele>616.82</ele>
        <time>2014-12-07T01:16:42Z</time>
      </trkpt>
      <trkpt lat="45.87229" lon="3.67423">
        <ele>616.34</ele>
        <time>2014-12-07T01:16:55Z</time>
      </trkpt>
      <trkpt lat="45.87234" lon="3.67452">
        <ele>615.86</ele>
        <time>2014-12-07T01:17:07Z</time>
      </trkpt>
      <trkpt lat="45.87239" lon="3.67482">
        <ele>615.86</ele>
        <time>2014-12-07T01:17:20Z</time>
      </trkpt>
      <trkpt lat="45.87247" lon="3.6751">
        <ele>615.86</ele>
        <time>2014-12-07T01:17:32Z</time>
      </trkpt>
      <trkpt lat="45.87248" lon="3.67517">
        <ele>615.86</ele>
        <time>2014-12-07T01:17:35Z</time>
      </trkpt>
      <trkpt lat="45.87252" lon="3.6753">
        <ele>615.86</ele>
        <time>2014-12-07T01:17:41Z</time>
      </trkpt>
      <trkpt lat="45.87261" lon="3.67556">
        <ele>615.38</ele>
        <time>2014-12-07T01:17:54Z</time>
      </trkpt>
      <trkpt lat="45.8727" lon="3.67579">
        <ele>615.86</ele>
        <time>2014-12-07T01:18:05Z</time>
      </trkpt>
      <trkpt lat="45.87282" lon="3.67603">
        <ele>615.86</ele>
        <time>2014-12-07T01:18:17Z</time>
      </trkpt>
      <trkpt lat="45.87285" lon="3.67609">
        <ele>615.86</ele>
        <time>2014-12-07T01:18:20Z</time>
      </trkpt>
      <trkpt lat="45.873" lon="3.67633">
        <ele>616.34</ele>
        <time>2014-12-07T01:18:34Z</time>
      </trkpt>
      <trkpt lat="45.87312" lon="3.67651">
        <ele>616.82</ele>
        <time>2014-12-07T01:18:45Z</time>
      </trkpt>
      <trkpt lat="45.87325" lon="3.67664">
        <ele>616.82</ele>
        <time>2014-12-07T01:18:54Z</time>
      </trkpt>
      <trkpt lat="45.87333" lon="3.67675">
        <ele>617.3</ele>
        <time>2014-12-07T01:19:01Z</time>
      </trkpt>
      <trkpt lat="45.87347" lon="3.67689">
        <ele>617.3</ele>
        <time>2014-12-07T01:19:11Z</time>
      </trkpt>
      <trkpt lat="45.87365" lon="3.67706">
        <ele>618.26</ele>
        <time>2014-12-07T01:19:25Z</time>
      </trkpt>
      <trkpt lat="45.87386" lon="3.6772">
        <ele>619.71</ele>
        <time>2014-12-07T01:19:39Z</time>
      </trkpt>
      <trkpt lat="45.87394" lon="3.67725">
        <ele>619.71</ele>
        <time>2014-12-07T01:19:44Z</time>
      </trkpt>
      <trkpt lat="45.87399" lon="3.67731">
        <ele>620.19</ele>
        <time>2014-12-07T01:19:48Z</time>
      </trkpt>
      <trkpt lat="45.87406" lon="3.67736">
        <ele>620.19</ele>
        <time>2014-12-07T01:19:53Z</time>
      </trkpt>
      <trkpt lat="45.87408" lon="3.67737">
        <ele>620.19</ele>
        <time>2014-12-07T01:19:54Z</time>
      </trkpt>
      <trkpt lat="45.87415" lon="3.67751">
        <ele>620.67</ele>
        <time>2014-12-07T01:20:06Z</time>
      </trkpt>
      <trkpt lat="45.87448" lon="3.67767">
        <ele>621.63</ele>
        <time>2014-12-07T01:20:23Z</time>
      </trkpt>
      <trkpt lat="45.87469" lon="3.67782">
        <ele>622.11</ele>
        <time>2014-12-07T01:20:37Z</time>
      </trkpt>
      <trkpt lat="45.87487" lon="3.67796">
        <ele>623.07</ele>
        <time>2014-12-07T01:20:49Z</time>
      </trkpt>
      <trkpt lat="45.87506" lon="3.67812">
        <ele>623.07</ele>
        <time>2014-12-07T01:21:03Z</time>
      </trkpt>
      <trkpt lat="45.87526" lon="3.67835">
        <ele>623.55</ele>
        <time>2014-12-07T01:21:19Z</time>
      </trkpt>
      <trkpt lat="45.87543" lon="3.67859">
        <ele>623.55</ele>
        <time>2014-12-07T01:21:34Z</time>
      </trkpt>
      <trkpt lat="45.87556" lon="3.67876">
        <ele>623.07</ele>
        <time>2014-12-07T01:21:46Z</time>
      </trkpt>
      <trkpt lat="45.87567" lon="3.67897">
        <ele>623.07</ele>
        <time>2014-12-07T01:21:57Z</time>
      </trkpt>
      <trkpt lat="45.87578" lon="3.67913">
        <ele>622.59</ele>
        <time>2014-12-07T01:22:06Z</time>
      </trkpt>
      <trkpt lat="45.87593" lon="3.67933">
        <ele>622.59</ele>
        <time>2014-12-07T01:22:17Z</time>
      </trkpt>
      <trkpt lat="45.87604" lon="3.67954">
        <ele>622.59</ele>
        <time>2014-12-07T01:22:28Z</time>
      </trkpt>
      <trkpt lat="45.87616" lon="3.67975">
        <ele>622.11</ele>
        <time>2014-12-07T01:22:39Z</time>
      </trkpt>
      <trkpt lat="45.87621" lon="3.67982">
        <ele>622.59</ele>
        <time>2014-12-07T01:22:43Z</time>
      </trkpt>
      <trkpt lat="45.87639" lon="3.68003">
        <ele>622.11</ele>
        <time>2014-12-07T01:22:56Z</time>
      </trkpt>
      <trkpt lat="45.87654" lon="3.68024">
        <ele>622.11</ele>
        <time>2014-12-07T01:23:09Z</time>
      </trkpt>
      <trkpt lat="45.87662" lon="3.68032">
        <ele>622.11</ele>
        <time>2014-12-07T01:23:15Z</time>
      </trkpt>
      <trkpt lat="45.87675" lon="3.68048">
        <ele>621.63</ele>
        <time>2014-12-07T01:23:26Z</time>
      </trkpt>
      <trkpt lat="45.87684" lon="3.68057">
        <ele>622.11</ele>
        <time>2014-12-07T01:23:32Z</time>
      </trkpt>
      <trkpt lat="45.87702" lon="3.68076">
        <ele>622.11</ele>
        <time>2014-12-07T01:23:46Z</time>
      </trkpt>
      <trkpt lat="45.87718" lon="3.68094">
        <ele>621.63</ele>
        <time>2014-12-07T01:23:58Z</time>
      </trkpt>
      <trkpt lat="45.87738" lon="3.68109">
        <ele>621.63</ele>
        <time>2014-12-07T01:24:10Z</time>
      </trkpt>
      <trkpt lat="45.87754" lon="3.68128">
        <ele>621.63</ele>
        <time>2014-12-07T01:24:23Z</time>
      </trkpt>
      <trkpt lat="45.87769" lon="3.6815">
        <ele>621.15</ele>
        <time>2014-12-07T01:24:36Z</time>
      </trkpt>
      <trkpt lat="45.87774" lon="3.68162">
        <ele>621.63</ele>
        <time>2014-12-07T01:24:42Z</time>
      </trkpt>
      <trkpt lat="45.87786" lon="3.68193">
        <ele>621.15</ele>
        <time>2014-12-07T01:24:56Z</time>
      </trkpt>
      <trkpt lat="45.87792" lon="3.6822">
        <ele>621.15</ele>
        <time>2014-12-07T01:25:08Z</time>
      </trkpt>
      <trkpt lat="45.87796" lon="3.68234">
        <ele>621.15</ele>
        <time>2014-12-07T01:25:14Z</time>
      </trkpt>
      <trkpt lat="45.87799" lon="3.68265">
        <ele>621.15</ele>
        <time>2014-12-07T01:25:28Z</time>
      </trkpt>
      <trkpt lat="45.87801" lon="3.68298">
        <ele>621.15</ele>
        <time>2014-12-07T01:25:42Z</time>
      </trkpt>
      <trkpt lat="45.878" lon="3.68323">
        <ele>621.15</ele>
        <time>2014-12-07T01:25:53Z</time>
      </trkpt>
      <trkpt lat="45.87798" lon="3.68359">
        <ele>621.63</ele>
        <time>2014-12-07T01:26:08Z</time>
      </trkpt>
      <trkpt lat="45.87797" lon="3.68389">
        <ele>621.63</ele>
        <time>2014-12-07T01:26:21Z</time>
      </trkpt>
      <trkpt lat="45.87795" lon="3.68403">
        <ele>622.11</ele>
        <time>2014-12-07T01:26:27Z</time>
      </trkpt>
      <trkpt lat="45.87794" lon="3.68432">
        <ele>622.11</ele>
        <time>2014-12-07T01:26:39Z</time>
      </trkpt>
      <trkpt lat="45.87792" lon="3.68462">
        <ele>622.59</ele>
        <time>2014-12-07T01:26:52Z</time>
      </trkpt>
      <trkpt lat="45.87793" lon="3.68476">
        <ele>623.07</ele>
        <time>2014-12-07T01:26:58Z</time>
      </trkpt>
      <trkpt lat="45.87792" lon="3.68487">
        <ele>623.07</ele>
        <time>2014-12-07T01:27:03Z</time>
      </trkpt>
      <trkpt lat="45.87799" lon="3.68514">
        <ele>623.55</ele>
        <time>2014-12-07T01:27:14Z</time>
      </trkpt>
      <trkpt lat="45.87803" lon="3.68531">
        <ele>624.03</ele>
        <time>2014-12-07T01:27:21Z</time>
      </trkpt>
      <trkpt lat="45.87814" lon="3.68561">
        <ele>624.51</ele>
        <time>2014-12-07T01:27:35Z</time>
      </trkpt>
      <trkpt lat="45.87827" lon="3.68588">
        <ele>625.47</ele>
        <time>2014-12-07T01:27:49Z</time>
      </trkpt>
      <trkpt lat="45.87835" lon="3.68608">
        <ele>625.96</ele>
        <time>2014-12-07T01:28:00Z</time>
      </trkpt>
      <trkpt lat="45.87837" lon="3.68613">
        <ele>625.96</ele>
        <time>2014-12-07T01:28:02Z</time>
      </trkpt>
      <trkpt lat="45.87842" lon="3.6863">
        <ele>626.44</ele>
        <time>2014-12-07T01:28:10Z</time>
      </trkpt>
      <trkpt lat="45.8785" lon="3.68665">
        <ele>627.4</ele>
        <time>2014-12-07T01:28:25Z</time>
      </trkpt>
      <trkpt lat="45.87849" lon="3.68698">
        <ele>627.88</ele>
        <time>2014-12-07T01:28:39Z</time>
      </trkpt>
      <trkpt lat="45.87846" lon="3.68727">
        <ele>628.36</ele>
        <time>2014-12-07T01:28:51Z</time>
      </trkpt>
      <trkpt lat="45.8784" lon="3.6876">
        <ele>628.84</ele>
        <time>2014-12-07T01:29:05Z</time>
      </trkpt>
      <trkpt lat="45.87838" lon="3.68771">
        <ele>628.84</ele>
        <time>2014-12-07T01:29:10Z</time>
      </trkpt>
      <trkpt lat="45.87836" lon="3.68785">
        <ele>629.32</ele>
        <time>2014-12-07T01:29:16Z</time>
      </trkpt>
      <trkpt lat="45.87833" lon="3.68803">
        <ele>629.32</ele>
        <time>2014-12-07T01:29:23Z</time>
      </trkpt>
      <trkpt lat="45.87832" lon="3.68837">
        <ele>630.28</ele>
        <time>2014-12-07T01:29:36Z</time>
      </trkpt>
      <trkpt lat="45.87836" lon="3.68868">
        <ele>630.28</ele>
        <time>2014-12-07T01:29:49Z</time>
      </trkpt>
      <trkpt lat="45.87845" lon="3.6889">
        <ele>631.24</ele>
        <time>2014-12-07T01:29:59Z</time>
      </trkpt>
      <trkpt lat="45.87859" lon="3.68914">
        <ele>631.72</ele>
        <time>2014-12-07T01:30:12Z</time>
      </trkpt>
      <trkpt lat="45.87862" lon="3.6892">
        <ele>631.72</ele>
        <time>2014-12-07T01:30:15Z</time>
      </trkpt>
      <trkpt lat="45.87868" lon="3.68934">
        <ele>631.72</ele>
        <time>2014-12-07T01:30:22Z</time>
      </trkpt>
      <trkpt lat="45.87874" lon="3.68962">
        <ele>632.2</ele>
        <time>2014-12-07T01:30:34Z</time>
      </trkpt>
      <trkpt lat="45.87877" lon="3.68982">
        <ele>632.68</ele>
        <time>2014-12-07T01:30:42Z</time>
      </trkpt>
      <trkpt lat="45.87878" lon="3.68992">
        <ele>632.2</ele>
        <time>2014-12-07T01:30:46Z</time>
      </trkpt>
      <trkpt lat="45.87881" lon="3.69006">
        <ele>632.68</ele>
        <time>2014-12-07T01:30:52Z</time>
      </trkpt>
      <trkpt lat="45.87883" lon="3.69029">
        <ele>632.68</ele>
        <time>2014-12-07T01:31:02Z</time>
      </trkpt>
      <trkpt lat="45.87881" lon="3.69043">
        <ele>633.17</ele>
        <time>2014-12-07T01:31:08Z</time>
      </trkpt>
      <trkpt lat="45.87883" lon="3.69058">
        <ele>633.17</ele>
        <time>2014-12-07T01:31:14Z</time>
      </trkpt>
      <trkpt lat="45.87886" lon="3.69089">
        <ele>633.17</ele>
        <time>2014-12-07T01:31:28Z</time>
      </trkpt>
      <trkpt lat="45.87887" lon="3.69094">
        <ele>633.17</ele>
        <time>2014-12-07T01:31:30Z</time>
      </trkpt>
      <trkpt lat="45.8789" lon="3.69122">
        <ele>634.13</ele>
        <time>2014-12-07T01:31:43Z</time>
      </trkpt>
      <trkpt lat="45.87892" lon="3.69149">
        <ele>634.13</ele>
        <time>2014-12-07T01:31:54Z</time>
      </trkpt>
      <trkpt lat="45.87894" lon="3.6916">
        <ele>634.13</ele>
        <time>2014-12-07T01:31:59Z</time>
      </trkpt>
      <trkpt lat="45.87895" lon="3.69176">
        <ele>634.13</ele>
        <time>2014-12-07T01:32:06Z</time>
      </trkpt>
      <trkpt lat="45.87899" lon="3.69206">
        <ele>634.13</ele>
        <time>2014-12-07T01:32:19Z</time>
      </trkpt>
      <trkpt lat="45.87903" lon="3.69237">
        <ele>634.61</ele>
        <time>2014-12-07T01:32:32Z</time>
      </trkpt>
      <trkpt lat="45.87907" lon="3.69269">
        <ele>635.57</ele>
        <time>2014-12-07T01:32:45Z</time>
      </trkpt>
      <trkpt lat="45.8791" lon="3.69303">
        <ele>635.57</ele>
        <time>2014-12-07T01:33:00Z</time>
      </trkpt>
      <trkpt lat="45.87912" lon="3.69314">
        <ele>635.57</ele>
        <time>2014-12-07T01:33:05Z</time>
      </trkpt>
      <trkpt lat="45.87912" lon="3.69326">
        <ele>636.05</ele>
        <time>2014-12-07T01:33:10Z</time>
      </trkpt>
      <trkpt lat="45.87914" lon="3.69338">
        <ele>635.57</ele>
        <time>2014-12-07T01:33:15Z</time>
      </trkpt>
      <trkpt lat="45.87917" lon="3.69347">
        <ele>635.57</ele>
        <time>2014-12-07T01:33:19Z</time>
      </trkpt>
      <trkpt lat="45.87918" lon="3.69358">
        <ele>636.05</ele>
        <time>2014-12-07T01:33:24Z</time>
      </trkpt>
      <trkpt lat="45.87919" lon="3.69362">
        <ele>635.57</ele>
        <time>2014-12-07T01:33:26Z</time>
      </trkpt>
      <trkpt lat="45.87924" lon="3.69388">
        <ele>635.09</ele>
        <time>2014-12-07T01:33:37Z</time>
      </trkpt>
      <trkpt lat="45.87916" lon="3.69402">
        <ele>633.65</ele>
        <time>2014-12-07T01:33:48Z</time>
      </trkpt>
      <trkpt lat="45.87915" lon="3.69404">
        <ele>633.65</ele>
        <time>2014-12-07T01:33:50Z</time>
      </trkpt>
      <trkpt lat="45.87911" lon="3.69413">
        <ele>633.17</ele>
        <time>2014-12-07T01:33:56Z</time>
      </trkpt>
      <trkpt lat="45.87908" lon="3.69418">
        <ele>632.68</ele>
        <time>2014-12-07T01:34:00Z</time>
      </trkpt>
      <trkpt lat="45.87905" lon="3.69425">
        <ele>632.2</ele>
        <time>2014-12-07T01:34:13Z</time>
      </trkpt>
      <trkpt lat="45.87904" lon="3.69425">
        <ele>632.2</ele>
        <time>2014-12-07T01:34:45Z</time>
      </trkpt>
      <trkpt lat="45.879" lon="3.69424">
        <ele>631.72</ele>
        <time>2014-12-07T01:34:48Z</time>
      </trkpt>
      <trkpt lat="45.87894" lon="3.69424">
        <ele>631.72</ele>
        <time>2014-12-07T01:34:53Z</time>
      </trkpt>
      <trkpt lat="45.87884" lon="3.69431">
        <ele>631.24</ele>
        <time>2014-12-07T01:34:59Z</time>
      </trkpt>
      <trkpt lat="45.87861" lon="3.69446">
        <ele>630.76</ele>
        <time>2014-12-07T01:35:14Z</time>
      </trkpt>
      <trkpt lat="45.87842" lon="3.69447">
        <ele>630.76</ele>
        <time>2014-12-07T01:35:27Z</time>
      </trkpt>
      <trkpt lat="45.87818" lon="3.69451">
        <ele>630.76</ele>
        <time>2014-12-07T01:35:41Z</time>
      </trkpt>
      <trkpt lat="45.87803" lon="3.69455">
        <ele>630.76</ele>
        <time>2014-12-07T01:35:52Z</time>
      </trkpt>
      <trkpt lat="45.87803" lon="3.69456">
        <ele>630.76</ele>
        <time>2014-12-07T01:36:02Z</time>
      </trkpt>
      <trkpt lat="45.878" lon="3.69456">
        <ele>630.28</ele>
        <time>2014-12-07T01:36:23Z</time>
      </trkpt>
      <trkpt lat="45.878" lon="3.69454">
        <ele>630.28</ele>
        <time>2014-12-07T01:36:46Z</time>
      </trkpt>
      <trkpt lat="45.87799" lon="3.69449">
        <ele>630.28</ele>
        <time>2014-12-07T01:37:06Z</time>
      </trkpt>
      <trkpt lat="45.87798" lon="3.69446">
        <ele>630.28</ele>
        <time>2014-12-07T01:37:27Z</time>
      </trkpt>
      <trkpt lat="45.87797" lon="3.69432">
        <ele>629.8</ele>
        <time>2014-12-07T01:37:48Z</time>
      </trkpt>
      <trkpt lat="45.87792" lon="3.69426">
        <ele>629.32</ele>
        <time>2014-12-07T01:38:11Z</time>
      </trkpt>
      <trkpt lat="45.87791" lon="3.69425">
        <ele>629.32</ele>
        <time>2014-12-07T01:38:36Z</time>
      </trkpt>
      <trkpt lat="45.8779" lon="3.69425">
        <ele>628.84</ele>
        <time>2014-12-07T01:38:59Z</time>
      </trkpt>
      <trkpt lat="45.87789" lon="3.69425">
        <ele>628.36</ele>
        <time>2014-12-07T01:39:14Z</time>
      </trkpt>
      <trkpt lat="45.87789" lon="3.69431">
        <ele>628.36</ele>
        <time>2014-12-07T01:39:34Z</time>
      </trkpt>
      <trkpt lat="45.87783" lon="3.6943">
        <ele>628.36</ele>
        <time>2014-12-07T01:39:53Z</time>
      </trkpt>
      <trkpt lat="45.87784" lon="3.69429">
        <ele>627.88</ele>
        <time>2014-12-07T01:40:17Z</time>
      </trkpt>
      <trkpt lat="45.87784" lon="3.69428">
        <ele>628.36</ele>
        <time>2014-12-07T01:40:39Z</time>
      </trkpt>
      <trkpt lat="45.87787" lon="3.69428">
        <ele>628.36</ele>
        <time>2014-12-07T01:40:58Z</time>
      </trkpt>
      <trkpt lat="45.87788" lon="3.69421">
        <ele>628.36</ele>
        <time>2014-12-07T01:41:16Z</time>
      </trkpt>
      <trkpt lat="45.87787" lon="3.69422">
        <ele>628.36</ele>
        <time>2014-12-07T01:41:37Z</time>
      </trkpt>
      <trkpt lat="45.87786" lon="3.69425">
        <ele>626.44</ele>
        <time>2014-12-07T01:41:49Z</time>
      </trkpt>
      <trkpt lat="45.87774" lon="3.69441">
        <ele>625.96</ele>
        <time>2014-12-07T01:42:03Z</time>
      </trkpt>
      <trkpt lat="45.87776" lon="3.69451">
        <ele>626.44</ele>
        <time>2014-12-07T01:42:08Z</time>
      </trkpt>
      <trkpt lat="45.87782" lon="3.69461">
        <ele>626.92</ele>
        <time>2014-12-07T01:42:15Z</time>
      </trkpt>
      <trkpt lat="45.87794" lon="3.69479">
        <ele>627.88</ele>
        <time>2014-12-07T01:42:27Z</time>
      </trkpt>
      <trkpt lat="45.87796" lon="3.69487">
        <ele>627.88</ele>
        <time>2014-12-07T01:42:31Z</time>
      </trkpt>
      <trkpt lat="45.87803" lon="3.69511">
        <ele>627.88</ele>
        <time>2014-12-07T01:42:43Z</time>
      </trkpt>
      <trkpt lat="45.87815" lon="3.69509">
        <ele>627.88</ele>
        <time>2014-12-07T01:42:49Z</time>
      </trkpt>
      <trkpt lat="45.87827" lon="3.69503">
        <ele>626.92</ele>
        <time>2014-12-07T01:42:57Z</time>
      </trkpt>
      <trkpt lat="45.87842" lon="3.6949">
        <ele>628.36</ele>
        <time>2014-12-07T01:43:07Z</time>
      </trkpt>
      <trkpt lat="45.87853" lon="3.69487">
        <ele>628.84</ele>
        <time>2014-12-07T01:43:15Z</time>
      </trkpt>
      <trkpt lat="45.87858" lon="3.6949">
        <ele>628.36</ele>
        <time>2014-12-07T01:43:19Z</time>
      </trkpt>
      <trkpt lat="45.87871" lon="3.69517">
        <ele>629.8</ele>
        <time>2014-12-07T01:43:33Z</time>
      </trkpt>
      <trkpt lat="45.87873" lon="3.69521">
        <ele>631.72</ele>
        <time>2014-12-07T01:43:35Z</time>
      </trkpt>
      <trkpt lat="45.87875" lon="3.69526">
        <ele>629.8</ele>
        <time>2014-12-07T01:43:38Z</time>
      </trkpt>
      <trkpt lat="45.87879" lon="3.69536">
        <ele>623.07</ele>
        <time>2014-12-07T01:43:43Z</time>
      </trkpt>
      <trkpt lat="45.87879" lon="3.69538">
        <ele>635.09</ele>
        <time>2014-12-07T01:43:44Z</time>
      </trkpt>
      <trkpt lat="45.8788" lon="3.6954">
        <ele>630.28</ele>
        <time>2014-12-07T01:43:45Z</time>
      </trkpt>
      <trkpt lat="45.87886" lon="3.69558">
        <ele>630.76</ele>
        <time>2014-12-07T01:43:55Z</time>
      </trkpt>
      <trkpt lat="45.87896" lon="3.69588">
        <ele>631.24</ele>
        <time>2014-12-07T01:44:09Z</time>
      </trkpt>
      <trkpt lat="45.87898" lon="3.69595">
        <ele>631.24</ele>
        <time>2014-12-07T01:44:13Z</time>
      </trkpt>
      <trkpt lat="45.87902" lon="3.69606">
        <ele>631.72</ele>
        <time>2014-12-07T01:44:19Z</time>
      </trkpt>
      <trkpt lat="45.87908" lon="3.69605">
        <ele>631.24</ele>
        <time>2014-12-07T01:44:23Z</time>
      </trkpt>
      <trkpt lat="45.87917" lon="3.69604">
        <ele>631.24</ele>
        <time>2014-12-07T01:44:28Z</time>
      </trkpt>
      <trkpt lat="45.87926" lon="3.69599">
        <ele>630.76</ele>
        <time>2014-12-07T01:44:35Z</time>
      </trkpt>
      <trkpt lat="45.87936" lon="3.6962">
        <ele>631.72</ele>
        <time>2014-12-07T01:44:47Z</time>
      </trkpt>
      <trkpt lat="45.87936" lon="3.69654">
        <ele>632.2</ele>
        <time>2014-12-07T01:45:02Z</time>
      </trkpt>
      <trkpt lat="45.8794" lon="3.69675">
        <ele>633.65</ele>
        <time>2014-12-07T01:45:14Z</time>
      </trkpt>
      <trkpt lat="45.8794" lon="3.69695">
        <ele>634.61</ele>
        <time>2014-12-07T01:45:23Z</time>
      </trkpt>
      <trkpt lat="45.87942" lon="3.69703">
        <ele>635.09</ele>
        <time>2014-12-07T01:45:28Z</time>
      </trkpt>
      <trkpt lat="45.87946" lon="3.69735">
        <ele>637.49</ele>
        <time>2014-12-07T01:45:42Z</time>
      </trkpt>
      <trkpt lat="45.87947" lon="3.69747">
        <ele>637.97</ele>
        <time>2014-12-07T01:45:47Z</time>
      </trkpt>
      <trkpt lat="45.87948" lon="3.69756">
        <ele>638.45</ele>
        <time>2014-12-07T01:45:52Z</time>
      </trkpt>
      <trkpt lat="45.87953" lon="3.69794">
        <ele>640.38</ele>
        <time>2014-12-07T01:46:08Z</time>
      </trkpt>
      <trkpt lat="45.87957" lon="3.69815">
        <ele>640.86</ele>
        <time>2014-12-07T01:46:20Z</time>
      </trkpt>
      <trkpt lat="45.87963" lon="3.6984">
        <ele>642.3</ele>
        <time>2014-12-07T01:46:35Z</time>
      </trkpt>
      <trkpt lat="45.8797" lon="3.69869">
        <ele>643.26</ele>
        <time>2014-12-07T01:46:48Z</time>
      </trkpt>
      <trkpt lat="45.87975" lon="3.69902">
        <ele>645.18</ele>
        <time>2014-12-07T01:47:03Z</time>
      </trkpt>
      <trkpt lat="45.87981" lon="3.69935">
        <ele>647.1</ele>
        <time>2014-12-07T01:47:18Z</time>
      </trkpt>
      <trkpt lat="45.87988" lon="3.69963">
        <ele>648.07</ele>
        <time>2014-12-07T01:47:31Z</time>
      </trkpt>
      <trkpt lat="45.87992" lon="3.69994">
        <ele>649.03</ele>
        <time>2014-12-07T01:47:46Z</time>
      </trkpt>
      <trkpt lat="45.87993" lon="3.70022">
        <ele>650.47</ele>
        <time>2014-12-07T01:48:00Z</time>
      </trkpt>
      <trkpt lat="45.87994" lon="3.70028">
        <ele>650.47</ele>
        <time>2014-12-07T01:48:03Z</time>
      </trkpt>
      <trkpt lat="45.87993" lon="3.70037">
        <ele>650.95</ele>
        <time>2014-12-07T01:48:08Z</time>
      </trkpt>
      <trkpt lat="45.87997" lon="3.70068">
        <ele>652.39</ele>
        <time>2014-12-07T01:48:23Z</time>
      </trkpt>
      <trkpt lat="45.87999" lon="3.70101">
        <ele>653.83</ele>
        <time>2014-12-07T01:48:39Z</time>
      </trkpt>
      <trkpt lat="45.88001" lon="3.70125">
        <ele>654.8</ele>
        <time>2014-12-07T01:48:50Z</time>
      </trkpt>
      <trkpt lat="45.88006" lon="3.7016">
        <ele>656.24</ele>
        <time>2014-12-07T01:49:06Z</time>
      </trkpt>
      <trkpt lat="45.88009" lon="3.70185">
        <ele>657.2</ele>
        <time>2014-12-07T01:49:18Z</time>
      </trkpt>
      <trkpt lat="45.88011" lon="3.70193">
        <ele>657.68</ele>
        <time>2014-12-07T01:49:22Z</time>
      </trkpt>
      <trkpt lat="45.88016" lon="3.70223">
        <ele>658.64</ele>
        <time>2014-12-07T01:49:35Z</time>
      </trkpt>
      <trkpt lat="45.8802" lon="3.70254">
        <ele>659.6</ele>
        <time>2014-12-07T01:49:49Z</time>
      </trkpt>
      <trkpt lat="45.88024" lon="3.7028">
        <ele>660.56</ele>
        <time>2014-12-07T01:50:01Z</time>
      </trkpt>
      <trkpt lat="45.88034" lon="3.70308">
        <ele>661.52</ele>
        <time>2014-12-07T01:50:13Z</time>
      </trkpt>
      <trkpt lat="45.88045" lon="3.70335">
        <ele>662.49</ele>
        <time>2014-12-07T01:50:27Z</time>
      </trkpt>
      <trkpt lat="45.8805" lon="3.70345">
        <ele>663.45</ele>
        <time>2014-12-07T01:50:33Z</time>
      </trkpt>
      <trkpt lat="45.88057" lon="3.70359">
        <ele>663.93</ele>
        <time>2014-12-07T01:50:41Z</time>
      </trkpt>
      <trkpt lat="45.88059" lon="3.70363">
        <ele>663.93</ele>
        <time>2014-12-07T01:50:43Z</time>
      </trkpt>
      <trkpt lat="45.88074" lon="3.70396">
        <ele>665.37</ele>
        <time>2014-12-07T01:51:00Z</time>
      </trkpt>
      <trkpt lat="45.88077" lon="3.70401">
        <ele>665.37</ele>
        <time>2014-12-07T01:51:02Z</time>
      </trkpt>
      <trkpt lat="45.88088" lon="3.70423">
        <ele>665.85</ele>
        <time>2014-12-07T01:51:13Z</time>
      </trkpt>
      <trkpt lat="45.88089" lon="3.70425">
        <ele>665.85</ele>
        <time>2014-12-07T01:51:14Z</time>
      </trkpt>
      <trkpt lat="45.88092" lon="3.70436">
        <ele>666.81</ele>
        <time>2014-12-07T01:51:19Z</time>
      </trkpt>
      <trkpt lat="45.88102" lon="3.70457">
        <ele>668.25</ele>
        <time>2014-12-07T01:51:30Z</time>
      </trkpt>
      <trkpt lat="45.88113" lon="3.70476">
        <ele>669.22</ele>
        <time>2014-12-07T01:51:40Z</time>
      </trkpt>
      <trkpt lat="45.88119" lon="3.70492">
        <ele>670.18</ele>
        <time>2014-12-07T01:51:46Z</time>
      </trkpt>
      <trkpt lat="45.88125" lon="3.70514">
        <ele>671.62</ele>
        <time>2014-12-07T01:51:58Z</time>
      </trkpt>
      <trkpt lat="45.88128" lon="3.70531">
        <ele>672.58</ele>
        <time>2014-12-07T01:52:07Z</time>
      </trkpt>
      <trkpt lat="45.88139" lon="3.7056">
        <ele>674.02</ele>
        <time>2014-12-07T01:52:23Z</time>
      </trkpt>
      <trkpt lat="45.88147" lon="3.70595">
        <ele>675.46</ele>
        <time>2014-12-07T01:52:38Z</time>
      </trkpt>
      <trkpt lat="45.88153" lon="3.70623">
        <ele>677.39</ele>
        <time>2014-12-07T01:52:52Z</time>
      </trkpt>
      <trkpt lat="45.88154" lon="3.70634">
        <ele>677.39</ele>
        <time>2014-12-07T01:52:57Z</time>
      </trkpt>
      <trkpt lat="45.88159" lon="3.70658">
        <ele>676.91</ele>
        <time>2014-12-07T01:53:08Z</time>
      </trkpt>
      <trkpt lat="45.8816" lon="3.70668">
        <ele>678.83</ele>
        <time>2014-12-07T01:53:13Z</time>
      </trkpt>
      <trkpt lat="45.88163" lon="3.70702">
        <ele>681.71</ele>
        <time>2014-12-07T01:53:28Z</time>
      </trkpt>
      <trkpt lat="45.88164" lon="3.70704">
        <ele>681.23</ele>
        <time>2014-12-07T01:53:29Z</time>
      </trkpt>
      <trkpt lat="45.88166" lon="3.70712">
        <ele>682.19</ele>
        <time>2014-12-07T01:53:33Z</time>
      </trkpt>
      <trkpt lat="45.88166" lon="3.70742">
        <ele>683.15</ele>
        <time>2014-12-07T01:53:46Z</time>
      </trkpt>
      <trkpt lat="45.8817" lon="3.70775">
        <ele>684.6</ele>
        <time>2014-12-07T01:54:01Z</time>
      </trkpt>
      <trkpt lat="45.88174" lon="3.70805">
        <ele>686.04</ele>
        <time>2014-12-07T01:54:14Z</time>
      </trkpt>
      <trkpt lat="45.88175" lon="3.70812">
        <ele>686.52</ele>
        <time>2014-12-07T01:54:17Z</time>
      </trkpt>
      <trkpt lat="45.88178" lon="3.70842">
        <ele>687.96</ele>
        <time>2014-12-07T01:54:31Z</time>
      </trkpt>
      <trkpt lat="45.88184" lon="3.70874">
        <ele>689.4</ele>
        <time>2014-12-07T01:54:45Z</time>
      </trkpt>
      <trkpt lat="45.88186" lon="3.70886">
        <ele>690.36</ele>
        <time>2014-12-07T01:54:51Z</time>
      </trkpt>
      <trkpt lat="45.8819" lon="3.70924">
        <ele>692.29</ele>
        <time>2014-12-07T01:55:07Z</time>
      </trkpt>
      <trkpt lat="45.88193" lon="3.70952">
        <ele>693.25</ele>
        <time>2014-12-07T01:55:20Z</time>
      </trkpt>
      <trkpt lat="45.88197" lon="3.70983">
        <ele>694.69</ele>
        <time>2014-12-07T01:55:33Z</time>
      </trkpt>
      <trkpt lat="45.88198" lon="3.7099">
        <ele>695.17</ele>
        <time>2014-12-07T01:55:37Z</time>
      </trkpt>
      <trkpt lat="45.88199" lon="3.70998">
        <ele>695.65</ele>
        <time>2014-12-07T01:55:41Z</time>
      </trkpt>
      <trkpt lat="45.882" lon="3.71003">
        <ele>695.65</ele>
        <time>2014-12-07T01:55:43Z</time>
      </trkpt>
      <trkpt lat="45.88204" lon="3.71036">
        <ele>697.57</ele>
        <time>2014-12-07T01:55:58Z</time>
      </trkpt>
      <trkpt lat="45.88208" lon="3.7106">
        <ele>699.02</ele>
        <time>2014-12-07T01:56:11Z</time>
      </trkpt>
      <trkpt lat="45.8821" lon="3.71076">
        <ele>699.98</ele>
        <time>2014-12-07T01:56:18Z</time>
      </trkpt>
      <trkpt lat="45.8821" lon="3.71084">
        <ele>699.98</ele>
        <time>2014-12-07T01:56:21Z</time>
      </trkpt>
      <trkpt lat="45.88214" lon="3.71117">
        <ele>701.42</ele>
        <time>2014-12-07T01:56:36Z</time>
      </trkpt>
      <trkpt lat="45.88215" lon="3.71126">
        <ele>701.9</ele>
        <time>2014-12-07T01:56:40Z</time>
      </trkpt>
      <trkpt lat="45.88217" lon="3.71142">
        <ele>702.38</ele>
        <time>2014-12-07T01:56:48Z</time>
      </trkpt>
      <trkpt lat="45.88218" lon="3.71157">
        <ele>702.86</ele>
        <time>2014-12-07T01:56:55Z</time>
      </trkpt>
      <trkpt lat="45.8822" lon="3.71166">
        <ele>703.82</ele>
        <time>2014-12-07T01:56:59Z</time>
      </trkpt>
      <trkpt lat="45.88222" lon="3.71189">
        <ele>704.78</ele>
        <time>2014-12-07T01:57:09Z</time>
      </trkpt>
      <trkpt lat="45.88226" lon="3.71212">
        <ele>705.75</ele>
        <time>2014-12-07T01:57:20Z</time>
      </trkpt>
      <trkpt lat="45.8823" lon="3.71242">
        <ele>707.67</ele>
        <time>2014-12-07T01:57:34Z</time>
      </trkpt>
      <trkpt lat="45.8823" lon="3.71251">
        <ele>707.67</ele>
        <time>2014-12-07T01:57:38Z</time>
      </trkpt>
      <trkpt lat="45.88233" lon="3.71266">
        <ele>708.63</ele>
        <time>2014-12-07T01:57:45Z</time>
      </trkpt>
      <trkpt lat="45.88237" lon="3.71296">
        <ele>709.59</ele>
        <time>2014-12-07T01:57:58Z</time>
      </trkpt>
      <trkpt lat="45.8824" lon="3.71327">
        <ele>711.03</ele>
        <time>2014-12-07T01:58:12Z</time>
      </trkpt>
      <trkpt lat="45.88244" lon="3.71359">
        <ele>712.47</ele>
        <time>2014-12-07T01:58:27Z</time>
      </trkpt>
      <trkpt lat="45.88247" lon="3.71391">
        <ele>713.92</ele>
        <time>2014-12-07T01:58:41Z</time>
      </trkpt>
      <trkpt lat="45.8825" lon="3.71423">
        <ele>715.36</ele>
        <time>2014-12-07T01:58:55Z</time>
      </trkpt>
      <trkpt lat="45.88252" lon="3.71454">
        <ele>717.28</ele>
        <time>2014-12-07T01:59:09Z</time>
      </trkpt>
      <trkpt lat="45.88255" lon="3.7149">
        <ele>719.2</ele>
        <time>2014-12-07T01:59:25Z</time>
      </trkpt>
      <trkpt lat="45.88261" lon="3.71519">
        <ele>721.61</ele>
        <time>2014-12-07T01:59:39Z</time>
      </trkpt>
      <trkpt lat="45.88267" lon="3.71539">
        <ele>722.57</ele>
        <time>2014-12-07T01:59:50Z</time>
      </trkpt>
      <trkpt lat="45.88269" lon="3.71562">
        <ele>724.49</ele>
        <time>2014-12-07T02:00:02Z</time>
      </trkpt>
      <trkpt lat="45.88269" lon="3.71566">
        <ele>724.97</ele>
        <time>2014-12-07T02:00:04Z</time>
      </trkpt>
      <trkpt lat="45.88269" lon="3.71574">
        <ele>724.97</ele>
        <time>2014-12-07T02:00:07Z</time>
      </trkpt>
      <trkpt lat="45.8827" lon="3.71609">
        <ele>727.37</ele>
        <time>2014-12-07T02:00:22Z</time>
      </trkpt>
      <trkpt lat="45.88274" lon="3.71642">
        <ele>729.78</ele>
        <time>2014-12-07T02:00:38Z</time>
      </trkpt>
      <trkpt lat="45.88279" lon="3.71672">
        <ele>731.7</ele>
        <time>2014-12-07T02:00:51Z</time>
      </trkpt>
      <trkpt lat="45.88287" lon="3.717">
        <ele>733.14</ele>
        <time>2014-12-07T02:01:05Z</time>
      </trkpt>
      <trkpt lat="45.88287" lon="3.71706">
        <ele>733.62</ele>
        <time>2014-12-07T02:01:08Z</time>
      </trkpt>
      <trkpt lat="45.88288" lon="3.71717">
        <ele>734.58</ele>
        <time>2014-12-07T02:01:13Z</time>
      </trkpt>
      <trkpt lat="45.8829" lon="3.71728">
        <ele>735.07</ele>
        <time>2014-12-07T02:01:18Z</time>
      </trkpt>
      <trkpt lat="45.88293" lon="3.71753">
        <ele>736.51</ele>
        <time>2014-12-07T02:01:31Z</time>
      </trkpt>
      <trkpt lat="45.88293" lon="3.71756">
        <ele>736.51</ele>
        <time>2014-12-07T02:01:32Z</time>
      </trkpt>
      <trkpt lat="45.88294" lon="3.71769">
        <ele>737.47</ele>
        <time>2014-12-07T02:01:38Z</time>
      </trkpt>
      <trkpt lat="45.88295" lon="3.71794">
        <ele>738.91</ele>
        <time>2014-12-07T02:01:49Z</time>
      </trkpt>
      <trkpt lat="45.88296" lon="3.71802">
        <ele>739.87</ele>
        <time>2014-12-07T02:01:53Z</time>
      </trkpt>
      <trkpt lat="45.88299" lon="3.7181">
        <ele>740.35</ele>
        <time>2014-12-07T02:01:57Z</time>
      </trkpt>
      <trkpt lat="45.88301" lon="3.71841">
        <ele>742.28</ele>
        <time>2014-12-07T02:02:11Z</time>
      </trkpt>
      <trkpt lat="45.88301" lon="3.7185">
        <ele>742.76</ele>
        <time>2014-12-07T02:02:15Z</time>
      </trkpt>
      <trkpt lat="45.88307" lon="3.71879">
        <ele>744.68</ele>
        <time>2014-12-07T02:02:30Z</time>
      </trkpt>
      <trkpt lat="45.88311" lon="3.71898">
        <ele>746.12</ele>
        <time>2014-12-07T02:02:40Z</time>
      </trkpt>
      <trkpt lat="45.88312" lon="3.71903">
        <ele>747.08</ele>
        <time>2014-12-07T02:02:43Z</time>
      </trkpt>
      <trkpt lat="45.88315" lon="3.71917">
        <ele>747.56</ele>
        <time>2014-12-07T02:02:49Z</time>
      </trkpt>
      <trkpt lat="45.88318" lon="3.71955">
        <ele>750.93</ele>
        <time>2014-12-07T02:03:06Z</time>
      </trkpt>
      <trkpt lat="45.88319" lon="3.71988">
        <ele>752.37</ele>
        <time>2014-12-07T02:03:20Z</time>
      </trkpt>
      <trkpt lat="45.88319" lon="3.71991">
        <ele>752.85</ele>
        <time>2014-12-07T02:03:21Z</time>
      </trkpt>
      <trkpt lat="45.88321" lon="3.72018">
        <ele>754.77</ele>
        <time>2014-12-07T02:03:34Z</time>
      </trkpt>
      <trkpt lat="45.88326" lon="3.72039">
        <ele>756.69</ele>
        <time>2014-12-07T02:03:46Z</time>
      </trkpt>
      <trkpt lat="45.88327" lon="3.72048">
        <ele>757.66</ele>
        <time>2014-12-07T02:03:52Z</time>
      </trkpt>
      <trkpt lat="45.88328" lon="3.72051">
        <ele>758.14</ele>
        <time>2014-12-07T02:03:54Z</time>
      </trkpt>
      <trkpt lat="45.8833" lon="3.72062">
        <ele>759.1</ele>
        <time>2014-12-07T02:04:01Z</time>
      </trkpt>
      <trkpt lat="45.88332" lon="3.72071">
        <ele>760.54</ele>
        <time>2014-12-07T02:04:07Z</time>
      </trkpt>
      <trkpt lat="45.88332" lon="3.72075">
        <ele>760.54</ele>
        <time>2014-12-07T02:04:10Z</time>
      </trkpt>
      <trkpt lat="45.88334" lon="3.72088">
        <ele>761.02</ele>
        <time>2014-12-07T02:04:14Z</time>
      </trkpt>
      <trkpt lat="45.88341" lon="3.72124">
        <ele>762.46</ele>
        <time>2014-12-07T02:04:27Z</time>
      </trkpt>
      <trkpt lat="45.88341" lon="3.7215">
        <ele>763.9</ele>
        <time>2014-12-07T02:04:37Z</time>
      </trkpt>
      <trkpt lat="45.88346" lon="3.72168">
        <ele>764.39</ele>
        <time>2014-12-07T02:04:45Z</time>
      </trkpt>
      <trkpt lat="45.88354" lon="3.72205">
        <ele>764.87</ele>
        <time>2014-12-07T02:05:01Z</time>
      </trkpt>
      <trkpt lat="45.88364" lon="3.72236">
        <ele>765.83</ele>
        <time>2014-12-07T02:05:16Z</time>
      </trkpt>
      <trkpt lat="45.88365" lon="3.72238">
        <ele>765.83</ele>
        <time>2014-12-07T02:05:17Z</time>
      </trkpt>
      <trkpt lat="45.8837" lon="3.7227">
        <ele>766.79</ele>
        <time>2014-12-07T02:05:33Z</time>
      </trkpt>
      <trkpt lat="45.88372" lon="3.72301">
        <ele>767.75</ele>
        <time>2014-12-07T02:05:47Z</time>
      </trkpt>
      <trkpt lat="45.88371" lon="3.72318">
        <ele>768.23</ele>
        <time>2014-12-07T02:05:54Z</time>
      </trkpt>
      <trkpt lat="45.8837" lon="3.7233">
        <ele>768.23</ele>
        <time>2014-12-07T02:06:00Z</time>
      </trkpt>
      <trkpt lat="45.88365" lon="3.72364">
        <ele>769.67</ele>
        <time>2014-12-07T02:06:15Z</time>
      </trkpt>
      <trkpt lat="45.88365" lon="3.72391">
        <ele>771.6</ele>
        <time>2014-12-07T02:06:28Z</time>
      </trkpt>
      <trkpt lat="45.88366" lon="3.72406">
        <ele>772.56</ele>
        <time>2014-12-07T02:06:37Z</time>
      </trkpt>
      <trkpt lat="45.88364" lon="3.72428">
        <ele>774.96</ele>
        <time>2014-12-07T02:06:49Z</time>
      </trkpt>
      <trkpt lat="45.88364" lon="3.72451">
        <ele>776.88</ele>
        <time>2014-12-07T02:07:01Z</time>
      </trkpt>
      <trkpt lat="45.88364" lon="3.72483">
        <ele>779.77</ele>
        <time>2014-12-07T02:07:16Z</time>
      </trkpt>
      <trkpt lat="45.88364" lon="3.7249">
        <ele>780.25</ele>
        <time>2014-12-07T02:07:21Z</time>
      </trkpt>
      <trkpt lat="45.88364" lon="3.72494">
        <ele>780.73</ele>
        <time>2014-12-07T02:07:23Z</time>
      </trkpt>
      <trkpt lat="45.88363" lon="3.72501">
        <ele>781.21</ele>
        <time>2014-12-07T02:07:26Z</time>
      </trkpt>
      <trkpt lat="45.88364" lon="3.72505">
        <ele>781.69</ele>
        <time>2014-12-07T02:07:28Z</time>
      </trkpt>
      <trkpt lat="45.88363" lon="3.72514">
        <ele>782.17</ele>
        <time>2014-12-07T02:07:33Z</time>
      </trkpt>
      <trkpt lat="45.88361" lon="3.72544">
        <ele>785.05</ele>
        <time>2014-12-07T02:07:48Z</time>
      </trkpt>
      <trkpt lat="45.8836" lon="3.72563">
        <ele>786.98</ele>
        <time>2014-12-07T02:07:59Z</time>
      </trkpt>
      <trkpt lat="45.88358" lon="3.72589">
        <ele>789.38</ele>
        <time>2014-12-07T02:08:11Z</time>
      </trkpt>
      <trkpt lat="45.88357" lon="3.72596">
        <ele>789.86</ele>
        <time>2014-12-07T02:08:14Z</time>
      </trkpt>
      <trkpt lat="45.88358" lon="3.72601">
        <ele>790.34</ele>
        <time>2014-12-07T02:08:17Z</time>
      </trkpt>
      <trkpt lat="45.88358" lon="3.7263">
        <ele>793.22</ele>
        <time>2014-12-07T02:08:32Z</time>
      </trkpt>
      <trkpt lat="45.88357" lon="3.72633">
        <ele>793.71</ele>
        <time>2014-12-07T02:08:34Z</time>
      </trkpt>
      <trkpt lat="45.88356" lon="3.72645">
        <ele>794.67</ele>
        <time>2014-12-07T02:08:40Z</time>
      </trkpt>
      <trkpt lat="45.88356" lon="3.72665">
        <ele>797.07</ele>
        <time>2014-12-07T02:08:51Z</time>
      </trkpt>
      <trkpt lat="45.88354" lon="3.72689">
        <ele>798.51</ele>
        <time>2014-12-07T02:09:03Z</time>
      </trkpt>
      <trkpt lat="45.88353" lon="3.72715">
        <ele>799.95</ele>
        <time>2014-12-07T02:09:13Z</time>
      </trkpt>
      <trkpt lat="45.88352" lon="3.72725">
        <ele>800.44</ele>
        <time>2014-12-07T02:09:18Z</time>
      </trkpt>
      <trkpt lat="45.88352" lon="3.72735">
        <ele>800.44</ele>
        <time>2014-12-07T02:09:22Z</time>
      </trkpt>
      <trkpt lat="45.88352" lon="3.72764">
        <ele>799.95</ele>
        <time>2014-12-07T02:09:37Z</time>
      </trkpt>
      <trkpt lat="45.88352" lon="3.72764">
        <ele>799.47</ele>
        <time>2014-12-07T02:09:38Z</time>
      </trkpt>
      <trkpt lat="45.88351" lon="3.72777">
        <ele>798.99</ele>
        <time>2014-12-07T02:09:44Z</time>
      </trkpt>
      <trkpt lat="45.88352" lon="3.72781">
        <ele>798.99</ele>
        <time>2014-12-07T02:09:46Z</time>
      </trkpt>
      <trkpt lat="45.88352" lon="3.72797">
        <ele>798.51</ele>
        <time>2014-12-07T02:09:53Z</time>
      </trkpt>
      <trkpt lat="45.88353" lon="3.72817">
        <ele>797.55</ele>
        <time>2014-12-07T02:10:02Z</time>
      </trkpt>
      <trkpt lat="45.88354" lon="3.72859">
        <ele>795.15</ele>
        <time>2014-12-07T02:10:15Z</time>
      </trkpt>
      <trkpt lat="45.88355" lon="3.72898">
        <ele>793.22</ele>
        <time>2014-12-07T02:10:26Z</time>
      </trkpt>
      <trkpt lat="45.88357" lon="3.72945">
        <ele>789.86</ele>
        <time>2014-12-07T02:10:39Z</time>
      </trkpt>
      <trkpt lat="45.88359" lon="3.72988">
        <ele>786.98</ele>
        <time>2014-12-07T02:10:51Z</time>
      </trkpt>
      <trkpt lat="45.88357" lon="3.73034">
        <ele>783.61</ele>
        <time>2014-12-07T02:11:03Z</time>
      </trkpt>
      <trkpt lat="45.88357" lon="3.7306">
        <ele>782.17</ele>
        <time>2014-12-07T02:11:10Z</time>
      </trkpt>
      <trkpt lat="45.88357" lon="3.7311">
        <ele>779.29</ele>
        <time>2014-12-07T02:11:23Z</time>
      </trkpt>
      <trkpt lat="45.88357" lon="3.73118">
        <ele>778.81</ele>
        <time>2014-12-07T02:11:25Z</time>
      </trkpt>
      <trkpt lat="45.8836" lon="3.73158">
        <ele>777.84</ele>
        <time>2014-12-07T02:11:37Z</time>
      </trkpt>
      <trkpt lat="45.8836" lon="3.73192">
        <ele>777.36</ele>
        <time>2014-12-07T02:11:50Z</time>
      </trkpt>
      <trkpt lat="45.88354" lon="3.73219">
        <ele>777.84</ele>
        <time>2014-12-07T02:12:04Z</time>
      </trkpt>
      <trkpt lat="45.88358" lon="3.7326">
        <ele>778.32</ele>
        <time>2014-12-07T02:12:21Z</time>
      </trkpt>
      <trkpt lat="45.8836" lon="3.73296">
        <ele>779.77</ele>
        <time>2014-12-07T02:12:37Z</time>
      </trkpt>
      <trkpt lat="45.8836" lon="3.733">
        <ele>779.29</ele>
        <time>2014-12-07T02:12:39Z</time>
      </trkpt>
      <trkpt lat="45.88366" lon="3.73332">
        <ele>780.73</ele>
        <time>2014-12-07T02:12:54Z</time>
      </trkpt>
      <trkpt lat="45.88373" lon="3.73358">
        <ele>780.73</ele>
        <time>2014-12-07T02:13:06Z</time>
      </trkpt>
      <trkpt lat="45.88381" lon="3.73383">
        <ele>780.73</ele>
        <time>2014-12-07T02:13:18Z</time>
      </trkpt>
      <trkpt lat="45.88383" lon="3.7339">
        <ele>781.21</ele>
        <time>2014-12-07T02:13:21Z</time>
      </trkpt>
      <trkpt lat="45.88392" lon="3.73421">
        <ele>781.69</ele>
        <time>2014-12-07T02:13:35Z</time>
      </trkpt>
      <trkpt lat="45.88398" lon="3.73448">
        <ele>781.69</ele>
        <time>2014-12-07T02:13:48Z</time>
      </trkpt>
      <trkpt lat="45.88405" lon="3.73481">
        <ele>782.17</ele>
        <time>2014-12-07T02:14:02Z</time>
      </trkpt>
      <trkpt lat="45.88415" lon="3.73515">
        <ele>782.65</ele>
        <time>2014-12-07T02:14:17Z</time>
      </trkpt>
      <trkpt lat="45.88424" lon="3.73548">
        <ele>783.13</ele>
        <time>2014-12-07T02:14:32Z</time>
      </trkpt>
      <trkpt lat="45.88434" lon="3.73582">
        <ele>783.61</ele>
        <time>2014-12-07T02:14:48Z</time>
      </trkpt>
      <trkpt lat="45.88446" lon="3.73618">
        <ele>784.57</ele>
        <time>2014-12-07T02:15:05Z</time>
      </trkpt>
      <trkpt lat="45.88454" lon="3.73644">
        <ele>786.5</ele>
        <time>2014-12-07T02:15:18Z</time>
      </trkpt>
      <trkpt lat="45.88461" lon="3.73676">
        <ele>788.9</ele>
        <time>2014-12-07T02:15:34Z</time>
      </trkpt>
      <trkpt lat="45.88468" lon="3.73704">
        <ele>791.3</ele>
        <time>2014-12-07T02:15:48Z</time>
      </trkpt>
      <trkpt lat="45.88473" lon="3.73734">
        <ele>793.71</ele>
        <time>2014-12-07T02:16:03Z</time>
      </trkpt>
      <trkpt lat="45.88477" lon="3.73764">
        <ele>795.63</ele>
        <time>2014-12-07T02:16:18Z</time>
      </trkpt>
      <trkpt lat="45.88483" lon="3.73794">
        <ele>798.51</ele>
        <time>2014-12-07T02:16:33Z</time>
      </trkpt>
      <trkpt lat="45.88485" lon="3.73822">
        <ele>800.44</ele>
        <time>2014-12-07T02:16:46Z</time>
      </trkpt>
      <trkpt lat="45.8848" lon="3.73857">
        <ele>801.4</ele>
        <time>2014-12-07T02:17:02Z</time>
      </trkpt>
      <trkpt lat="45.88477" lon="3.73869">
        <ele>801.88</ele>
        <time>2014-12-07T02:17:08Z</time>
      </trkpt>
      <trkpt lat="45.88471" lon="3.73894">
        <ele>801.88</ele>
        <time>2014-12-07T02:17:21Z</time>
      </trkpt>
      <trkpt lat="45.88465" lon="3.73919">
        <ele>801.4</ele>
        <time>2014-12-07T02:17:33Z</time>
      </trkpt>
      <trkpt lat="45.88458" lon="3.73949">
        <ele>800.92</ele>
        <time>2014-12-07T02:17:46Z</time>
      </trkpt>
      <trkpt lat="45.8845" lon="3.73979">
        <ele>801.4</ele>
        <time>2014-12-07T02:17:59Z</time>
      </trkpt>
      <trkpt lat="45.88444" lon="3.74002">
        <ele>801.4</ele>
        <time>2014-12-07T02:18:10Z</time>
      </trkpt>
      <trkpt lat="45.88439" lon="3.74018">
        <ele>802.36</ele>
        <time>2014-12-07T02:18:19Z</time>
      </trkpt>
      <trkpt lat="45.8843" lon="3.74052">
        <ele>803.32</ele>
        <time>2014-12-07T02:18:33Z</time>
      </trkpt>
      <trkpt lat="45.88423" lon="3.74071">
        <ele>804.76</ele>
        <time>2014-12-07T02:18:44Z</time>
      </trkpt>
      <trkpt lat="45.88416" lon="3.74094">
        <ele>806.68</ele>
        <time>2014-12-07T02:18:55Z</time>
      </trkpt>
      <trkpt lat="45.88411" lon="3.74111">
        <ele>808.13</ele>
        <time>2014-12-07T02:19:04Z</time>
      </trkpt>
      <trkpt lat="45.88405" lon="3.74138">
        <ele>810.05</ele>
        <time>2014-12-07T02:19:17Z</time>
      </trkpt>
      <trkpt lat="45.88405" lon="3.74158">
        <ele>811.97</ele>
        <time>2014-12-07T02:19:29Z</time>
      </trkpt>
      <trkpt lat="45.88402" lon="3.74178">
        <ele>813.89</ele>
        <time>2014-12-07T02:19:40Z</time>
      </trkpt>
      <trkpt lat="45.88403" lon="3.74208">
        <ele>816.3</ele>
        <time>2014-12-07T02:19:55Z</time>
      </trkpt>
      <trkpt lat="45.88407" lon="3.74233">
        <ele>818.7</ele>
        <time>2014-12-07T02:20:08Z</time>
      </trkpt>
      <trkpt lat="45.88407" lon="3.74248">
        <ele>821.1</ele>
        <time>2014-12-07T02:20:16Z</time>
      </trkpt>
      <trkpt lat="45.88408" lon="3.74258">
        <ele>822.06</ele>
        <time>2014-12-07T02:20:22Z</time>
      </trkpt>
      <trkpt lat="45.88408" lon="3.74264">
        <ele>822.55</ele>
        <time>2014-12-07T02:20:26Z</time>
      </trkpt>
      <trkpt lat="45.88408" lon="3.74283">
        <ele>825.43</ele>
        <time>2014-12-07T02:20:36Z</time>
      </trkpt>
      <trkpt lat="45.88414" lon="3.74292">
        <ele>826.39</ele>
        <time>2014-12-07T02:20:42Z</time>
      </trkpt>
      <trkpt lat="45.88414" lon="3.74317">
        <ele>828.79</ele>
        <time>2014-12-07T02:20:55Z</time>
      </trkpt>
      <trkpt lat="45.88414" lon="3.7433">
        <ele>830.24</ele>
        <time>2014-12-07T02:21:01Z</time>
      </trkpt>
      <trkpt lat="45.88417" lon="3.74358">
        <ele>833.6</ele>
        <time>2014-12-07T02:21:17Z</time>
      </trkpt>
      <trkpt lat="45.88419" lon="3.74367">
        <ele>835.04</ele>
        <time>2014-12-07T02:21:22Z</time>
      </trkpt>
      <trkpt lat="45.88421" lon="3.7439">
        <ele>837.45</ele>
        <time>2014-12-07T02:21:33Z</time>
      </trkpt>
      <trkpt lat="45.88422" lon="3.74406">
        <ele>838.89</ele>
        <time>2014-12-07T02:21:41Z</time>
      </trkpt>
      <trkpt lat="45.88423" lon="3.7443">
        <ele>841.29</ele>
        <time>2014-12-07T02:21:52Z</time>
      </trkpt>
      <trkpt lat="45.88423" lon="3.74439">
        <ele>842.25</ele>
        <time>2014-12-07T02:21:56Z</time>
      </trkpt>
      <trkpt lat="45.88427" lon="3.74464">
        <ele>844.66</ele>
        <time>2014-12-07T02:22:10Z</time>
      </trkpt>
      <trkpt lat="45.88429" lon="3.74486">
        <ele>846.58</ele>
        <time>2014-12-07T02:22:20Z</time>
      </trkpt>
      <trkpt lat="45.88431" lon="3.74495">
        <ele>847.54</ele>
        <time>2014-12-07T02:22:24Z</time>
      </trkpt>
      <trkpt lat="45.88432" lon="3.74524">
        <ele>850.42</ele>
        <time>2014-12-07T02:22:39Z</time>
      </trkpt>
      <trkpt lat="45.88433" lon="3.74542">
        <ele>852.83</ele>
        <time>2014-12-07T02:22:49Z</time>
      </trkpt>
      <trkpt lat="45.8843" lon="3.74556">
        <ele>854.27</ele>
        <time>2014-12-07T02:22:56Z</time>
      </trkpt>
      <trkpt lat="45.88431" lon="3.74577">
        <ele>857.63</ele>
        <time>2014-12-07T02:23:09Z</time>
      </trkpt>
      <trkpt lat="45.88432" lon="3.74607">
        <ele>860.04</ele>
        <time>2014-12-07T02:23:24Z</time>
      </trkpt>
      <trkpt lat="45.88433" lon="3.74629">
        <ele>862.44</ele>
        <time>2014-12-07T02:23:35Z</time>
      </trkpt>
      <trkpt lat="45.88435" lon="3.74638">
        <ele>863.88</ele>
        <time>2014-12-07T02:23:39Z</time>
      </trkpt>
      <trkpt lat="45.88436" lon="3.74663">
        <ele>866.29</ele>
        <time>2014-12-07T02:23:54Z</time>
      </trkpt>
      <trkpt lat="45.88437" lon="3.74686">
        <ele>868.69</ele>
        <time>2014-12-07T02:24:04Z</time>
      </trkpt>
      <trkpt lat="45.88437" lon="3.74709">
        <ele>871.09</ele>
        <time>2014-12-07T02:24:17Z</time>
      </trkpt>
      <trkpt lat="45.88444" lon="3.74735">
        <ele>873.98</ele>
        <time>2014-12-07T02:24:29Z</time>
      </trkpt>
      <trkpt lat="45.88447" lon="3.74744">
        <ele>874.46</ele>
        <time>2014-12-07T02:24:33Z</time>
      </trkpt>
      <trkpt lat="45.88448" lon="3.74763">
        <ele>875.9</ele>
        <time>2014-12-07T02:24:42Z</time>
      </trkpt>
      <trkpt lat="45.88447" lon="3.74769">
        <ele>876.38</ele>
        <time>2014-12-07T02:24:45Z</time>
      </trkpt>
      <trkpt lat="45.88444" lon="3.74789">
        <ele>878.3</ele>
        <time>2014-12-07T02:24:54Z</time>
      </trkpt>
      <trkpt lat="45.88439" lon="3.74817">
        <ele>880.71</ele>
        <time>2014-12-07T02:25:08Z</time>
      </trkpt>
      <trkpt lat="45.88438" lon="3.74829">
        <ele>881.67</ele>
        <time>2014-12-07T02:25:14Z</time>
      </trkpt>
      <trkpt lat="45.88437" lon="3.74835">
        <ele>882.15</ele>
        <time>2014-12-07T02:25:17Z</time>
      </trkpt>
      <trkpt lat="45.88435" lon="3.74844">
        <ele>883.11</ele>
        <time>2014-12-07T02:25:21Z</time>
      </trkpt>
      <trkpt lat="45.8843" lon="3.74872">
        <ele>885.51</ele>
        <time>2014-12-07T02:25:35Z</time>
      </trkpt>
      <trkpt lat="45.88428" lon="3.74879">
        <ele>885.51</ele>
        <time>2014-12-07T02:25:38Z</time>
      </trkpt>
      <trkpt lat="45.88427" lon="3.74898">
        <ele>887.91</ele>
        <time>2014-12-07T02:25:49Z</time>
      </trkpt>
      <trkpt lat="45.88425" lon="3.74912">
        <ele>888.88</ele>
        <time>2014-12-07T02:25:56Z</time>
      </trkpt>
      <trkpt lat="45.88423" lon="3.74931">
        <ele>890.8</ele>
        <time>2014-12-07T02:26:06Z</time>
      </trkpt>
      <trkpt lat="45.88422" lon="3.74939">
        <ele>891.76</ele>
        <time>2014-12-07T02:26:10Z</time>
      </trkpt>
      <trkpt lat="45.88419" lon="3.74963">
        <ele>894.16</ele>
        <time>2014-12-07T02:26:23Z</time>
      </trkpt>
      <trkpt lat="45.8842" lon="3.74968">
        <ele>894.64</ele>
        <time>2014-12-07T02:26:25Z</time>
      </trkpt>
      <trkpt lat="45.88421" lon="3.74986">
        <ele>896.09</ele>
        <time>2014-12-07T02:26:33Z</time>
      </trkpt>
      <trkpt lat="45.88424" lon="3.75011">
        <ele>898.49</ele>
        <time>2014-12-07T02:26:46Z</time>
      </trkpt>
      <trkpt lat="45.88425" lon="3.75024">
        <ele>900.41</ele>
        <time>2014-12-07T02:26:54Z</time>
      </trkpt>
      <trkpt lat="45.88427" lon="3.75049">
        <ele>904.26</ele>
        <time>2014-12-07T02:27:09Z</time>
      </trkpt>
      <trkpt lat="45.88427" lon="3.7505">
        <ele>904.26</ele>
        <time>2014-12-07T02:27:10Z</time>
      </trkpt>
      <trkpt lat="45.88424" lon="3.75071">
        <ele>907.14</ele>
        <time>2014-12-07T02:27:24Z</time>
      </trkpt>
      <trkpt lat="45.88425" lon="3.75082">
        <ele>908.1</ele>
        <time>2014-12-07T02:27:29Z</time>
      </trkpt>
      <trkpt lat="45.8843" lon="3.75113">
        <ele>910.99</ele>
        <time>2014-12-07T02:27:45Z</time>
      </trkpt>
      <trkpt lat="45.88433" lon="3.75127">
        <ele>913.39</ele>
        <time>2014-12-07T02:27:54Z</time>
      </trkpt>
      <trkpt lat="45.88437" lon="3.75148">
        <ele>915.79</ele>
        <time>2014-12-07T02:28:07Z</time>
      </trkpt>
      <trkpt lat="45.88441" lon="3.75174">
        <ele>918.68</ele>
        <time>2014-12-07T02:28:22Z</time>
      </trkpt>
      <trkpt lat="45.88458" lon="3.75199">
        <ele>922.04</ele>
        <time>2014-12-07T02:28:38Z</time>
      </trkpt>
      <trkpt lat="45.88475" lon="3.75213">
        <ele>924.45</ele>
        <time>2014-12-07T02:28:50Z</time>
      </trkpt>
      <trkpt lat="45.88495" lon="3.75241">
        <ele>927.33</ele>
        <time>2014-12-07T02:29:04Z</time>
      </trkpt>
      <trkpt lat="45.88496" lon="3.75244">
        <ele>927.81</ele>
        <time>2014-12-07T02:29:06Z</time>
      </trkpt>
      <trkpt lat="45.88502" lon="3.75253">
        <ele>928.77</ele>
        <time>2014-12-07T02:29:12Z</time>
      </trkpt>
      <trkpt lat="45.88509" lon="3.75268">
        <ele>931.17</ele>
        <time>2014-12-07T02:29:24Z</time>
      </trkpt>
      <trkpt lat="45.88524" lon="3.7529">
        <ele>934.06</ele>
        <time>2014-12-07T02:29:41Z</time>
      </trkpt>
      <trkpt lat="45.88539" lon="3.7531">
        <ele>937.42</ele>
        <time>2014-12-07T02:29:56Z</time>
      </trkpt>
      <trkpt lat="45.88546" lon="3.75317">
        <ele>938.38</ele>
        <time>2014-12-07T02:30:02Z</time>
      </trkpt>
      <trkpt lat="45.88558" lon="3.75333">
        <ele>940.31</ele>
        <time>2014-12-07T02:30:15Z</time>
      </trkpt>
      <trkpt lat="45.8856" lon="3.75335">
        <ele>940.79</ele>
        <time>2014-12-07T02:30:17Z</time>
      </trkpt>
      <trkpt lat="45.88562" lon="3.75342">
        <ele>941.75</ele>
        <time>2014-12-07T02:30:21Z</time>
      </trkpt>
      <trkpt lat="45.8857" lon="3.75358">
        <ele>943.19</ele>
        <time>2014-12-07T02:30:32Z</time>
      </trkpt>
      <trkpt lat="45.88584" lon="3.75376">
        <ele>945.11</ele>
        <time>2014-12-07T02:30:47Z</time>
      </trkpt>
      <trkpt lat="45.88587" lon="3.75383">
        <ele>945.59</ele>
        <time>2014-12-07T02:30:51Z</time>
      </trkpt>
      <trkpt lat="45.88598" lon="3.75401">
        <ele>947.52</ele>
        <time>2014-12-07T02:31:04Z</time>
      </trkpt>
      <trkpt lat="45.886" lon="3.75403">
        <ele>947.52</ele>
        <time>2014-12-07T02:31:05Z</time>
      </trkpt>
      <trkpt lat="45.88603" lon="3.75409">
        <ele>948.48</ele>
        <time>2014-12-07T02:31:09Z</time>
      </trkpt>
      <trkpt lat="45.88613" lon="3.75426">
        <ele>948</ele>
        <time>2014-12-07T02:31:23Z</time>
      </trkpt>
      <trkpt lat="45.88616" lon="3.75428">
        <ele>948</ele>
        <time>2014-12-07T02:31:37Z</time>
      </trkpt>
      <trkpt lat="45.88616" lon="3.75428">
        <ele>948</ele>
        <time>2014-12-07T02:31:52Z</time>
      </trkpt>
      <trkpt lat="45.88618" lon="3.75428">
        <ele>947.52</ele>
        <time>2014-12-07T02:32:10Z</time>
      </trkpt>
      <trkpt lat="45.88618" lon="3.75428">
        <ele>947.52</ele>
        <time>2014-12-07T02:32:27Z</time>
      </trkpt>
      <trkpt lat="45.88618" lon="3.75428">
        <ele>947.04</ele>
        <time>2014-12-07T02:32:41Z</time>
      </trkpt>
      <trkpt lat="45.88618" lon="3.75428">
        <ele>947.04</ele>
        <time>2014-12-07T02:33:01Z</time>
      </trkpt>
      <trkpt lat="45.88617" lon="3.75429">
        <ele>946.56</ele>
        <time>2014-12-07T02:33:18Z</time>
      </trkpt>
      <trkpt lat="45.88615" lon="3.75427">
        <ele>946.56</ele>
        <time>2014-12-07T02:33:32Z</time>
      </trkpt>
      <trkpt lat="45.88615" lon="3.75428">
        <ele>946.07</ele>
        <time>2014-12-07T02:33:51Z</time>
      </trkpt>
      <trkpt lat="45.88615" lon="3.75428">
        <ele>946.07</ele>
        <time>2014-12-07T02:34:10Z</time>
      </trkpt>
      <trkpt lat="45.88615" lon="3.75429">
        <ele>946.07</ele>
        <time>2014-12-07T02:34:34Z</time>
      </trkpt>
      <trkpt lat="45.88615" lon="3.75429">
        <ele>945.59</ele>
        <time>2014-12-07T02:34:59Z</time>
      </trkpt>
      <trkpt lat="45.88616" lon="3.7543">
        <ele>945.59</ele>
        <time>2014-12-07T02:35:23Z</time>
      </trkpt>
      <trkpt lat="45.88615" lon="3.75428">
        <ele>946.07</ele>
        <time>2014-12-07T02:35:43Z</time>
      </trkpt>
      <trkpt lat="45.88613" lon="3.75426">
        <ele>945.59</ele>
        <time>2014-12-07T02:35:51Z</time>
      </trkpt>
      <trkpt lat="45.88606" lon="3.75431">
        <ele>945.59</ele>
        <time>2014-12-07T02:36:02Z</time>
      </trkpt>
      <trkpt lat="45.88604" lon="3.75434">
        <ele>946.07</ele>
        <time>2014-12-07T02:36:13Z</time>
      </trkpt>
      <trkpt lat="45.88604" lon="3.75434">
        <ele>945.59</ele>
        <time>2014-12-07T02:36:30Z</time>
      </trkpt>
      <trkpt lat="45.88604" lon="3.75435">
        <ele>945.59</ele>
        <time>2014-12-07T02:37:04Z</time>
      </trkpt>
      <trkpt lat="45.88604" lon="3.75435">
        <ele>944.63</ele>
        <time>2014-12-07T02:37:32Z</time>
      </trkpt>
      <trkpt lat="45.88603" lon="3.75435">
        <ele>945.11</ele>
        <time>2014-12-07T02:37:55Z</time>
      </trkpt>
      <trkpt lat="45.88604" lon="3.75434">
        <ele>944.63</ele>
        <time>2014-12-07T02:38:14Z</time>
      </trkpt>
      <trkpt lat="45.88604" lon="3.75434">
        <ele>944.63</ele>
        <time>2014-12-07T02:38:32Z</time>
      </trkpt>
      <trkpt lat="45.88603" lon="3.75434">
        <ele>944.15</ele>
        <time>2014-12-07T02:39:01Z</time>
      </trkpt>
      <trkpt lat="45.88603" lon="3.75434">
        <ele>944.15</ele>
        <time>2014-12-07T02:39:23Z</time>
      </trkpt>
      <trkpt lat="45.88606" lon="3.75432">
        <ele>945.11</ele>
        <time>2014-12-07T02:39:47Z</time>
      </trkpt>
      <trkpt lat="45.8861" lon="3.75433">
        <ele>944.63</ele>
        <time>2014-12-07T02:39:53Z</time>
      </trkpt>
      <trkpt lat="45.88611" lon="3.75441">
        <ele>944.63</ele>
        <time>2014-12-07T02:40:00Z</time>
      </trkpt>
      <trkpt lat="45.8861" lon="3.75453">
        <ele>943.67</ele>
        <time>2014-12-07T02:40:15Z</time>
      </trkpt>
      <trkpt lat="45.88609" lon="3.75455">
        <ele>943.67</ele>
        <time>2014-12-07T02:40:19Z</time>
      </trkpt>
      <trkpt lat="45.88607" lon="3.75459">
        <ele>943.19</ele>
        <time>2014-12-07T02:40:22Z</time>
      </trkpt>
      <trkpt lat="45.88594" lon="3.75477">
        <ele>941.75</ele>
        <time>2014-12-07T02:40:32Z</time>
      </trkpt>
      <trkpt lat="45.88589" lon="3.75484">
        <ele>940.79</ele>
        <time>2014-12-07T02:40:35Z</time>
      </trkpt>
      <trkpt lat="45.88571" lon="3.75512">
        <ele>938.38</ele>
        <time>2014-12-07T02:40:46Z</time>
      </trkpt>
      <trkpt lat="45.88551" lon="3.75541">
        <ele>935.5</ele>
        <time>2014-12-07T02:40:58Z</time>
      </trkpt>
      <trkpt lat="45.88542" lon="3.75561">
        <ele>932.62</ele>
        <time>2014-12-07T02:41:06Z</time>
      </trkpt>
      <trkpt lat="45.88541" lon="3.75564">
        <ele>932.14</ele>
        <time>2014-12-07T02:41:07Z</time>
      </trkpt>
      <trkpt lat="45.88558" lon="3.75604">
        <ele>928.29</ele>
        <time>2014-12-07T02:41:19Z</time>
      </trkpt>
      <trkpt lat="45.8857" lon="3.75627">
        <ele>925.41</ele>
        <time>2014-12-07T02:41:28Z</time>
      </trkpt>
      <trkpt lat="45.88574" lon="3.75636">
        <ele>924.45</ele>
        <time>2014-12-07T02:41:32Z</time>
      </trkpt>
      <trkpt lat="45.88587" lon="3.75653">
        <ele>922.04</ele>
        <time>2014-12-07T02:41:39Z</time>
      </trkpt>
      <trkpt lat="45.88606" lon="3.75685">
        <ele>918.68</ele>
        <time>2014-12-07T02:41:51Z</time>
      </trkpt>
      <trkpt lat="45.88625" lon="3.7572">
        <ele>915.31</ele>
        <time>2014-12-07T02:42:03Z</time>
      </trkpt>
      <trkpt lat="45.88638" lon="3.7574">
        <ele>913.39</ele>
        <time>2014-12-07T02:42:10Z</time>
      </trkpt>
      <trkpt lat="45.88673" lon="3.75745">
        <ele>910.03</ele>
        <time>2014-12-07T02:42:23Z</time>
      </trkpt>
      <trkpt lat="45.88677" lon="3.75744">
        <ele>909.54</ele>
        <time>2014-12-07T02:42:24Z</time>
      </trkpt>
      <trkpt lat="45.88682" lon="3.75745">
        <ele>908.58</ele>
        <time>2014-12-07T02:42:26Z</time>
      </trkpt>
      <trkpt lat="45.88705" lon="3.75757">
        <ele>905.7</ele>
        <time>2014-12-07T02:42:35Z</time>
      </trkpt>
      <trkpt lat="45.8871" lon="3.75775">
        <ele>904.26</ele>
        <time>2014-12-07T02:42:40Z</time>
      </trkpt>
      <trkpt lat="45.88711" lon="3.75779">
        <ele>903.78</ele>
        <time>2014-12-07T02:42:41Z</time>
      </trkpt>
      <trkpt lat="45.88736" lon="3.7579">
        <ele>900.41</ele>
        <time>2014-12-07T02:42:51Z</time>
      </trkpt>
      <trkpt lat="45.88781" lon="3.75792">
        <ele>897.53</ele>
        <time>2014-12-07T02:43:03Z</time>
      </trkpt>
      <trkpt lat="45.88804" lon="3.75797">
        <ele>895.61</ele>
        <time>2014-12-07T02:43:10Z</time>
      </trkpt>
      <trkpt lat="45.8882" lon="3.75803">
        <ele>894.16</ele>
        <time>2014-12-07T02:43:17Z</time>
      </trkpt>
      <trkpt lat="45.88832" lon="3.75812">
        <ele>892.24</ele>
        <time>2014-12-07T02:43:23Z</time>
      </trkpt>
      <trkpt lat="45.88854" lon="3.75831">
        <ele>889.84</ele>
        <time>2014-12-07T02:43:33Z</time>
      </trkpt>
      <trkpt lat="45.88867" lon="3.75848">
        <ele>886.95</ele>
        <time>2014-12-07T02:43:43Z</time>
      </trkpt>
      <trkpt lat="45.88867" lon="3.7585">
        <ele>886.95</ele>
        <time>2014-12-07T02:43:44Z</time>
      </trkpt>
      <trkpt lat="45.88872" lon="3.75858">
        <ele>885.51</ele>
        <time>2014-12-07T02:43:49Z</time>
      </trkpt>
      <trkpt lat="45.88875" lon="3.75864">
        <ele>884.55</ele>
        <time>2014-12-07T02:43:53Z</time>
      </trkpt>
      <trkpt lat="45.889" lon="3.75877">
        <ele>881.19</ele>
        <time>2014-12-07T02:44:03Z</time>
      </trkpt>
      <trkpt lat="45.88925" lon="3.75898">
        <ele>877.82</ele>
        <time>2014-12-07T02:44:13Z</time>
      </trkpt>
      <trkpt lat="45.88955" lon="3.75924">
        <ele>874.94</ele>
        <time>2014-12-07T02:44:22Z</time>
      </trkpt>
      <trkpt lat="45.88987" lon="3.75932">
        <ele>872.05</ele>
        <time>2014-12-07T02:44:29Z</time>
      </trkpt>
      <trkpt lat="45.89003" lon="3.75957">
        <ele>868.69</ele>
        <time>2014-12-07T02:44:40Z</time>
      </trkpt>
      <trkpt lat="45.89022" lon="3.75977">
        <ele>865.8</ele>
        <time>2014-12-07T02:44:49Z</time>
      </trkpt>
      <trkpt lat="45.89029" lon="3.75997">
        <ele>863.88</ele>
        <time>2014-12-07T02:44:55Z</time>
      </trkpt>
      <trkpt lat="45.89052" lon="3.76026">
        <ele>861</ele>
        <time>2014-12-07T02:45:05Z</time>
      </trkpt>
      <trkpt lat="45.89066" lon="3.76039">
        <ele>859.08</ele>
        <time>2014-12-07T02:45:10Z</time>
      </trkpt>
      <trkpt lat="45.89066" lon="3.7605">
        <ele>856.19</ele>
        <time>2014-12-07T02:45:15Z</time>
      </trkpt>
      <trkpt lat="45.8905" lon="3.76068">
        <ele>853.31</ele>
        <time>2014-12-07T02:45:25Z</time>
      </trkpt>
      <trkpt lat="45.89048" lon="3.76068">
        <ele>853.31</ele>
        <time>2014-12-07T02:45:26Z</time>
      </trkpt>
      <trkpt lat="45.89018" lon="3.76066">
        <ele>850.42</ele>
        <time>2014-12-07T02:45:37Z</time>
      </trkpt>
      <trkpt lat="45.88987" lon="3.76064">
        <ele>847.06</ele>
        <time>2014-12-07T02:45:48Z</time>
      </trkpt>
      <trkpt lat="45.88967" lon="3.76068">
        <ele>844.18</ele>
        <time>2014-12-07T02:45:59Z</time>
      </trkpt>
      <trkpt lat="45.88947" lon="3.76069">
        <ele>841.29</ele>
        <time>2014-12-07T02:46:07Z</time>
      </trkpt>
      <trkpt lat="45.88934" lon="3.76085">
        <ele>837.93</ele>
        <time>2014-12-07T02:46:14Z</time>
      </trkpt>
      <trkpt lat="45.88928" lon="3.76107">
        <ele>835.04</ele>
        <time>2014-12-07T02:46:21Z</time>
      </trkpt>
      <trkpt lat="45.88927" lon="3.76112">
        <ele>834.56</ele>
        <time>2014-12-07T02:46:23Z</time>
      </trkpt>
      <trkpt lat="45.8893" lon="3.76134">
        <ele>831.2</ele>
        <time>2014-12-07T02:46:29Z</time>
      </trkpt>
      <trkpt lat="45.88933" lon="3.76167">
        <ele>827.83</ele>
        <time>2014-12-07T02:46:39Z</time>
      </trkpt>
      <trkpt lat="45.88938" lon="3.76198">
        <ele>825.43</ele>
        <time>2014-12-07T02:46:47Z</time>
      </trkpt>
      <trkpt lat="45.88951" lon="3.76249">
        <ele>822.55</ele>
        <time>2014-12-07T02:46:58Z</time>
      </trkpt>
      <trkpt lat="45.88954" lon="3.76258">
        <ele>822.06</ele>
        <time>2014-12-07T02:47:00Z</time>
      </trkpt>
      <trkpt lat="45.88948" lon="3.76283">
        <ele>820.62</ele>
        <time>2014-12-07T02:47:09Z</time>
      </trkpt>
      <trkpt lat="45.88953" lon="3.76296">
        <ele>819.66</ele>
        <time>2014-12-07T02:47:13Z</time>
      </trkpt>
      <trkpt lat="45.88954" lon="3.76301">
        <ele>819.66</ele>
        <time>2014-12-07T02:47:14Z</time>
      </trkpt>
      <trkpt lat="45.8896" lon="3.76318">
        <ele>819.18</ele>
        <time>2014-12-07T02:47:17Z</time>
      </trkpt>
      <trkpt lat="45.8897" lon="3.76362">
        <ele>816.78</ele>
        <time>2014-12-07T02:47:27Z</time>
      </trkpt>
      <trkpt lat="45.8897" lon="3.76371">
        <ele>816.3</ele>
        <time>2014-12-07T02:47:29Z</time>
      </trkpt>
      <trkpt lat="45.88971" lon="3.7641">
        <ele>815.34</ele>
        <time>2014-12-07T02:47:40Z</time>
      </trkpt>
      <trkpt lat="45.8897" lon="3.76448">
        <ele>814.37</ele>
        <time>2014-12-07T02:47:51Z</time>
      </trkpt>
      <trkpt lat="45.8897" lon="3.76452">
        <ele>814.37</ele>
        <time>2014-12-07T02:47:52Z</time>
      </trkpt>
      <trkpt lat="45.88977" lon="3.76498">
        <ele>813.89</ele>
        <time>2014-12-07T02:48:04Z</time>
      </trkpt>
      <trkpt lat="45.88979" lon="3.76512">
        <ele>813.89</ele>
        <time>2014-12-07T02:48:08Z</time>
      </trkpt>
      <trkpt lat="45.88972" lon="3.76554">
        <ele>813.89</ele>
        <time>2014-12-07T02:48:19Z</time>
      </trkpt>
      <trkpt lat="45.88967" lon="3.76571">
        <ele>813.89</ele>
        <time>2014-12-07T02:48:24Z</time>
      </trkpt>
      <trkpt lat="45.88957" lon="3.76604">
        <ele>813.41</ele>
        <time>2014-12-07T02:48:33Z</time>
      </trkpt>
      <trkpt lat="45.88951" lon="3.76634">
        <ele>812.45</ele>
        <time>2014-12-07T02:48:41Z</time>
      </trkpt>
      <trkpt lat="45.88954" lon="3.76666">
        <ele>810.05</ele>
        <time>2014-12-07T02:48:50Z</time>
      </trkpt>
      <trkpt lat="45.88956" lon="3.76679">
        <ele>809.57</ele>
        <time>2014-12-07T02:48:54Z</time>
      </trkpt>
      <trkpt lat="45.88959" lon="3.76702">
        <ele>809.09</ele>
        <time>2014-12-07T02:49:00Z</time>
      </trkpt>
      <trkpt lat="45.88966" lon="3.76716">
        <ele>809.09</ele>
        <time>2014-12-07T02:49:04Z</time>
      </trkpt>
      <trkpt lat="45.88984" lon="3.76759">
        <ele>806.68</ele>
        <time>2014-12-07T02:49:15Z</time>
      </trkpt>
      <trkpt lat="45.89001" lon="3.76805">
        <ele>803.32</ele>
        <time>2014-12-07T02:49:26Z</time>
      </trkpt>
      <trkpt lat="45.89015" lon="3.76835">
        <ele>799.95</ele>
        <time>2014-12-07T02:49:35Z</time>
      </trkpt>
      <trkpt lat="45.89016" lon="3.76843">
        <ele>798.99</ele>
        <time>2014-12-07T02:49:37Z</time>
      </trkpt>
      <trkpt lat="45.89018" lon="3.76882">
        <ele>796.11</ele>
        <time>2014-12-07T02:49:47Z</time>
      </trkpt>
      <trkpt lat="45.8902" lon="3.76926">
        <ele>794.67</ele>
        <time>2014-12-07T02:49:57Z</time>
      </trkpt>
      <trkpt lat="45.89018" lon="3.76963">
        <ele>793.71</ele>
        <time>2014-12-07T02:50:07Z</time>
      </trkpt>
      <trkpt lat="45.89016" lon="3.76999">
        <ele>792.74</ele>
        <time>2014-12-07T02:50:18Z</time>
      </trkpt>
      <trkpt lat="45.89012" lon="3.77039">
        <ele>790.34</ele>
        <time>2014-12-07T02:50:29Z</time>
      </trkpt>
      <trkpt lat="45.89007" lon="3.77073">
        <ele>787.94</ele>
        <time>2014-12-07T02:50:38Z</time>
      </trkpt>
      <trkpt lat="45.88999" lon="3.77115">
        <ele>785.05</ele>
        <time>2014-12-07T02:50:49Z</time>
      </trkpt>
      <trkpt lat="45.88995" lon="3.77159">
        <ele>781.69</ele>
        <time>2014-12-07T02:51:00Z</time>
      </trkpt>
      <trkpt lat="45.88996" lon="3.77188">
        <ele>779.29</ele>
        <time>2014-12-07T02:51:08Z</time>
      </trkpt>
      <trkpt lat="45.89004" lon="3.77205">
        <ele>777.36</ele>
        <time>2014-12-07T02:51:13Z</time>
      </trkpt>
      <trkpt lat="45.89008" lon="3.77214">
        <ele>775.92</ele>
        <time>2014-12-07T02:51:16Z</time>
      </trkpt>
      <trkpt lat="45.89015" lon="3.77234">
        <ele>773.52</ele>
        <time>2014-12-07T02:51:22Z</time>
      </trkpt>
      <trkpt lat="45.89022" lon="3.77261">
        <ele>771.6</ele>
        <time>2014-12-07T02:51:29Z</time>
      </trkpt>
      <trkpt lat="45.89021" lon="3.77295">
        <ele>768.23</ele>
        <time>2014-12-07T02:51:38Z</time>
      </trkpt>
      <trkpt lat="45.8903" lon="3.77314">
        <ele>765.35</ele>
        <time>2014-12-07T02:51:44Z</time>
      </trkpt>
      <trkpt lat="45.89035" lon="3.77328">
        <ele>763.9</ele>
        <time>2014-12-07T02:51:48Z</time>
      </trkpt>
      <trkpt lat="45.89039" lon="3.77334">
        <ele>762.94</ele>
        <time>2014-12-07T02:51:50Z</time>
      </trkpt>
      <trkpt lat="45.89044" lon="3.77344">
        <ele>761.5</ele>
        <time>2014-12-07T02:51:53Z</time>
      </trkpt>
      <trkpt lat="45.89053" lon="3.77377">
        <ele>758.62</ele>
        <time>2014-12-07T02:52:02Z</time>
      </trkpt>
      <trkpt lat="45.89068" lon="3.77432">
        <ele>756.21</ele>
        <time>2014-12-07T02:52:17Z</time>
      </trkpt>
      <trkpt lat="45.89073" lon="3.77445">
        <ele>755.73</ele>
        <time>2014-12-07T02:52:20Z</time>
      </trkpt>
      <trkpt lat="45.89086" lon="3.77481">
        <ele>756.69</ele>
        <time>2014-12-07T02:52:31Z</time>
      </trkpt>
      <trkpt lat="45.8909" lon="3.77491">
        <ele>755.25</ele>
        <time>2014-12-07T02:52:34Z</time>
      </trkpt>
      <trkpt lat="45.89102" lon="3.77524">
        <ele>754.77</ele>
        <time>2014-12-07T02:52:44Z</time>
      </trkpt>
      <trkpt lat="45.89108" lon="3.77548">
        <ele>753.81</ele>
        <time>2014-12-07T02:52:52Z</time>
      </trkpt>
      <trkpt lat="45.89113" lon="3.77556">
        <ele>753.81</ele>
        <time>2014-12-07T02:52:56Z</time>
      </trkpt>
      <trkpt lat="45.89126" lon="3.77603">
        <ele>752.85</ele>
        <time>2014-12-07T02:53:07Z</time>
      </trkpt>
      <trkpt lat="45.89141" lon="3.77642">
        <ele>750.93</ele>
        <time>2014-12-07T02:53:18Z</time>
      </trkpt>
      <trkpt lat="45.89152" lon="3.77673">
        <ele>747.56</ele>
        <time>2014-12-07T02:53:26Z</time>
      </trkpt>
      <trkpt lat="45.89161" lon="3.77705">
        <ele>746.6</ele>
        <time>2014-12-07T02:53:34Z</time>
      </trkpt>
      <trkpt lat="45.89173" lon="3.77724">
        <ele>745.64</ele>
        <time>2014-12-07T02:53:40Z</time>
      </trkpt>
      <trkpt lat="45.89176" lon="3.77744">
        <ele>745.16</ele>
        <time>2014-12-07T02:53:45Z</time>
      </trkpt>
      <trkpt lat="45.89178" lon="3.77785">
        <ele>741.79</ele>
        <time>2014-12-07T02:53:56Z</time>
      </trkpt>
      <trkpt lat="45.89178" lon="3.77788">
        <ele>741.31</ele>
        <time>2014-12-07T02:53:57Z</time>
      </trkpt>
      <trkpt lat="45.8918" lon="3.778">
        <ele>739.87</ele>
        <time>2014-12-07T02:54:00Z</time>
      </trkpt>
      <trkpt lat="45.89181" lon="3.77803">
        <ele>739.39</ele>
        <time>2014-12-07T02:54:02Z</time>
      </trkpt>
      <trkpt lat="45.8918" lon="3.77823">
        <ele>737.47</ele>
        <time>2014-12-07T02:54:08Z</time>
      </trkpt>
      <trkpt lat="45.89195" lon="3.77853">
        <ele>734.1</ele>
        <time>2014-12-07T02:54:16Z</time>
      </trkpt>
      <trkpt lat="45.89202" lon="3.77866">
        <ele>732.66</ele>
        <time>2014-12-07T02:54:19Z</time>
      </trkpt>
      <trkpt lat="45.89223" lon="3.77901">
        <ele>731.22</ele>
        <time>2014-12-07T02:54:26Z</time>
      </trkpt>
      <trkpt lat="45.89227" lon="3.77908">
        <ele>730.74</ele>
        <time>2014-12-07T02:54:27Z</time>
      </trkpt>
      <trkpt lat="45.89228" lon="3.77912">
        <ele>731.22</ele>
        <time>2014-12-07T02:54:28Z</time>
      </trkpt>
      <trkpt lat="45.89232" lon="3.77921">
        <ele>730.74</ele>
        <time>2014-12-07T02:54:30Z</time>
      </trkpt>
      <trkpt lat="45.8924" lon="3.77934">
        <ele>730.26</ele>
        <time>2014-12-07T02:54:33Z</time>
      </trkpt>
      <trkpt lat="45.89243" lon="3.77937">
        <ele>730.26</ele>
        <time>2014-12-07T02:54:34Z</time>
      </trkpt>
      <trkpt lat="45.89272" lon="3.77984">
        <ele>727.86</ele>
        <time>2014-12-07T02:54:46Z</time>
      </trkpt>
      <trkpt lat="45.89281" lon="3.78025">
        <ele>724.97</ele>
        <time>2014-12-07T02:54:56Z</time>
      </trkpt>
      <trkpt lat="45.89283" lon="3.78032">
        <ele>724.49</ele>
        <time>2014-12-07T02:54:58Z</time>
      </trkpt>
      <trkpt lat="45.89284" lon="3.78035">
        <ele>724.49</ele>
        <time>2014-12-07T02:54:59Z</time>
      </trkpt>
      <trkpt lat="45.89286" lon="3.78046">
        <ele>724.01</ele>
        <time>2014-12-07T02:55:02Z</time>
      </trkpt>
      <trkpt lat="45.89287" lon="3.7805">
        <ele>723.53</ele>
        <time>2014-12-07T02:55:03Z</time>
      </trkpt>
      <trkpt lat="45.89293" lon="3.78066">
        <ele>722.57</ele>
        <time>2014-12-07T02:55:07Z</time>
      </trkpt>
      <trkpt lat="45.89308" lon="3.78103">
        <ele>720.65</ele>
        <time>2014-12-07T02:55:16Z</time>
      </trkpt>
      <trkpt lat="45.89322" lon="3.78127">
        <ele>718.72</ele>
        <time>2014-12-07T02:55:22Z</time>
      </trkpt>
      <trkpt lat="45.89326" lon="3.78137">
        <ele>718.24</ele>
        <time>2014-12-07T02:55:24Z</time>
      </trkpt>
      <trkpt lat="45.89334" lon="3.78154">
        <ele>717.76</ele>
        <time>2014-12-07T02:55:28Z</time>
      </trkpt>
      <trkpt lat="45.89341" lon="3.7817">
        <ele>716.8</ele>
        <time>2014-12-07T02:55:32Z</time>
      </trkpt>
      <trkpt lat="45.89347" lon="3.78183">
        <ele>716.32</ele>
        <time>2014-12-07T02:55:36Z</time>
      </trkpt>
      <trkpt lat="45.89354" lon="3.78199">
        <ele>715.84</ele>
        <time>2014-12-07T02:55:40Z</time>
      </trkpt>
      <trkpt lat="45.89363" lon="3.78217">
        <ele>714.88</ele>
        <time>2014-12-07T02:55:45Z</time>
      </trkpt>
      <trkpt lat="45.89357" lon="3.78219">
        <ele>714.88</ele>
        <time>2014-12-07T02:55:46Z</time>
      </trkpt>
      <trkpt lat="45.89351" lon="3.7822">
        <ele>714.4</ele>
        <time>2014-12-07T02:55:47Z</time>
      </trkpt>
      <trkpt lat="45.89339" lon="3.78235">
        <ele>714.4</ele>
        <time>2014-12-07T02:55:56Z</time>
      </trkpt>
      <trkpt lat="45.8934" lon="3.78236">
        <ele>714.4</ele>
        <time>2014-12-07T02:55:57Z</time>
      </trkpt>
      <trkpt lat="45.89341" lon="3.78238">
        <ele>714.4</ele>
        <time>2014-12-07T02:55:58Z</time>
      </trkpt>
      <trkpt lat="45.89344" lon="3.78247">
        <ele>714.4</ele>
        <time>2014-12-07T02:56:02Z</time>
      </trkpt>
      <trkpt lat="45.89343" lon="3.78249">
        <ele>714.4</ele>
        <time>2014-12-07T02:56:03Z</time>
      </trkpt>
      <trkpt lat="45.89342" lon="3.78251">
        <ele>714.4</ele>
        <time>2014-12-07T02:56:04Z</time>
      </trkpt>
      <trkpt lat="45.89344" lon="3.78257">
        <ele>714.4</ele>
        <time>2014-12-07T02:56:08Z</time>
      </trkpt>
      <trkpt lat="45.89351" lon="3.7828">
        <ele>714.4</ele>
        <time>2014-12-07T02:56:19Z</time>
      </trkpt>
      <trkpt lat="45.89355" lon="3.78293">
        <ele>713.92</ele>
        <time>2014-12-07T02:56:26Z</time>
      </trkpt>
      <trkpt lat="45.89356" lon="3.78296">
        <ele>713.92</ele>
        <time>2014-12-07T02:56:27Z</time>
      </trkpt>
      <trkpt lat="45.89357" lon="3.78298">
        <ele>713.92</ele>
        <time>2014-12-07T02:56:28Z</time>
      </trkpt>
      <trkpt lat="45.89355" lon="3.78307">
        <ele>713.92</ele>
        <time>2014-12-07T02:56:33Z</time>
      </trkpt>
      <trkpt lat="45.89356" lon="3.78314">
        <ele>713.44</ele>
        <time>2014-12-07T02:56:37Z</time>
      </trkpt>
      <trkpt lat="45.89359" lon="3.78317">
        <ele>713.92</ele>
        <time>2014-12-07T02:56:39Z</time>
      </trkpt>
      <trkpt lat="45.89362" lon="3.7833">
        <ele>714.88</ele>
        <time>2014-12-07T02:56:45Z</time>
      </trkpt>
      <trkpt lat="45.89364" lon="3.78333">
        <ele>713.92</ele>
        <time>2014-12-07T02:56:46Z</time>
      </trkpt>
      <trkpt lat="45.89375" lon="3.78341">
        <ele>713.92</ele>
        <time>2014-12-07T02:56:48Z</time>
      </trkpt>
      <trkpt lat="45.89385" lon="3.78354">
        <ele>712.95</ele>
        <time>2014-12-07T02:56:52Z</time>
      </trkpt>
      <trkpt lat="45.89383" lon="3.78361">
        <ele>713.44</ele>
        <time>2014-12-07T02:56:55Z</time>
      </trkpt>
      <trkpt lat="45.89388" lon="3.78368">
        <ele>713.44</ele>
        <time>2014-12-07T02:56:58Z</time>
      </trkpt>
      <trkpt lat="45.89376" lon="3.78407">
        <ele>712.95</ele>
        <time>2014-12-07T02:57:11Z</time>
      </trkpt>
      <trkpt lat="45.89381" lon="3.78418">
        <ele>711.99</ele>
        <time>2014-12-07T02:57:20Z</time>
      </trkpt>
      <trkpt lat="45.89377" lon="3.78427">
        <ele>711.99</ele>
        <time>2014-12-07T02:57:26Z</time>
      </trkpt>
      <trkpt lat="45.89377" lon="3.78431">
        <ele>711.51</ele>
        <time>2014-12-07T02:57:29Z</time>
      </trkpt>
      <trkpt lat="45.89378" lon="3.78439">
        <ele>711.51</ele>
        <time>2014-12-07T02:57:34Z</time>
      </trkpt>
      <trkpt lat="45.89391" lon="3.78469">
        <ele>710.55</ele>
        <time>2014-12-07T02:57:49Z</time>
      </trkpt>
      <trkpt lat="45.89391" lon="3.78475">
        <ele>711.03</ele>
        <time>2014-12-07T02:57:52Z</time>
      </trkpt>
      <trkpt lat="45.89399" lon="3.785">
        <ele>710.55</ele>
        <time>2014-12-07T02:58:04Z</time>
      </trkpt>
      <trkpt lat="45.89402" lon="3.7851">
        <ele>710.55</ele>
        <time>2014-12-07T02:58:09Z</time>
      </trkpt>
      <trkpt lat="45.89407" lon="3.7852">
        <ele>710.07</ele>
        <time>2014-12-07T02:58:14Z</time>
      </trkpt>
      <trkpt lat="45.89418" lon="3.78548">
        <ele>709.59</ele>
        <time>2014-12-07T02:58:28Z</time>
      </trkpt>
      <trkpt lat="45.8942" lon="3.78558">
        <ele>708.63</ele>
        <time>2014-12-07T02:58:33Z</time>
      </trkpt>
      <trkpt lat="45.89422" lon="3.78568">
        <ele>708.15</ele>
        <time>2014-12-07T02:58:38Z</time>
      </trkpt>
      <trkpt lat="45.89431" lon="3.78594">
        <ele>707.67</ele>
        <time>2014-12-07T02:58:51Z</time>
      </trkpt>
      <trkpt lat="45.89433" lon="3.78604">
        <ele>707.67</ele>
        <time>2014-12-07T02:58:55Z</time>
      </trkpt>
      <trkpt lat="45.89437" lon="3.78618">
        <ele>706.71</ele>
        <time>2014-12-07T02:59:01Z</time>
      </trkpt>
      <trkpt lat="45.89437" lon="3.78625">
        <ele>706.71</ele>
        <time>2014-12-07T02:59:04Z</time>
      </trkpt>
      <trkpt lat="45.89444" lon="3.78647">
        <ele>705.75</ele>
        <time>2014-12-07T02:59:14Z</time>
      </trkpt>
      <trkpt lat="45.89454" lon="3.78679">
        <ele>704.78</ele>
        <time>2014-12-07T02:59:29Z</time>
      </trkpt>
      <trkpt lat="45.89464" lon="3.78707">
        <ele>704.3</ele>
        <time>2014-12-07T02:59:42Z</time>
      </trkpt>
      <trkpt lat="45.89473" lon="3.78737">
        <ele>703.82</ele>
        <time>2014-12-07T02:59:56Z</time>
      </trkpt>
      <trkpt lat="45.89484" lon="3.7877">
        <ele>703.82</ele>
        <time>2014-12-07T03:00:12Z</time>
      </trkpt>
      <trkpt lat="45.89494" lon="3.78799">
        <ele>702.86</ele>
        <time>2014-12-07T03:00:27Z</time>
      </trkpt>
      <trkpt lat="45.895" lon="3.78824">
        <ele>701.9</ele>
        <time>2014-12-07T03:00:40Z</time>
      </trkpt>
      <trkpt lat="45.89501" lon="3.78826">
        <ele>701.9</ele>
        <time>2014-12-07T03:00:41Z</time>
      </trkpt>
      <trkpt lat="45.89511" lon="3.78858">
        <ele>701.42</ele>
        <time>2014-12-07T03:00:57Z</time>
      </trkpt>
      <trkpt lat="45.89521" lon="3.78888">
        <ele>700.94</ele>
        <time>2014-12-07T03:01:11Z</time>
      </trkpt>
      <trkpt lat="45.89533" lon="3.78917">
        <ele>700.46</ele>
        <time>2014-12-07T03:01:26Z</time>
      </trkpt>
      <trkpt lat="45.89537" lon="3.78925">
        <ele>700.46</ele>
        <time>2014-12-07T03:01:31Z</time>
      </trkpt>
      <trkpt lat="45.89541" lon="3.78938">
        <ele>700.46</ele>
        <time>2014-12-07T03:01:38Z</time>
      </trkpt>
      <trkpt lat="45.89548" lon="3.78965">
        <ele>699.98</ele>
        <time>2014-12-07T03:01:50Z</time>
      </trkpt>
      <trkpt lat="45.89554" lon="3.78992">
        <ele>699.02</ele>
        <time>2014-12-07T03:02:03Z</time>
      </trkpt>
      <trkpt lat="45.89561" lon="3.79024">
        <ele>698.05</ele>
        <time>2014-12-07T03:02:17Z</time>
      </trkpt>
      <trkpt lat="45.89561" lon="3.79033">
        <ele>697.57</ele>
        <time>2014-12-07T03:02:21Z</time>
      </trkpt>
      <trkpt lat="45.89563" lon="3.79042">
        <ele>697.09</ele>
        <time>2014-12-07T03:02:25Z</time>
      </trkpt>
      <trkpt lat="45.89568" lon="3.79074">
        <ele>695.17</ele>
        <time>2014-12-07T03:02:40Z</time>
      </trkpt>
      <trkpt lat="45.89571" lon="3.79108">
        <ele>692.29</ele>
        <time>2014-12-07T03:02:54Z</time>
      </trkpt>
      <trkpt lat="45.89572" lon="3.79138">
        <ele>690.36</ele>
        <time>2014-12-07T03:03:06Z</time>
      </trkpt>
      <trkpt lat="45.89573" lon="3.79168">
        <ele>687.96</ele>
        <time>2014-12-07T03:03:21Z</time>
      </trkpt>
      <trkpt lat="45.89575" lon="3.7919">
        <ele>686.04</ele>
        <time>2014-12-07T03:03:30Z</time>
      </trkpt>
      <trkpt lat="45.89579" lon="3.79222">
        <ele>684.12</ele>
        <time>2014-12-07T03:03:43Z</time>
      </trkpt>
      <trkpt lat="45.89583" lon="3.79247">
        <ele>683.15</ele>
        <time>2014-12-07T03:03:53Z</time>
      </trkpt>
      <trkpt lat="45.89584" lon="3.79274">
        <ele>682.19</ele>
        <time>2014-12-07T03:04:05Z</time>
      </trkpt>
      <trkpt lat="45.89584" lon="3.79303">
        <ele>681.71</ele>
        <time>2014-12-07T03:04:19Z</time>
      </trkpt>
      <trkpt lat="45.89588" lon="3.79338">
        <ele>681.23</ele>
        <time>2014-12-07T03:04:34Z</time>
      </trkpt>
      <trkpt lat="45.89588" lon="3.79367">
        <ele>680.75</ele>
        <time>2014-12-07T03:04:48Z</time>
      </trkpt>
      <trkpt lat="45.89588" lon="3.79374">
        <ele>680.75</ele>
        <time>2014-12-07T03:04:51Z</time>
      </trkpt>
      <trkpt lat="45.89587" lon="3.794">
        <ele>680.75</ele>
        <time>2014-12-07T03:05:05Z</time>
      </trkpt>
      <trkpt lat="45.89587" lon="3.79408">
        <ele>680.75</ele>
        <time>2014-12-07T03:05:10Z</time>
      </trkpt>
      <trkpt lat="45.89588" lon="3.79432">
        <ele>680.75</ele>
        <time>2014-12-07T03:05:21Z</time>
      </trkpt>
      <trkpt lat="45.89587" lon="3.79461">
        <ele>679.79</ele>
        <time>2014-12-07T03:05:34Z</time>
      </trkpt>
      <trkpt lat="45.8959" lon="3.79486">
        <ele>678.83</ele>
        <time>2014-12-07T03:05:44Z</time>
      </trkpt>
      <trkpt lat="45.89591" lon="3.7949">
        <ele>678.35</ele>
        <time>2014-12-07T03:05:46Z</time>
      </trkpt>
      <trkpt lat="45.89594" lon="3.79515">
        <ele>677.39</ele>
        <time>2014-12-07T03:05:56Z</time>
      </trkpt>
      <trkpt lat="45.89599" lon="3.7954">
        <ele>676.42</ele>
        <time>2014-12-07T03:06:05Z</time>
      </trkpt>
      <trkpt lat="45.89602" lon="3.79578">
        <ele>674.5</ele>
        <time>2014-12-07T03:06:16Z</time>
      </trkpt>
      <trkpt lat="45.89609" lon="3.79619">
        <ele>672.58</ele>
        <time>2014-12-07T03:06:26Z</time>
      </trkpt>
      <trkpt lat="45.89614" lon="3.79656">
        <ele>670.66</ele>
        <time>2014-12-07T03:06:35Z</time>
      </trkpt>
      <trkpt lat="45.89618" lon="3.7969">
        <ele>669.22</ele>
        <time>2014-12-07T03:06:44Z</time>
      </trkpt>
      <trkpt lat="45.89626" lon="3.79726">
        <ele>667.29</ele>
        <time>2014-12-07T03:06:55Z</time>
      </trkpt>
      <trkpt lat="45.89627" lon="3.79754">
        <ele>666.33</ele>
        <time>2014-12-07T03:07:02Z</time>
      </trkpt>
      <trkpt lat="45.89637" lon="3.79798">
        <ele>665.85</ele>
        <time>2014-12-07T03:07:13Z</time>
      </trkpt>
      <trkpt lat="45.89646" lon="3.79833">
        <ele>665.37</ele>
        <time>2014-12-07T03:07:25Z</time>
      </trkpt>
      <trkpt lat="45.8965" lon="3.79862">
        <ele>665.37</ele>
        <time>2014-12-07T03:07:37Z</time>
      </trkpt>
      <trkpt lat="45.89657" lon="3.79895">
        <ele>666.33</ele>
        <time>2014-12-07T03:07:51Z</time>
      </trkpt>
      <trkpt lat="45.89659" lon="3.79923">
        <ele>666.81</ele>
        <time>2014-12-07T03:08:03Z</time>
      </trkpt>
      <trkpt lat="45.89666" lon="3.79952">
        <ele>666.81</ele>
        <time>2014-12-07T03:08:15Z</time>
      </trkpt>
      <trkpt lat="45.89669" lon="3.79977">
        <ele>666.81</ele>
        <time>2014-12-07T03:08:26Z</time>
      </trkpt>
      <trkpt lat="45.89675" lon="3.80006">
        <ele>668.25</ele>
        <time>2014-12-07T03:08:38Z</time>
      </trkpt>
      <trkpt lat="45.8968" lon="3.80041">
        <ele>669.7</ele>
        <time>2014-12-07T03:08:53Z</time>
      </trkpt>
      <trkpt lat="45.89681" lon="3.80071">
        <ele>670.66</ele>
        <time>2014-12-07T03:09:06Z</time>
      </trkpt>
      <trkpt lat="45.89691" lon="3.80101">
        <ele>671.14</ele>
        <time>2014-12-07T03:09:19Z</time>
      </trkpt>
      <trkpt lat="45.89695" lon="3.80129">
        <ele>670.66</ele>
        <time>2014-12-07T03:09:32Z</time>
      </trkpt>
      <trkpt lat="45.89701" lon="3.8018">
        <ele>668.25</ele>
        <time>2014-12-07T03:09:47Z</time>
      </trkpt>
      <trkpt lat="45.89707" lon="3.80221">
        <ele>665.37</ele>
        <time>2014-12-07T03:09:59Z</time>
      </trkpt>
      <trkpt lat="45.89712" lon="3.80256">
        <ele>662.49</ele>
        <time>2014-12-07T03:10:09Z</time>
      </trkpt>
      <trkpt lat="45.89715" lon="3.80298">
        <ele>659.6</ele>
        <time>2014-12-07T03:10:20Z</time>
      </trkpt>
      <trkpt lat="45.89722" lon="3.80337">
        <ele>657.2</ele>
        <time>2014-12-07T03:10:32Z</time>
      </trkpt>
      <trkpt lat="45.89727" lon="3.80382">
        <ele>655.76</ele>
        <time>2014-12-07T03:10:43Z</time>
      </trkpt>
      <trkpt lat="45.89729" lon="3.80421">
        <ele>654.31</ele>
        <time>2014-12-07T03:10:53Z</time>
      </trkpt>
      <trkpt lat="45.89737" lon="3.80472">
        <ele>652.39</ele>
        <time>2014-12-07T03:11:07Z</time>
      </trkpt>
      <trkpt lat="45.89743" lon="3.8052">
        <ele>649.99</ele>
        <time>2014-12-07T03:11:21Z</time>
      </trkpt>
      <trkpt lat="45.89744" lon="3.80546">
        <ele>649.03</ele>
        <time>2014-12-07T03:11:33Z</time>
      </trkpt>
      <trkpt lat="45.89746" lon="3.80574">
        <ele>648.55</ele>
        <time>2014-12-07T03:11:46Z</time>
      </trkpt>
      <trkpt lat="45.89746" lon="3.806">
        <ele>647.59</ele>
        <time>2014-12-07T03:11:59Z</time>
      </trkpt>
      <trkpt lat="45.89747" lon="3.80618">
        <ele>647.1</ele>
        <time>2014-12-07T03:12:10Z</time>
      </trkpt>
      <trkpt lat="45.89748" lon="3.80622">
        <ele>647.1</ele>
        <time>2014-12-07T03:12:12Z</time>
      </trkpt>
      <trkpt lat="45.8975" lon="3.80645">
        <ele>647.1</ele>
        <time>2014-12-07T03:12:21Z</time>
      </trkpt>
      <trkpt lat="45.89758" lon="3.80679">
        <ele>646.62</ele>
        <time>2014-12-07T03:12:34Z</time>
      </trkpt>
      <trkpt lat="45.89763" lon="3.80711">
        <ele>646.62</ele>
        <time>2014-12-07T03:12:47Z</time>
      </trkpt>
      <trkpt lat="45.89768" lon="3.8074">
        <ele>646.62</ele>
        <time>2014-12-07T03:13:01Z</time>
      </trkpt>
      <trkpt lat="45.89774" lon="3.80772">
        <ele>647.1</ele>
        <time>2014-12-07T03:13:15Z</time>
      </trkpt>
      <trkpt lat="45.89777" lon="3.80802">
        <ele>647.1</ele>
        <time>2014-12-07T03:13:28Z</time>
      </trkpt>
      <trkpt lat="45.8978" lon="3.80825">
        <ele>648.07</ele>
        <time>2014-12-07T03:13:40Z</time>
      </trkpt>
      <trkpt lat="45.89784" lon="3.8086">
        <ele>649.51</ele>
        <time>2014-12-07T03:13:55Z</time>
      </trkpt>
      <trkpt lat="45.89787" lon="3.80892">
        <ele>651.91</ele>
        <time>2014-12-07T03:14:10Z</time>
      </trkpt>
      <trkpt lat="45.8979" lon="3.80913">
        <ele>653.83</ele>
        <time>2014-12-07T03:14:22Z</time>
      </trkpt>
      <trkpt lat="45.89791" lon="3.80922">
        <ele>654.8</ele>
        <time>2014-12-07T03:14:27Z</time>
      </trkpt>
      <trkpt lat="45.89787" lon="3.80952">
        <ele>657.2</ele>
        <time>2014-12-07T03:14:43Z</time>
      </trkpt>
      <trkpt lat="45.89778" lon="3.80973">
        <ele>659.12</ele>
        <time>2014-12-07T03:14:55Z</time>
      </trkpt>
      <trkpt lat="45.89768" lon="3.80992">
        <ele>661.52</ele>
        <time>2014-12-07T03:15:08Z</time>
      </trkpt>
      <trkpt lat="45.89756" lon="3.8101">
        <ele>663.45</ele>
        <time>2014-12-07T03:15:21Z</time>
      </trkpt>
      <trkpt lat="45.89745" lon="3.81027">
        <ele>665.37</ele>
        <time>2014-12-07T03:15:32Z</time>
      </trkpt>
      <trkpt lat="45.89736" lon="3.81042">
        <ele>666.81</ele>
        <time>2014-12-07T03:15:42Z</time>
      </trkpt>
      <trkpt lat="45.89731" lon="3.81046">
        <ele>667.77</ele>
        <time>2014-12-07T03:15:46Z</time>
      </trkpt>
      <trkpt lat="45.89728" lon="3.81053">
        <ele>668.73</ele>
        <time>2014-12-07T03:15:50Z</time>
      </trkpt>
      <trkpt lat="45.89719" lon="3.81063">
        <ele>670.18</ele>
        <time>2014-12-07T03:15:58Z</time>
      </trkpt>
      <trkpt lat="45.89707" lon="3.81083">
        <ele>673.06</ele>
        <time>2014-12-07T03:16:12Z</time>
      </trkpt>
      <trkpt lat="45.89701" lon="3.81092">
        <ele>673.54</ele>
        <time>2014-12-07T03:16:18Z</time>
      </trkpt>
      <trkpt lat="45.89689" lon="3.81114">
        <ele>675.94</ele>
        <time>2014-12-07T03:16:32Z</time>
      </trkpt>
      <trkpt lat="45.89687" lon="3.81117">
        <ele>675.94</ele>
        <time>2014-12-07T03:16:34Z</time>
      </trkpt>
      <trkpt lat="45.8968" lon="3.81128">
        <ele>677.39</ele>
        <time>2014-12-07T03:16:44Z</time>
      </trkpt>
      <trkpt lat="45.89676" lon="3.81134">
        <ele>678.35</ele>
        <time>2014-12-07T03:16:48Z</time>
      </trkpt>
      <trkpt lat="45.89673" lon="3.81139">
        <ele>679.79</ele>
        <time>2014-12-07T03:16:53Z</time>
      </trkpt>
      <trkpt lat="45.89671" lon="3.81142">
        <ele>679.79</ele>
        <time>2014-12-07T03:16:55Z</time>
      </trkpt>
      <trkpt lat="45.89664" lon="3.81161">
        <ele>682.67</ele>
        <time>2014-12-07T03:17:06Z</time>
      </trkpt>
      <trkpt lat="45.89665" lon="3.81165">
        <ele>683.15</ele>
        <time>2014-12-07T03:17:10Z</time>
      </trkpt>
      <trkpt lat="45.89667" lon="3.81171">
        <ele>684.12</ele>
        <time>2014-12-07T03:17:13Z</time>
      </trkpt>
      <trkpt lat="45.89675" lon="3.8118">
        <ele>686.04</ele>
        <time>2014-12-07T03:17:21Z</time>
      </trkpt>
      <trkpt lat="45.89685" lon="3.81185">
        <ele>687.48</ele>
        <time>2014-12-07T03:17:30Z</time>
      </trkpt>
      <trkpt lat="45.89697" lon="3.81195">
        <ele>689.88</ele>
        <time>2014-12-07T03:17:43Z</time>
      </trkpt>
      <trkpt lat="45.89702" lon="3.81198">
        <ele>690.36</ele>
        <time>2014-12-07T03:17:49Z</time>
      </trkpt>
      <trkpt lat="45.89713" lon="3.81206">
        <ele>691.81</ele>
        <time>2014-12-07T03:17:57Z</time>
      </trkpt>
      <trkpt lat="45.89723" lon="3.81209">
        <ele>692.77</ele>
        <time>2014-12-07T03:18:02Z</time>
      </trkpt>
      <trkpt lat="45.8974" lon="3.81217">
        <ele>694.21</ele>
        <time>2014-12-07T03:18:12Z</time>
      </trkpt>
      <trkpt lat="45.89743" lon="3.81219">
        <ele>694.69</ele>
        <time>2014-12-07T03:18:15Z</time>
      </trkpt>
      <trkpt lat="45.89765" lon="3.81225">
        <ele>696.13</ele>
        <time>2014-12-07T03:18:25Z</time>
      </trkpt>
      <trkpt lat="45.89789" lon="3.81234">
        <ele>698.53</ele>
        <time>2014-12-07T03:18:40Z</time>
      </trkpt>
      <trkpt lat="45.89809" lon="3.8124">
        <ele>700.46</ele>
        <time>2014-12-07T03:18:53Z</time>
      </trkpt>
      <trkpt lat="45.89831" lon="3.81251">
        <ele>702.86</ele>
        <time>2014-12-07T03:19:09Z</time>
      </trkpt>
      <trkpt lat="45.89835" lon="3.81252">
        <ele>702.86</ele>
        <time>2014-12-07T03:19:12Z</time>
      </trkpt>
      <trkpt lat="45.89847" lon="3.81267">
        <ele>705.26</ele>
        <time>2014-12-07T03:19:24Z</time>
      </trkpt>
      <trkpt lat="45.89854" lon="3.81293">
        <ele>706.71</ele>
        <time>2014-12-07T03:19:37Z</time>
      </trkpt>
      <trkpt lat="45.89862" lon="3.81323">
        <ele>709.11</ele>
        <time>2014-12-07T03:19:53Z</time>
      </trkpt>
      <trkpt lat="45.89869" lon="3.81359">
        <ele>711.03</ele>
        <time>2014-12-07T03:20:10Z</time>
      </trkpt>
      <trkpt lat="45.89874" lon="3.81377">
        <ele>712.47</ele>
        <time>2014-12-07T03:20:20Z</time>
      </trkpt>
      <trkpt lat="45.89883" lon="3.81412">
        <ele>714.4</ele>
        <time>2014-12-07T03:20:37Z</time>
      </trkpt>
      <trkpt lat="45.89893" lon="3.81438">
        <ele>716.32</ele>
        <time>2014-12-07T03:20:51Z</time>
      </trkpt>
      <trkpt lat="45.89902" lon="3.81455">
        <ele>718.72</ele>
        <time>2014-12-07T03:21:04Z</time>
      </trkpt>
      <trkpt lat="45.89903" lon="3.81455">
        <ele>718.72</ele>
        <time>2014-12-07T03:21:05Z</time>
      </trkpt>
      <trkpt lat="45.89907" lon="3.81458">
        <ele>719.2</ele>
        <time>2014-12-07T03:21:09Z</time>
      </trkpt>
      <trkpt lat="45.89914" lon="3.81467">
        <ele>720.16</ele>
        <time>2014-12-07T03:21:19Z</time>
      </trkpt>
      <trkpt lat="45.89919" lon="3.81473">
        <ele>720.65</ele>
        <time>2014-12-07T03:21:24Z</time>
      </trkpt>
      <trkpt lat="45.89927" lon="3.81482">
        <ele>722.09</ele>
        <time>2014-12-07T03:21:31Z</time>
      </trkpt>
      <trkpt lat="45.89941" lon="3.81497">
        <ele>724.01</ele>
        <time>2014-12-07T03:21:45Z</time>
      </trkpt>
      <trkpt lat="45.89949" lon="3.81507">
        <ele>725.45</ele>
        <time>2014-12-07T03:21:52Z</time>
      </trkpt>
      <trkpt lat="45.89961" lon="3.81513">
        <ele>726.41</ele>
        <time>2014-12-07T03:22:00Z</time>
      </trkpt>
      <trkpt lat="45.89975" lon="3.81529">
        <ele>728.34</ele>
        <time>2014-12-07T03:22:13Z</time>
      </trkpt>
      <trkpt lat="45.89976" lon="3.81531">
        <ele>728.82</ele>
        <time>2014-12-07T03:22:15Z</time>
      </trkpt>
      <trkpt lat="45.89983" lon="3.81534">
        <ele>729.3</ele>
        <time>2014-12-07T03:22:20Z</time>
      </trkpt>
      <trkpt lat="45.89999" lon="3.81552">
        <ele>731.22</ele>
        <time>2014-12-07T03:22:35Z</time>
      </trkpt>
      <trkpt lat="45.90014" lon="3.81564">
        <ele>733.62</ele>
        <time>2014-12-07T03:22:47Z</time>
      </trkpt>
      <trkpt lat="45.90028" lon="3.81582">
        <ele>736.03</ele>
        <time>2014-12-07T03:22:59Z</time>
      </trkpt>
      <trkpt lat="45.90029" lon="3.81584">
        <ele>736.03</ele>
        <time>2014-12-07T03:23:00Z</time>
      </trkpt>
      <trkpt lat="45.90045" lon="3.81595">
        <ele>737.47</ele>
        <time>2014-12-07T03:23:13Z</time>
      </trkpt>
      <trkpt lat="45.90058" lon="3.81601">
        <ele>738.91</ele>
        <time>2014-12-07T03:23:22Z</time>
      </trkpt>
      <trkpt lat="45.90071" lon="3.81614">
        <ele>740.83</ele>
        <time>2014-12-07T03:23:33Z</time>
      </trkpt>
      <trkpt lat="45.90085" lon="3.8163">
        <ele>742.76</ele>
        <time>2014-12-07T03:23:46Z</time>
      </trkpt>
      <trkpt lat="45.9009" lon="3.81634">
        <ele>743.72</ele>
        <time>2014-12-07T03:23:50Z</time>
      </trkpt>
      <trkpt lat="45.90112" lon="3.81652">
        <ele>744.68</ele>
        <time>2014-12-07T03:24:07Z</time>
      </trkpt>
      <trkpt lat="45.90115" lon="3.81654">
        <ele>745.16</ele>
        <time>2014-12-07T03:24:09Z</time>
      </trkpt>
      <trkpt lat="45.90133" lon="3.81671">
        <ele>745.16</ele>
        <time>2014-12-07T03:24:24Z</time>
      </trkpt>
      <trkpt lat="45.9014" lon="3.81678">
        <ele>744.68</ele>
        <time>2014-12-07T03:24:30Z</time>
      </trkpt>
      <trkpt lat="45.90147" lon="3.81684">
        <ele>749.49</ele>
        <time>2014-12-07T03:24:35Z</time>
      </trkpt>
      <trkpt lat="45.90149" lon="3.81685">
        <ele>745.64</ele>
        <time>2014-12-07T03:24:36Z</time>
      </trkpt>
      <trkpt lat="45.90155" lon="3.8169">
        <ele>745.16</ele>
        <time>2014-12-07T03:24:40Z</time>
      </trkpt>
      <trkpt lat="45.90167" lon="3.81698">
        <ele>745.16</ele>
        <time>2014-12-07T03:24:49Z</time>
      </trkpt>
      <trkpt lat="45.9017" lon="3.81702">
        <ele>745.16</ele>
        <time>2014-12-07T03:24:52Z</time>
      </trkpt>
      <trkpt lat="45.90189" lon="3.81719">
        <ele>745.16</ele>
        <time>2014-12-07T03:25:07Z</time>
      </trkpt>
      <trkpt lat="45.90206" lon="3.81736">
        <ele>745.16</ele>
        <time>2014-12-07T03:25:21Z</time>
      </trkpt>
      <trkpt lat="45.90226" lon="3.81756">
        <ele>744.68</ele>
        <time>2014-12-07T03:25:36Z</time>
      </trkpt>
      <trkpt lat="45.90241" lon="3.8177">
        <ele>744.68</ele>
        <time>2014-12-07T03:25:48Z</time>
      </trkpt>
      <trkpt lat="45.90259" lon="3.81786">
        <ele>744.68</ele>
        <time>2014-12-07T03:26:01Z</time>
      </trkpt>
      <trkpt lat="45.90275" lon="3.81802">
        <ele>744.68</ele>
        <time>2014-12-07T03:26:14Z</time>
      </trkpt>
      <trkpt lat="45.90283" lon="3.81811">
        <ele>744.2</ele>
        <time>2014-12-07T03:26:20Z</time>
      </trkpt>
      <trkpt lat="45.90289" lon="3.81817">
        <ele>744.68</ele>
        <time>2014-12-07T03:26:24Z</time>
      </trkpt>
      <trkpt lat="45.90308" lon="3.81837">
        <ele>744.68</ele>
        <time>2014-12-07T03:26:40Z</time>
      </trkpt>
      <trkpt lat="45.90326" lon="3.81856">
        <ele>743.72</ele>
        <time>2014-12-07T03:26:54Z</time>
      </trkpt>
      <trkpt lat="45.90341" lon="3.81875">
        <ele>742.76</ele>
        <time>2014-12-07T03:27:07Z</time>
      </trkpt>
      <trkpt lat="45.90362" lon="3.819">
        <ele>742.76</ele>
        <time>2014-12-07T03:27:23Z</time>
      </trkpt>
      <trkpt lat="45.90366" lon="3.81903">
        <ele>743.24</ele>
        <time>2014-12-07T03:27:27Z</time>
      </trkpt>
      <trkpt lat="45.90376" lon="3.81913">
        <ele>742.76</ele>
        <time>2014-12-07T03:27:35Z</time>
      </trkpt>
      <trkpt lat="45.90391" lon="3.81933">
        <ele>742.76</ele>
        <time>2014-12-07T03:27:48Z</time>
      </trkpt>
      <trkpt lat="45.90392" lon="3.81934">
        <ele>742.28</ele>
        <time>2014-12-07T03:27:49Z</time>
      </trkpt>
      <trkpt lat="45.90404" lon="3.81948">
        <ele>742.76</ele>
        <time>2014-12-07T03:27:58Z</time>
      </trkpt>
      <trkpt lat="45.90411" lon="3.81956">
        <ele>742.76</ele>
        <time>2014-12-07T03:28:04Z</time>
      </trkpt>
      <trkpt lat="45.90428" lon="3.81977">
        <ele>742.76</ele>
        <time>2014-12-07T03:28:17Z</time>
      </trkpt>
      <trkpt lat="45.90446" lon="3.81999">
        <ele>743.24</ele>
        <time>2014-12-07T03:28:32Z</time>
      </trkpt>
      <trkpt lat="45.9046" lon="3.82014">
        <ele>743.72</ele>
        <time>2014-12-07T03:28:43Z</time>
      </trkpt>
      <trkpt lat="45.90476" lon="3.82033">
        <ele>744.2</ele>
        <time>2014-12-07T03:28:56Z</time>
      </trkpt>
      <trkpt lat="45.90495" lon="3.82055">
        <ele>744.68</ele>
        <time>2014-12-07T03:29:11Z</time>
      </trkpt>
      <trkpt lat="45.90497" lon="3.82058">
        <ele>744.68</ele>
        <time>2014-12-07T03:29:13Z</time>
      </trkpt>
      <trkpt lat="45.90503" lon="3.82066">
        <ele>745.16</ele>
        <time>2014-12-07T03:29:18Z</time>
      </trkpt>
      <trkpt lat="45.90508" lon="3.82073">
        <ele>745.16</ele>
        <time>2014-12-07T03:29:23Z</time>
      </trkpt>
      <trkpt lat="45.90521" lon="3.82091">
        <ele>745.64</ele>
        <time>2014-12-07T03:29:36Z</time>
      </trkpt>
      <trkpt lat="45.90525" lon="3.82096">
        <ele>745.64</ele>
        <time>2014-12-07T03:29:39Z</time>
      </trkpt>
      <trkpt lat="45.90531" lon="3.82104">
        <ele>745.64</ele>
        <time>2014-12-07T03:29:44Z</time>
      </trkpt>
      <trkpt lat="45.90537" lon="3.82111">
        <ele>746.12</ele>
        <time>2014-12-07T03:29:50Z</time>
      </trkpt>
      <trkpt lat="45.90547" lon="3.82123">
        <ele>746.6</ele>
        <time>2014-12-07T03:29:58Z</time>
      </trkpt>
      <trkpt lat="45.90549" lon="3.82126">
        <ele>746.6</ele>
        <time>2014-12-07T03:30:00Z</time>
      </trkpt>
      <trkpt lat="45.90558" lon="3.82136">
        <ele>746.6</ele>
        <time>2014-12-07T03:30:07Z</time>
      </trkpt>
      <trkpt lat="45.90576" lon="3.82158">
        <ele>746.12</ele>
        <time>2014-12-07T03:30:23Z</time>
      </trkpt>
      <trkpt lat="45.90593" lon="3.8218">
        <ele>745.16</ele>
        <time>2014-12-07T03:30:37Z</time>
      </trkpt>
      <trkpt lat="45.90608" lon="3.82198">
        <ele>744.2</ele>
        <time>2014-12-07T03:30:49Z</time>
      </trkpt>
      <trkpt lat="45.90626" lon="3.82214">
        <ele>743.24</ele>
        <time>2014-12-07T03:31:02Z</time>
      </trkpt>
      <trkpt lat="45.90642" lon="3.82232">
        <ele>741.79</ele>
        <time>2014-12-07T03:31:14Z</time>
      </trkpt>
      <trkpt lat="45.90656" lon="3.82247">
        <ele>741.79</ele>
        <time>2014-12-07T03:31:26Z</time>
      </trkpt>
      <trkpt lat="45.90676" lon="3.82264">
        <ele>741.31</ele>
        <time>2014-12-07T03:31:39Z</time>
      </trkpt>
      <trkpt lat="45.90685" lon="3.82286">
        <ele>740.83</ele>
        <time>2014-12-07T03:31:51Z</time>
      </trkpt>
      <trkpt lat="45.907" lon="3.82304">
        <ele>740.35</ele>
        <time>2014-12-07T03:32:03Z</time>
      </trkpt>
      <trkpt lat="45.90716" lon="3.82321">
        <ele>739.87</ele>
        <time>2014-12-07T03:32:15Z</time>
      </trkpt>
      <trkpt lat="45.9073" lon="3.8234">
        <ele>740.35</ele>
        <time>2014-12-07T03:32:27Z</time>
      </trkpt>
      <trkpt lat="45.90736" lon="3.82349">
        <ele>740.35</ele>
        <time>2014-12-07T03:32:33Z</time>
      </trkpt>
      <trkpt lat="45.90752" lon="3.82368">
        <ele>740.35</ele>
        <time>2014-12-07T03:32:47Z</time>
      </trkpt>
      <trkpt lat="45.90761" lon="3.82394">
        <ele>739.87</ele>
        <time>2014-12-07T03:33:00Z</time>
      </trkpt>
      <trkpt lat="45.9076" lon="3.82418">
        <ele>739.39</ele>
        <time>2014-12-07T03:33:12Z</time>
      </trkpt>
      <trkpt lat="45.90757" lon="3.82427">
        <ele>738.91</ele>
        <time>2014-12-07T03:33:17Z</time>
      </trkpt>
      <trkpt lat="45.90752" lon="3.82444">
        <ele>737.95</ele>
        <time>2014-12-07T03:33:25Z</time>
      </trkpt>
      <trkpt lat="45.9075" lon="3.82457">
        <ele>737.47</ele>
        <time>2014-12-07T03:33:30Z</time>
      </trkpt>
      <trkpt lat="45.90744" lon="3.82486">
        <ele>735.07</ele>
        <time>2014-12-07T03:33:42Z</time>
      </trkpt>
      <trkpt lat="45.90743" lon="3.82491">
        <ele>734.58</ele>
        <time>2014-12-07T03:33:44Z</time>
      </trkpt>
      <trkpt lat="45.90737" lon="3.82504">
        <ele>733.62</ele>
        <time>2014-12-07T03:33:49Z</time>
      </trkpt>
      <trkpt lat="45.90727" lon="3.82546">
        <ele>731.22</ele>
        <time>2014-12-07T03:34:02Z</time>
      </trkpt>
      <trkpt lat="45.90725" lon="3.82551">
        <ele>730.74</ele>
        <time>2014-12-07T03:34:04Z</time>
      </trkpt>
      <trkpt lat="45.90722" lon="3.82564">
        <ele>729.78</ele>
        <time>2014-12-07T03:34:08Z</time>
      </trkpt>
      <trkpt lat="45.90721" lon="3.82582">
        <ele>728.82</ele>
        <time>2014-12-07T03:34:13Z</time>
      </trkpt>
      <trkpt lat="45.90724" lon="3.82622">
        <ele>726.41</ele>
        <time>2014-12-07T03:34:24Z</time>
      </trkpt>
      <trkpt lat="45.90728" lon="3.82677">
        <ele>723.53</ele>
        <time>2014-12-07T03:34:38Z</time>
      </trkpt>
      <trkpt lat="45.90736" lon="3.82711">
        <ele>721.13</ele>
        <time>2014-12-07T03:34:48Z</time>
      </trkpt>
      <trkpt lat="45.90739" lon="3.82721">
        <ele>720.16</ele>
        <time>2014-12-07T03:34:52Z</time>
      </trkpt>
      <trkpt lat="45.90751" lon="3.82738">
        <ele>717.76</ele>
        <time>2014-12-07T03:34:59Z</time>
      </trkpt>
      <trkpt lat="45.90766" lon="3.82752">
        <ele>715.84</ele>
        <time>2014-12-07T03:35:05Z</time>
      </trkpt>
      <trkpt lat="45.90785" lon="3.82761">
        <ele>713.92</ele>
        <time>2014-12-07T03:35:13Z</time>
      </trkpt>
      <trkpt lat="45.90802" lon="3.82771">
        <ele>712.47</ele>
        <time>2014-12-07T03:35:20Z</time>
      </trkpt>
      <trkpt lat="45.90831" lon="3.82783">
        <ele>709.11</ele>
        <time>2014-12-07T03:35:31Z</time>
      </trkpt>
      <trkpt lat="45.90848" lon="3.82791">
        <ele>707.19</ele>
        <time>2014-12-07T03:35:38Z</time>
      </trkpt>
      <trkpt lat="45.90866" lon="3.82797">
        <ele>705.75</ele>
        <time>2014-12-07T03:35:45Z</time>
      </trkpt>
      <trkpt lat="45.90885" lon="3.82806">
        <ele>703.34</ele>
        <time>2014-12-07T03:35:54Z</time>
      </trkpt>
      <trkpt lat="45.90895" lon="3.82812">
        <ele>702.38</ele>
        <time>2014-12-07T03:35:58Z</time>
      </trkpt>
      <trkpt lat="45.90924" lon="3.82827">
        <ele>699.02</ele>
        <time>2014-12-07T03:36:11Z</time>
      </trkpt>
      <trkpt lat="45.90943" lon="3.8284">
        <ele>697.09</ele>
        <time>2014-12-07T03:36:20Z</time>
      </trkpt>
      <trkpt lat="45.90952" lon="3.82845">
        <ele>695.65</ele>
        <time>2014-12-07T03:36:24Z</time>
      </trkpt>
      <trkpt lat="45.90979" lon="3.82865">
        <ele>692.77</ele>
        <time>2014-12-07T03:36:35Z</time>
      </trkpt>
      <trkpt lat="45.91001" lon="3.82886">
        <ele>689.4</ele>
        <time>2014-12-07T03:36:45Z</time>
      </trkpt>
      <trkpt lat="45.9102" lon="3.82912">
        <ele>686.52</ele>
        <time>2014-12-07T03:36:56Z</time>
      </trkpt>
      <trkpt lat="45.91043" lon="3.82936">
        <ele>683.15</ele>
        <time>2014-12-07T03:37:08Z</time>
      </trkpt>
      <trkpt lat="45.91062" lon="3.82968">
        <ele>680.75</ele>
        <time>2014-12-07T03:37:20Z</time>
      </trkpt>
      <trkpt lat="45.91077" lon="3.83007">
        <ele>678.35</ele>
        <time>2014-12-07T03:37:32Z</time>
      </trkpt>
      <trkpt lat="45.91086" lon="3.83037">
        <ele>677.39</ele>
        <time>2014-12-07T03:37:41Z</time>
      </trkpt>
      <trkpt lat="45.91092" lon="3.83073">
        <ele>675.46</ele>
        <time>2014-12-07T03:37:51Z</time>
      </trkpt>
      <trkpt lat="45.91091" lon="3.83086">
        <ele>674.98</ele>
        <time>2014-12-07T03:37:55Z</time>
      </trkpt>
      <trkpt lat="45.91085" lon="3.83122">
        <ele>673.06</ele>
        <time>2014-12-07T03:38:05Z</time>
      </trkpt>
      <trkpt lat="45.91076" lon="3.83152">
        <ele>670.18</ele>
        <time>2014-12-07T03:38:15Z</time>
      </trkpt>
      <trkpt lat="45.91072" lon="3.8316">
        <ele>669.22</ele>
        <time>2014-12-07T03:38:18Z</time>
      </trkpt>
      <trkpt lat="45.91063" lon="3.83189">
        <ele>666.81</ele>
        <time>2014-12-07T03:38:28Z</time>
      </trkpt>
      <trkpt lat="45.91051" lon="3.83215">
        <ele>664.41</ele>
        <time>2014-12-07T03:38:38Z</time>
      </trkpt>
      <trkpt lat="45.91035" lon="3.83245">
        <ele>662.01</ele>
        <time>2014-12-07T03:38:48Z</time>
      </trkpt>
      <trkpt lat="45.91018" lon="3.83274">
        <ele>660.08</ele>
        <time>2014-12-07T03:38:58Z</time>
      </trkpt>
      <trkpt lat="45.91015" lon="3.83285">
        <ele>659.12</ele>
        <time>2014-12-07T03:39:01Z</time>
      </trkpt>
      <trkpt lat="45.91007" lon="3.83306">
        <ele>656.72</ele>
        <time>2014-12-07T03:39:09Z</time>
      </trkpt>
      <trkpt lat="45.90998" lon="3.83334">
        <ele>655.76</ele>
        <time>2014-12-07T03:39:17Z</time>
      </trkpt>
      <trkpt lat="45.90994" lon="3.83359">
        <ele>652.87</ele>
        <time>2014-12-07T03:39:24Z</time>
      </trkpt>
      <trkpt lat="45.91007" lon="3.83385">
        <ele>649.51</ele>
        <time>2014-12-07T03:39:34Z</time>
      </trkpt>
      <trkpt lat="45.91025" lon="3.834">
        <ele>646.62</ele>
        <time>2014-12-07T03:39:44Z</time>
      </trkpt>
      <trkpt lat="45.91042" lon="3.83413">
        <ele>643.74</ele>
        <time>2014-12-07T03:39:55Z</time>
      </trkpt>
      <trkpt lat="45.91055" lon="3.8342">
        <ele>642.3</ele>
        <time>2014-12-07T03:40:01Z</time>
      </trkpt>
      <trkpt lat="45.91076" lon="3.8343">
        <ele>639.89</ele>
        <time>2014-12-07T03:40:10Z</time>
      </trkpt>
      <trkpt lat="45.91093" lon="3.83438">
        <ele>638.45</ele>
        <time>2014-12-07T03:40:17Z</time>
      </trkpt>
      <trkpt lat="45.91102" lon="3.83455">
        <ele>636.05</ele>
        <time>2014-12-07T03:40:23Z</time>
      </trkpt>
      <trkpt lat="45.91101" lon="3.83475">
        <ele>635.09</ele>
        <time>2014-12-07T03:40:29Z</time>
      </trkpt>
      <trkpt lat="45.91098" lon="3.83504">
        <ele>633.17</ele>
        <time>2014-12-07T03:40:37Z</time>
      </trkpt>
      <trkpt lat="45.91095" lon="3.83519">
        <ele>632.2</ele>
        <time>2014-12-07T03:40:42Z</time>
      </trkpt>
      <trkpt lat="45.9109" lon="3.8355">
        <ele>629.8</ele>
        <time>2014-12-07T03:40:52Z</time>
      </trkpt>
      <trkpt lat="45.91081" lon="3.83588">
        <ele>627.88</ele>
        <time>2014-12-07T03:41:03Z</time>
      </trkpt>
      <trkpt lat="45.91078" lon="3.83598">
        <ele>626.92</ele>
        <time>2014-12-07T03:41:06Z</time>
      </trkpt>
      <trkpt lat="45.91076" lon="3.8361">
        <ele>625.47</ele>
        <time>2014-12-07T03:41:10Z</time>
      </trkpt>
      <trkpt lat="45.91073" lon="3.83647">
        <ele>623.07</ele>
        <time>2014-12-07T03:41:20Z</time>
      </trkpt>
      <trkpt lat="45.91067" lon="3.83672">
        <ele>621.15</ele>
        <time>2014-12-07T03:41:28Z</time>
      </trkpt>
      <trkpt lat="45.91062" lon="3.8369">
        <ele>620.67</ele>
        <time>2014-12-07T03:41:33Z</time>
      </trkpt>
      <trkpt lat="45.91059" lon="3.83707">
        <ele>619.23</ele>
        <time>2014-12-07T03:41:38Z</time>
      </trkpt>
      <trkpt lat="45.91049" lon="3.83743">
        <ele>616.34</ele>
        <time>2014-12-07T03:41:48Z</time>
      </trkpt>
      <trkpt lat="45.91044" lon="3.83773">
        <ele>614.42</ele>
        <time>2014-12-07T03:41:56Z</time>
      </trkpt>
      <trkpt lat="45.91038" lon="3.83795">
        <ele>612.5</ele>
        <time>2014-12-07T03:42:03Z</time>
      </trkpt>
      <trkpt lat="45.91037" lon="3.83802">
        <ele>612.02</ele>
        <time>2014-12-07T03:42:05Z</time>
      </trkpt>
      <trkpt lat="45.91032" lon="3.83826">
        <ele>610.09</ele>
        <time>2014-12-07T03:42:12Z</time>
      </trkpt>
      <trkpt lat="45.91025" lon="3.83861">
        <ele>608.17</ele>
        <time>2014-12-07T03:42:23Z</time>
      </trkpt>
      <trkpt lat="45.91023" lon="3.83867">
        <ele>608.17</ele>
        <time>2014-12-07T03:42:26Z</time>
      </trkpt>
      <trkpt lat="45.91018" lon="3.83894">
        <ele>607.69</ele>
        <time>2014-12-07T03:42:41Z</time>
      </trkpt>
      <trkpt lat="45.91015" lon="3.83918">
        <ele>607.21</ele>
        <time>2014-12-07T03:42:56Z</time>
      </trkpt>
      <trkpt lat="45.91008" lon="3.83945">
        <ele>607.21</ele>
        <time>2014-12-07T03:43:10Z</time>
      </trkpt>
      <trkpt lat="45.91007" lon="3.83951">
        <ele>607.21</ele>
        <time>2014-12-07T03:43:13Z</time>
      </trkpt>
      <trkpt lat="45.91006" lon="3.83962">
        <ele>607.69</ele>
        <time>2014-12-07T03:43:18Z</time>
      </trkpt>
      <trkpt lat="45.91006" lon="3.83995">
        <ele>606.73</ele>
        <time>2014-12-07T03:43:33Z</time>
      </trkpt>
      <trkpt lat="45.91016" lon="3.84024">
        <ele>607.21</ele>
        <time>2014-12-07T03:43:48Z</time>
      </trkpt>
      <trkpt lat="45.91019" lon="3.84029">
        <ele>607.21</ele>
        <time>2014-12-07T03:43:52Z</time>
      </trkpt>
      <trkpt lat="45.91022" lon="3.84036">
        <ele>607.21</ele>
        <time>2014-12-07T03:43:56Z</time>
      </trkpt>
      <trkpt lat="45.91036" lon="3.84054">
        <ele>607.69</ele>
        <time>2014-12-07T03:44:09Z</time>
      </trkpt>
      <trkpt lat="45.9105" lon="3.84068">
        <ele>607.69</ele>
        <time>2014-12-07T03:44:20Z</time>
      </trkpt>
      <trkpt lat="45.91069" lon="3.8408">
        <ele>608.17</ele>
        <time>2014-12-07T03:44:34Z</time>
      </trkpt>
      <trkpt lat="45.9109" lon="3.84092">
        <ele>608.65</ele>
        <time>2014-12-07T03:44:48Z</time>
      </trkpt>
      <trkpt lat="45.9111" lon="3.84102">
        <ele>609.13</ele>
        <time>2014-12-07T03:45:03Z</time>
      </trkpt>
      <trkpt lat="45.91129" lon="3.84112">
        <ele>609.13</ele>
        <time>2014-12-07T03:45:15Z</time>
      </trkpt>
      <trkpt lat="45.91136" lon="3.84115">
        <ele>609.61</ele>
        <time>2014-12-07T03:45:20Z</time>
      </trkpt>
      <trkpt lat="45.91143" lon="3.84119">
        <ele>609.61</ele>
        <time>2014-12-07T03:45:25Z</time>
      </trkpt>
      <trkpt lat="45.91153" lon="3.84126">
        <ele>610.09</ele>
        <time>2014-12-07T03:45:33Z</time>
      </trkpt>
      <trkpt lat="45.91178" lon="3.84137">
        <ele>611.06</ele>
        <time>2014-12-07T03:45:49Z</time>
      </trkpt>
      <trkpt lat="45.91186" lon="3.84141">
        <ele>611.54</ele>
        <time>2014-12-07T03:45:56Z</time>
      </trkpt>
      <trkpt lat="45.91205" lon="3.84149">
        <ele>612.5</ele>
        <time>2014-12-07T03:46:10Z</time>
      </trkpt>
      <trkpt lat="45.91221" lon="3.84157">
        <ele>613.94</ele>
        <time>2014-12-07T03:46:21Z</time>
      </trkpt>
      <trkpt lat="45.91224" lon="3.8416">
        <ele>613.94</ele>
        <time>2014-12-07T03:46:24Z</time>
      </trkpt>
      <trkpt lat="45.91245" lon="3.84171">
        <ele>615.38</ele>
        <time>2014-12-07T03:46:38Z</time>
      </trkpt>
      <trkpt lat="45.91267" lon="3.8418">
        <ele>617.3</ele>
        <time>2014-12-07T03:46:52Z</time>
      </trkpt>
      <trkpt lat="45.91286" lon="3.84192">
        <ele>619.23</ele>
        <time>2014-12-07T03:47:07Z</time>
      </trkpt>
      <trkpt lat="45.91288" lon="3.84193">
        <ele>619.71</ele>
        <time>2014-12-07T03:47:09Z</time>
      </trkpt>
      <trkpt lat="45.91306" lon="3.84204">
        <ele>621.63</ele>
        <time>2014-12-07T03:47:23Z</time>
      </trkpt>
      <trkpt lat="45.91326" lon="3.84213">
        <ele>623.07</ele>
        <time>2014-12-07T03:47:38Z</time>
      </trkpt>
      <trkpt lat="45.91345" lon="3.84222">
        <ele>624.51</ele>
        <time>2014-12-07T03:47:51Z</time>
      </trkpt>
      <trkpt lat="45.91362" lon="3.84232">
        <ele>625.96</ele>
        <time>2014-12-07T03:48:05Z</time>
      </trkpt>
      <trkpt lat="45.91375" lon="3.8424">
        <ele>627.4</ele>
        <time>2014-12-07T03:48:17Z</time>
      </trkpt>
      <trkpt lat="45.91395" lon="3.84262">
        <ele>629.32</ele>
        <time>2014-12-07T03:48:34Z</time>
      </trkpt>
      <trkpt lat="45.91409" lon="3.8427">
        <ele>630.28</ele>
        <time>2014-12-07T03:48:45Z</time>
      </trkpt>
      <trkpt lat="45.91429" lon="3.84282">
        <ele>632.2</ele>
        <time>2014-12-07T03:49:00Z</time>
      </trkpt>
      <trkpt lat="45.9144" lon="3.84296">
        <ele>634.13</ele>
        <time>2014-12-07T03:49:12Z</time>
      </trkpt>
      <trkpt lat="45.91441" lon="3.84304">
        <ele>634.13</ele>
        <time>2014-12-07T03:49:28Z</time>
      </trkpt>
      <trkpt lat="45.91442" lon="3.84303">
        <ele>634.13</ele>
        <time>2014-12-07T03:49:53Z</time>
      </trkpt>
      <trkpt lat="45.91438" lon="3.84303">
        <ele>634.13</ele>
        <time>2014-12-07T03:50:14Z</time>
      </trkpt>
      <trkpt lat="45.91431" lon="3.84303">
        <ele>633.17</ele>
        <time>2014-12-07T03:50:28Z</time>
      </trkpt>
      <trkpt lat="45.9143" lon="3.84305">
        <ele>633.17</ele>
        <time>2014-12-07T03:50:58Z</time>
      </trkpt>
      <trkpt lat="45.9143" lon="3.84305">
        <ele>633.17</ele>
        <time>2014-12-07T03:51:28Z</time>
      </trkpt>
      <trkpt lat="45.91431" lon="3.84305">
        <ele>633.17</ele>
        <time>2014-12-07T03:52:01Z</time>
      </trkpt>
      <trkpt lat="45.91432" lon="3.84305">
        <ele>633.17</ele>
        <time>2014-12-07T03:52:29Z</time>
      </trkpt>
      <trkpt lat="45.91431" lon="3.84306">
        <ele>633.17</ele>
        <time>2014-12-07T03:52:59Z</time>
      </trkpt>
      <trkpt lat="45.91432" lon="3.84307">
        <ele>633.17</ele>
        <time>2014-12-07T03:53:29Z</time>
      </trkpt>
      <trkpt lat="45.91431" lon="3.84307">
        <ele>633.17</ele>
        <time>2014-12-07T03:54:00Z</time>
      </trkpt>
      <trkpt lat="45.9143" lon="3.84306">
        <ele>633.17</ele>
        <time>2014-12-07T03:54:28Z</time>
      </trkpt>
      <trkpt lat="45.91428" lon="3.84304">
        <ele>633.65</ele>
        <time>2014-12-07T03:54:46Z</time>
      </trkpt>
      <trkpt lat="45.91428" lon="3.84303">
        <ele>633.65</ele>
        <time>2014-12-07T03:55:04Z</time>
      </trkpt>
      <trkpt lat="45.91427" lon="3.84303">
        <ele>633.65</ele>
        <time>2014-12-07T03:55:31Z</time>
      </trkpt>
      <trkpt lat="45.91427" lon="3.84302">
        <ele>633.65</ele>
        <time>2014-12-07T03:55:50Z</time>
      </trkpt>
      <trkpt lat="45.91427" lon="3.84301">
        <ele>633.65</ele>
        <time>2014-12-07T03:56:13Z</time>
      </trkpt>
      <trkpt lat="45.91425" lon="3.84299">
        <ele>633.17</ele>
        <time>2014-12-07T03:56:36Z</time>
      </trkpt>
      <trkpt lat="45.91424" lon="3.84299">
        <ele>633.65</ele>
        <time>2014-12-07T03:56:53Z</time>
      </trkpt>
      <trkpt lat="45.91424" lon="3.84299">
        <ele>634.61</ele>
        <time>2014-12-07T03:57:20Z</time>
      </trkpt>
      <trkpt lat="45.91422" lon="3.84305">
        <ele>633.65</ele>
        <time>2014-12-07T03:57:39Z</time>
      </trkpt>
      <trkpt lat="45.91423" lon="3.84304">
        <ele>636.53</ele>
        <time>2014-12-07T03:58:01Z</time>
      </trkpt>
      <trkpt lat="45.91423" lon="3.84304">
        <ele>633.17</ele>
        <time>2014-12-07T03:58:02Z</time>
      </trkpt>
      <trkpt lat="45.91425" lon="3.84306">
        <ele>633.17</ele>
        <time>2014-12-07T03:58:19Z</time>
      </trkpt>
      <trkpt lat="45.91427" lon="3.84307">
        <ele>633.17</ele>
        <time>2014-12-07T03:58:42Z</time>
      </trkpt>
      <trkpt lat="45.91429" lon="3.84308">
        <ele>632.68</ele>
        <time>2014-12-07T03:59:04Z</time>
      </trkpt>
      <trkpt lat="45.91432" lon="3.84307">
        <ele>632.68</ele>
        <time>2014-12-07T03:59:28Z</time>
      </trkpt>
      <trkpt lat="45.91433" lon="3.84306">
        <ele>632.68</ele>
        <time>2014-12-07T03:59:53Z</time>
      </trkpt>
      <trkpt lat="45.91433" lon="3.84306">
        <ele>632.68</ele>
        <time>2014-12-07T04:00:15Z</time>
      </trkpt>
      <trkpt lat="45.91435" lon="3.84305">
        <ele>632.68</ele>
        <time>2014-12-07T04:00:33Z</time>
      </trkpt>
      <trkpt lat="45.91441" lon="3.84304">
        <ele>632.2</ele>
        <time>2014-12-07T04:00:51Z</time>
      </trkpt>
      <trkpt lat="45.91441" lon="3.84303">
        <ele>632.2</ele>
        <time>2014-12-07T04:01:09Z</time>
      </trkpt>
      <trkpt lat="45.91447" lon="3.84301">
        <ele>632.2</ele>
        <time>2014-12-07T04:01:22Z</time>
      </trkpt>
      <trkpt lat="45.91451" lon="3.84297">
        <ele>633.17</ele>
        <time>2014-12-07T04:01:33Z</time>
      </trkpt>
      <trkpt lat="45.91453" lon="3.84295">
        <ele>634.13</ele>
        <time>2014-12-07T04:01:45Z</time>
      </trkpt>
      <trkpt lat="45.91456" lon="3.84293">
        <ele>635.09</ele>
        <time>2014-12-07T04:01:56Z</time>
      </trkpt>
      <trkpt lat="45.91457" lon="3.84291">
        <ele>635.57</ele>
        <time>2014-12-07T04:02:11Z</time>
      </trkpt>
      <trkpt lat="45.91457" lon="3.84291">
        <ele>635.57</ele>
        <time>2014-12-07T04:02:24Z</time>
      </trkpt>
      <trkpt lat="45.91459" lon="3.84291">
        <ele>635.57</ele>
        <time>2014-12-07T04:02:38Z</time>
      </trkpt>
      <trkpt lat="45.9146" lon="3.84295">
        <ele>636.05</ele>
        <time>2014-12-07T04:02:53Z</time>
      </trkpt>
      <trkpt lat="45.91461" lon="3.84299">
        <ele>636.05</ele>
        <time>2014-12-07T04:02:58Z</time>
      </trkpt>
      <trkpt lat="45.91465" lon="3.84305">
        <ele>637.49</ele>
        <time>2014-12-07T04:03:05Z</time>
      </trkpt>
      <trkpt lat="45.91466" lon="3.8431">
        <ele>637.97</ele>
        <time>2014-12-07T04:03:08Z</time>
      </trkpt>
      <trkpt lat="45.91467" lon="3.84313">
        <ele>637.97</ele>
        <time>2014-12-07T04:03:10Z</time>
      </trkpt>
      <trkpt lat="45.91466" lon="3.84332">
        <ele>639.41</ele>
        <time>2014-12-07T04:03:20Z</time>
      </trkpt>
      <trkpt lat="45.91464" lon="3.84363">
        <ele>641.82</ele>
        <time>2014-12-07T04:03:35Z</time>
      </trkpt>
      <trkpt lat="45.91465" lon="3.84365">
        <ele>642.3</ele>
        <time>2014-12-07T04:03:36Z</time>
      </trkpt>
      <trkpt lat="45.91465" lon="3.84375">
        <ele>642.78</ele>
        <time>2014-12-07T04:03:41Z</time>
      </trkpt>
      <trkpt lat="45.91465" lon="3.84409">
        <ele>645.66</ele>
        <time>2014-12-07T04:03:58Z</time>
      </trkpt>
      <trkpt lat="45.91462" lon="3.84432">
        <ele>647.59</ele>
        <time>2014-12-07T04:04:11Z</time>
      </trkpt>
      <trkpt lat="45.91458" lon="3.84449">
        <ele>649.03</ele>
        <time>2014-12-07T04:04:20Z</time>
      </trkpt>
      <trkpt lat="45.91457" lon="3.84474">
        <ele>650.95</ele>
        <time>2014-12-07T04:04:33Z</time>
      </trkpt>
      <trkpt lat="45.91456" lon="3.84487">
        <ele>652.39</ele>
        <time>2014-12-07T04:04:40Z</time>
      </trkpt>
      <trkpt lat="45.91455" lon="3.84503">
        <ele>653.83</ele>
        <time>2014-12-07T04:04:48Z</time>
      </trkpt>
      <trkpt lat="45.91451" lon="3.84534">
        <ele>656.72</ele>
        <time>2014-12-07T04:05:03Z</time>
      </trkpt>
      <trkpt lat="45.9145" lon="3.84558">
        <ele>657.68</ele>
        <time>2014-12-07T04:05:15Z</time>
      </trkpt>
      <trkpt lat="45.91444" lon="3.84591">
        <ele>659.12</ele>
        <time>2014-12-07T04:05:31Z</time>
      </trkpt>
      <trkpt lat="45.91446" lon="3.84598">
        <ele>659.12</ele>
        <time>2014-12-07T04:05:34Z</time>
      </trkpt>
      <trkpt lat="45.9145" lon="3.846">
        <ele>659.6</ele>
        <time>2014-12-07T04:05:37Z</time>
      </trkpt>
      <trkpt lat="45.91454" lon="3.84598">
        <ele>660.08</ele>
        <time>2014-12-07T04:05:41Z</time>
      </trkpt>
      <trkpt lat="45.91475" lon="3.84572">
        <ele>663.45</ele>
        <time>2014-12-07T04:06:01Z</time>
      </trkpt>
      <trkpt lat="45.9148" lon="3.84563">
        <ele>664.89</ele>
        <time>2014-12-07T04:06:08Z</time>
      </trkpt>
      <trkpt lat="45.91503" lon="3.84546">
        <ele>668.25</ele>
        <time>2014-12-07T04:06:25Z</time>
      </trkpt>
      <trkpt lat="45.91527" lon="3.84541">
        <ele>670.66</ele>
        <time>2014-12-07T04:06:39Z</time>
      </trkpt>
      <trkpt lat="45.91547" lon="3.84535">
        <ele>672.58</ele>
        <time>2014-12-07T04:06:53Z</time>
      </trkpt>
      <trkpt lat="45.91555" lon="3.84526">
        <ele>674.02</ele>
        <time>2014-12-07T04:07:00Z</time>
      </trkpt>
      <trkpt lat="45.91562" lon="3.84527">
        <ele>674.98</ele>
        <time>2014-12-07T04:07:04Z</time>
      </trkpt>
      <trkpt lat="45.91575" lon="3.84534">
        <ele>676.42</ele>
        <time>2014-12-07T04:07:11Z</time>
      </trkpt>
      <trkpt lat="45.91583" lon="3.8453">
        <ele>677.87</ele>
        <time>2014-12-07T04:07:18Z</time>
      </trkpt>
      <trkpt lat="45.91587" lon="3.8453">
        <ele>678.83</ele>
        <time>2014-12-07T04:07:22Z</time>
      </trkpt>
      <trkpt lat="45.91595" lon="3.84554">
        <ele>682.19</ele>
        <time>2014-12-07T04:07:35Z</time>
      </trkpt>
      <trkpt lat="45.91594" lon="3.84557">
        <ele>682.67</ele>
        <time>2014-12-07T04:07:37Z</time>
      </trkpt>
      <trkpt lat="45.91594" lon="3.84565">
        <ele>684.12</ele>
        <time>2014-12-07T04:07:42Z</time>
      </trkpt>
      <trkpt lat="45.91593" lon="3.84587">
        <ele>687</ele>
        <time>2014-12-07T04:07:55Z</time>
      </trkpt>
      <trkpt lat="45.91594" lon="3.84611">
        <ele>689.88</ele>
        <time>2014-12-07T04:08:08Z</time>
      </trkpt>
      <trkpt lat="45.91594" lon="3.84614">
        <ele>690.36</ele>
        <time>2014-12-07T04:08:10Z</time>
      </trkpt>
      <trkpt lat="45.91598" lon="3.84625">
        <ele>691.33</ele>
        <time>2014-12-07T04:08:17Z</time>
      </trkpt>
      <trkpt lat="45.91604" lon="3.84647">
        <ele>693.73</ele>
        <time>2014-12-07T04:08:30Z</time>
      </trkpt>
      <trkpt lat="45.91604" lon="3.84648">
        <ele>694.21</ele>
        <time>2014-12-07T04:08:31Z</time>
      </trkpt>
      <trkpt lat="45.91608" lon="3.84653">
        <ele>695.17</ele>
        <time>2014-12-07T04:08:35Z</time>
      </trkpt>
      <trkpt lat="45.91609" lon="3.8466">
        <ele>695.65</ele>
        <time>2014-12-07T04:08:39Z</time>
      </trkpt>
      <trkpt lat="45.91619" lon="3.84672">
        <ele>697.09</ele>
        <time>2014-12-07T04:08:48Z</time>
      </trkpt>
      <trkpt lat="45.9162" lon="3.84677">
        <ele>698.05</ele>
        <time>2014-12-07T04:08:51Z</time>
      </trkpt>
      <trkpt lat="45.91624" lon="3.84683">
        <ele>698.53</ele>
        <time>2014-12-07T04:08:55Z</time>
      </trkpt>
      <trkpt lat="45.91627" lon="3.84689">
        <ele>699.5</ele>
        <time>2014-12-07T04:08:59Z</time>
      </trkpt>
      <trkpt lat="45.91628" lon="3.84704">
        <ele>700.94</ele>
        <time>2014-12-07T04:09:07Z</time>
      </trkpt>
      <trkpt lat="45.91639" lon="3.84726">
        <ele>704.3</ele>
        <time>2014-12-07T04:09:21Z</time>
      </trkpt>
      <trkpt lat="45.91649" lon="3.84743">
        <ele>705.75</ele>
        <time>2014-12-07T04:09:32Z</time>
      </trkpt>
      <trkpt lat="45.9165" lon="3.84746">
        <ele>706.23</ele>
        <time>2014-12-07T04:09:34Z</time>
      </trkpt>
      <trkpt lat="45.91656" lon="3.84756">
        <ele>707.19</ele>
        <time>2014-12-07T04:09:40Z</time>
      </trkpt>
      <trkpt lat="45.91664" lon="3.84774">
        <ele>709.11</ele>
        <time>2014-12-07T04:09:51Z</time>
      </trkpt>
      <trkpt lat="45.91666" lon="3.8478">
        <ele>710.07</ele>
        <time>2014-12-07T04:09:55Z</time>
      </trkpt>
      <trkpt lat="45.91668" lon="3.84782">
        <ele>710.07</ele>
        <time>2014-12-07T04:09:57Z</time>
      </trkpt>
      <trkpt lat="45.91675" lon="3.84793">
        <ele>711.51</ele>
        <time>2014-12-07T04:10:04Z</time>
      </trkpt>
      <trkpt lat="45.91687" lon="3.84807">
        <ele>713.44</ele>
        <time>2014-12-07T04:10:16Z</time>
      </trkpt>
      <trkpt lat="45.91691" lon="3.84812">
        <ele>714.4</ele>
        <time>2014-12-07T04:10:20Z</time>
      </trkpt>
      <trkpt lat="45.91693" lon="3.84817">
        <ele>714.88</ele>
        <time>2014-12-07T04:10:23Z</time>
      </trkpt>
      <trkpt lat="45.91706" lon="3.84835">
        <ele>717.28</ele>
        <time>2014-12-07T04:10:36Z</time>
      </trkpt>
      <trkpt lat="45.91715" lon="3.84855">
        <ele>719.2</ele>
        <time>2014-12-07T04:10:49Z</time>
      </trkpt>
      <trkpt lat="45.91721" lon="3.84866">
        <ele>720.16</ele>
        <time>2014-12-07T04:10:57Z</time>
      </trkpt>
      <trkpt lat="45.91731" lon="3.84884">
        <ele>722.09</ele>
        <time>2014-12-07T04:11:08Z</time>
      </trkpt>
      <trkpt lat="45.91731" lon="3.84885">
        <ele>722.09</ele>
        <time>2014-12-07T04:11:09Z</time>
      </trkpt>
      <trkpt lat="45.91735" lon="3.84896">
        <ele>723.05</ele>
        <time>2014-12-07T04:11:15Z</time>
      </trkpt>
      <trkpt lat="45.91743" lon="3.84912">
        <ele>724.49</ele>
        <time>2014-12-07T04:11:24Z</time>
      </trkpt>
      <trkpt lat="45.91744" lon="3.84916">
        <ele>724.97</ele>
        <time>2014-12-07T04:11:27Z</time>
      </trkpt>
      <trkpt lat="45.91754" lon="3.84937">
        <ele>727.86</ele>
        <time>2014-12-07T04:11:40Z</time>
      </trkpt>
      <trkpt lat="45.91754" lon="3.84941">
        <ele>727.86</ele>
        <time>2014-12-07T04:11:42Z</time>
      </trkpt>
      <trkpt lat="45.91755" lon="3.84944">
        <ele>728.34</ele>
        <time>2014-12-07T04:11:43Z</time>
      </trkpt>
      <trkpt lat="45.91755" lon="3.84954">
        <ele>729.3</ele>
        <time>2014-12-07T04:11:48Z</time>
      </trkpt>
      <trkpt lat="45.91763" lon="3.84978">
        <ele>731.7</ele>
        <time>2014-12-07T04:12:00Z</time>
      </trkpt>
      <trkpt lat="45.91764" lon="3.84983">
        <ele>731.7</ele>
        <time>2014-12-07T04:12:03Z</time>
      </trkpt>
      <trkpt lat="45.91774" lon="3.84995">
        <ele>734.1</ele>
        <time>2014-12-07T04:12:12Z</time>
      </trkpt>
      <trkpt lat="45.91778" lon="3.85003">
        <ele>734.58</ele>
        <time>2014-12-07T04:12:18Z</time>
      </trkpt>
      <trkpt lat="45.91786" lon="3.85014">
        <ele>736.51</ele>
        <time>2014-12-07T04:12:26Z</time>
      </trkpt>
      <trkpt lat="45.91792" lon="3.85022">
        <ele>737.95</ele>
        <time>2014-12-07T04:12:32Z</time>
      </trkpt>
      <trkpt lat="45.91796" lon="3.85029">
        <ele>738.43</ele>
        <time>2014-12-07T04:12:37Z</time>
      </trkpt>
      <trkpt lat="45.91797" lon="3.85036">
        <ele>739.39</ele>
        <time>2014-12-07T04:12:41Z</time>
      </trkpt>
      <trkpt lat="45.91804" lon="3.85048">
        <ele>740.83</ele>
        <time>2014-12-07T04:12:50Z</time>
      </trkpt>
      <trkpt lat="45.91806" lon="3.85057">
        <ele>741.79</ele>
        <time>2014-12-07T04:12:55Z</time>
      </trkpt>
      <trkpt lat="45.91807" lon="3.85061">
        <ele>742.28</ele>
        <time>2014-12-07T04:12:57Z</time>
      </trkpt>
      <trkpt lat="45.91808" lon="3.85068">
        <ele>742.76</ele>
        <time>2014-12-07T04:13:00Z</time>
      </trkpt>
      <trkpt lat="45.91806" lon="3.85092">
        <ele>744.68</ele>
        <time>2014-12-07T04:13:11Z</time>
      </trkpt>
      <trkpt lat="45.91794" lon="3.8512">
        <ele>746.6</ele>
        <time>2014-12-07T04:13:23Z</time>
      </trkpt>
      <trkpt lat="45.9179" lon="3.85151">
        <ele>749.97</ele>
        <time>2014-12-07T04:13:38Z</time>
      </trkpt>
      <trkpt lat="45.9179" lon="3.85157">
        <ele>750.45</ele>
        <time>2014-12-07T04:13:41Z</time>
      </trkpt>
      <trkpt lat="45.91787" lon="3.8517">
        <ele>751.89</ele>
        <time>2014-12-07T04:13:47Z</time>
      </trkpt>
      <trkpt lat="45.91786" lon="3.85181">
        <ele>753.33</ele>
        <time>2014-12-07T04:13:52Z</time>
      </trkpt>
      <trkpt lat="45.9178" lon="3.85191">
        <ele>754.29</ele>
        <time>2014-12-07T04:13:57Z</time>
      </trkpt>
      <trkpt lat="45.91778" lon="3.85205">
        <ele>755.73</ele>
        <time>2014-12-07T04:14:04Z</time>
      </trkpt>
      <trkpt lat="45.91773" lon="3.85231">
        <ele>758.14</ele>
        <time>2014-12-07T04:14:19Z</time>
      </trkpt>
      <trkpt lat="45.91771" lon="3.85244">
        <ele>760.54</ele>
        <time>2014-12-07T04:14:26Z</time>
      </trkpt>
      <trkpt lat="45.91766" lon="3.85261">
        <ele>762.46</ele>
        <time>2014-12-07T04:14:35Z</time>
      </trkpt>
      <trkpt lat="45.91763" lon="3.85271">
        <ele>763.42</ele>
        <time>2014-12-07T04:14:40Z</time>
      </trkpt>
      <trkpt lat="45.91762" lon="3.8529">
        <ele>765.35</ele>
        <time>2014-12-07T04:14:49Z</time>
      </trkpt>
      <trkpt lat="45.91759" lon="3.85301">
        <ele>766.31</ele>
        <time>2014-12-07T04:14:55Z</time>
      </trkpt>
      <trkpt lat="45.91758" lon="3.85312">
        <ele>767.75</ele>
        <time>2014-12-07T04:15:00Z</time>
      </trkpt>
      <trkpt lat="45.91757" lon="3.85321">
        <ele>768.71</ele>
        <time>2014-12-07T04:15:05Z</time>
      </trkpt>
      <trkpt lat="45.91757" lon="3.85324">
        <ele>769.19</ele>
        <time>2014-12-07T04:15:07Z</time>
      </trkpt>
      <trkpt lat="45.91756" lon="3.8535">
        <ele>771.6</ele>
        <time>2014-12-07T04:15:20Z</time>
      </trkpt>
      <trkpt lat="45.91757" lon="3.85354">
        <ele>772.56</ele>
        <time>2014-12-07T04:15:23Z</time>
      </trkpt>
      <trkpt lat="45.91756" lon="3.85381">
        <ele>774.48</ele>
        <time>2014-12-07T04:15:34Z</time>
      </trkpt>
      <trkpt lat="45.9176" lon="3.85401">
        <ele>776.88</ele>
        <time>2014-12-07T04:15:45Z</time>
      </trkpt>
      <trkpt lat="45.91774" lon="3.85421">
        <ele>778.32</ele>
        <time>2014-12-07T04:15:58Z</time>
      </trkpt>
      <trkpt lat="45.91783" lon="3.85428">
        <ele>778.81</ele>
        <time>2014-12-07T04:16:05Z</time>
      </trkpt>
      <trkpt lat="45.91799" lon="3.8544">
        <ele>779.77</ele>
        <time>2014-12-07T04:16:16Z</time>
      </trkpt>
      <trkpt lat="45.91821" lon="3.85457">
        <ele>780.73</ele>
        <time>2014-12-07T04:16:30Z</time>
      </trkpt>
      <trkpt lat="45.9184" lon="3.8547">
        <ele>782.17</ele>
        <time>2014-12-07T04:16:43Z</time>
      </trkpt>
      <trkpt lat="45.9185" lon="3.85477">
        <ele>783.13</ele>
        <time>2014-12-07T04:16:50Z</time>
      </trkpt>
      <trkpt lat="45.91869" lon="3.85488">
        <ele>785.05</ele>
        <time>2014-12-07T04:17:04Z</time>
      </trkpt>
      <trkpt lat="45.91889" lon="3.85501">
        <ele>786.98</ele>
        <time>2014-12-07T04:17:17Z</time>
      </trkpt>
      <trkpt lat="45.91901" lon="3.8551">
        <ele>788.9</ele>
        <time>2014-12-07T04:17:28Z</time>
      </trkpt>
      <trkpt lat="45.91906" lon="3.85515">
        <ele>789.86</ele>
        <time>2014-12-07T04:17:33Z</time>
      </trkpt>
      <trkpt lat="45.91916" lon="3.85521">
        <ele>791.3</ele>
        <time>2014-12-07T04:17:40Z</time>
      </trkpt>
      <trkpt lat="45.91929" lon="3.8553">
        <ele>792.74</ele>
        <time>2014-12-07T04:17:51Z</time>
      </trkpt>
      <trkpt lat="45.91943" lon="3.85542">
        <ele>795.15</ele>
        <time>2014-12-07T04:18:02Z</time>
      </trkpt>
      <trkpt lat="45.91966" lon="3.85556">
        <ele>798.03</ele>
        <time>2014-12-07T04:18:19Z</time>
      </trkpt>
      <trkpt lat="45.91977" lon="3.85566">
        <ele>799.95</ele>
        <time>2014-12-07T04:18:30Z</time>
      </trkpt>
      <trkpt lat="45.91997" lon="3.85585">
        <ele>801.88</ele>
        <time>2014-12-07T04:18:45Z</time>
      </trkpt>
      <trkpt lat="45.92012" lon="3.85596">
        <ele>804.28</ele>
        <time>2014-12-07T04:18:57Z</time>
      </trkpt>
      <trkpt lat="45.92029" lon="3.8561">
        <ele>806.68</ele>
        <time>2014-12-07T04:19:11Z</time>
      </trkpt>
      <trkpt lat="45.92043" lon="3.85621">
        <ele>809.09</ele>
        <time>2014-12-07T04:19:24Z</time>
      </trkpt>
      <trkpt lat="45.92066" lon="3.85638">
        <ele>811.01</ele>
        <time>2014-12-07T04:19:39Z</time>
      </trkpt>
      <trkpt lat="45.92067" lon="3.85638">
        <ele>811.49</ele>
        <time>2014-12-07T04:19:40Z</time>
      </trkpt>
      <trkpt lat="45.9207" lon="3.8564">
        <ele>811.49</ele>
        <time>2014-12-07T04:19:42Z</time>
      </trkpt>
      <trkpt lat="45.92087" lon="3.85652">
        <ele>813.89</ele>
        <time>2014-12-07T04:19:56Z</time>
      </trkpt>
      <trkpt lat="45.9209" lon="3.85655">
        <ele>814.37</ele>
        <time>2014-12-07T04:19:59Z</time>
      </trkpt>
      <trkpt lat="45.92092" lon="3.85658">
        <ele>814.85</ele>
        <time>2014-12-07T04:20:02Z</time>
      </trkpt>
      <trkpt lat="45.92099" lon="3.85663">
        <ele>816.3</ele>
        <time>2014-12-07T04:20:08Z</time>
      </trkpt>
      <trkpt lat="45.92105" lon="3.85669">
        <ele>816.78</ele>
        <time>2014-12-07T04:20:14Z</time>
      </trkpt>
      <trkpt lat="45.92109" lon="3.85671">
        <ele>817.26</ele>
        <time>2014-12-07T04:20:17Z</time>
      </trkpt>
      <trkpt lat="45.92127" lon="3.85685">
        <ele>819.66</ele>
        <time>2014-12-07T04:20:32Z</time>
      </trkpt>
      <trkpt lat="45.92147" lon="3.85698">
        <ele>822.55</ele>
        <time>2014-12-07T04:20:47Z</time>
      </trkpt>
      <trkpt lat="45.92169" lon="3.85707">
        <ele>823.99</ele>
        <time>2014-12-07T04:21:00Z</time>
      </trkpt>
      <trkpt lat="45.92191" lon="3.85707">
        <ele>825.91</ele>
        <time>2014-12-07T04:21:13Z</time>
      </trkpt>
      <trkpt lat="45.92196" lon="3.85706">
        <ele>826.87</ele>
        <time>2014-12-07T04:21:17Z</time>
      </trkpt>
      <trkpt lat="45.92218" lon="3.85704">
        <ele>828.79</ele>
        <time>2014-12-07T04:21:32Z</time>
      </trkpt>
      <trkpt lat="45.92236" lon="3.85702">
        <ele>830.72</ele>
        <time>2014-12-07T04:21:44Z</time>
      </trkpt>
      <trkpt lat="45.92245" lon="3.85701">
        <ele>831.68</ele>
        <time>2014-12-07T04:21:50Z</time>
      </trkpt>
      <trkpt lat="45.92265" lon="3.85701">
        <ele>834.08</ele>
        <time>2014-12-07T04:22:03Z</time>
      </trkpt>
      <trkpt lat="45.92269" lon="3.857">
        <ele>834.56</ele>
        <time>2014-12-07T04:22:07Z</time>
      </trkpt>
      <trkpt lat="45.92288" lon="3.857">
        <ele>836.48</ele>
        <time>2014-12-07T04:22:21Z</time>
      </trkpt>
      <trkpt lat="45.92291" lon="3.85699">
        <ele>836.96</ele>
        <time>2014-12-07T04:22:23Z</time>
      </trkpt>
      <trkpt lat="45.92296" lon="3.85699">
        <ele>837.45</ele>
        <time>2014-12-07T04:22:27Z</time>
      </trkpt>
      <trkpt lat="45.92313" lon="3.85698">
        <ele>838.89</ele>
        <time>2014-12-07T04:22:39Z</time>
      </trkpt>
      <trkpt lat="45.92331" lon="3.85699">
        <ele>840.81</ele>
        <time>2014-12-07T04:22:51Z</time>
      </trkpt>
      <trkpt lat="45.9235" lon="3.85698">
        <ele>842.25</ele>
        <time>2014-12-07T04:23:04Z</time>
      </trkpt>
      <trkpt lat="45.92367" lon="3.85696">
        <ele>843.69</ele>
        <time>2014-12-07T04:23:18Z</time>
      </trkpt>
      <trkpt lat="45.92374" lon="3.85695">
        <ele>844.18</ele>
        <time>2014-12-07T04:23:23Z</time>
      </trkpt>
      <trkpt lat="45.92386" lon="3.85693">
        <ele>845.62</ele>
        <time>2014-12-07T04:23:32Z</time>
      </trkpt>
      <trkpt lat="45.92393" lon="3.85692">
        <ele>847.06</ele>
        <time>2014-12-07T04:23:38Z</time>
      </trkpt>
      <trkpt lat="45.92413" lon="3.85691">
        <ele>848.02</ele>
        <time>2014-12-07T04:23:53Z</time>
      </trkpt>
      <trkpt lat="45.92415" lon="3.8569">
        <ele>848.98</ele>
        <time>2014-12-07T04:23:55Z</time>
      </trkpt>
      <trkpt lat="45.92432" lon="3.85688">
        <ele>848.5</ele>
        <time>2014-12-07T04:24:09Z</time>
      </trkpt>
      <trkpt lat="45.92449" lon="3.85687">
        <ele>849.94</ele>
        <time>2014-12-07T04:24:23Z</time>
      </trkpt>
      <trkpt lat="45.92465" lon="3.85689">
        <ele>850.42</ele>
        <time>2014-12-07T04:24:36Z</time>
      </trkpt>
      <trkpt lat="45.92476" lon="3.85693">
        <ele>853.79</ele>
        <time>2014-12-07T04:24:46Z</time>
      </trkpt>
      <trkpt lat="45.92493" lon="3.85701">
        <ele>854.27</ele>
        <time>2014-12-07T04:25:03Z</time>
      </trkpt>
      <trkpt lat="45.92509" lon="3.85712">
        <ele>855.23</ele>
        <time>2014-12-07T04:25:17Z</time>
      </trkpt>
      <trkpt lat="45.92521" lon="3.8572">
        <ele>856.67</ele>
        <time>2014-12-07T04:25:28Z</time>
      </trkpt>
      <trkpt lat="45.92543" lon="3.85734">
        <ele>859.08</ele>
        <time>2014-12-07T04:25:49Z</time>
      </trkpt>
      <trkpt lat="45.9256" lon="3.85743">
        <ele>860.04</ele>
        <time>2014-12-07T04:26:03Z</time>
      </trkpt>
      <trkpt lat="45.92575" lon="3.85757">
        <ele>862.44</ele>
        <time>2014-12-07T04:26:18Z</time>
      </trkpt>
      <trkpt lat="45.92591" lon="3.85774">
        <ele>863.88</ele>
        <time>2014-12-07T04:26:33Z</time>
      </trkpt>
      <trkpt lat="45.92608" lon="3.85793">
        <ele>866.29</ele>
        <time>2014-12-07T04:26:49Z</time>
      </trkpt>
      <trkpt lat="45.92611" lon="3.85796">
        <ele>866.29</ele>
        <time>2014-12-07T04:26:52Z</time>
      </trkpt>
      <trkpt lat="45.92626" lon="3.85812">
        <ele>868.21</ele>
        <time>2014-12-07T04:27:06Z</time>
      </trkpt>
      <trkpt lat="45.92641" lon="3.85833">
        <ele>871.09</ele>
        <time>2014-12-07T04:27:23Z</time>
      </trkpt>
      <trkpt lat="45.92652" lon="3.8585">
        <ele>872.05</ele>
        <time>2014-12-07T04:27:37Z</time>
      </trkpt>
      <trkpt lat="45.92664" lon="3.85869">
        <ele>873.98</ele>
        <time>2014-12-07T04:27:51Z</time>
      </trkpt>
      <trkpt lat="45.92669" lon="3.85874">
        <ele>874.46</ele>
        <time>2014-12-07T04:27:55Z</time>
      </trkpt>
      <trkpt lat="45.92683" lon="3.85888">
        <ele>876.38</ele>
        <time>2014-12-07T04:28:08Z</time>
      </trkpt>
      <trkpt lat="45.92698" lon="3.85906">
        <ele>878.3</ele>
        <time>2014-12-07T04:28:22Z</time>
      </trkpt>
      <trkpt lat="45.92712" lon="3.85923">
        <ele>879.74</ele>
        <time>2014-12-07T04:28:35Z</time>
      </trkpt>
      <trkpt lat="45.92727" lon="3.8594">
        <ele>882.15</ele>
        <time>2014-12-07T04:28:50Z</time>
      </trkpt>
      <trkpt lat="45.92742" lon="3.85958">
        <ele>884.07</ele>
        <time>2014-12-07T04:29:05Z</time>
      </trkpt>
      <trkpt lat="45.92756" lon="3.85975">
        <ele>885.99</ele>
        <time>2014-12-07T04:29:19Z</time>
      </trkpt>
      <trkpt lat="45.92757" lon="3.85975">
        <ele>885.99</ele>
        <time>2014-12-07T04:29:20Z</time>
      </trkpt>
      <trkpt lat="45.92775" lon="3.85998">
        <ele>887.91</ele>
        <time>2014-12-07T04:29:37Z</time>
      </trkpt>
      <trkpt lat="45.92782" lon="3.86006">
        <ele>888.88</ele>
        <time>2014-12-07T04:29:43Z</time>
      </trkpt>
      <trkpt lat="45.92793" lon="3.86031">
        <ele>889.84</ele>
        <time>2014-12-07T04:29:57Z</time>
      </trkpt>
      <trkpt lat="45.92795" lon="3.86035">
        <ele>889.84</ele>
        <time>2014-12-07T04:30:01Z</time>
      </trkpt>
      <trkpt lat="45.92795" lon="3.86039">
        <ele>889.84</ele>
        <time>2014-12-07T04:30:03Z</time>
      </trkpt>
      <trkpt lat="45.92798" lon="3.86049">
        <ele>889.36</ele>
        <time>2014-12-07T04:30:09Z</time>
      </trkpt>
      <trkpt lat="45.92801" lon="3.86058">
        <ele>888.88</ele>
        <time>2014-12-07T04:30:14Z</time>
      </trkpt>
      <trkpt lat="45.92803" lon="3.86065">
        <ele>888.88</ele>
        <time>2014-12-07T04:30:17Z</time>
      </trkpt>
      <trkpt lat="45.92809" lon="3.86095">
        <ele>887.91</ele>
        <time>2014-12-07T04:30:31Z</time>
      </trkpt>
      <trkpt lat="45.92812" lon="3.86117">
        <ele>887.43</ele>
        <time>2014-12-07T04:30:41Z</time>
      </trkpt>
      <trkpt lat="45.92816" lon="3.8614">
        <ele>886.47</ele>
        <time>2014-12-07T04:30:51Z</time>
      </trkpt>
      <trkpt lat="45.9282" lon="3.86162">
        <ele>885.99</ele>
        <time>2014-12-07T04:31:02Z</time>
      </trkpt>
      <trkpt lat="45.92822" lon="3.86189">
        <ele>885.03</ele>
        <time>2014-12-07T04:31:14Z</time>
      </trkpt>
      <trkpt lat="45.92825" lon="3.86211">
        <ele>884.55</ele>
        <time>2014-12-07T04:31:25Z</time>
      </trkpt>
      <trkpt lat="45.92829" lon="3.8623">
        <ele>883.59</ele>
        <time>2014-12-07T04:31:34Z</time>
      </trkpt>
      <trkpt lat="45.92836" lon="3.86266">
        <ele>882.15</ele>
        <time>2014-12-07T04:31:51Z</time>
      </trkpt>
      <trkpt lat="45.92839" lon="3.86306">
        <ele>881.19</ele>
        <time>2014-12-07T04:32:09Z</time>
      </trkpt>
      <trkpt lat="45.9284" lon="3.86332">
        <ele>880.22</ele>
        <time>2014-12-07T04:32:22Z</time>
      </trkpt>
      <trkpt lat="45.92839" lon="3.8635">
        <ele>879.74</ele>
        <time>2014-12-07T04:32:33Z</time>
      </trkpt>
      <trkpt lat="45.92839" lon="3.86353">
        <ele>879.74</ele>
        <time>2014-12-07T04:32:35Z</time>
      </trkpt>
      <trkpt lat="45.92842" lon="3.86362">
        <ele>879.26</ele>
        <time>2014-12-07T04:32:39Z</time>
      </trkpt>
      <trkpt lat="45.92847" lon="3.86399">
        <ele>878.78</ele>
        <time>2014-12-07T04:32:55Z</time>
      </trkpt>
      <trkpt lat="45.92849" lon="3.86437">
        <ele>877.82</ele>
        <time>2014-12-07T04:33:09Z</time>
      </trkpt>
      <trkpt lat="45.92853" lon="3.86469">
        <ele>877.82</ele>
        <time>2014-12-07T04:33:24Z</time>
      </trkpt>
      <trkpt lat="45.92865" lon="3.86499">
        <ele>877.82</ele>
        <time>2014-12-07T04:33:40Z</time>
      </trkpt>
      <trkpt lat="45.92875" lon="3.86517">
        <ele>877.82</ele>
        <time>2014-12-07T04:33:52Z</time>
      </trkpt>
      <trkpt lat="45.92881" lon="3.86523">
        <ele>877.82</ele>
        <time>2014-12-07T04:34:01Z</time>
      </trkpt>
      <trkpt lat="45.92886" lon="3.86533">
        <ele>877.82</ele>
        <time>2014-12-07T04:34:11Z</time>
      </trkpt>
      <trkpt lat="45.9289" lon="3.8654">
        <ele>878.3</ele>
        <time>2014-12-07T04:34:16Z</time>
      </trkpt>
      <trkpt lat="45.929" lon="3.86555">
        <ele>878.78</ele>
        <time>2014-12-07T04:34:26Z</time>
      </trkpt>
      <trkpt lat="45.92907" lon="3.86562">
        <ele>878.3</ele>
        <time>2014-12-07T04:34:33Z</time>
      </trkpt>
      <trkpt lat="45.92908" lon="3.86565">
        <ele>878.78</ele>
        <time>2014-12-07T04:34:35Z</time>
      </trkpt>
      <trkpt lat="45.92923" lon="3.86589">
        <ele>878.78</ele>
        <time>2014-12-07T04:34:51Z</time>
      </trkpt>
      <trkpt lat="45.92935" lon="3.86613">
        <ele>879.26</ele>
        <time>2014-12-07T04:35:05Z</time>
      </trkpt>
      <trkpt lat="45.92953" lon="3.86641">
        <ele>879.26</ele>
        <time>2014-12-07T04:35:22Z</time>
      </trkpt>
      <trkpt lat="45.92965" lon="3.86662">
        <ele>879.74</ele>
        <time>2014-12-07T04:35:37Z</time>
      </trkpt>
      <trkpt lat="45.92983" lon="3.86689">
        <ele>880.22</ele>
        <time>2014-12-07T04:35:54Z</time>
      </trkpt>
      <trkpt lat="45.92996" lon="3.86711">
        <ele>880.22</ele>
        <time>2014-12-07T04:36:08Z</time>
      </trkpt>
      <trkpt lat="45.93012" lon="3.86737">
        <ele>881.19</ele>
        <time>2014-12-07T04:36:23Z</time>
      </trkpt>
      <trkpt lat="45.93026" lon="3.86759">
        <ele>881.19</ele>
        <time>2014-12-07T04:36:37Z</time>
      </trkpt>
      <trkpt lat="45.9304" lon="3.86783">
        <ele>881.67</ele>
        <time>2014-12-07T04:36:51Z</time>
      </trkpt>
      <trkpt lat="45.93045" lon="3.86791">
        <ele>881.19</ele>
        <time>2014-12-07T04:36:56Z</time>
      </trkpt>
      <trkpt lat="45.9305" lon="3.86802">
        <ele>881.67</ele>
        <time>2014-12-07T04:37:03Z</time>
      </trkpt>
      <trkpt lat="45.93063" lon="3.86821">
        <ele>882.15</ele>
        <time>2014-12-07T04:37:16Z</time>
      </trkpt>
      <trkpt lat="45.93076" lon="3.86843">
        <ele>882.15</ele>
        <time>2014-12-07T04:37:29Z</time>
      </trkpt>
      <trkpt lat="45.9309" lon="3.86861">
        <ele>881.67</ele>
        <time>2014-12-07T04:37:41Z</time>
      </trkpt>
      <trkpt lat="45.93092" lon="3.86864">
        <ele>881.67</ele>
        <time>2014-12-07T04:37:43Z</time>
      </trkpt>
      <trkpt lat="45.93109" lon="3.86876">
        <ele>881.19</ele>
        <time>2014-12-07T04:37:57Z</time>
      </trkpt>
      <trkpt lat="45.93125" lon="3.86885">
        <ele>880.22</ele>
        <time>2014-12-07T04:38:08Z</time>
      </trkpt>
      <trkpt lat="45.93136" lon="3.86887">
        <ele>879.26</ele>
        <time>2014-12-07T04:38:15Z</time>
      </trkpt>
      <trkpt lat="45.93139" lon="3.86888">
        <ele>879.26</ele>
        <time>2014-12-07T04:38:17Z</time>
      </trkpt>
      <trkpt lat="45.93159" lon="3.86892">
        <ele>878.3</ele>
        <time>2014-12-07T04:38:31Z</time>
      </trkpt>
      <trkpt lat="45.93163" lon="3.86893">
        <ele>877.82</ele>
        <time>2014-12-07T04:38:34Z</time>
      </trkpt>
      <trkpt lat="45.93176" lon="3.86893">
        <ele>876.86</ele>
        <time>2014-12-07T04:38:43Z</time>
      </trkpt>
      <trkpt lat="45.93182" lon="3.86892">
        <ele>876.38</ele>
        <time>2014-12-07T04:38:46Z</time>
      </trkpt>
      <trkpt lat="45.93199" lon="3.86895">
        <ele>874.94</ele>
        <time>2014-12-07T04:38:57Z</time>
      </trkpt>
      <trkpt lat="45.93208" lon="3.86897">
        <ele>873.98</ele>
        <time>2014-12-07T04:39:03Z</time>
      </trkpt>
      <trkpt lat="45.9323" lon="3.869">
        <ele>872.05</ele>
        <time>2014-12-07T04:39:16Z</time>
      </trkpt>
      <trkpt lat="45.93252" lon="3.86901">
        <ele>869.17</ele>
        <time>2014-12-07T04:39:30Z</time>
      </trkpt>
      <trkpt lat="45.93275" lon="3.86904">
        <ele>866.77</ele>
        <time>2014-12-07T04:39:44Z</time>
      </trkpt>
      <trkpt lat="45.93295" lon="3.86908">
        <ele>864.84</ele>
        <time>2014-12-07T04:39:56Z</time>
      </trkpt>
      <trkpt lat="45.93318" lon="3.8691">
        <ele>862.92</ele>
        <time>2014-12-07T04:40:10Z</time>
      </trkpt>
      <trkpt lat="45.9334" lon="3.86909">
        <ele>861</ele>
        <time>2014-12-07T04:40:25Z</time>
      </trkpt>
      <trkpt lat="45.93358" lon="3.86911">
        <ele>859.56</ele>
        <time>2014-12-07T04:40:37Z</time>
      </trkpt>
      <trkpt lat="45.93376" lon="3.86912">
        <ele>858.59</ele>
        <time>2014-12-07T04:40:51Z</time>
      </trkpt>
      <trkpt lat="45.93397" lon="3.86915">
        <ele>857.15</ele>
        <time>2014-12-07T04:41:05Z</time>
      </trkpt>
      <trkpt lat="45.93422" lon="3.86918">
        <ele>856.19</ele>
        <time>2014-12-07T04:41:20Z</time>
      </trkpt>
      <trkpt lat="45.93446" lon="3.86918">
        <ele>855.71</ele>
        <time>2014-12-07T04:41:34Z</time>
      </trkpt>
      <trkpt lat="45.93469" lon="3.86919">
        <ele>855.23</ele>
        <time>2014-12-07T04:41:48Z</time>
      </trkpt>
      <trkpt lat="45.93486" lon="3.8692">
        <ele>855.23</ele>
        <time>2014-12-07T04:41:59Z</time>
      </trkpt>
      <trkpt lat="45.93511" lon="3.86923">
        <ele>855.71</ele>
        <time>2014-12-07T04:42:15Z</time>
      </trkpt>
      <trkpt lat="45.9352" lon="3.86923">
        <ele>855.71</ele>
        <time>2014-12-07T04:42:21Z</time>
      </trkpt>
      <trkpt lat="45.93532" lon="3.86947">
        <ele>856.67</ele>
        <time>2014-12-07T04:42:36Z</time>
      </trkpt>
      <trkpt lat="45.93541" lon="3.86973">
        <ele>856.67</ele>
        <time>2014-12-07T04:42:49Z</time>
      </trkpt>
      <trkpt lat="45.93553" lon="3.86998">
        <ele>857.15</ele>
        <time>2014-12-07T04:43:02Z</time>
      </trkpt>
      <trkpt lat="45.93564" lon="3.8702">
        <ele>857.63</ele>
        <time>2014-12-07T04:43:14Z</time>
      </trkpt>
      <trkpt lat="45.9358" lon="3.87047">
        <ele>858.59</ele>
        <time>2014-12-07T04:43:29Z</time>
      </trkpt>
      <trkpt lat="45.93592" lon="3.87071">
        <ele>859.08</ele>
        <time>2014-12-07T04:43:42Z</time>
      </trkpt>
      <trkpt lat="45.9361" lon="3.87096">
        <ele>859.56</ele>
        <time>2014-12-07T04:43:58Z</time>
      </trkpt>
      <trkpt lat="45.93628" lon="3.87117">
        <ele>860.04</ele>
        <time>2014-12-07T04:44:13Z</time>
      </trkpt>
      <trkpt lat="45.93649" lon="3.87135">
        <ele>860.52</ele>
        <time>2014-12-07T04:44:29Z</time>
      </trkpt>
      <trkpt lat="45.93673" lon="3.87146">
        <ele>861</ele>
        <time>2014-12-07T04:44:45Z</time>
      </trkpt>
      <trkpt lat="45.93698" lon="3.87146">
        <ele>861.96</ele>
        <time>2014-12-07T04:45:02Z</time>
      </trkpt>
      <trkpt lat="45.93717" lon="3.87141">
        <ele>862.44</ele>
        <time>2014-12-07T04:45:16Z</time>
      </trkpt>
      <trkpt lat="45.93737" lon="3.87137">
        <ele>862.92</ele>
        <time>2014-12-07T04:45:30Z</time>
      </trkpt>
      <trkpt lat="45.93758" lon="3.87132">
        <ele>862.92</ele>
        <time>2014-12-07T04:45:46Z</time>
      </trkpt>
      <trkpt lat="45.93762" lon="3.87131">
        <ele>862.92</ele>
        <time>2014-12-07T04:45:49Z</time>
      </trkpt>
      <trkpt lat="45.93766" lon="3.8713">
        <ele>863.4</ele>
        <time>2014-12-07T04:45:53Z</time>
      </trkpt>
      <trkpt lat="45.93787" lon="3.87129">
        <ele>863.88</ele>
        <time>2014-12-07T04:46:07Z</time>
      </trkpt>
      <trkpt lat="45.93813" lon="3.87124">
        <ele>863.88</ele>
        <time>2014-12-07T04:46:24Z</time>
      </trkpt>
      <trkpt lat="45.93842" lon="3.87116">
        <ele>864.36</ele>
        <time>2014-12-07T04:46:41Z</time>
      </trkpt>
      <trkpt lat="45.93867" lon="3.87116">
        <ele>865.32</ele>
        <time>2014-12-07T04:46:58Z</time>
      </trkpt>
      <trkpt lat="45.9389" lon="3.87119">
        <ele>865.32</ele>
        <time>2014-12-07T04:47:13Z</time>
      </trkpt>
      <trkpt lat="45.93913" lon="3.8712">
        <ele>865.8</ele>
        <time>2014-12-07T04:47:29Z</time>
      </trkpt>
      <trkpt lat="45.93932" lon="3.87119">
        <ele>866.77</ele>
        <time>2014-12-07T04:47:43Z</time>
      </trkpt>
      <trkpt lat="45.93956" lon="3.87117">
        <ele>866.77</ele>
        <time>2014-12-07T04:47:58Z</time>
      </trkpt>
      <trkpt lat="45.93978" lon="3.87108">
        <ele>867.73</ele>
        <time>2014-12-07T04:48:12Z</time>
      </trkpt>
      <trkpt lat="45.93999" lon="3.871">
        <ele>868.21</ele>
        <time>2014-12-07T04:48:26Z</time>
      </trkpt>
      <trkpt lat="45.94022" lon="3.87089">
        <ele>869.65</ele>
        <time>2014-12-07T04:48:42Z</time>
      </trkpt>
      <trkpt lat="45.94029" lon="3.87087">
        <ele>869.17</ele>
        <time>2014-12-07T04:48:48Z</time>
      </trkpt>
      <trkpt lat="45.94051" lon="3.87076">
        <ele>869.17</ele>
        <time>2014-12-07T04:49:04Z</time>
      </trkpt>
      <trkpt lat="45.94069" lon="3.87057">
        <ele>870.13</ele>
        <time>2014-12-07T04:49:19Z</time>
      </trkpt>
      <trkpt lat="45.94084" lon="3.87027">
        <ele>871.09</ele>
        <time>2014-12-07T04:49:36Z</time>
      </trkpt>
      <trkpt lat="45.94088" lon="3.87019">
        <ele>871.09</ele>
        <time>2014-12-07T04:49:41Z</time>
      </trkpt>
      <trkpt lat="45.94095" lon="3.87007">
        <ele>871.09</ele>
        <time>2014-12-07T04:49:48Z</time>
      </trkpt>
      <trkpt lat="45.94114" lon="3.8699">
        <ele>872.53</ele>
        <time>2014-12-07T04:50:03Z</time>
      </trkpt>
      <trkpt lat="45.94132" lon="3.86983">
        <ele>872.53</ele>
        <time>2014-12-07T04:50:16Z</time>
      </trkpt>
      <trkpt lat="45.94155" lon="3.86989">
        <ele>873.5</ele>
        <time>2014-12-07T04:50:33Z</time>
      </trkpt>
      <trkpt lat="45.94173" lon="3.87005">
        <ele>873.98</ele>
        <time>2014-12-07T04:50:47Z</time>
      </trkpt>
      <trkpt lat="45.94181" lon="3.87018">
        <ele>874.94</ele>
        <time>2014-12-07T04:50:56Z</time>
      </trkpt>
      <trkpt lat="45.94184" lon="3.87024">
        <ele>874.94</ele>
        <time>2014-12-07T04:50:59Z</time>
      </trkpt>
      <trkpt lat="45.94188" lon="3.87057">
        <ele>875.42</ele>
        <time>2014-12-07T04:51:15Z</time>
      </trkpt>
      <trkpt lat="45.94185" lon="3.87088">
        <ele>875.9</ele>
        <time>2014-12-07T04:51:29Z</time>
      </trkpt>
      <trkpt lat="45.94183" lon="3.87105">
        <ele>876.38</ele>
        <time>2014-12-07T04:51:37Z</time>
      </trkpt>
      <trkpt lat="45.94173" lon="3.87137">
        <ele>876.86</ele>
        <time>2014-12-07T04:51:53Z</time>
      </trkpt>
      <trkpt lat="45.94166" lon="3.87167">
        <ele>877.34</ele>
        <time>2014-12-07T04:52:07Z</time>
      </trkpt>
      <trkpt lat="45.94163" lon="3.87182">
        <ele>877.82</ele>
        <time>2014-12-07T04:52:15Z</time>
      </trkpt>
      <trkpt lat="45.94169" lon="3.87185">
        <ele>878.3</ele>
        <time>2014-12-07T04:52:23Z</time>
      </trkpt>
      <trkpt lat="45.9417" lon="3.87181">
        <ele>878.3</ele>
        <time>2014-12-07T04:52:26Z</time>
      </trkpt>
      <trkpt lat="45.94175" lon="3.87173">
        <ele>878.78</ele>
        <time>2014-12-07T04:52:42Z</time>
      </trkpt>
      <trkpt lat="45.94175" lon="3.8717">
        <ele>878.78</ele>
        <time>2014-12-07T04:52:54Z</time>
      </trkpt>
      <trkpt lat="45.94175" lon="3.8717">
        <ele>878.78</ele>
        <time>2014-12-07T04:53:21Z</time>
      </trkpt>
      <trkpt lat="45.94175" lon="3.87171">
        <ele>878.3</ele>
        <time>2014-12-07T04:53:38Z</time>
      </trkpt>
      <trkpt lat="45.94175" lon="3.87171">
        <ele>878.3</ele>
        <time>2014-12-07T04:54:01Z</time>
      </trkpt>
      <trkpt lat="45.94175" lon="3.87171">
        <ele>878.3</ele>
        <time>2014-12-07T04:54:28Z</time>
      </trkpt>
      <trkpt lat="45.94175" lon="3.87172">
        <ele>878.3</ele>
        <time>2014-12-07T04:54:39Z</time>
      </trkpt>
      <trkpt lat="45.94174" lon="3.87173">
        <ele>877.82</ele>
        <time>2014-12-07T04:54:43Z</time>
      </trkpt>
      <trkpt lat="45.94172" lon="3.87173">
        <ele>877.82</ele>
        <time>2014-12-07T04:54:58Z</time>
      </trkpt>
      <trkpt lat="45.94172" lon="3.87173">
        <ele>877.82</ele>
        <time>2014-12-07T04:55:16Z</time>
      </trkpt>
      <trkpt lat="45.94171" lon="3.87173">
        <ele>877.82</ele>
        <time>2014-12-07T04:55:41Z</time>
      </trkpt>
      <trkpt lat="45.9417" lon="3.87173">
        <ele>877.82</ele>
        <time>2014-12-07T04:55:57Z</time>
      </trkpt>
      <trkpt lat="45.9417" lon="3.87173">
        <ele>878.78</ele>
        <time>2014-12-07T04:56:22Z</time>
      </trkpt>
      <trkpt lat="45.9417" lon="3.87172">
        <ele>878.3</ele>
        <time>2014-12-07T04:56:42Z</time>
      </trkpt>
      <trkpt lat="45.94171" lon="3.87173">
        <ele>879.74</ele>
        <time>2014-12-07T04:56:49Z</time>
      </trkpt>
      <trkpt lat="45.94171" lon="3.87173">
        <ele>878.3</ele>
        <time>2014-12-07T04:56:51Z</time>
      </trkpt>
      <trkpt lat="45.94171" lon="3.87173">
        <ele>878.3</ele>
        <time>2014-12-07T04:57:09Z</time>
      </trkpt>
      <trkpt lat="45.94172" lon="3.87177">
        <ele>878.3</ele>
        <time>2014-12-07T04:57:21Z</time>
      </trkpt>
      <trkpt lat="45.94166" lon="3.87187">
        <ele>878.3</ele>
        <time>2014-12-07T04:57:30Z</time>
      </trkpt>
      <trkpt lat="45.94163" lon="3.87187">
        <ele>878.3</ele>
        <time>2014-12-07T04:57:33Z</time>
      </trkpt>
      <trkpt lat="45.94158" lon="3.87195">
        <ele>877.82</ele>
        <time>2014-12-07T04:57:39Z</time>
      </trkpt>
      <trkpt lat="45.94152" lon="3.87219">
        <ele>878.3</ele>
        <time>2014-12-07T04:57:51Z</time>
      </trkpt>
      <trkpt lat="45.94144" lon="3.8725">
        <ele>878.78</ele>
        <time>2014-12-07T04:58:06Z</time>
      </trkpt>
      <trkpt lat="45.94136" lon="3.87276">
        <ele>879.74</ele>
        <time>2014-12-07T04:58:21Z</time>
      </trkpt>
      <trkpt lat="45.9413" lon="3.87305">
        <ele>880.22</ele>
        <time>2014-12-07T04:58:35Z</time>
      </trkpt>
      <trkpt lat="45.94127" lon="3.87315">
        <ele>884.55</ele>
        <time>2014-12-07T04:58:40Z</time>
      </trkpt>
      <trkpt lat="45.94126" lon="3.87317">
        <ele>881.19</ele>
        <time>2014-12-07T04:58:41Z</time>
      </trkpt>
      <trkpt lat="45.94125" lon="3.87321">
        <ele>880.22</ele>
        <time>2014-12-07T04:58:43Z</time>
      </trkpt>
      <trkpt lat="45.94124" lon="3.87322">
        <ele>880.22</ele>
        <time>2014-12-07T04:58:44Z</time>
      </trkpt>
      <trkpt lat="45.94119" lon="3.87338">
        <ele>881.19</ele>
        <time>2014-12-07T04:58:53Z</time>
      </trkpt>
      <trkpt lat="45.94112" lon="3.87369">
        <ele>881.67</ele>
        <time>2014-12-07T04:59:09Z</time>
      </trkpt>
      <trkpt lat="45.94105" lon="3.87394">
        <ele>882.15</ele>
        <time>2014-12-07T04:59:22Z</time>
      </trkpt>
      <trkpt lat="45.941" lon="3.87426">
        <ele>882.63</ele>
        <time>2014-12-07T04:59:38Z</time>
      </trkpt>
      <trkpt lat="45.941" lon="3.87456">
        <ele>883.11</ele>
        <time>2014-12-07T04:59:52Z</time>
      </trkpt>
      <trkpt lat="45.94099" lon="3.87484">
        <ele>884.07</ele>
        <time>2014-12-07T05:00:05Z</time>
      </trkpt>
      <trkpt lat="45.94098" lon="3.87512">
        <ele>884.55</ele>
        <time>2014-12-07T05:00:18Z</time>
      </trkpt>
      <trkpt lat="45.94099" lon="3.87545">
        <ele>885.03</ele>
        <time>2014-12-07T05:00:33Z</time>
      </trkpt>
      <trkpt lat="45.94099" lon="3.87575">
        <ele>885.51</ele>
        <time>2014-12-07T05:00:46Z</time>
      </trkpt>
      <trkpt lat="45.94099" lon="3.87604">
        <ele>886.47</ele>
        <time>2014-12-07T05:01:00Z</time>
      </trkpt>
      <trkpt lat="45.94099" lon="3.87637">
        <ele>886.47</ele>
        <time>2014-12-07T05:01:14Z</time>
      </trkpt>
      <trkpt lat="45.94098" lon="3.87656">
        <ele>886.95</ele>
        <time>2014-12-07T05:01:23Z</time>
      </trkpt>
      <trkpt lat="45.94104" lon="3.87686">
        <ele>886.95</ele>
        <time>2014-12-07T05:01:37Z</time>
      </trkpt>
      <trkpt lat="45.94118" lon="3.87708">
        <ele>887.43</ele>
        <time>2014-12-07T05:01:51Z</time>
      </trkpt>
      <trkpt lat="45.94143" lon="3.87718">
        <ele>887.91</ele>
        <time>2014-12-07T05:02:07Z</time>
      </trkpt>
      <trkpt lat="45.94163" lon="3.8771">
        <ele>887.43</ele>
        <time>2014-12-07T05:02:24Z</time>
      </trkpt>
      <trkpt lat="45.94164" lon="3.87709">
        <ele>887.91</ele>
        <time>2014-12-07T05:02:25Z</time>
      </trkpt>
      <trkpt lat="45.94176" lon="3.87702">
        <ele>888.4</ele>
        <time>2014-12-07T05:02:34Z</time>
      </trkpt>
      <trkpt lat="45.94179" lon="3.87702">
        <ele>887.91</ele>
        <time>2014-12-07T05:02:36Z</time>
      </trkpt>
      <trkpt lat="45.94187" lon="3.87701">
        <ele>888.4</ele>
        <time>2014-12-07T05:02:42Z</time>
      </trkpt>
      <trkpt lat="45.94202" lon="3.87695">
        <ele>888.4</ele>
        <time>2014-12-07T05:02:56Z</time>
      </trkpt>
      <trkpt lat="45.9421" lon="3.87694">
        <ele>888.4</ele>
        <time>2014-12-07T05:03:03Z</time>
      </trkpt>
      <trkpt lat="45.94216" lon="3.87693">
        <ele>884.55</ele>
        <time>2014-12-07T05:03:10Z</time>
      </trkpt>
      <trkpt lat="45.94216" lon="3.87693">
        <ele>889.84</ele>
        <time>2014-12-07T05:03:11Z</time>
      </trkpt>
      <trkpt lat="45.94223" lon="3.87689">
        <ele>888.4</ele>
        <time>2014-12-07T05:03:15Z</time>
      </trkpt>
      <trkpt lat="45.94252" lon="3.87676">
        <ele>887.43</ele>
        <time>2014-12-07T05:03:32Z</time>
      </trkpt>
      <trkpt lat="45.94264" lon="3.87669">
        <ele>889.36</ele>
        <time>2014-12-07T05:03:42Z</time>
      </trkpt>
      <trkpt lat="45.94282" lon="3.87666">
        <ele>889.36</ele>
        <time>2014-12-07T05:03:57Z</time>
      </trkpt>
      <trkpt lat="45.94299" lon="3.87658">
        <ele>889.36</ele>
        <time>2014-12-07T05:04:13Z</time>
      </trkpt>
      <trkpt lat="45.94317" lon="3.87646">
        <ele>889.36</ele>
        <time>2014-12-07T05:04:26Z</time>
      </trkpt>
      <trkpt lat="45.94343" lon="3.87628">
        <ele>889.84</ele>
        <time>2014-12-07T05:04:39Z</time>
      </trkpt>
      <trkpt lat="45.94359" lon="3.87622">
        <ele>889.84</ele>
        <time>2014-12-07T05:04:51Z</time>
      </trkpt>
      <trkpt lat="45.94367" lon="3.87617">
        <ele>890.32</ele>
        <time>2014-12-07T05:04:55Z</time>
      </trkpt>
      <trkpt lat="45.94378" lon="3.87612">
        <ele>889.84</ele>
        <time>2014-12-07T05:05:01Z</time>
      </trkpt>
      <trkpt lat="45.9439" lon="3.87604">
        <ele>890.32</ele>
        <time>2014-12-07T05:05:07Z</time>
      </trkpt>
      <trkpt lat="45.94411" lon="3.87592">
        <ele>890.8</ele>
        <time>2014-12-07T05:05:24Z</time>
      </trkpt>
      <trkpt lat="45.94425" lon="3.87586">
        <ele>890.8</ele>
        <time>2014-12-07T05:05:31Z</time>
      </trkpt>
      <trkpt lat="45.94446" lon="3.87587">
        <ele>891.76</ele>
        <time>2014-12-07T05:05:45Z</time>
      </trkpt>
      <trkpt lat="45.9445" lon="3.87587">
        <ele>891.76</ele>
        <time>2014-12-07T05:05:49Z</time>
      </trkpt>
      <trkpt lat="45.94459" lon="3.87583">
        <ele>892.24</ele>
        <time>2014-12-07T05:05:56Z</time>
      </trkpt>
      <trkpt lat="45.94486" lon="3.87582">
        <ele>892.24</ele>
        <time>2014-12-07T05:06:09Z</time>
      </trkpt>
      <trkpt lat="45.94505" lon="3.87586">
        <ele>892.24</ele>
        <time>2014-12-07T05:06:21Z</time>
      </trkpt>
      <trkpt lat="45.94519" lon="3.876">
        <ele>892.72</ele>
        <time>2014-12-07T05:06:35Z</time>
      </trkpt>
      <trkpt lat="45.94535" lon="3.87626">
        <ele>893.2</ele>
        <time>2014-12-07T05:06:52Z</time>
      </trkpt>
      <trkpt lat="45.94543" lon="3.87661">
        <ele>893.68</ele>
        <time>2014-12-07T05:07:11Z</time>
      </trkpt>
      <trkpt lat="45.94546" lon="3.87675">
        <ele>893.68</ele>
        <time>2014-12-07T05:07:18Z</time>
      </trkpt>
      <trkpt lat="45.94552" lon="3.87715">
        <ele>893.68</ele>
        <time>2014-12-07T05:07:36Z</time>
      </trkpt>
      <trkpt lat="45.94556" lon="3.8773">
        <ele>893.68</ele>
        <time>2014-12-07T05:07:43Z</time>
      </trkpt>
      <trkpt lat="45.94559" lon="3.87739">
        <ele>893.68</ele>
        <time>2014-12-07T05:07:47Z</time>
      </trkpt>
      <trkpt lat="45.94572" lon="3.8777">
        <ele>894.16</ele>
        <time>2014-12-07T05:08:03Z</time>
      </trkpt>
      <trkpt lat="45.94589" lon="3.87797">
        <ele>894.64</ele>
        <time>2014-12-07T05:08:19Z</time>
      </trkpt>
      <trkpt lat="45.9461" lon="3.87816">
        <ele>894.64</ele>
        <time>2014-12-07T05:08:35Z</time>
      </trkpt>
      <trkpt lat="45.94628" lon="3.87827">
        <ele>895.61</ele>
        <time>2014-12-07T05:08:48Z</time>
      </trkpt>
      <trkpt lat="45.94648" lon="3.87835">
        <ele>895.61</ele>
        <time>2014-12-07T05:09:03Z</time>
      </trkpt>
      <trkpt lat="45.9467" lon="3.87823">
        <ele>895.61</ele>
        <time>2014-12-07T05:09:22Z</time>
      </trkpt>
      <trkpt lat="45.94686" lon="3.87818">
        <ele>896.57</ele>
        <time>2014-12-07T05:09:37Z</time>
      </trkpt>
      <trkpt lat="45.94691" lon="3.87815">
        <ele>896.57</ele>
        <time>2014-12-07T05:09:40Z</time>
      </trkpt>
      <trkpt lat="45.94696" lon="3.87811">
        <ele>896.57</ele>
        <time>2014-12-07T05:09:42Z</time>
      </trkpt>
      <trkpt lat="45.94709" lon="3.87806">
        <ele>896.57</ele>
        <time>2014-12-07T05:09:51Z</time>
      </trkpt>
      <trkpt lat="45.94725" lon="3.87816">
        <ele>897.05</ele>
        <time>2014-12-07T05:10:02Z</time>
      </trkpt>
      <trkpt lat="45.94761" lon="3.87819">
        <ele>897.05</ele>
        <time>2014-12-07T05:10:19Z</time>
      </trkpt>
      <trkpt lat="45.94777" lon="3.87832">
        <ele>897.53</ele>
        <time>2014-12-07T05:10:33Z</time>
      </trkpt>
      <trkpt lat="45.94788" lon="3.87846">
        <ele>898.01</ele>
        <time>2014-12-07T05:10:43Z</time>
      </trkpt>
      <trkpt lat="45.94807" lon="3.87863">
        <ele>898.01</ele>
        <time>2014-12-07T05:10:59Z</time>
      </trkpt>
      <trkpt lat="45.94815" lon="3.87873">
        <ele>898.01</ele>
        <time>2014-12-07T05:11:06Z</time>
      </trkpt>
      <trkpt lat="45.94836" lon="3.87903">
        <ele>898.49</ele>
        <time>2014-12-07T05:11:23Z</time>
      </trkpt>
      <trkpt lat="45.94856" lon="3.87927">
        <ele>898.97</ele>
        <time>2014-12-07T05:11:37Z</time>
      </trkpt>
      <trkpt lat="45.94878" lon="3.87942">
        <ele>898.97</ele>
        <time>2014-12-07T05:11:50Z</time>
      </trkpt>
      <trkpt lat="45.94902" lon="3.8796">
        <ele>899.93</ele>
        <time>2014-12-07T05:12:06Z</time>
      </trkpt>
      <trkpt lat="45.94911" lon="3.87965">
        <ele>898.97</ele>
        <time>2014-12-07T05:12:12Z</time>
      </trkpt>
      <trkpt lat="45.94921" lon="3.87967">
        <ele>899.45</ele>
        <time>2014-12-07T05:12:19Z</time>
      </trkpt>
      <trkpt lat="45.94932" lon="3.87966">
        <ele>899.45</ele>
        <time>2014-12-07T05:12:25Z</time>
      </trkpt>
      <trkpt lat="45.94938" lon="3.87963">
        <ele>898.97</ele>
        <time>2014-12-07T05:12:30Z</time>
      </trkpt>
      <trkpt lat="45.94941" lon="3.87962">
        <ele>898.49</ele>
        <time>2014-12-07T05:12:41Z</time>
      </trkpt>
      <trkpt lat="45.9494" lon="3.87963">
        <ele>898.49</ele>
        <time>2014-12-07T05:12:43Z</time>
      </trkpt>
      <trkpt lat="45.94937" lon="3.87969">
        <ele>898.97</ele>
        <time>2014-12-07T05:12:53Z</time>
      </trkpt>
      <trkpt lat="45.94943" lon="3.87972">
        <ele>899.45</ele>
        <time>2014-12-07T05:12:57Z</time>
      </trkpt>
      <trkpt lat="45.94949" lon="3.8797">
        <ele>898.97</ele>
        <time>2014-12-07T05:13:01Z</time>
      </trkpt>
      <trkpt lat="45.94953" lon="3.8797">
        <ele>898.49</ele>
        <time>2014-12-07T05:13:03Z</time>
      </trkpt>
      <trkpt lat="45.94965" lon="3.87962">
        <ele>897.53</ele>
        <time>2014-12-07T05:13:11Z</time>
      </trkpt>
      <trkpt lat="45.94987" lon="3.87936">
        <ele>896.57</ele>
        <time>2014-12-07T05:13:27Z</time>
      </trkpt>
      <trkpt lat="45.95004" lon="3.87916">
        <ele>895.12</ele>
        <time>2014-12-07T05:13:40Z</time>
      </trkpt>
      <trkpt lat="45.95018" lon="3.87893">
        <ele>894.16</ele>
        <time>2014-12-07T05:13:53Z</time>
      </trkpt>
      <trkpt lat="45.95029" lon="3.87873">
        <ele>892.24</ele>
        <time>2014-12-07T05:14:05Z</time>
      </trkpt>
      <trkpt lat="45.9504" lon="3.87843">
        <ele>891.28</ele>
        <time>2014-12-07T05:14:19Z</time>
      </trkpt>
      <trkpt lat="45.95052" lon="3.87811">
        <ele>890.32</ele>
        <time>2014-12-07T05:14:34Z</time>
      </trkpt>
      <trkpt lat="45.95054" lon="3.87807">
        <ele>892.24</ele>
        <time>2014-12-07T05:14:36Z</time>
      </trkpt>
      <trkpt lat="45.95056" lon="3.87797">
        <ele>890.32</ele>
        <time>2014-12-07T05:14:41Z</time>
      </trkpt>
      <trkpt lat="45.95057" lon="3.87794">
        <ele>889.84</ele>
        <time>2014-12-07T05:14:43Z</time>
      </trkpt>
      <trkpt lat="45.95059" lon="3.87787">
        <ele>889.84</ele>
        <time>2014-12-07T05:14:47Z</time>
      </trkpt>
      <trkpt lat="45.95062" lon="3.87779">
        <ele>889.36</ele>
        <time>2014-12-07T05:14:51Z</time>
      </trkpt>
      <trkpt lat="45.95065" lon="3.87777">
        <ele>889.36</ele>
        <time>2014-12-07T05:14:53Z</time>
      </trkpt>
      <trkpt lat="45.9507" lon="3.8777">
        <ele>888.88</ele>
        <time>2014-12-07T05:14:57Z</time>
      </trkpt>
      <trkpt lat="45.95072" lon="3.87765">
        <ele>888.4</ele>
        <time>2014-12-07T05:14:59Z</time>
      </trkpt>
      <trkpt lat="45.95075" lon="3.87757">
        <ele>888.4</ele>
        <time>2014-12-07T05:15:03Z</time>
      </trkpt>
      <trkpt lat="45.9509" lon="3.87732">
        <ele>887.43</ele>
        <time>2014-12-07T05:15:17Z</time>
      </trkpt>
      <trkpt lat="45.95114" lon="3.87721">
        <ele>886.95</ele>
        <time>2014-12-07T05:15:31Z</time>
      </trkpt>
      <trkpt lat="45.9512" lon="3.87721">
        <ele>884.55</ele>
        <time>2014-12-07T05:15:35Z</time>
      </trkpt>
      <trkpt lat="45.95125" lon="3.87724">
        <ele>886.47</ele>
        <time>2014-12-07T05:15:39Z</time>
      </trkpt>
      <trkpt lat="45.95149" lon="3.87739">
        <ele>885.99</ele>
        <time>2014-12-07T05:15:53Z</time>
      </trkpt>
      <trkpt lat="45.95162" lon="3.87753">
        <ele>885.51</ele>
        <time>2014-12-07T05:16:03Z</time>
      </trkpt>
      <trkpt lat="45.95173" lon="3.87762">
        <ele>885.51</ele>
        <time>2014-12-07T05:16:11Z</time>
      </trkpt>
      <trkpt lat="45.9519" lon="3.87779">
        <ele>885.51</ele>
        <time>2014-12-07T05:16:24Z</time>
      </trkpt>
      <trkpt lat="45.95198" lon="3.87787">
        <ele>885.51</ele>
        <time>2014-12-07T05:16:30Z</time>
      </trkpt>
      <trkpt lat="45.95217" lon="3.87804">
        <ele>883.59</ele>
        <time>2014-12-07T05:16:44Z</time>
      </trkpt>
      <trkpt lat="45.95226" lon="3.87816">
        <ele>884.55</ele>
        <time>2014-12-07T05:16:53Z</time>
      </trkpt>
      <trkpt lat="45.95241" lon="3.87828">
        <ele>883.59</ele>
        <time>2014-12-07T05:17:07Z</time>
      </trkpt>
      <trkpt lat="45.95245" lon="3.87831">
        <ele>883.11</ele>
        <time>2014-12-07T05:17:10Z</time>
      </trkpt>
      <trkpt lat="45.95262" lon="3.87854">
        <ele>882.63</ele>
        <time>2014-12-07T05:17:24Z</time>
      </trkpt>
      <trkpt lat="45.95276" lon="3.87879">
        <ele>881.67</ele>
        <time>2014-12-07T05:17:37Z</time>
      </trkpt>
      <trkpt lat="45.95287" lon="3.87906">
        <ele>880.71</ele>
        <time>2014-12-07T05:17:51Z</time>
      </trkpt>
      <trkpt lat="45.95298" lon="3.87937">
        <ele>879.26</ele>
        <time>2014-12-07T05:18:04Z</time>
      </trkpt>
      <trkpt lat="45.9531" lon="3.87972">
        <ele>878.78</ele>
        <time>2014-12-07T05:18:16Z</time>
      </trkpt>
      <trkpt lat="45.95325" lon="3.88002">
        <ele>877.82</ele>
        <time>2014-12-07T05:18:28Z</time>
      </trkpt>
      <trkpt lat="45.95326" lon="3.88008">
        <ele>877.82</ele>
        <time>2014-12-07T05:18:30Z</time>
      </trkpt>
      <trkpt lat="45.95327" lon="3.88016">
        <ele>877.34</ele>
        <time>2014-12-07T05:18:34Z</time>
      </trkpt>
      <trkpt lat="45.95341" lon="3.88052">
        <ele>874.94</ele>
        <time>2014-12-07T05:18:48Z</time>
      </trkpt>
      <trkpt lat="45.95359" lon="3.88089">
        <ele>873.01</ele>
        <time>2014-12-07T05:19:02Z</time>
      </trkpt>
      <trkpt lat="45.95367" lon="3.8812">
        <ele>870.61</ele>
        <time>2014-12-07T05:19:13Z</time>
      </trkpt>
      <trkpt lat="45.95377" lon="3.88152">
        <ele>868.69</ele>
        <time>2014-12-07T05:19:24Z</time>
      </trkpt>
      <trkpt lat="45.95384" lon="3.88182">
        <ele>866.77</ele>
        <time>2014-12-07T05:19:35Z</time>
      </trkpt>
      <trkpt lat="45.95385" lon="3.88189">
        <ele>866.77</ele>
        <time>2014-12-07T05:19:38Z</time>
      </trkpt>
      <trkpt lat="45.95393" lon="3.88219">
        <ele>866.29</ele>
        <time>2014-12-07T05:19:50Z</time>
      </trkpt>
      <trkpt lat="45.95394" lon="3.88221">
        <ele>866.29</ele>
        <time>2014-12-07T05:19:51Z</time>
      </trkpt>
      <trkpt lat="45.95399" lon="3.8827">
        <ele>865.8</ele>
        <time>2014-12-07T05:20:05Z</time>
      </trkpt>
      <trkpt lat="45.95405" lon="3.88314">
        <ele>866.29</ele>
        <time>2014-12-07T05:20:20Z</time>
      </trkpt>
      <trkpt lat="45.9541" lon="3.88343">
        <ele>865.8</ele>
        <time>2014-12-07T05:20:31Z</time>
      </trkpt>
      <trkpt lat="45.9541" lon="3.88368">
        <ele>866.29</ele>
        <time>2014-12-07T05:20:41Z</time>
      </trkpt>
      <trkpt lat="45.95406" lon="3.88392">
        <ele>866.29</ele>
        <time>2014-12-07T05:20:53Z</time>
      </trkpt>
      <trkpt lat="45.95396" lon="3.88416">
        <ele>866.77</ele>
        <time>2014-12-07T05:21:06Z</time>
      </trkpt>
      <trkpt lat="45.95386" lon="3.8844">
        <ele>867.25</ele>
        <time>2014-12-07T05:21:18Z</time>
      </trkpt>
      <trkpt lat="45.95383" lon="3.88446">
        <ele>867.73</ele>
        <time>2014-12-07T05:21:21Z</time>
      </trkpt>
      <trkpt lat="45.95372" lon="3.88468">
        <ele>869.17</ele>
        <time>2014-12-07T05:21:33Z</time>
      </trkpt>
      <trkpt lat="45.95362" lon="3.8849">
        <ele>870.13</ele>
        <time>2014-12-07T05:21:45Z</time>
      </trkpt>
      <trkpt lat="45.95354" lon="3.88514">
        <ele>871.57</ele>
        <time>2014-12-07T05:21:57Z</time>
      </trkpt>
      <trkpt lat="45.9535" lon="3.88529">
        <ele>871.57</ele>
        <time>2014-12-07T05:22:04Z</time>
      </trkpt>
      <trkpt lat="45.95345" lon="3.88561">
        <ele>872.53</ele>
        <time>2014-12-07T05:22:18Z</time>
      </trkpt>
      <trkpt lat="45.95344" lon="3.88582">
        <ele>873.5</ele>
        <time>2014-12-07T05:22:27Z</time>
      </trkpt>
      <trkpt lat="45.95342" lon="3.88609">
        <ele>873.5</ele>
        <time>2014-12-07T05:22:39Z</time>
      </trkpt>
      <trkpt lat="45.9534" lon="3.88641">
        <ele>873.01</ele>
        <time>2014-12-07T05:22:53Z</time>
      </trkpt>
      <trkpt lat="45.95337" lon="3.88682">
        <ele>873.01</ele>
        <time>2014-12-07T05:23:10Z</time>
      </trkpt>
      <trkpt lat="45.95333" lon="3.88711">
        <ele>873.5</ele>
        <time>2014-12-07T05:23:23Z</time>
      </trkpt>
      <trkpt lat="45.95331" lon="3.88742">
        <ele>873.5</ele>
        <time>2014-12-07T05:23:36Z</time>
      </trkpt>
      <trkpt lat="45.9533" lon="3.88768">
        <ele>873.5</ele>
        <time>2014-12-07T05:23:48Z</time>
      </trkpt>
      <trkpt lat="45.95333" lon="3.88775">
        <ele>873.5</ele>
        <time>2014-12-07T05:23:52Z</time>
      </trkpt>
      <trkpt lat="45.95333" lon="3.88787">
        <ele>873.98</ele>
        <time>2014-12-07T05:23:58Z</time>
      </trkpt>
      <trkpt lat="45.95335" lon="3.88795">
        <ele>873.5</ele>
        <time>2014-12-07T05:24:03Z</time>
      </trkpt>
      <trkpt lat="45.9534" lon="3.88811">
        <ele>873.98</ele>
        <time>2014-12-07T05:24:12Z</time>
      </trkpt>
      <trkpt lat="45.95351" lon="3.88823">
        <ele>872.05</ele>
        <time>2014-12-07T05:24:23Z</time>
      </trkpt>
      <trkpt lat="45.95353" lon="3.88824">
        <ele>872.05</ele>
        <time>2014-12-07T05:24:24Z</time>
      </trkpt>
      <trkpt lat="45.9537" lon="3.88827">
        <ele>869.65</ele>
        <time>2014-12-07T05:24:33Z</time>
      </trkpt>
      <trkpt lat="45.95392" lon="3.88835">
        <ele>866.77</ele>
        <time>2014-12-07T05:24:44Z</time>
      </trkpt>
      <trkpt lat="45.95417" lon="3.88841">
        <ele>864.84</ele>
        <time>2014-12-07T05:24:55Z</time>
      </trkpt>
      <trkpt lat="45.9543" lon="3.88845">
        <ele>862.44</ele>
        <time>2014-12-07T05:25:01Z</time>
      </trkpt>
      <trkpt lat="45.95456" lon="3.88854">
        <ele>860.04</ele>
        <time>2014-12-07T05:25:12Z</time>
      </trkpt>
      <trkpt lat="45.95475" lon="3.8886">
        <ele>856.67</ele>
        <time>2014-12-07T05:25:21Z</time>
      </trkpt>
      <trkpt lat="45.95502" lon="3.88865">
        <ele>854.27</ele>
        <time>2014-12-07T05:25:34Z</time>
      </trkpt>
      <trkpt lat="45.95525" lon="3.88871">
        <ele>851.38</ele>
        <time>2014-12-07T05:25:45Z</time>
      </trkpt>
      <trkpt lat="45.95526" lon="3.88871">
        <ele>850.9</ele>
        <time>2014-12-07T05:25:46Z</time>
      </trkpt>
      <trkpt lat="45.95538" lon="3.88873">
        <ele>848.98</ele>
        <time>2014-12-07T05:25:52Z</time>
      </trkpt>
      <trkpt lat="45.95553" lon="3.88875">
        <ele>846.1</ele>
        <time>2014-12-07T05:25:59Z</time>
      </trkpt>
      <trkpt lat="45.95579" lon="3.88881">
        <ele>843.69</ele>
        <time>2014-12-07T05:26:10Z</time>
      </trkpt>
      <trkpt lat="45.95591" lon="3.88883">
        <ele>841.77</ele>
        <time>2014-12-07T05:26:15Z</time>
      </trkpt>
      <trkpt lat="45.95594" lon="3.88884">
        <ele>840.81</ele>
        <time>2014-12-07T05:26:17Z</time>
      </trkpt>
      <trkpt lat="45.95619" lon="3.88881">
        <ele>838.41</ele>
        <time>2014-12-07T05:26:29Z</time>
      </trkpt>
      <trkpt lat="45.95643" lon="3.88883">
        <ele>835.04</ele>
        <time>2014-12-07T05:26:41Z</time>
      </trkpt>
      <trkpt lat="45.95647" lon="3.88885">
        <ele>834.56</ele>
        <time>2014-12-07T05:26:43Z</time>
      </trkpt>
      <trkpt lat="45.95661" lon="3.88888">
        <ele>832.16</ele>
        <time>2014-12-07T05:26:48Z</time>
      </trkpt>
      <trkpt lat="45.95685" lon="3.88897">
        <ele>829.27</ele>
        <time>2014-12-07T05:26:58Z</time>
      </trkpt>
      <trkpt lat="45.95704" lon="3.88904">
        <ele>826.87</ele>
        <time>2014-12-07T05:27:06Z</time>
      </trkpt>
      <trkpt lat="45.95728" lon="3.88912">
        <ele>823.99</ele>
        <time>2014-12-07T05:27:16Z</time>
      </trkpt>
      <trkpt lat="45.95758" lon="3.88932">
        <ele>820.62</ele>
        <time>2014-12-07T05:27:27Z</time>
      </trkpt>
      <trkpt lat="45.95786" lon="3.88942">
        <ele>818.7</ele>
        <time>2014-12-07T05:27:39Z</time>
      </trkpt>
      <trkpt lat="45.95813" lon="3.88947">
        <ele>817.26</ele>
        <time>2014-12-07T05:27:49Z</time>
      </trkpt>
      <trkpt lat="45.95842" lon="3.88955">
        <ele>814.85</ele>
        <time>2014-12-07T05:27:59Z</time>
      </trkpt>
      <trkpt lat="45.95868" lon="3.8896">
        <ele>813.41</ele>
        <time>2014-12-07T05:28:09Z</time>
      </trkpt>
      <trkpt lat="45.95878" lon="3.88961">
        <ele>812.45</ele>
        <time>2014-12-07T05:28:13Z</time>
      </trkpt>
      <trkpt lat="45.95892" lon="3.88964">
        <ele>811.01</ele>
        <time>2014-12-07T05:28:18Z</time>
      </trkpt>
      <trkpt lat="45.95916" lon="3.88966">
        <ele>809.09</ele>
        <time>2014-12-07T05:28:28Z</time>
      </trkpt>
      <trkpt lat="45.95946" lon="3.8897">
        <ele>806.68</ele>
        <time>2014-12-07T05:28:40Z</time>
      </trkpt>
      <trkpt lat="45.95949" lon="3.88971">
        <ele>805.72</ele>
        <time>2014-12-07T05:28:41Z</time>
      </trkpt>
      <trkpt lat="45.95953" lon="3.88971">
        <ele>805.24</ele>
        <time>2014-12-07T05:28:43Z</time>
      </trkpt>
      <trkpt lat="45.9598" lon="3.88981">
        <ele>803.8</ele>
        <time>2014-12-07T05:28:54Z</time>
      </trkpt>
      <trkpt lat="45.96001" lon="3.88989">
        <ele>801.4</ele>
        <time>2014-12-07T05:29:04Z</time>
      </trkpt>
      <trkpt lat="45.96031" lon="3.89006">
        <ele>798.03</ele>
        <time>2014-12-07T05:29:14Z</time>
      </trkpt>
      <trkpt lat="45.96058" lon="3.89021">
        <ele>794.67</ele>
        <time>2014-12-07T05:29:25Z</time>
      </trkpt>
      <trkpt lat="45.96083" lon="3.89037">
        <ele>791.78</ele>
        <time>2014-12-07T05:29:35Z</time>
      </trkpt>
      <trkpt lat="45.96107" lon="3.89051">
        <ele>788.9</ele>
        <time>2014-12-07T05:29:45Z</time>
      </trkpt>
      <trkpt lat="45.96116" lon="3.89055">
        <ele>787.46</ele>
        <time>2014-12-07T05:29:50Z</time>
      </trkpt>
      <trkpt lat="45.96134" lon="3.89064">
        <ele>785.05</ele>
        <time>2014-12-07T05:29:59Z</time>
      </trkpt>
      <trkpt lat="45.96158" lon="3.89078">
        <ele>782.17</ele>
        <time>2014-12-07T05:30:09Z</time>
      </trkpt>
      <trkpt lat="45.96186" lon="3.89093">
        <ele>779.29</ele>
        <time>2014-12-07T05:30:21Z</time>
      </trkpt>
      <trkpt lat="45.96207" lon="3.89106">
        <ele>775.92</ele>
        <time>2014-12-07T05:30:31Z</time>
      </trkpt>
      <trkpt lat="45.96215" lon="3.89108">
        <ele>775.92</ele>
        <time>2014-12-07T05:30:35Z</time>
      </trkpt>
      <trkpt lat="45.96236" lon="3.89125">
        <ele>772.56</ele>
        <time>2014-12-07T05:30:44Z</time>
      </trkpt>
      <trkpt lat="45.96246" lon="3.89141">
        <ele>770.15</ele>
        <time>2014-12-07T05:30:50Z</time>
      </trkpt>
      <trkpt lat="45.96256" lon="3.89178">
        <ele>766.79</ele>
        <time>2014-12-07T05:31:02Z</time>
      </trkpt>
      <trkpt lat="45.96261" lon="3.89203">
        <ele>763.9</ele>
        <time>2014-12-07T05:31:11Z</time>
      </trkpt>
      <trkpt lat="45.96262" lon="3.89222">
        <ele>761.02</ele>
        <time>2014-12-07T05:31:18Z</time>
      </trkpt>
      <trkpt lat="45.96265" lon="3.89232">
        <ele>759.58</ele>
        <time>2014-12-07T05:31:23Z</time>
      </trkpt>
      <trkpt lat="45.96275" lon="3.89262">
        <ele>756.69</ele>
        <time>2014-12-07T05:31:32Z</time>
      </trkpt>
      <trkpt lat="45.96276" lon="3.89307">
        <ele>753.33</ele>
        <time>2014-12-07T05:31:43Z</time>
      </trkpt>
      <trkpt lat="45.96273" lon="3.89324">
        <ele>750.93</ele>
        <time>2014-12-07T05:31:49Z</time>
      </trkpt>
      <trkpt lat="45.96281" lon="3.89344">
        <ele>749</ele>
        <time>2014-12-07T05:31:55Z</time>
      </trkpt>
      <trkpt lat="45.9628" lon="3.89368">
        <ele>745.64</ele>
        <time>2014-12-07T05:32:04Z</time>
      </trkpt>
      <trkpt lat="45.96283" lon="3.89388">
        <ele>743.24</ele>
        <time>2014-12-07T05:32:10Z</time>
      </trkpt>
      <trkpt lat="45.96294" lon="3.8943">
        <ele>740.83</ele>
        <time>2014-12-07T05:32:20Z</time>
      </trkpt>
      <trkpt lat="45.96295" lon="3.89459">
        <ele>737.95</ele>
        <time>2014-12-07T05:32:29Z</time>
      </trkpt>
      <trkpt lat="45.96296" lon="3.89495">
        <ele>734.58</ele>
        <time>2014-12-07T05:32:40Z</time>
      </trkpt>
      <trkpt lat="45.96294" lon="3.89508">
        <ele>733.14</ele>
        <time>2014-12-07T05:32:44Z</time>
      </trkpt>
      <trkpt lat="45.9629" lon="3.89546">
        <ele>730.26</ele>
        <time>2014-12-07T05:32:54Z</time>
      </trkpt>
      <trkpt lat="45.96288" lon="3.89587">
        <ele>726.89</ele>
        <time>2014-12-07T05:33:04Z</time>
      </trkpt>
      <trkpt lat="45.96289" lon="3.89591">
        <ele>726.41</ele>
        <time>2014-12-07T05:33:05Z</time>
      </trkpt>
      <trkpt lat="45.96284" lon="3.89623">
        <ele>724.01</ele>
        <time>2014-12-07T05:33:14Z</time>
      </trkpt>
      <trkpt lat="45.96275" lon="3.89665">
        <ele>720.65</ele>
        <time>2014-12-07T05:33:25Z</time>
      </trkpt>
      <trkpt lat="45.96269" lon="3.89706">
        <ele>717.76</ele>
        <time>2014-12-07T05:33:35Z</time>
      </trkpt>
      <trkpt lat="45.96269" lon="3.89713">
        <ele>716.8</ele>
        <time>2014-12-07T05:33:37Z</time>
      </trkpt>
      <trkpt lat="45.96271" lon="3.89721">
        <ele>716.32</ele>
        <time>2014-12-07T05:33:39Z</time>
      </trkpt>
      <trkpt lat="45.96269" lon="3.89752">
        <ele>713.44</ele>
        <time>2014-12-07T05:33:48Z</time>
      </trkpt>
      <trkpt lat="45.96263" lon="3.89788">
        <ele>711.03</ele>
        <time>2014-12-07T05:33:57Z</time>
      </trkpt>
      <trkpt lat="45.96266" lon="3.8981">
        <ele>710.07</ele>
        <time>2014-12-07T05:34:02Z</time>
      </trkpt>
      <trkpt lat="45.96268" lon="3.89824">
        <ele>708.63</ele>
        <time>2014-12-07T05:34:06Z</time>
      </trkpt>
      <trkpt lat="45.96269" lon="3.89829">
        <ele>708.63</ele>
        <time>2014-12-07T05:34:07Z</time>
      </trkpt>
      <trkpt lat="45.96268" lon="3.89837">
        <ele>708.63</ele>
        <time>2014-12-07T05:34:09Z</time>
      </trkpt>
      <trkpt lat="45.96269" lon="3.89841">
        <ele>708.15</ele>
        <time>2014-12-07T05:34:11Z</time>
      </trkpt>
      <trkpt lat="45.96291" lon="3.89878">
        <ele>706.71</ele>
        <time>2014-12-07T05:34:23Z</time>
      </trkpt>
      <trkpt lat="45.96295" lon="3.89907">
        <ele>705.75</ele>
        <time>2014-12-07T05:34:35Z</time>
      </trkpt>
      <trkpt lat="45.96295" lon="3.89915">
        <ele>705.26</ele>
        <time>2014-12-07T05:34:40Z</time>
      </trkpt>
      <trkpt lat="45.96296" lon="3.89924">
        <ele>704.78</ele>
        <time>2014-12-07T05:34:45Z</time>
      </trkpt>
      <trkpt lat="45.96296" lon="3.89928">
        <ele>704.78</ele>
        <time>2014-12-07T05:34:48Z</time>
      </trkpt>
      <trkpt lat="45.96298" lon="3.89959">
        <ele>703.34</ele>
        <time>2014-12-07T05:35:03Z</time>
      </trkpt>
      <trkpt lat="45.96295" lon="3.8998">
        <ele>702.38</ele>
        <time>2014-12-07T05:35:16Z</time>
      </trkpt>
      <trkpt lat="45.96294" lon="3.89984">
        <ele>702.38</ele>
        <time>2014-12-07T05:35:19Z</time>
      </trkpt>
      <trkpt lat="45.96293" lon="3.89987">
        <ele>701.9</ele>
        <time>2014-12-07T05:35:21Z</time>
      </trkpt>
      <trkpt lat="45.96295" lon="3.89997">
        <ele>701.42</ele>
        <time>2014-12-07T05:35:27Z</time>
      </trkpt>
      <trkpt lat="45.96294" lon="3.90006">
        <ele>700.94</ele>
        <time>2014-12-07T05:35:31Z</time>
      </trkpt>
      <trkpt lat="45.96293" lon="3.9001">
        <ele>699.98</ele>
        <time>2014-12-07T05:35:33Z</time>
      </trkpt>
      <trkpt lat="45.96289" lon="3.90026">
        <ele>699.98</ele>
        <time>2014-12-07T05:35:41Z</time>
      </trkpt>
      <trkpt lat="45.96292" lon="3.90066">
        <ele>699.98</ele>
        <time>2014-12-07T05:35:55Z</time>
      </trkpt>
      <trkpt lat="45.96297" lon="3.90084">
        <ele>699.5</ele>
        <time>2014-12-07T05:36:02Z</time>
      </trkpt>
      <trkpt lat="45.96304" lon="3.9011">
        <ele>698.53</ele>
        <time>2014-12-07T05:36:13Z</time>
      </trkpt>
      <trkpt lat="45.96303" lon="3.90124">
        <ele>698.53</ele>
        <time>2014-12-07T05:36:19Z</time>
      </trkpt>
      <trkpt lat="45.96299" lon="3.90161">
        <ele>694.69</ele>
        <time>2014-12-07T05:36:29Z</time>
      </trkpt>
      <trkpt lat="45.96304" lon="3.90205">
        <ele>691.33</ele>
        <time>2014-12-07T05:36:41Z</time>
      </trkpt>
      <trkpt lat="45.96317" lon="3.90248">
        <ele>690.36</ele>
        <time>2014-12-07T05:36:52Z</time>
      </trkpt>
      <trkpt lat="45.96329" lon="3.90292">
        <ele>688.92</ele>
        <time>2014-12-07T05:37:03Z</time>
      </trkpt>
      <trkpt lat="45.96338" lon="3.90333">
        <ele>687</ele>
        <time>2014-12-07T05:37:13Z</time>
      </trkpt>
      <trkpt lat="45.96347" lon="3.90379">
        <ele>685.56</ele>
        <time>2014-12-07T05:37:24Z</time>
      </trkpt>
      <trkpt lat="45.96349" lon="3.90388">
        <ele>685.08</ele>
        <time>2014-12-07T05:37:26Z</time>
      </trkpt>
      <trkpt lat="45.96357" lon="3.90409">
        <ele>684.6</ele>
        <time>2014-12-07T05:37:31Z</time>
      </trkpt>
      <trkpt lat="45.96366" lon="3.90431">
        <ele>682.67</ele>
        <time>2014-12-07T05:37:37Z</time>
      </trkpt>
      <trkpt lat="45.96383" lon="3.90466">
        <ele>679.79</ele>
        <time>2014-12-07T05:37:47Z</time>
      </trkpt>
      <trkpt lat="45.96397" lon="3.90498">
        <ele>677.87</ele>
        <time>2014-12-07T05:37:56Z</time>
      </trkpt>
      <trkpt lat="45.96409" lon="3.90525">
        <ele>677.39</ele>
        <time>2014-12-07T05:38:05Z</time>
      </trkpt>
      <trkpt lat="45.96426" lon="3.90562">
        <ele>676.42</ele>
        <time>2014-12-07T05:38:16Z</time>
      </trkpt>
      <trkpt lat="45.9644" lon="3.90592">
        <ele>675.46</ele>
        <time>2014-12-07T05:38:26Z</time>
      </trkpt>
      <trkpt lat="45.96449" lon="3.90613">
        <ele>674.98</ele>
        <time>2014-12-07T05:38:38Z</time>
      </trkpt>
      <trkpt lat="45.96458" lon="3.90638">
        <ele>675.46</ele>
        <time>2014-12-07T05:38:53Z</time>
      </trkpt>
      <trkpt lat="45.96466" lon="3.90657">
        <ele>675.46</ele>
        <time>2014-12-07T05:39:03Z</time>
      </trkpt>
      <trkpt lat="45.96471" lon="3.90666">
        <ele>674.5</ele>
        <time>2014-12-07T05:39:07Z</time>
      </trkpt>
      <trkpt lat="45.96482" lon="3.90678">
        <ele>677.39</ele>
        <time>2014-12-07T05:39:18Z</time>
      </trkpt>
      <trkpt lat="45.96485" lon="3.9068">
        <ele>677.87</ele>
        <time>2014-12-07T05:39:23Z</time>
      </trkpt>
      <trkpt lat="45.96484" lon="3.90693">
        <ele>680.27</ele>
        <time>2014-12-07T05:39:30Z</time>
      </trkpt>
      <trkpt lat="45.96486" lon="3.90699">
        <ele>676.42</ele>
        <time>2014-12-07T05:39:34Z</time>
      </trkpt>
      <trkpt lat="45.96487" lon="3.907">
        <ele>679.79</ele>
        <time>2014-12-07T05:39:35Z</time>
      </trkpt>
      <trkpt lat="45.96488" lon="3.90709">
        <ele>681.23</ele>
        <time>2014-12-07T05:39:40Z</time>
      </trkpt>
      <trkpt lat="45.96487" lon="3.90715">
        <ele>680.75</ele>
        <time>2014-12-07T05:39:44Z</time>
      </trkpt>
      <trkpt lat="45.96493" lon="3.90735">
        <ele>681.71</ele>
        <time>2014-12-07T05:39:56Z</time>
      </trkpt>
      <trkpt lat="45.965" lon="3.90737">
        <ele>683.15</ele>
        <time>2014-12-07T05:40:02Z</time>
      </trkpt>
      <trkpt lat="45.96508" lon="3.90742">
        <ele>683.63</ele>
        <time>2014-12-07T05:40:12Z</time>
      </trkpt>
      <trkpt lat="45.9651" lon="3.90752">
        <ele>682.67</ele>
        <time>2014-12-07T05:40:17Z</time>
      </trkpt>
      <trkpt lat="45.96516" lon="3.90761">
        <ele>682.19</ele>
        <time>2014-12-07T05:40:22Z</time>
      </trkpt>
      <trkpt lat="45.96543" lon="3.90778">
        <ele>682.19</ele>
        <time>2014-12-07T05:40:41Z</time>
      </trkpt>
      <trkpt lat="45.96544" lon="3.90779">
        <ele>682.19</ele>
        <time>2014-12-07T05:40:42Z</time>
      </trkpt>
      <trkpt lat="45.96547" lon="3.90779">
        <ele>682.19</ele>
        <time>2014-12-07T05:40:45Z</time>
      </trkpt>
      <trkpt lat="45.96565" lon="3.90791">
        <ele>683.63</ele>
        <time>2014-12-07T05:41:00Z</time>
      </trkpt>
      <trkpt lat="45.96567" lon="3.90812">
        <ele>680.75</ele>
        <time>2014-12-07T05:41:12Z</time>
      </trkpt>
      <trkpt lat="45.96565" lon="3.90827">
        <ele>679.31</ele>
        <time>2014-12-07T05:41:20Z</time>
      </trkpt>
      <trkpt lat="45.96564" lon="3.90834">
        <ele>678.83</ele>
        <time>2014-12-07T05:41:24Z</time>
      </trkpt>
      <trkpt lat="45.96561" lon="3.90848">
        <ele>677.87</ele>
        <time>2014-12-07T05:41:30Z</time>
      </trkpt>
      <trkpt lat="45.96558" lon="3.90858">
        <ele>676.91</ele>
        <time>2014-12-07T05:41:35Z</time>
      </trkpt>
      <trkpt lat="45.96558" lon="3.90861">
        <ele>676.42</ele>
        <time>2014-12-07T05:41:38Z</time>
      </trkpt>
      <trkpt lat="45.96548" lon="3.90888">
        <ele>674.5</ele>
        <time>2014-12-07T05:41:54Z</time>
      </trkpt>
      <trkpt lat="45.96533" lon="3.9088">
        <ele>674.5</ele>
        <time>2014-12-07T05:42:08Z</time>
      </trkpt>
      <trkpt lat="45.96521" lon="3.90868">
        <ele>674.5</ele>
        <time>2014-12-07T05:42:21Z</time>
      </trkpt>
      <trkpt lat="45.96514" lon="3.90861">
        <ele>674.5</ele>
        <time>2014-12-07T05:42:34Z</time>
      </trkpt>
      <trkpt lat="45.96514" lon="3.90861">
        <ele>674.5</ele>
        <time>2014-12-07T05:42:54Z</time>
      </trkpt>
      <trkpt lat="45.96512" lon="3.9086">
        <ele>674.5</ele>
        <time>2014-12-07T05:43:17Z</time>
      </trkpt>
      <trkpt lat="45.96508" lon="3.9086">
        <ele>674.5</ele>
        <time>2014-12-07T05:43:37Z</time>
      </trkpt>
      <trkpt lat="45.96508" lon="3.9086">
        <ele>674.5</ele>
        <time>2014-12-07T05:44:00Z</time>
      </trkpt>
      <trkpt lat="45.96504" lon="3.90858">
        <ele>674.98</ele>
        <time>2014-12-07T05:44:28Z</time>
      </trkpt>
      <trkpt lat="45.96504" lon="3.90857">
        <ele>674.5</ele>
        <time>2014-12-07T05:44:58Z</time>
      </trkpt>
      <trkpt lat="45.96503" lon="3.90858">
        <ele>674.02</ele>
        <time>2014-12-07T05:45:21Z</time>
      </trkpt>
      <trkpt lat="45.96501" lon="3.90858">
        <ele>674.02</ele>
        <time>2014-12-07T05:45:42Z</time>
      </trkpt>
      <trkpt lat="45.9649" lon="3.90855">
        <ele>673.54</ele>
        <time>2014-12-07T05:46:07Z</time>
      </trkpt>
      <trkpt lat="45.96543" lon="3.90858">
        <ele>673.06</ele>
        <time>2014-12-07T05:46:35Z</time>
      </trkpt>
      <trkpt lat="45.96546" lon="3.90863">
        <ele>674.02</ele>
        <time>2014-12-07T05:46:38Z</time>
      </trkpt>
      <trkpt lat="45.96529" lon="3.90863">
        <ele>674.02</ele>
        <time>2014-12-07T05:46:54Z</time>
      </trkpt>
      <trkpt lat="45.9652" lon="3.90862">
        <ele>674.02</ele>
        <time>2014-12-07T05:47:13Z</time>
      </trkpt>
      <trkpt lat="45.96516" lon="3.90865">
        <ele>674.02</ele>
        <time>2014-12-07T05:47:15Z</time>
      </trkpt>
      <trkpt lat="45.96518" lon="3.90881">
        <ele>674.02</ele>
        <time>2014-12-07T05:47:31Z</time>
      </trkpt>
      <trkpt lat="45.96513" lon="3.90876">
        <ele>671.62</ele>
        <time>2014-12-07T05:47:42Z</time>
      </trkpt>
      <trkpt lat="45.96512" lon="3.90882">
        <ele>671.14</ele>
        <time>2014-12-07T05:47:45Z</time>
      </trkpt>
      <trkpt lat="45.96517" lon="3.90905">
        <ele>670.18</ele>
        <time>2014-12-07T05:47:57Z</time>
      </trkpt>
      <trkpt lat="45.96517" lon="3.90927">
        <ele>670.18</ele>
        <time>2014-12-07T05:48:09Z</time>
      </trkpt>
      <trkpt lat="45.96508" lon="3.90931">
        <ele>669.22</ele>
        <time>2014-12-07T05:48:15Z</time>
      </trkpt>
      <trkpt lat="45.965" lon="3.90931">
        <ele>668.73</ele>
        <time>2014-12-07T05:48:19Z</time>
      </trkpt>
      <trkpt lat="45.96491" lon="3.90929">
        <ele>668.25</ele>
        <time>2014-12-07T05:48:24Z</time>
      </trkpt>
      <trkpt lat="45.9649" lon="3.90927">
        <ele>667.77</ele>
        <time>2014-12-07T05:48:26Z</time>
      </trkpt>
      <trkpt lat="45.96487" lon="3.90907">
        <ele>666.33</ele>
        <time>2014-12-07T05:48:36Z</time>
      </trkpt>
      <trkpt lat="45.96487" lon="3.90899">
        <ele>665.37</ele>
        <time>2014-12-07T05:48:40Z</time>
      </trkpt>
      <trkpt lat="45.96485" lon="3.90892">
        <ele>664.89</ele>
        <time>2014-12-07T05:48:43Z</time>
      </trkpt>
      <trkpt lat="45.96481" lon="3.9089">
        <ele>663.45</ele>
        <time>2014-12-07T05:48:47Z</time>
      </trkpt>
      <trkpt lat="45.96472" lon="3.90924">
        <ele>662.01</ele>
        <time>2014-12-07T05:49:04Z</time>
      </trkpt>
      <trkpt lat="45.96471" lon="3.90943">
        <ele>660.56</ele>
        <time>2014-12-07T05:49:12Z</time>
      </trkpt>
      <trkpt lat="45.96469" lon="3.90962">
        <ele>659.6</ele>
        <time>2014-12-07T05:49:21Z</time>
      </trkpt>
      <trkpt lat="45.96465" lon="3.90987">
        <ele>657.68</ele>
        <time>2014-12-07T05:49:32Z</time>
      </trkpt>
      <trkpt lat="45.96465" lon="3.90991">
        <ele>657.68</ele>
        <time>2014-12-07T05:49:33Z</time>
      </trkpt>
      <trkpt lat="45.96462" lon="3.91005">
        <ele>656.24</ele>
        <time>2014-12-07T05:49:39Z</time>
      </trkpt>
      <trkpt lat="45.96464" lon="3.91009">
        <ele>655.76</ele>
        <time>2014-12-07T05:49:42Z</time>
      </trkpt>
      <trkpt lat="45.96463" lon="3.91015">
        <ele>655.28</ele>
        <time>2014-12-07T05:49:45Z</time>
      </trkpt>
      <trkpt lat="45.96449" lon="3.91044">
        <ele>653.35</ele>
        <time>2014-12-07T05:50:02Z</time>
      </trkpt>
      <trkpt lat="45.96461" lon="3.91096">
        <ele>652.87</ele>
        <time>2014-12-07T05:50:16Z</time>
      </trkpt>
      <trkpt lat="45.96464" lon="3.91111">
        <ele>652.87</ele>
        <time>2014-12-07T05:50:23Z</time>
      </trkpt>
      <trkpt lat="45.96464" lon="3.9112">
        <ele>652.39</ele>
        <time>2014-12-07T05:50:27Z</time>
      </trkpt>
      <trkpt lat="45.96456" lon="3.91143">
        <ele>653.83</ele>
        <time>2014-12-07T05:50:38Z</time>
      </trkpt>
      <trkpt lat="45.96455" lon="3.91146">
        <ele>651.43</ele>
        <time>2014-12-07T05:50:39Z</time>
      </trkpt>
      <trkpt lat="45.96454" lon="3.91147">
        <ele>652.87</ele>
        <time>2014-12-07T05:50:40Z</time>
      </trkpt>
      <trkpt lat="45.9645" lon="3.91155">
        <ele>650.95</ele>
        <time>2014-12-07T05:50:43Z</time>
      </trkpt>
      <trkpt lat="45.96449" lon="3.91158">
        <ele>647.1</ele>
        <time>2014-12-07T05:50:44Z</time>
      </trkpt>
      <trkpt lat="45.96448" lon="3.9116">
        <ele>654.31</ele>
        <time>2014-12-07T05:50:45Z</time>
      </trkpt>
      <trkpt lat="45.96447" lon="3.91163">
        <ele>649.99</ele>
        <time>2014-12-07T05:50:47Z</time>
      </trkpt>
      <trkpt lat="45.96446" lon="3.91165">
        <ele>650.47</ele>
        <time>2014-12-07T05:50:48Z</time>
      </trkpt>
      <trkpt lat="45.96438" lon="3.91185">
        <ele>651.43</ele>
        <time>2014-12-07T05:50:57Z</time>
      </trkpt>
      <trkpt lat="45.96437" lon="3.91186">
        <ele>650.95</ele>
        <time>2014-12-07T05:50:58Z</time>
      </trkpt>
      <trkpt lat="45.96429" lon="3.91207">
        <ele>650.95</ele>
        <time>2014-12-07T05:51:09Z</time>
      </trkpt>
      <trkpt lat="45.96424" lon="3.91232">
        <ele>650.47</ele>
        <time>2014-12-07T05:51:19Z</time>
      </trkpt>
      <trkpt lat="45.96423" lon="3.91236">
        <ele>650.95</ele>
        <time>2014-12-07T05:51:21Z</time>
      </trkpt>
      <trkpt lat="45.96422" lon="3.91244">
        <ele>649.99</ele>
        <time>2014-12-07T05:51:24Z</time>
      </trkpt>
      <trkpt lat="45.96415" lon="3.91272">
        <ele>650.47</ele>
        <time>2014-12-07T05:51:36Z</time>
      </trkpt>
      <trkpt lat="45.96411" lon="3.9129">
        <ele>649.51</ele>
        <time>2014-12-07T05:51:45Z</time>
      </trkpt>
      <trkpt lat="45.96409" lon="3.91304">
        <ele>649.03</ele>
        <time>2014-12-07T05:51:52Z</time>
      </trkpt>
      <trkpt lat="45.96407" lon="3.91311">
        <ele>649.03</ele>
        <time>2014-12-07T05:51:55Z</time>
      </trkpt>
      <trkpt lat="45.96404" lon="3.91323">
        <ele>648.55</ele>
        <time>2014-12-07T05:52:01Z</time>
      </trkpt>
      <trkpt lat="45.96403" lon="3.91327">
        <ele>648.07</ele>
        <time>2014-12-07T05:52:03Z</time>
      </trkpt>
      <trkpt lat="45.96395" lon="3.91345">
        <ele>647.59</ele>
        <time>2014-12-07T05:52:12Z</time>
      </trkpt>
      <trkpt lat="45.9638" lon="3.91376">
        <ele>645.18</ele>
        <time>2014-12-07T05:52:27Z</time>
      </trkpt>
      <trkpt lat="45.96371" lon="3.91408">
        <ele>644.22</ele>
        <time>2014-12-07T05:52:40Z</time>
      </trkpt>
      <trkpt lat="45.9637" lon="3.91409">
        <ele>644.22</ele>
        <time>2014-12-07T05:52:41Z</time>
      </trkpt>
      <trkpt lat="45.96368" lon="3.91413">
        <ele>644.22</ele>
        <time>2014-12-07T05:52:43Z</time>
      </trkpt>
      <trkpt lat="45.96368" lon="3.91416">
        <ele>644.22</ele>
        <time>2014-12-07T05:52:44Z</time>
      </trkpt>
      <trkpt lat="45.96341" lon="3.91442">
        <ele>643.26</ele>
        <time>2014-12-07T05:52:58Z</time>
      </trkpt>
      <trkpt lat="45.96329" lon="3.91453">
        <ele>642.78</ele>
        <time>2014-12-07T05:53:04Z</time>
      </trkpt>
      <trkpt lat="45.96324" lon="3.91473">
        <ele>642.78</ele>
        <time>2014-12-07T05:53:10Z</time>
      </trkpt>
      <trkpt lat="45.96319" lon="3.91485">
        <ele>642.3</ele>
        <time>2014-12-07T05:53:15Z</time>
      </trkpt>
      <trkpt lat="45.96316" lon="3.91496">
        <ele>642.78</ele>
        <time>2014-12-07T05:53:20Z</time>
      </trkpt>
      <trkpt lat="45.96317" lon="3.91531">
        <ele>645.18</ele>
        <time>2014-12-07T05:53:34Z</time>
      </trkpt>
      <trkpt lat="45.96317" lon="3.91553">
        <ele>646.62</ele>
        <time>2014-12-07T05:53:45Z</time>
      </trkpt>
      <trkpt lat="45.96318" lon="3.91555">
        <ele>647.1</ele>
        <time>2014-12-07T05:53:46Z</time>
      </trkpt>
      <trkpt lat="45.96336" lon="3.91576">
        <ele>649.99</ele>
        <time>2014-12-07T05:54:02Z</time>
      </trkpt>
      <trkpt lat="45.96354" lon="3.91586">
        <ele>651.43</ele>
        <time>2014-12-07T05:54:13Z</time>
      </trkpt>
      <trkpt lat="45.96374" lon="3.91596">
        <ele>652.87</ele>
        <time>2014-12-07T05:54:25Z</time>
      </trkpt>
      <trkpt lat="45.96395" lon="3.91607">
        <ele>655.76</ele>
        <time>2014-12-07T05:54:40Z</time>
      </trkpt>
      <trkpt lat="45.96415" lon="3.91615">
        <ele>657.68</ele>
        <time>2014-12-07T05:54:54Z</time>
      </trkpt>
      <trkpt lat="45.96417" lon="3.91616">
        <ele>657.68</ele>
        <time>2014-12-07T05:54:55Z</time>
      </trkpt>
      <trkpt lat="45.96426" lon="3.9162">
        <ele>658.64</ele>
        <time>2014-12-07T05:55:01Z</time>
      </trkpt>
      <trkpt lat="45.96433" lon="3.91625">
        <ele>659.6</ele>
        <time>2014-12-07T05:55:07Z</time>
      </trkpt>
      <trkpt lat="45.96455" lon="3.91641">
        <ele>662.49</ele>
        <time>2014-12-07T05:55:22Z</time>
      </trkpt>
      <trkpt lat="45.96474" lon="3.91661">
        <ele>664.41</ele>
        <time>2014-12-07T05:55:37Z</time>
      </trkpt>
      <trkpt lat="45.96493" lon="3.91677">
        <ele>666.81</ele>
        <time>2014-12-07T05:55:51Z</time>
      </trkpt>
      <trkpt lat="45.96501" lon="3.91685">
        <ele>668.25</ele>
        <time>2014-12-07T05:55:58Z</time>
      </trkpt>
      <trkpt lat="45.96504" lon="3.91688">
        <ele>669.22</ele>
        <time>2014-12-07T05:56:02Z</time>
      </trkpt>
      <trkpt lat="45.96512" lon="3.91703">
        <ele>671.62</ele>
        <time>2014-12-07T05:56:17Z</time>
      </trkpt>
      <trkpt lat="45.96516" lon="3.91708">
        <ele>672.58</ele>
        <time>2014-12-07T05:56:21Z</time>
      </trkpt>
      <trkpt lat="45.96521" lon="3.91714">
        <ele>673.54</ele>
        <time>2014-12-07T05:56:25Z</time>
      </trkpt>
      <trkpt lat="45.96538" lon="3.9173">
        <ele>675.46</ele>
        <time>2014-12-07T05:56:38Z</time>
      </trkpt>
      <trkpt lat="45.96547" lon="3.91738">
        <ele>675.94</ele>
        <time>2014-12-07T05:56:44Z</time>
      </trkpt>
      <trkpt lat="45.96552" lon="3.91744">
        <ele>676.42</ele>
        <time>2014-12-07T05:56:48Z</time>
      </trkpt>
      <trkpt lat="45.96569" lon="3.91759">
        <ele>677.87</ele>
        <time>2014-12-07T05:56:59Z</time>
      </trkpt>
      <trkpt lat="45.96583" lon="3.91778">
        <ele>679.79</ele>
        <time>2014-12-07T05:57:12Z</time>
      </trkpt>
      <trkpt lat="45.96599" lon="3.91796">
        <ele>681.23</ele>
        <time>2014-12-07T05:57:26Z</time>
      </trkpt>
      <trkpt lat="45.96614" lon="3.91816">
        <ele>683.15</ele>
        <time>2014-12-07T05:57:38Z</time>
      </trkpt>
      <trkpt lat="45.96627" lon="3.91829">
        <ele>682.67</ele>
        <time>2014-12-07T05:57:48Z</time>
      </trkpt>
      <trkpt lat="45.96629" lon="3.91832">
        <ele>685.08</ele>
        <time>2014-12-07T05:57:50Z</time>
      </trkpt>
      <trkpt lat="45.96649" lon="3.91852">
        <ele>686.04</ele>
        <time>2014-12-07T05:58:07Z</time>
      </trkpt>
      <trkpt lat="45.96655" lon="3.91859">
        <ele>687</ele>
        <time>2014-12-07T05:58:14Z</time>
      </trkpt>
      <trkpt lat="45.96659" lon="3.91861">
        <ele>687.96</ele>
        <time>2014-12-07T05:58:17Z</time>
      </trkpt>
      <trkpt lat="45.96667" lon="3.91865">
        <ele>687.96</ele>
        <time>2014-12-07T05:58:22Z</time>
      </trkpt>
      <trkpt lat="45.96693" lon="3.91877">
        <ele>689.88</ele>
        <time>2014-12-07T05:58:38Z</time>
      </trkpt>
      <trkpt lat="45.96714" lon="3.91889">
        <ele>691.33</ele>
        <time>2014-12-07T05:58:51Z</time>
      </trkpt>
      <trkpt lat="45.96732" lon="3.91901">
        <ele>692.77</ele>
        <time>2014-12-07T05:59:04Z</time>
      </trkpt>
      <trkpt lat="45.96749" lon="3.91912">
        <ele>694.21</ele>
        <time>2014-12-07T05:59:16Z</time>
      </trkpt>
      <trkpt lat="45.96765" lon="3.91923">
        <ele>696.61</ele>
        <time>2014-12-07T05:59:28Z</time>
      </trkpt>
      <trkpt lat="45.96785" lon="3.91936">
        <ele>699.02</ele>
        <time>2014-12-07T05:59:43Z</time>
      </trkpt>
      <trkpt lat="45.96803" lon="3.91945">
        <ele>700.94</ele>
        <time>2014-12-07T05:59:56Z</time>
      </trkpt>
      <trkpt lat="45.96807" lon="3.91947">
        <ele>700.94</ele>
        <time>2014-12-07T05:59:59Z</time>
      </trkpt>
      <trkpt lat="45.96825" lon="3.91952">
        <ele>703.34</ele>
        <time>2014-12-07T06:00:12Z</time>
      </trkpt>
      <trkpt lat="45.96827" lon="3.91951">
        <ele>703.82</ele>
        <time>2014-12-07T06:00:14Z</time>
      </trkpt>
      <trkpt lat="45.96833" lon="3.9195">
        <ele>704.78</ele>
        <time>2014-12-07T06:00:19Z</time>
      </trkpt>
      <trkpt lat="45.9685" lon="3.91952">
        <ele>708.15</ele>
        <time>2014-12-07T06:00:31Z</time>
      </trkpt>
      <trkpt lat="45.96863" lon="3.91949">
        <ele>709.59</ele>
        <time>2014-12-07T06:00:39Z</time>
      </trkpt>
      <trkpt lat="45.96877" lon="3.91949">
        <ele>711.99</ele>
        <time>2014-12-07T06:00:52Z</time>
      </trkpt>
      <trkpt lat="45.96883" lon="3.91947">
        <ele>712.95</ele>
        <time>2014-12-07T06:00:57Z</time>
      </trkpt>
      <trkpt lat="45.96903" lon="3.91951">
        <ele>716.32</ele>
        <time>2014-12-07T06:01:13Z</time>
      </trkpt>
      <trkpt lat="45.96905" lon="3.91951">
        <ele>716.8</ele>
        <time>2014-12-07T06:01:15Z</time>
      </trkpt>
      <trkpt lat="45.96926" lon="3.91956">
        <ele>719.2</ele>
        <time>2014-12-07T06:01:29Z</time>
      </trkpt>
      <trkpt lat="45.96944" lon="3.91962">
        <ele>721.13</ele>
        <time>2014-12-07T06:01:43Z</time>
      </trkpt>
      <trkpt lat="45.96963" lon="3.91971">
        <ele>724.01</ele>
        <time>2014-12-07T06:01:58Z</time>
      </trkpt>
      <trkpt lat="45.96979" lon="3.91982">
        <ele>726.89</ele>
        <time>2014-12-07T06:02:12Z</time>
      </trkpt>
      <trkpt lat="45.96989" lon="3.91988">
        <ele>728.82</ele>
        <time>2014-12-07T06:02:21Z</time>
      </trkpt>
      <trkpt lat="45.97006" lon="3.92003">
        <ele>731.7</ele>
        <time>2014-12-07T06:02:37Z</time>
      </trkpt>
      <trkpt lat="45.97026" lon="3.92018">
        <ele>734.1</ele>
        <time>2014-12-07T06:02:52Z</time>
      </trkpt>
      <trkpt lat="45.97044" lon="3.92035">
        <ele>736.03</ele>
        <time>2014-12-07T06:03:05Z</time>
      </trkpt>
      <trkpt lat="45.97062" lon="3.92049">
        <ele>737.95</ele>
        <time>2014-12-07T06:03:19Z</time>
      </trkpt>
      <trkpt lat="45.9707" lon="3.92055">
        <ele>738.91</ele>
        <time>2014-12-07T06:03:25Z</time>
      </trkpt>
      <trkpt lat="45.97073" lon="3.92058">
        <ele>739.39</ele>
        <time>2014-12-07T06:03:28Z</time>
      </trkpt>
      <trkpt lat="45.97091" lon="3.92073">
        <ele>741.31</ele>
        <time>2014-12-07T06:03:41Z</time>
      </trkpt>
      <trkpt lat="45.97111" lon="3.9209">
        <ele>743.72</ele>
        <time>2014-12-07T06:03:56Z</time>
      </trkpt>
      <trkpt lat="45.9713" lon="3.92107">
        <ele>745.64</ele>
        <time>2014-12-07T06:04:11Z</time>
      </trkpt>
      <trkpt lat="45.97148" lon="3.92129">
        <ele>747.56</ele>
        <time>2014-12-07T06:04:27Z</time>
      </trkpt>
      <trkpt lat="45.97164" lon="3.92151">
        <ele>749.97</ele>
        <time>2014-12-07T06:04:42Z</time>
      </trkpt>
      <trkpt lat="45.97173" lon="3.92174">
        <ele>750.93</ele>
        <time>2014-12-07T06:04:55Z</time>
      </trkpt>
      <trkpt lat="45.97182" lon="3.922">
        <ele>753.33</ele>
        <time>2014-12-07T06:05:09Z</time>
      </trkpt>
      <trkpt lat="45.97193" lon="3.92228">
        <ele>754.77</ele>
        <time>2014-12-07T06:05:24Z</time>
      </trkpt>
      <trkpt lat="45.97205" lon="3.92257">
        <ele>756.21</ele>
        <time>2014-12-07T06:05:39Z</time>
      </trkpt>
      <trkpt lat="45.97216" lon="3.92277">
        <ele>757.66</ele>
        <time>2014-12-07T06:05:51Z</time>
      </trkpt>
      <trkpt lat="45.97229" lon="3.9231">
        <ele>759.1</ele>
        <time>2014-12-07T06:06:09Z</time>
      </trkpt>
      <trkpt lat="45.9724" lon="3.92338">
        <ele>761.02</ele>
        <time>2014-12-07T06:06:23Z</time>
      </trkpt>
      <trkpt lat="45.97252" lon="3.92368">
        <ele>762.46</ele>
        <time>2014-12-07T06:06:39Z</time>
      </trkpt>
      <trkpt lat="45.97255" lon="3.92376">
        <ele>762.46</ele>
        <time>2014-12-07T06:06:43Z</time>
      </trkpt>
      <trkpt lat="45.97258" lon="3.92389">
        <ele>762.46</ele>
        <time>2014-12-07T06:06:50Z</time>
      </trkpt>
      <trkpt lat="45.97264" lon="3.92415">
        <ele>762.46</ele>
        <time>2014-12-07T06:07:02Z</time>
      </trkpt>
      <trkpt lat="45.97267" lon="3.92435">
        <ele>761.98</ele>
        <time>2014-12-07T06:07:12Z</time>
      </trkpt>
      <trkpt lat="45.97265" lon="3.92461">
        <ele>761.5</ele>
        <time>2014-12-07T06:07:27Z</time>
      </trkpt>
      <trkpt lat="45.97264" lon="3.92486">
        <ele>760.06</ele>
        <time>2014-12-07T06:07:40Z</time>
      </trkpt>
      <trkpt lat="45.97263" lon="3.92488">
        <ele>759.58</ele>
        <time>2014-12-07T06:07:41Z</time>
      </trkpt>
      <trkpt lat="45.97262" lon="3.92504">
        <ele>758.14</ele>
        <time>2014-12-07T06:07:49Z</time>
      </trkpt>
      <trkpt lat="45.97261" lon="3.92513">
        <ele>757.18</ele>
        <time>2014-12-07T06:07:53Z</time>
      </trkpt>
      <trkpt lat="45.97253" lon="3.92548">
        <ele>754.77</ele>
        <time>2014-12-07T06:08:09Z</time>
      </trkpt>
      <trkpt lat="45.97246" lon="3.92584">
        <ele>752.85</ele>
        <time>2014-12-07T06:08:25Z</time>
      </trkpt>
      <trkpt lat="45.97243" lon="3.92602">
        <ele>751.89</ele>
        <time>2014-12-07T06:08:33Z</time>
      </trkpt>
      <trkpt lat="45.97241" lon="3.92611">
        <ele>750.93</ele>
        <time>2014-12-07T06:08:38Z</time>
      </trkpt>
      <trkpt lat="45.97239" lon="3.9262">
        <ele>750.45</ele>
        <time>2014-12-07T06:08:42Z</time>
      </trkpt>
      <trkpt lat="45.97238" lon="3.92631">
        <ele>749.49</ele>
        <time>2014-12-07T06:08:48Z</time>
      </trkpt>
      <trkpt lat="45.97228" lon="3.92671">
        <ele>745.64</ele>
        <time>2014-12-07T06:09:02Z</time>
      </trkpt>
      <trkpt lat="45.9722" lon="3.92699">
        <ele>742.76</ele>
        <time>2014-12-07T06:09:11Z</time>
      </trkpt>
      <trkpt lat="45.97206" lon="3.92721">
        <ele>739.39</ele>
        <time>2014-12-07T06:09:20Z</time>
      </trkpt>
      <trkpt lat="45.97196" lon="3.92737">
        <ele>737.47</ele>
        <time>2014-12-07T06:09:27Z</time>
      </trkpt>
      <trkpt lat="45.97194" lon="3.92745">
        <ele>736.51</ele>
        <time>2014-12-07T06:09:31Z</time>
      </trkpt>
      <trkpt lat="45.97189" lon="3.92754">
        <ele>735.07</ele>
        <time>2014-12-07T06:09:35Z</time>
      </trkpt>
      <trkpt lat="45.97189" lon="3.92757">
        <ele>734.58</ele>
        <time>2014-12-07T06:09:36Z</time>
      </trkpt>
      <trkpt lat="45.97178" lon="3.92769">
        <ele>733.14</ele>
        <time>2014-12-07T06:09:42Z</time>
      </trkpt>
      <trkpt lat="45.97164" lon="3.92775">
        <ele>730.74</ele>
        <time>2014-12-07T06:09:47Z</time>
      </trkpt>
      <trkpt lat="45.97151" lon="3.92786">
        <ele>728.34</ele>
        <time>2014-12-07T06:09:54Z</time>
      </trkpt>
      <trkpt lat="45.97142" lon="3.92797">
        <ele>726.41</ele>
        <time>2014-12-07T06:10:00Z</time>
      </trkpt>
      <trkpt lat="45.97142" lon="3.92815">
        <ele>724.97</ele>
        <time>2014-12-07T06:10:06Z</time>
      </trkpt>
      <trkpt lat="45.97142" lon="3.92818">
        <ele>724.49</ele>
        <time>2014-12-07T06:10:07Z</time>
      </trkpt>
      <trkpt lat="45.97146" lon="3.92826">
        <ele>724.01</ele>
        <time>2014-12-07T06:10:10Z</time>
      </trkpt>
      <trkpt lat="45.97149" lon="3.92836">
        <ele>723.53</ele>
        <time>2014-12-07T06:10:13Z</time>
      </trkpt>
      <trkpt lat="45.97139" lon="3.92864">
        <ele>722.09</ele>
        <time>2014-12-07T06:10:21Z</time>
      </trkpt>
      <trkpt lat="45.97134" lon="3.92867">
        <ele>721.13</ele>
        <time>2014-12-07T06:10:23Z</time>
      </trkpt>
      <trkpt lat="45.97118" lon="3.92886">
        <ele>718.72</ele>
        <time>2014-12-07T06:10:32Z</time>
      </trkpt>
      <trkpt lat="45.97108" lon="3.92894">
        <ele>718.24</ele>
        <time>2014-12-07T06:10:34Z</time>
      </trkpt>
      <trkpt lat="45.97105" lon="3.92924">
        <ele>714.4</ele>
        <time>2014-12-07T06:10:44Z</time>
      </trkpt>
      <trkpt lat="45.97105" lon="3.92931">
        <ele>713.44</ele>
        <time>2014-12-07T06:10:47Z</time>
      </trkpt>
      <trkpt lat="45.97106" lon="3.92937">
        <ele>712.47</ele>
        <time>2014-12-07T06:10:50Z</time>
      </trkpt>
      <trkpt lat="45.9712" lon="3.92953">
        <ele>710.07</ele>
        <time>2014-12-07T06:10:57Z</time>
      </trkpt>
      <trkpt lat="45.97123" lon="3.92957">
        <ele>708.63</ele>
        <time>2014-12-07T06:10:59Z</time>
      </trkpt>
      <trkpt lat="45.97129" lon="3.92966">
        <ele>707.19</ele>
        <time>2014-12-07T06:11:03Z</time>
      </trkpt>
      <trkpt lat="45.97134" lon="3.92976">
        <ele>705.75</ele>
        <time>2014-12-07T06:11:08Z</time>
      </trkpt>
      <trkpt lat="45.97135" lon="3.9298">
        <ele>703.82</ele>
        <time>2014-12-07T06:11:10Z</time>
      </trkpt>
      <trkpt lat="45.9715" lon="3.92997">
        <ele>701.42</ele>
        <time>2014-12-07T06:11:17Z</time>
      </trkpt>
      <trkpt lat="45.97166" lon="3.93013">
        <ele>698.05</ele>
        <time>2014-12-07T06:11:24Z</time>
      </trkpt>
      <trkpt lat="45.9717" lon="3.93028">
        <ele>695.65</ele>
        <time>2014-12-07T06:11:30Z</time>
      </trkpt>
      <trkpt lat="45.97175" lon="3.93033">
        <ele>694.69</ele>
        <time>2014-12-07T06:11:33Z</time>
      </trkpt>
      <trkpt lat="45.9719" lon="3.93049">
        <ele>692.77</ele>
        <time>2014-12-07T06:11:39Z</time>
      </trkpt>
      <trkpt lat="45.97204" lon="3.93067">
        <ele>689.4</ele>
        <time>2014-12-07T06:11:47Z</time>
      </trkpt>
      <trkpt lat="45.97208" lon="3.93074">
        <ele>687.96</ele>
        <time>2014-12-07T06:11:50Z</time>
      </trkpt>
      <trkpt lat="45.97215" lon="3.93087">
        <ele>686.04</ele>
        <time>2014-12-07T06:11:55Z</time>
      </trkpt>
      <trkpt lat="45.97219" lon="3.93091">
        <ele>685.08</ele>
        <time>2014-12-07T06:11:57Z</time>
      </trkpt>
      <trkpt lat="45.97243" lon="3.93115">
        <ele>681.71</ele>
        <time>2014-12-07T06:12:06Z</time>
      </trkpt>
      <trkpt lat="45.97248" lon="3.9312">
        <ele>680.75</ele>
        <time>2014-12-07T06:12:08Z</time>
      </trkpt>
      <trkpt lat="45.97255" lon="3.93127">
        <ele>679.79</ele>
        <time>2014-12-07T06:12:11Z</time>
      </trkpt>
      <trkpt lat="45.97263" lon="3.93134">
        <ele>677.87</ele>
        <time>2014-12-07T06:12:14Z</time>
      </trkpt>
      <trkpt lat="45.97275" lon="3.93143">
        <ele>675.94</ele>
        <time>2014-12-07T06:12:21Z</time>
      </trkpt>
      <trkpt lat="45.97284" lon="3.93152">
        <ele>674.02</ele>
        <time>2014-12-07T06:12:25Z</time>
      </trkpt>
      <trkpt lat="45.97307" lon="3.93173">
        <ele>671.62</ele>
        <time>2014-12-07T06:12:32Z</time>
      </trkpt>
      <trkpt lat="45.97323" lon="3.93185">
        <ele>668.73</ele>
        <time>2014-12-07T06:12:40Z</time>
      </trkpt>
      <trkpt lat="45.97345" lon="3.93201">
        <ele>665.85</ele>
        <time>2014-12-07T06:12:49Z</time>
      </trkpt>
      <trkpt lat="45.97364" lon="3.93217">
        <ele>662.97</ele>
        <time>2014-12-07T06:12:56Z</time>
      </trkpt>
      <trkpt lat="45.97382" lon="3.93228">
        <ele>661.04</ele>
        <time>2014-12-07T06:13:02Z</time>
      </trkpt>
      <trkpt lat="45.97391" lon="3.93234">
        <ele>659.6</ele>
        <time>2014-12-07T06:13:05Z</time>
      </trkpt>
      <trkpt lat="45.97395" lon="3.93236">
        <ele>658.64</ele>
        <time>2014-12-07T06:13:07Z</time>
      </trkpt>
      <trkpt lat="45.97433" lon="3.93257">
        <ele>655.28</ele>
        <time>2014-12-07T06:13:17Z</time>
      </trkpt>
      <trkpt lat="45.9744" lon="3.93263">
        <ele>654.31</ele>
        <time>2014-12-07T06:13:20Z</time>
      </trkpt>
      <trkpt lat="45.97446" lon="3.93275">
        <ele>652.87</ele>
        <time>2014-12-07T06:13:24Z</time>
      </trkpt>
      <trkpt lat="45.97453" lon="3.93289">
        <ele>650.47</ele>
        <time>2014-12-07T06:13:32Z</time>
      </trkpt>
      <trkpt lat="45.97462" lon="3.93303">
        <ele>649.03</ele>
        <time>2014-12-07T06:13:37Z</time>
      </trkpt>
      <trkpt lat="45.97467" lon="3.9331">
        <ele>648.07</ele>
        <time>2014-12-07T06:13:39Z</time>
      </trkpt>
      <trkpt lat="45.97477" lon="3.93319">
        <ele>646.62</ele>
        <time>2014-12-07T06:13:42Z</time>
      </trkpt>
      <trkpt lat="45.97496" lon="3.93335">
        <ele>644.7</ele>
        <time>2014-12-07T06:13:49Z</time>
      </trkpt>
      <trkpt lat="45.97511" lon="3.93357">
        <ele>641.34</ele>
        <time>2014-12-07T06:13:58Z</time>
      </trkpt>
      <trkpt lat="45.97514" lon="3.93362">
        <ele>640.86</ele>
        <time>2014-12-07T06:14:00Z</time>
      </trkpt>
      <trkpt lat="45.97534" lon="3.93385">
        <ele>637.49</ele>
        <time>2014-12-07T06:14:09Z</time>
      </trkpt>
      <trkpt lat="45.97537" lon="3.93387">
        <ele>637.01</ele>
        <time>2014-12-07T06:14:10Z</time>
      </trkpt>
      <trkpt lat="45.97541" lon="3.93396">
        <ele>636.05</ele>
        <time>2014-12-07T06:14:13Z</time>
      </trkpt>
      <trkpt lat="45.97557" lon="3.93422">
        <ele>632.2</ele>
        <time>2014-12-07T06:14:22Z</time>
      </trkpt>
      <trkpt lat="45.97562" lon="3.93429">
        <ele>631.24</ele>
        <time>2014-12-07T06:14:24Z</time>
      </trkpt>
      <trkpt lat="45.97572" lon="3.93446">
        <ele>629.8</ele>
        <time>2014-12-07T06:14:28Z</time>
      </trkpt>
      <trkpt lat="45.97576" lon="3.93459">
        <ele>627.88</ele>
        <time>2014-12-07T06:14:33Z</time>
      </trkpt>
      <trkpt lat="45.97582" lon="3.93472">
        <ele>626.44</ele>
        <time>2014-12-07T06:14:37Z</time>
      </trkpt>
      <trkpt lat="45.97596" lon="3.93493">
        <ele>623.07</ele>
        <time>2014-12-07T06:14:44Z</time>
      </trkpt>
      <trkpt lat="45.97607" lon="3.93514">
        <ele>620.19</ele>
        <time>2014-12-07T06:14:51Z</time>
      </trkpt>
      <trkpt lat="45.97618" lon="3.93547">
        <ele>616.82</ele>
        <time>2014-12-07T06:14:58Z</time>
      </trkpt>
      <trkpt lat="45.97618" lon="3.93552">
        <ele>616.34</ele>
        <time>2014-12-07T06:14:59Z</time>
      </trkpt>
      <trkpt lat="45.97624" lon="3.93567">
        <ele>614.9</ele>
        <time>2014-12-07T06:15:02Z</time>
      </trkpt>
      <trkpt lat="45.97624" lon="3.93574">
        <ele>613.94</ele>
        <time>2014-12-07T06:15:04Z</time>
      </trkpt>
      <trkpt lat="45.97624" lon="3.93587">
        <ele>612.5</ele>
        <time>2014-12-07T06:15:08Z</time>
      </trkpt>
      <trkpt lat="45.97633" lon="3.93615">
        <ele>608.65</ele>
        <time>2014-12-07T06:15:17Z</time>
      </trkpt>
      <trkpt lat="45.97638" lon="3.93628">
        <ele>607.21</ele>
        <time>2014-12-07T06:15:20Z</time>
      </trkpt>
      <trkpt lat="45.9765" lon="3.93661">
        <ele>604.33</ele>
        <time>2014-12-07T06:15:29Z</time>
      </trkpt>
      <trkpt lat="45.97665" lon="3.93678">
        <ele>602.88</ele>
        <time>2014-12-07T06:15:34Z</time>
      </trkpt>
      <trkpt lat="45.97688" lon="3.93721">
        <ele>599.52</ele>
        <time>2014-12-07T06:15:43Z</time>
      </trkpt>
      <trkpt lat="45.97702" lon="3.93751">
        <ele>597.12</ele>
        <time>2014-12-07T06:15:51Z</time>
      </trkpt>
      <trkpt lat="45.97703" lon="3.93754">
        <ele>597.12</ele>
        <time>2014-12-07T06:15:52Z</time>
      </trkpt>
      <trkpt lat="45.97716" lon="3.93783">
        <ele>593.75</ele>
        <time>2014-12-07T06:16:02Z</time>
      </trkpt>
      <trkpt lat="45.97724" lon="3.93807">
        <ele>591.35</ele>
        <time>2014-12-07T06:16:11Z</time>
      </trkpt>
      <trkpt lat="45.97725" lon="3.93807">
        <ele>590.87</ele>
        <time>2014-12-07T06:16:12Z</time>
      </trkpt>
      <trkpt lat="45.9774" lon="3.93842">
        <ele>587.98</ele>
        <time>2014-12-07T06:16:24Z</time>
      </trkpt>
      <trkpt lat="45.97752" lon="3.93883">
        <ele>584.62</ele>
        <time>2014-12-07T06:16:35Z</time>
      </trkpt>
      <trkpt lat="45.97753" lon="3.939">
        <ele>584.14</ele>
        <time>2014-12-07T06:16:39Z</time>
      </trkpt>
      <trkpt lat="45.97755" lon="3.93904">
        <ele>583.18</ele>
        <time>2014-12-07T06:16:40Z</time>
      </trkpt>
      <trkpt lat="45.97778" lon="3.9396">
        <ele>580.77</ele>
        <time>2014-12-07T06:16:51Z</time>
      </trkpt>
      <trkpt lat="45.9779" lon="3.93989">
        <ele>578.37</ele>
        <time>2014-12-07T06:16:58Z</time>
      </trkpt>
      <trkpt lat="45.97798" lon="3.94015">
        <ele>576.93</ele>
        <time>2014-12-07T06:17:06Z</time>
      </trkpt>
      <trkpt lat="45.97818" lon="3.94064">
        <ele>574.04</ele>
        <time>2014-12-07T06:17:20Z</time>
      </trkpt>
      <trkpt lat="45.97822" lon="3.94072">
        <ele>573.56</ele>
        <time>2014-12-07T06:17:22Z</time>
      </trkpt>
      <trkpt lat="45.97826" lon="3.94122">
        <ele>571.16</ele>
        <time>2014-12-07T06:17:34Z</time>
      </trkpt>
      <trkpt lat="45.97824" lon="3.94161">
        <ele>569.24</ele>
        <time>2014-12-07T06:17:44Z</time>
      </trkpt>
      <trkpt lat="45.97821" lon="3.94175">
        <ele>568.28</ele>
        <time>2014-12-07T06:17:48Z</time>
      </trkpt>
      <trkpt lat="45.97824" lon="3.94178">
        <ele>567.8</ele>
        <time>2014-12-07T06:17:49Z</time>
      </trkpt>
      <trkpt lat="45.97823" lon="3.94187">
        <ele>567.32</ele>
        <time>2014-12-07T06:17:51Z</time>
      </trkpt>
      <trkpt lat="45.97822" lon="3.94204">
        <ele>566.35</ele>
        <time>2014-12-07T06:17:55Z</time>
      </trkpt>
      <trkpt lat="45.97824" lon="3.94211">
        <ele>565.87</ele>
        <time>2014-12-07T06:17:57Z</time>
      </trkpt>
      <trkpt lat="45.97822" lon="3.94251">
        <ele>562.51</ele>
        <time>2014-12-07T06:18:07Z</time>
      </trkpt>
      <trkpt lat="45.9782" lon="3.94256">
        <ele>562.03</ele>
        <time>2014-12-07T06:18:08Z</time>
      </trkpt>
      <trkpt lat="45.9781" lon="3.94296">
        <ele>559.62</ele>
        <time>2014-12-07T06:18:19Z</time>
      </trkpt>
      <trkpt lat="45.9781" lon="3.94306">
        <ele>559.14</ele>
        <time>2014-12-07T06:18:22Z</time>
      </trkpt>
      <trkpt lat="45.97811" lon="3.94316">
        <ele>558.66</ele>
        <time>2014-12-07T06:18:25Z</time>
      </trkpt>
      <trkpt lat="45.97819" lon="3.94355">
        <ele>557.7</ele>
        <time>2014-12-07T06:18:35Z</time>
      </trkpt>
      <trkpt lat="45.9782" lon="3.94359">
        <ele>557.7</ele>
        <time>2014-12-07T06:18:36Z</time>
      </trkpt>
      <trkpt lat="45.97823" lon="3.94383">
        <ele>556.26</ele>
        <time>2014-12-07T06:18:43Z</time>
      </trkpt>
      <trkpt lat="45.97827" lon="3.94405">
        <ele>555.3</ele>
        <time>2014-12-07T06:18:48Z</time>
      </trkpt>
      <trkpt lat="45.97837" lon="3.94446">
        <ele>553.86</ele>
        <time>2014-12-07T06:18:59Z</time>
      </trkpt>
      <trkpt lat="45.97837" lon="3.94448">
        <ele>553.86</ele>
        <time>2014-12-07T06:19:00Z</time>
      </trkpt>
      <trkpt lat="45.97833" lon="3.9446">
        <ele>552.41</ele>
        <time>2014-12-07T06:19:05Z</time>
      </trkpt>
      <trkpt lat="45.9783" lon="3.94502">
        <ele>549.53</ele>
        <time>2014-12-07T06:19:16Z</time>
      </trkpt>
      <trkpt lat="45.9782" lon="3.94533">
        <ele>546.65</ele>
        <time>2014-12-07T06:19:26Z</time>
      </trkpt>
      <trkpt lat="45.97804" lon="3.94568">
        <ele>543.28</ele>
        <time>2014-12-07T06:19:37Z</time>
      </trkpt>
      <trkpt lat="45.978" lon="3.94574">
        <ele>541.36</ele>
        <time>2014-12-07T06:19:40Z</time>
      </trkpt>
      <trkpt lat="45.97792" lon="3.94581">
        <ele>539.44</ele>
        <time>2014-12-07T06:19:44Z</time>
      </trkpt>
      <trkpt lat="45.97779" lon="3.94588">
        <ele>537.03</ele>
        <time>2014-12-07T06:19:49Z</time>
      </trkpt>
      <trkpt lat="45.97769" lon="3.94596">
        <ele>535.11</ele>
        <time>2014-12-07T06:19:55Z</time>
      </trkpt>
      <trkpt lat="45.97765" lon="3.94601">
        <ele>534.63</ele>
        <time>2014-12-07T06:19:58Z</time>
      </trkpt>
      <trkpt lat="45.97754" lon="3.94616">
        <ele>534.15</ele>
        <time>2014-12-07T06:20:03Z</time>
      </trkpt>
      <trkpt lat="45.97753" lon="3.94619">
        <ele>533.67</ele>
        <time>2014-12-07T06:20:04Z</time>
      </trkpt>
      <trkpt lat="45.97752" lon="3.9463">
        <ele>533.19</ele>
        <time>2014-12-07T06:20:09Z</time>
      </trkpt>
      <trkpt lat="45.97753" lon="3.94652">
        <ele>533.19</ele>
        <time>2014-12-07T06:20:23Z</time>
      </trkpt>
      <trkpt lat="45.97766" lon="3.94679">
        <ele>532.71</ele>
        <time>2014-12-07T06:20:37Z</time>
      </trkpt>
      <trkpt lat="45.97774" lon="3.94694">
        <ele>533.19</ele>
        <time>2014-12-07T06:20:49Z</time>
      </trkpt>
      <trkpt lat="45.97777" lon="3.94696">
        <ele>532.71</ele>
        <time>2014-12-07T06:20:54Z</time>
      </trkpt>
      <trkpt lat="45.97781" lon="3.94703">
        <ele>532.71</ele>
        <time>2014-12-07T06:21:00Z</time>
      </trkpt>
      <trkpt lat="45.97784" lon="3.94711">
        <ele>532.71</ele>
        <time>2014-12-07T06:21:04Z</time>
      </trkpt>
      <trkpt lat="45.97788" lon="3.94719">
        <ele>532.23</ele>
        <time>2014-12-07T06:21:10Z</time>
      </trkpt>
      <trkpt lat="45.97796" lon="3.94738">
        <ele>531.75</ele>
        <time>2014-12-07T06:21:22Z</time>
      </trkpt>
      <trkpt lat="45.97809" lon="3.94758">
        <ele>531.27</ele>
        <time>2014-12-07T06:21:34Z</time>
      </trkpt>
      <trkpt lat="45.97814" lon="3.94768">
        <ele>531.27</ele>
        <time>2014-12-07T06:21:40Z</time>
      </trkpt>
      <trkpt lat="45.97816" lon="3.94772">
        <ele>531.27</ele>
        <time>2014-12-07T06:21:43Z</time>
      </trkpt>
      <trkpt lat="45.97829" lon="3.94798">
        <ele>530.79</ele>
        <time>2014-12-07T06:21:58Z</time>
      </trkpt>
      <trkpt lat="45.97833" lon="3.94808">
        <ele>530.79</ele>
        <time>2014-12-07T06:22:04Z</time>
      </trkpt>
      <trkpt lat="45.97835" lon="3.94812">
        <ele>530.79</ele>
        <time>2014-12-07T06:22:07Z</time>
      </trkpt>
      <trkpt lat="45.97839" lon="3.94819">
        <ele>530.79</ele>
        <time>2014-12-07T06:22:11Z</time>
      </trkpt>
      <trkpt lat="45.97846" lon="3.9483">
        <ele>530.79</ele>
        <time>2014-12-07T06:22:18Z</time>
      </trkpt>
      <trkpt lat="45.97856" lon="3.94852">
        <ele>530.3</ele>
        <time>2014-12-07T06:22:32Z</time>
      </trkpt>
      <trkpt lat="45.97866" lon="3.94874">
        <ele>529.34</ele>
        <time>2014-12-07T06:22:47Z</time>
      </trkpt>
      <trkpt lat="45.97881" lon="3.94888">
        <ele>528.86</ele>
        <time>2014-12-07T06:23:01Z</time>
      </trkpt>
      <trkpt lat="45.97888" lon="3.94895">
        <ele>528.38</ele>
        <time>2014-12-07T06:23:08Z</time>
      </trkpt>
      <trkpt lat="45.97892" lon="3.94896">
        <ele>528.38</ele>
        <time>2014-12-07T06:23:12Z</time>
      </trkpt>
      <trkpt lat="45.97897" lon="3.94902">
        <ele>527.9</ele>
        <time>2014-12-07T06:23:24Z</time>
      </trkpt>
      <trkpt lat="45.97894" lon="3.94902">
        <ele>527.9</ele>
        <time>2014-12-07T06:23:28Z</time>
      </trkpt>
      <trkpt lat="45.97883" lon="3.94913">
        <ele>528.86</ele>
        <time>2014-12-07T06:23:40Z</time>
      </trkpt>
      <trkpt lat="45.97892" lon="3.94931">
        <ele>526.94</ele>
        <time>2014-12-07T06:23:51Z</time>
      </trkpt>
      <trkpt lat="45.97903" lon="3.94957">
        <ele>525.02</ele>
        <time>2014-12-07T06:24:06Z</time>
      </trkpt>
      <trkpt lat="45.97914" lon="3.94978">
        <ele>523.58</ele>
        <time>2014-12-07T06:24:18Z</time>
      </trkpt>
      <trkpt lat="45.97917" lon="3.94997">
        <ele>522.13</ele>
        <time>2014-12-07T06:24:30Z</time>
      </trkpt>
      <trkpt lat="45.97919" lon="3.95018">
        <ele>520.69</ele>
        <time>2014-12-07T06:24:43Z</time>
      </trkpt>
      <trkpt lat="45.97914" lon="3.95041">
        <ele>518.29</ele>
        <time>2014-12-07T06:24:56Z</time>
      </trkpt>
      <trkpt lat="45.97915" lon="3.95058">
        <ele>516.85</ele>
        <time>2014-12-07T06:25:06Z</time>
      </trkpt>
      <trkpt lat="45.97918" lon="3.95068">
        <ele>515.88</ele>
        <time>2014-12-07T06:25:14Z</time>
      </trkpt>
      <trkpt lat="45.97918" lon="3.95077">
        <ele>514.92</ele>
        <time>2014-12-07T06:25:21Z</time>
      </trkpt>
      <trkpt lat="45.97929" lon="3.95105">
        <ele>513</ele>
        <time>2014-12-07T06:25:31Z</time>
      </trkpt>
      <trkpt lat="45.97925" lon="3.95122">
        <ele>511.56</ele>
        <time>2014-12-07T06:25:39Z</time>
      </trkpt>
      <trkpt lat="45.97922" lon="3.9513">
        <ele>510.6</ele>
        <time>2014-12-07T06:25:43Z</time>
      </trkpt>
      <trkpt lat="45.97918" lon="3.95137">
        <ele>509.64</ele>
        <time>2014-12-07T06:25:47Z</time>
      </trkpt>
      <trkpt lat="45.97914" lon="3.95143">
        <ele>508.67</ele>
        <time>2014-12-07T06:25:51Z</time>
      </trkpt>
      <trkpt lat="45.97909" lon="3.95152">
        <ele>506.75</ele>
        <time>2014-12-07T06:25:57Z</time>
      </trkpt>
      <trkpt lat="45.97895" lon="3.95171">
        <ele>503.39</ele>
        <time>2014-12-07T06:26:07Z</time>
      </trkpt>
      <trkpt lat="45.97894" lon="3.95183">
        <ele>502.43</ele>
        <time>2014-12-07T06:26:12Z</time>
      </trkpt>
      <trkpt lat="45.97891" lon="3.95187">
        <ele>501.95</ele>
        <time>2014-12-07T06:26:14Z</time>
      </trkpt>
      <trkpt lat="45.97887" lon="3.95197">
        <ele>500.98</ele>
        <time>2014-12-07T06:26:19Z</time>
      </trkpt>
      <trkpt lat="45.97892" lon="3.95212">
        <ele>500.02</ele>
        <time>2014-12-07T06:26:24Z</time>
      </trkpt>
      <trkpt lat="45.97902" lon="3.95228">
        <ele>499.06</ele>
        <time>2014-12-07T06:26:36Z</time>
      </trkpt>
      <trkpt lat="45.979" lon="3.95245">
        <ele>497.62</ele>
        <time>2014-12-07T06:26:43Z</time>
      </trkpt>
      <trkpt lat="45.97913" lon="3.9528">
        <ele>495.22</ele>
        <time>2014-12-07T06:26:56Z</time>
      </trkpt>
      <trkpt lat="45.97923" lon="3.95304">
        <ele>493.29</ele>
        <time>2014-12-07T06:27:06Z</time>
      </trkpt>
      <trkpt lat="45.97932" lon="3.95328">
        <ele>491.37</ele>
        <time>2014-12-07T06:27:18Z</time>
      </trkpt>
      <trkpt lat="45.9794" lon="3.95341">
        <ele>489.93</ele>
        <time>2014-12-07T06:27:24Z</time>
      </trkpt>
      <trkpt lat="45.9794" lon="3.95348">
        <ele>489.45</ele>
        <time>2014-12-07T06:27:29Z</time>
      </trkpt>
      <trkpt lat="45.97941" lon="3.95355">
        <ele>488.97</ele>
        <time>2014-12-07T06:27:33Z</time>
      </trkpt>
      <trkpt lat="45.97954" lon="3.95379">
        <ele>487.05</ele>
        <time>2014-12-07T06:27:46Z</time>
      </trkpt>
      <trkpt lat="45.97962" lon="3.95397">
        <ele>485.12</ele>
        <time>2014-12-07T06:27:56Z</time>
      </trkpt>
      <trkpt lat="45.97967" lon="3.95405">
        <ele>484.16</ele>
        <time>2014-12-07T06:28:01Z</time>
      </trkpt>
      <trkpt lat="45.97973" lon="3.95407">
        <ele>484.16</ele>
        <time>2014-12-07T06:28:06Z</time>
      </trkpt>
      <trkpt lat="45.97973" lon="3.95416">
        <ele>483.68</ele>
        <time>2014-12-07T06:28:11Z</time>
      </trkpt>
      <trkpt lat="45.97976" lon="3.95423">
        <ele>483.2</ele>
        <time>2014-12-07T06:28:14Z</time>
      </trkpt>
      <trkpt lat="45.97977" lon="3.95436">
        <ele>482.72</ele>
        <time>2014-12-07T06:28:19Z</time>
      </trkpt>
      <trkpt lat="45.97985" lon="3.95453">
        <ele>481.76</ele>
        <time>2014-12-07T06:28:26Z</time>
      </trkpt>
      <trkpt lat="45.97993" lon="3.9547">
        <ele>480.32</ele>
        <time>2014-12-07T06:28:36Z</time>
      </trkpt>
      <trkpt lat="45.97997" lon="3.95481">
        <ele>479.35</ele>
        <time>2014-12-07T06:28:42Z</time>
      </trkpt>
      <trkpt lat="45.97999" lon="3.95487">
        <ele>478.87</ele>
        <time>2014-12-07T06:28:45Z</time>
      </trkpt>
      <trkpt lat="45.98001" lon="3.95491">
        <ele>478.39</ele>
        <time>2014-12-07T06:28:47Z</time>
      </trkpt>
      <trkpt lat="45.98012" lon="3.95519">
        <ele>476.47</ele>
        <time>2014-12-07T06:28:58Z</time>
      </trkpt>
      <trkpt lat="45.98016" lon="3.95531">
        <ele>475.51</ele>
        <time>2014-12-07T06:29:02Z</time>
      </trkpt>
      <trkpt lat="45.98028" lon="3.95555">
        <ele>473.59</ele>
        <time>2014-12-07T06:29:10Z</time>
      </trkpt>
      <trkpt lat="45.98029" lon="3.95559">
        <ele>473.59</ele>
        <time>2014-12-07T06:29:11Z</time>
      </trkpt>
      <trkpt lat="45.98042" lon="3.95592">
        <ele>470.7</ele>
        <time>2014-12-07T06:29:21Z</time>
      </trkpt>
      <trkpt lat="45.98048" lon="3.95605">
        <ele>468.78</ele>
        <time>2014-12-07T06:29:25Z</time>
      </trkpt>
      <trkpt lat="45.98053" lon="3.95618">
        <ele>467.82</ele>
        <time>2014-12-07T06:29:29Z</time>
      </trkpt>
      <trkpt lat="45.98066" lon="3.95648">
        <ele>465.42</ele>
        <time>2014-12-07T06:29:38Z</time>
      </trkpt>
      <trkpt lat="45.9808" lon="3.95678">
        <ele>462.53</ele>
        <time>2014-12-07T06:29:48Z</time>
      </trkpt>
      <trkpt lat="45.98083" lon="3.95685">
        <ele>462.05</ele>
        <time>2014-12-07T06:29:50Z</time>
      </trkpt>
      <trkpt lat="45.981" lon="3.95724">
        <ele>459.17</ele>
        <time>2014-12-07T06:30:01Z</time>
      </trkpt>
      <trkpt lat="45.98113" lon="3.95754">
        <ele>457.24</ele>
        <time>2014-12-07T06:30:10Z</time>
      </trkpt>
      <trkpt lat="45.9813" lon="3.95789">
        <ele>454.84</ele>
        <time>2014-12-07T06:30:20Z</time>
      </trkpt>
      <trkpt lat="45.98147" lon="3.95825">
        <ele>451.96</ele>
        <time>2014-12-07T06:30:31Z</time>
      </trkpt>
      <trkpt lat="45.98162" lon="3.9586">
        <ele>448.11</ele>
        <time>2014-12-07T06:30:41Z</time>
      </trkpt>
      <trkpt lat="45.98175" lon="3.95892">
        <ele>445.23</ele>
        <time>2014-12-07T06:30:51Z</time>
      </trkpt>
      <trkpt lat="45.98183" lon="3.95912">
        <ele>442.82</ele>
        <time>2014-12-07T06:30:57Z</time>
      </trkpt>
      <trkpt lat="45.98183" lon="3.95915">
        <ele>442.82</ele>
        <time>2014-12-07T06:30:58Z</time>
      </trkpt>
      <trkpt lat="45.98194" lon="3.9594">
        <ele>439.46</ele>
        <time>2014-12-07T06:31:06Z</time>
      </trkpt>
      <trkpt lat="45.9821" lon="3.9597">
        <ele>436.58</ele>
        <time>2014-12-07T06:31:15Z</time>
      </trkpt>
      <trkpt lat="45.98223" lon="3.96002">
        <ele>433.69</ele>
        <time>2014-12-07T06:31:24Z</time>
      </trkpt>
      <trkpt lat="45.98233" lon="3.96024">
        <ele>431.29</ele>
        <time>2014-12-07T06:31:31Z</time>
      </trkpt>
      <trkpt lat="45.98244" lon="3.96057">
        <ele>428.89</ele>
        <time>2014-12-07T06:31:41Z</time>
      </trkpt>
      <trkpt lat="45.98263" lon="3.96089">
        <ele>426.48</ele>
        <time>2014-12-07T06:31:51Z</time>
      </trkpt>
      <trkpt lat="45.9828" lon="3.96124">
        <ele>424.08</ele>
        <time>2014-12-07T06:32:01Z</time>
      </trkpt>
      <trkpt lat="45.98296" lon="3.96161">
        <ele>422.64</ele>
        <time>2014-12-07T06:32:11Z</time>
      </trkpt>
      <trkpt lat="45.983" lon="3.96172">
        <ele>421.68</ele>
        <time>2014-12-07T06:32:15Z</time>
      </trkpt>
      <trkpt lat="45.98317" lon="3.96202">
        <ele>420.71</ele>
        <time>2014-12-07T06:32:26Z</time>
      </trkpt>
      <trkpt lat="45.98333" lon="3.96213">
        <ele>421.19</ele>
        <time>2014-12-07T06:32:36Z</time>
      </trkpt>
      <trkpt lat="45.98346" lon="3.96234">
        <ele>420.23</ele>
        <time>2014-12-07T06:32:49Z</time>
      </trkpt>
      <trkpt lat="45.98346" lon="3.96241">
        <ele>419.27</ele>
        <time>2014-12-07T06:32:52Z</time>
      </trkpt>
      <trkpt lat="45.98346" lon="3.96248">
        <ele>421.68</ele>
        <time>2014-12-07T06:32:55Z</time>
      </trkpt>
      <trkpt lat="45.98346" lon="3.96252">
        <ele>420.23</ele>
        <time>2014-12-07T06:32:57Z</time>
      </trkpt>
      <trkpt lat="45.98346" lon="3.96253">
        <ele>420.71</ele>
        <time>2014-12-07T06:32:58Z</time>
      </trkpt>
      <trkpt lat="45.98344" lon="3.96263">
        <ele>420.23</ele>
        <time>2014-12-07T06:33:02Z</time>
      </trkpt>
      <trkpt lat="45.98345" lon="3.9628">
        <ele>420.23</ele>
        <time>2014-12-07T06:33:09Z</time>
      </trkpt>
      <trkpt lat="45.98354" lon="3.96297">
        <ele>419.27</ele>
        <time>2014-12-07T06:33:17Z</time>
      </trkpt>
      <trkpt lat="45.98368" lon="3.96318">
        <ele>417.83</ele>
        <time>2014-12-07T06:33:26Z</time>
      </trkpt>
      <trkpt lat="45.98373" lon="3.96325">
        <ele>417.35</ele>
        <time>2014-12-07T06:33:29Z</time>
      </trkpt>
      <trkpt lat="45.98378" lon="3.96346">
        <ele>415.91</ele>
        <time>2014-12-07T06:33:37Z</time>
      </trkpt>
      <trkpt lat="45.98377" lon="3.96344">
        <ele>415.43</ele>
        <time>2014-12-07T06:33:53Z</time>
      </trkpt>
      <trkpt lat="45.98391" lon="3.96369">
        <ele>415.43</ele>
        <time>2014-12-07T06:34:01Z</time>
      </trkpt>
      <trkpt lat="45.98405" lon="3.964">
        <ele>413.98</ele>
        <time>2014-12-07T06:34:08Z</time>
      </trkpt>
      <trkpt lat="45.98423" lon="3.96443">
        <ele>412.06</ele>
        <time>2014-12-07T06:34:18Z</time>
      </trkpt>
      <trkpt lat="45.9844" lon="3.96486">
        <ele>409.18</ele>
        <time>2014-12-07T06:34:28Z</time>
      </trkpt>
      <trkpt lat="45.9845" lon="3.96511">
        <ele>407.74</ele>
        <time>2014-12-07T06:34:34Z</time>
      </trkpt>
      <trkpt lat="45.98459" lon="3.96528">
        <ele>407.26</ele>
        <time>2014-12-07T06:34:38Z</time>
      </trkpt>
      <trkpt lat="45.98461" lon="3.96533">
        <ele>407.26</ele>
        <time>2014-12-07T06:34:39Z</time>
      </trkpt>
      <trkpt lat="45.98463" lon="3.96537">
        <ele>406.77</ele>
        <time>2014-12-07T06:34:40Z</time>
      </trkpt>
      <trkpt lat="45.98477" lon="3.96575">
        <ele>405.81</ele>
        <time>2014-12-07T06:34:49Z</time>
      </trkpt>
      <trkpt lat="45.98485" lon="3.96596">
        <ele>404.37</ele>
        <time>2014-12-07T06:34:55Z</time>
      </trkpt>
      <trkpt lat="45.98486" lon="3.966">
        <ele>404.37</ele>
        <time>2014-12-07T06:34:56Z</time>
      </trkpt>
      <trkpt lat="45.98488" lon="3.96603">
        <ele>404.37</ele>
        <time>2014-12-07T06:34:57Z</time>
      </trkpt>
      <trkpt lat="45.98489" lon="3.96607">
        <ele>404.37</ele>
        <time>2014-12-07T06:34:58Z</time>
      </trkpt>
      <trkpt lat="45.98491" lon="3.9661">
        <ele>403.89</ele>
        <time>2014-12-07T06:34:59Z</time>
      </trkpt>
      <trkpt lat="45.98492" lon="3.96612">
        <ele>403.89</ele>
        <time>2014-12-07T06:35:00Z</time>
      </trkpt>
      <trkpt lat="45.98494" lon="3.96616">
        <ele>403.89</ele>
        <time>2014-12-07T06:35:01Z</time>
      </trkpt>
      <trkpt lat="45.98495" lon="3.96619">
        <ele>403.89</ele>
        <time>2014-12-07T06:35:02Z</time>
      </trkpt>
      <trkpt lat="45.98497" lon="3.96623">
        <ele>403.41</ele>
        <time>2014-12-07T06:35:03Z</time>
      </trkpt>
      <trkpt lat="45.98498" lon="3.96625">
        <ele>403.41</ele>
        <time>2014-12-07T06:35:04Z</time>
      </trkpt>
      <trkpt lat="45.98499" lon="3.96628">
        <ele>403.41</ele>
        <time>2014-12-07T06:35:05Z</time>
      </trkpt>
      <trkpt lat="45.98501" lon="3.96632">
        <ele>403.41</ele>
        <time>2014-12-07T06:35:06Z</time>
      </trkpt>
      <trkpt lat="45.98502" lon="3.96635">
        <ele>402.93</ele>
        <time>2014-12-07T06:35:07Z</time>
      </trkpt>
      <trkpt lat="45.98503" lon="3.96637">
        <ele>402.93</ele>
        <time>2014-12-07T06:35:08Z</time>
      </trkpt>
      <trkpt lat="45.98504" lon="3.96641">
        <ele>401.97</ele>
        <time>2014-12-07T06:35:10Z</time>
      </trkpt>
      <trkpt lat="45.98505" lon="3.96644">
        <ele>401.97</ele>
        <time>2014-12-07T06:35:11Z</time>
      </trkpt>
      <trkpt lat="45.98506" lon="3.96646">
        <ele>401.97</ele>
        <time>2014-12-07T06:35:12Z</time>
      </trkpt>
      <trkpt lat="45.98508" lon="3.96655">
        <ele>401.49</ele>
        <time>2014-12-07T06:35:15Z</time>
      </trkpt>
      <trkpt lat="45.98511" lon="3.96657">
        <ele>401.49</ele>
        <time>2014-12-07T06:35:16Z</time>
      </trkpt>
      <trkpt lat="45.98512" lon="3.9666">
        <ele>401.49</ele>
        <time>2014-12-07T06:35:17Z</time>
      </trkpt>
      <trkpt lat="45.98514" lon="3.96664">
        <ele>401.49</ele>
        <time>2014-12-07T06:35:18Z</time>
      </trkpt>
      <trkpt lat="45.98515" lon="3.96667">
        <ele>401.49</ele>
        <time>2014-12-07T06:35:19Z</time>
      </trkpt>
      <trkpt lat="45.98521" lon="3.96679">
        <ele>401.01</ele>
        <time>2014-12-07T06:35:22Z</time>
      </trkpt>
      <trkpt lat="45.98523" lon="3.96683">
        <ele>401.01</ele>
        <time>2014-12-07T06:35:23Z</time>
      </trkpt>
      <trkpt lat="45.98524" lon="3.96686">
        <ele>401.01</ele>
        <time>2014-12-07T06:35:24Z</time>
      </trkpt>
      <trkpt lat="45.98526" lon="3.9669">
        <ele>401.01</ele>
        <time>2014-12-07T06:35:25Z</time>
      </trkpt>
      <trkpt lat="45.98528" lon="3.96694">
        <ele>400.53</ele>
        <time>2014-12-07T06:35:26Z</time>
      </trkpt>
      <trkpt lat="45.9853" lon="3.96698">
        <ele>400.53</ele>
        <time>2014-12-07T06:35:27Z</time>
      </trkpt>
      <trkpt lat="45.98531" lon="3.96701">
        <ele>400.05</ele>
        <time>2014-12-07T06:35:28Z</time>
      </trkpt>
      <trkpt lat="45.98533" lon="3.96705">
        <ele>400.05</ele>
        <time>2014-12-07T06:35:29Z</time>
      </trkpt>
      <trkpt lat="45.98534" lon="3.96708">
        <ele>399.57</ele>
        <time>2014-12-07T06:35:30Z</time>
      </trkpt>
      <trkpt lat="45.98534" lon="3.96712">
        <ele>399.57</ele>
        <time>2014-12-07T06:35:31Z</time>
      </trkpt>
      <trkpt lat="45.98536" lon="3.96715">
        <ele>399.57</ele>
        <time>2014-12-07T06:35:32Z</time>
      </trkpt>
      <trkpt lat="45.98537" lon="3.96718">
        <ele>399.08</ele>
        <time>2014-12-07T06:35:33Z</time>
      </trkpt>
      <trkpt lat="45.98553" lon="3.96751">
        <ele>398.6</ele>
        <time>2014-12-07T06:35:43Z</time>
      </trkpt>
      <trkpt lat="45.98555" lon="3.96754">
        <ele>398.6</ele>
        <time>2014-12-07T06:35:44Z</time>
      </trkpt>
      <trkpt lat="45.98556" lon="3.96757">
        <ele>398.12</ele>
        <time>2014-12-07T06:35:45Z</time>
      </trkpt>
      <trkpt lat="45.98558" lon="3.96762">
        <ele>398.12</ele>
        <time>2014-12-07T06:35:46Z</time>
      </trkpt>
      <trkpt lat="45.9856" lon="3.96766">
        <ele>398.12</ele>
        <time>2014-12-07T06:35:47Z</time>
      </trkpt>
      <trkpt lat="45.98576" lon="3.96799">
        <ele>397.64</ele>
        <time>2014-12-07T06:35:55Z</time>
      </trkpt>
      <trkpt lat="45.98589" lon="3.96832">
        <ele>397.16</ele>
        <time>2014-12-07T06:36:04Z</time>
      </trkpt>
      <trkpt lat="45.98607" lon="3.96872">
        <ele>397.16</ele>
        <time>2014-12-07T06:36:15Z</time>
      </trkpt>
      <trkpt lat="45.98612" lon="3.96884">
        <ele>397.16</ele>
        <time>2014-12-07T06:36:19Z</time>
      </trkpt>
      <trkpt lat="45.98613" lon="3.96886">
        <ele>397.16</ele>
        <time>2014-12-07T06:36:20Z</time>
      </trkpt>
      <trkpt lat="45.98614" lon="3.96889">
        <ele>397.16</ele>
        <time>2014-12-07T06:36:21Z</time>
      </trkpt>
      <trkpt lat="45.98616" lon="3.96893">
        <ele>397.16</ele>
        <time>2014-12-07T06:36:22Z</time>
      </trkpt>
      <trkpt lat="45.98618" lon="3.96896">
        <ele>397.16</ele>
        <time>2014-12-07T06:36:23Z</time>
      </trkpt>
      <trkpt lat="45.9862" lon="3.969">
        <ele>397.16</ele>
        <time>2014-12-07T06:36:24Z</time>
      </trkpt>
      <trkpt lat="45.98622" lon="3.96903">
        <ele>397.16</ele>
        <time>2014-12-07T06:36:25Z</time>
      </trkpt>
      <trkpt lat="45.98623" lon="3.96906">
        <ele>397.16</ele>
        <time>2014-12-07T06:36:26Z</time>
      </trkpt>
      <trkpt lat="45.98625" lon="3.96909">
        <ele>397.16</ele>
        <time>2014-12-07T06:36:27Z</time>
      </trkpt>
      <trkpt lat="45.98626" lon="3.96912">
        <ele>397.16</ele>
        <time>2014-12-07T06:36:28Z</time>
      </trkpt>
      <trkpt lat="45.98644" lon="3.96953">
        <ele>396.68</ele>
        <time>2014-12-07T06:36:38Z</time>
      </trkpt>
      <trkpt lat="45.98659" lon="3.96984">
        <ele>396.68</ele>
        <time>2014-12-07T06:36:46Z</time>
      </trkpt>
      <trkpt lat="45.98664" lon="3.97001">
        <ele>396.2</ele>
        <time>2014-12-07T06:36:51Z</time>
      </trkpt>
      <trkpt lat="45.98677" lon="3.97032">
        <ele>396.2</ele>
        <time>2014-12-07T06:37:01Z</time>
      </trkpt>
      <trkpt lat="45.9868" lon="3.97038">
        <ele>395.72</ele>
        <time>2014-12-07T06:37:03Z</time>
      </trkpt>
      <trkpt lat="45.98682" lon="3.97041">
        <ele>395.72</ele>
        <time>2014-12-07T06:37:04Z</time>
      </trkpt>
      <trkpt lat="45.98683" lon="3.97045">
        <ele>396.2</ele>
        <time>2014-12-07T06:37:05Z</time>
      </trkpt>
      <trkpt lat="45.98685" lon="3.97048">
        <ele>396.2</ele>
        <time>2014-12-07T06:37:06Z</time>
      </trkpt>
      <trkpt lat="45.98686" lon="3.97051">
        <ele>396.2</ele>
        <time>2014-12-07T06:37:07Z</time>
      </trkpt>
      <trkpt lat="45.98688" lon="3.97053">
        <ele>395.72</ele>
        <time>2014-12-07T06:37:08Z</time>
      </trkpt>
      <trkpt lat="45.98689" lon="3.97055">
        <ele>395.72</ele>
        <time>2014-12-07T06:37:09Z</time>
      </trkpt>
      <trkpt lat="45.9869" lon="3.97056">
        <ele>395.72</ele>
        <time>2014-12-07T06:37:10Z</time>
      </trkpt>
      <trkpt lat="45.98692" lon="3.97058">
        <ele>395.72</ele>
        <time>2014-12-07T06:37:11Z</time>
      </trkpt>
      <trkpt lat="45.98694" lon="3.97059">
        <ele>395.72</ele>
        <time>2014-12-07T06:37:12Z</time>
      </trkpt>
      <trkpt lat="45.98696" lon="3.9706">
        <ele>395.72</ele>
        <time>2014-12-07T06:37:13Z</time>
      </trkpt>
      <trkpt lat="45.98697" lon="3.97061">
        <ele>395.72</ele>
        <time>2014-12-07T06:37:14Z</time>
      </trkpt>
      <trkpt lat="45.98699" lon="3.97062">
        <ele>396.2</ele>
        <time>2014-12-07T06:37:15Z</time>
      </trkpt>
      <trkpt lat="45.987" lon="3.97063">
        <ele>396.2</ele>
        <time>2014-12-07T06:37:16Z</time>
      </trkpt>
      <trkpt lat="45.98716" lon="3.97073">
        <ele>396.2</ele>
        <time>2014-12-07T06:37:26Z</time>
      </trkpt>
      <trkpt lat="45.98735" lon="3.97085">
        <ele>396.2</ele>
        <time>2014-12-07T06:37:39Z</time>
      </trkpt>
      <trkpt lat="45.98752" lon="3.97099">
        <ele>395.72</ele>
        <time>2014-12-07T06:37:51Z</time>
      </trkpt>
      <trkpt lat="45.98773" lon="3.97118">
        <ele>395.72</ele>
        <time>2014-12-07T06:38:05Z</time>
      </trkpt>
      <trkpt lat="45.98792" lon="3.97139">
        <ele>395.72</ele>
        <time>2014-12-07T06:38:19Z</time>
      </trkpt>
      <trkpt lat="45.98809" lon="3.97159">
        <ele>395.72</ele>
        <time>2014-12-07T06:38:32Z</time>
      </trkpt>
      <trkpt lat="45.98828" lon="3.9718">
        <ele>395.24</ele>
        <time>2014-12-07T06:38:46Z</time>
      </trkpt>
      <trkpt lat="45.98846" lon="3.97198">
        <ele>395.72</ele>
        <time>2014-12-07T06:38:59Z</time>
      </trkpt>
      <trkpt lat="45.98868" lon="3.97211">
        <ele>396.2</ele>
        <time>2014-12-07T06:39:13Z</time>
      </trkpt>
      <trkpt lat="45.98888" lon="3.97219">
        <ele>396.68</ele>
        <time>2014-12-07T06:39:25Z</time>
      </trkpt>
      <trkpt lat="45.98907" lon="3.97228">
        <ele>397.16</ele>
        <time>2014-12-07T06:39:38Z</time>
      </trkpt>
      <trkpt lat="45.98926" lon="3.97239">
        <ele>397.64</ele>
        <time>2014-12-07T06:39:51Z</time>
      </trkpt>
      <trkpt lat="45.98947" lon="3.97252">
        <ele>398.12</ele>
        <time>2014-12-07T06:40:05Z</time>
      </trkpt>
      <trkpt lat="45.98969" lon="3.97268">
        <ele>397.64</ele>
        <time>2014-12-07T06:40:19Z</time>
      </trkpt>
      <trkpt lat="45.98988" lon="3.97282">
        <ele>397.64</ele>
        <time>2014-12-07T06:40:31Z</time>
      </trkpt>
      <trkpt lat="45.99009" lon="3.97297">
        <ele>397.64</ele>
        <time>2014-12-07T06:40:45Z</time>
      </trkpt>
      <trkpt lat="45.99031" lon="3.97312">
        <ele>397.64</ele>
        <time>2014-12-07T06:40:59Z</time>
      </trkpt>
      <trkpt lat="45.99049" lon="3.97322">
        <ele>397.64</ele>
        <time>2014-12-07T06:41:11Z</time>
      </trkpt>
      <trkpt lat="45.9907" lon="3.97333">
        <ele>397.16</ele>
        <time>2014-12-07T06:41:24Z</time>
      </trkpt>
      <trkpt lat="45.99091" lon="3.97345">
        <ele>396.68</ele>
        <time>2014-12-07T06:41:37Z</time>
      </trkpt>
      <trkpt lat="45.99112" lon="3.97356">
        <ele>396.2</ele>
        <time>2014-12-07T06:41:51Z</time>
      </trkpt>
      <trkpt lat="45.99134" lon="3.97368">
        <ele>395.72</ele>
        <time>2014-12-07T06:42:05Z</time>
      </trkpt>
      <trkpt lat="45.99154" lon="3.97381">
        <ele>395.72</ele>
        <time>2014-12-07T06:42:18Z</time>
      </trkpt>
      <trkpt lat="45.99175" lon="3.97394">
        <ele>394.76</ele>
        <time>2014-12-07T06:42:32Z</time>
      </trkpt>
      <trkpt lat="45.99194" lon="3.97403">
        <ele>394.76</ele>
        <time>2014-12-07T06:42:44Z</time>
      </trkpt>
      <trkpt lat="45.99213" lon="3.97412">
        <ele>394.28</ele>
        <time>2014-12-07T06:42:56Z</time>
      </trkpt>
      <trkpt lat="45.99229" lon="3.97416">
        <ele>390.91</ele>
        <time>2014-12-07T06:43:07Z</time>
      </trkpt>
      <trkpt lat="45.99231" lon="3.97416">
        <ele>398.6</ele>
        <time>2014-12-07T06:43:08Z</time>
      </trkpt>
      <trkpt lat="45.99232" lon="3.97417">
        <ele>394.28</ele>
        <time>2014-12-07T06:43:09Z</time>
      </trkpt>
      <trkpt lat="45.99233" lon="3.97417">
        <ele>393.8</ele>
        <time>2014-12-07T06:43:10Z</time>
      </trkpt>
      <trkpt lat="45.99235" lon="3.97418">
        <ele>393.8</ele>
        <time>2014-12-07T06:43:11Z</time>
      </trkpt>
      <trkpt lat="45.99237" lon="3.97419">
        <ele>394.28</ele>
        <time>2014-12-07T06:43:13Z</time>
      </trkpt>
      <trkpt lat="45.99239" lon="3.97419">
        <ele>392.84</ele>
        <time>2014-12-07T06:43:14Z</time>
      </trkpt>
      <trkpt lat="45.99241" lon="3.9742">
        <ele>395.24</ele>
        <time>2014-12-07T06:43:15Z</time>
      </trkpt>
      <trkpt lat="45.99242" lon="3.9742">
        <ele>394.76</ele>
        <time>2014-12-07T06:43:16Z</time>
      </trkpt>
      <trkpt lat="45.99244" lon="3.97421">
        <ele>394.28</ele>
        <time>2014-12-07T06:43:17Z</time>
      </trkpt>
      <trkpt lat="45.99265" lon="3.97435">
        <ele>393.8</ele>
        <time>2014-12-07T06:43:31Z</time>
      </trkpt>
      <trkpt lat="45.9928" lon="3.97453">
        <ele>393.32</ele>
        <time>2014-12-07T06:43:43Z</time>
      </trkpt>
      <trkpt lat="45.99293" lon="3.97468">
        <ele>393.32</ele>
        <time>2014-12-07T06:43:54Z</time>
      </trkpt>
      <trkpt lat="45.99309" lon="3.97486">
        <ele>392.84</ele>
        <time>2014-12-07T06:44:06Z</time>
      </trkpt>
      <trkpt lat="45.99313" lon="3.97492">
        <ele>392.84</ele>
        <time>2014-12-07T06:44:10Z</time>
      </trkpt>
      <trkpt lat="45.99314" lon="3.97494">
        <ele>392.84</ele>
        <time>2014-12-07T06:44:11Z</time>
      </trkpt>
      <trkpt lat="45.99315" lon="3.97495">
        <ele>392.84</ele>
        <time>2014-12-07T06:44:12Z</time>
      </trkpt>
      <trkpt lat="45.99316" lon="3.97497">
        <ele>392.84</ele>
        <time>2014-12-07T06:44:13Z</time>
      </trkpt>
      <trkpt lat="45.99317" lon="3.97498">
        <ele>392.84</ele>
        <time>2014-12-07T06:44:14Z</time>
      </trkpt>
      <trkpt lat="45.9932" lon="3.97504">
        <ele>392.84</ele>
        <time>2014-12-07T06:44:18Z</time>
      </trkpt>
      <trkpt lat="45.99321" lon="3.97505">
        <ele>392.84</ele>
        <time>2014-12-07T06:44:19Z</time>
      </trkpt>
      <trkpt lat="45.99323" lon="3.97506">
        <ele>392.84</ele>
        <time>2014-12-07T06:44:20Z</time>
      </trkpt>
      <trkpt lat="45.99334" lon="3.97522">
        <ele>392.36</ele>
        <time>2014-12-07T06:44:30Z</time>
      </trkpt>
      <trkpt lat="45.9934" lon="3.97531">
        <ele>392.36</ele>
        <time>2014-12-07T06:44:37Z</time>
      </trkpt>
      <trkpt lat="45.99342" lon="3.97532">
        <ele>392.36</ele>
        <time>2014-12-07T06:44:38Z</time>
      </trkpt>
      <trkpt lat="45.99349" lon="3.97541">
        <ele>394.28</ele>
        <time>2014-12-07T06:44:45Z</time>
      </trkpt>
      <trkpt lat="45.99366" lon="3.97564">
        <ele>391.39</ele>
        <time>2014-12-07T06:44:59Z</time>
      </trkpt>
      <trkpt lat="45.99381" lon="3.97585">
        <ele>390.43</ele>
        <time>2014-12-07T06:45:12Z</time>
      </trkpt>
      <trkpt lat="45.99398" lon="3.97602">
        <ele>389.95</ele>
        <time>2014-12-07T06:45:24Z</time>
      </trkpt>
      <trkpt lat="45.99412" lon="3.97618">
        <ele>389.47</ele>
        <time>2014-12-07T06:45:35Z</time>
      </trkpt>
      <trkpt lat="45.99414" lon="3.9762">
        <ele>389.47</ele>
        <time>2014-12-07T06:45:36Z</time>
      </trkpt>
      <trkpt lat="45.99415" lon="3.97622">
        <ele>389.47</ele>
        <time>2014-12-07T06:45:37Z</time>
      </trkpt>
      <trkpt lat="45.99416" lon="3.97624">
        <ele>388.03</ele>
        <time>2014-12-07T06:45:38Z</time>
      </trkpt>
      <trkpt lat="45.99417" lon="3.97625">
        <ele>389.95</ele>
        <time>2014-12-07T06:45:39Z</time>
      </trkpt>
      <trkpt lat="45.99435" lon="3.97644">
        <ele>388.03</ele>
        <time>2014-12-07T06:45:53Z</time>
      </trkpt>
      <trkpt lat="45.99445" lon="3.97658">
        <ele>388.03</ele>
        <time>2014-12-07T06:46:03Z</time>
      </trkpt>
      <trkpt lat="45.99447" lon="3.97662">
        <ele>388.03</ele>
        <time>2014-12-07T06:46:05Z</time>
      </trkpt>
      <trkpt lat="45.99449" lon="3.97663">
        <ele>388.03</ele>
        <time>2014-12-07T06:46:06Z</time>
      </trkpt>
      <trkpt lat="45.9945" lon="3.97664">
        <ele>388.03</ele>
        <time>2014-12-07T06:46:07Z</time>
      </trkpt>
      <trkpt lat="45.99451" lon="3.97665">
        <ele>388.03</ele>
        <time>2014-12-07T06:46:08Z</time>
      </trkpt>
      <trkpt lat="45.99452" lon="3.97666">
        <ele>387.55</ele>
        <time>2014-12-07T06:46:09Z</time>
      </trkpt>
      <trkpt lat="45.99454" lon="3.97668">
        <ele>388.03</ele>
        <time>2014-12-07T06:46:10Z</time>
      </trkpt>
      <trkpt lat="45.99467" lon="3.97686">
        <ele>387.55</ele>
        <time>2014-12-07T06:46:22Z</time>
      </trkpt>
      <trkpt lat="45.99481" lon="3.97703">
        <ele>387.07</ele>
        <time>2014-12-07T06:46:34Z</time>
      </trkpt>
      <trkpt lat="45.99482" lon="3.97705">
        <ele>386.59</ele>
        <time>2014-12-07T06:46:35Z</time>
      </trkpt>
      <trkpt lat="45.99484" lon="3.97706">
        <ele>386.59</ele>
        <time>2014-12-07T06:46:36Z</time>
      </trkpt>
      <trkpt lat="45.995" lon="3.97724">
        <ele>386.11</ele>
        <time>2014-12-07T06:46:49Z</time>
      </trkpt>
      <trkpt lat="45.99519" lon="3.97738">
        <ele>385.15</ele>
        <time>2014-12-07T06:47:02Z</time>
      </trkpt>
      <trkpt lat="45.99539" lon="3.97747">
        <ele>384.66</ele>
        <time>2014-12-07T06:47:15Z</time>
      </trkpt>
      <trkpt lat="45.9956" lon="3.97757">
        <ele>383.7</ele>
        <time>2014-12-07T06:47:29Z</time>
      </trkpt>
      <trkpt lat="45.9958" lon="3.97766">
        <ele>382.26</ele>
        <time>2014-12-07T06:47:42Z</time>
      </trkpt>
      <trkpt lat="45.99601" lon="3.97778">
        <ele>380.82</ele>
        <time>2014-12-07T06:47:55Z</time>
      </trkpt>
      <trkpt lat="45.99617" lon="3.97794">
        <ele>380.34</ele>
        <time>2014-12-07T06:48:07Z</time>
      </trkpt>
      <trkpt lat="45.99626" lon="3.97807">
        <ele>379.86</ele>
        <time>2014-12-07T06:48:16Z</time>
      </trkpt>
      <trkpt lat="45.99627" lon="3.97808">
        <ele>379.38</ele>
        <time>2014-12-07T06:48:17Z</time>
      </trkpt>
      <trkpt lat="45.99628" lon="3.97809">
        <ele>379.38</ele>
        <time>2014-12-07T06:48:18Z</time>
      </trkpt>
      <trkpt lat="45.99629" lon="3.97811">
        <ele>379.38</ele>
        <time>2014-12-07T06:48:19Z</time>
      </trkpt>
      <trkpt lat="45.9963" lon="3.97812">
        <ele>378.9</ele>
        <time>2014-12-07T06:48:20Z</time>
      </trkpt>
      <trkpt lat="45.99646" lon="3.9783">
        <ele>378.9</ele>
        <time>2014-12-07T06:48:33Z</time>
      </trkpt>
      <trkpt lat="45.99661" lon="3.97847">
        <ele>377.94</ele>
        <time>2014-12-07T06:48:45Z</time>
      </trkpt>
      <trkpt lat="45.99677" lon="3.9786">
        <ele>377.45</ele>
        <time>2014-12-07T06:48:57Z</time>
      </trkpt>
      <trkpt lat="45.99692" lon="3.97886">
        <ele>376.49</ele>
        <time>2014-12-07T06:49:12Z</time>
      </trkpt>
      <trkpt lat="45.99701" lon="3.97906">
        <ele>375.53</ele>
        <time>2014-12-07T06:49:23Z</time>
      </trkpt>
      <trkpt lat="45.99702" lon="3.97908">
        <ele>376.01</ele>
        <time>2014-12-07T06:49:24Z</time>
      </trkpt>
      <trkpt lat="45.99711" lon="3.97924">
        <ele>375.05</ele>
        <time>2014-12-07T06:49:34Z</time>
      </trkpt>
      <trkpt lat="45.99712" lon="3.97927">
        <ele>375.05</ele>
        <time>2014-12-07T06:49:35Z</time>
      </trkpt>
      <trkpt lat="45.99713" lon="3.97933">
        <ele>375.05</ele>
        <time>2014-12-07T06:49:38Z</time>
      </trkpt>
      <trkpt lat="45.99722" lon="3.97955">
        <ele>375.05</ele>
        <time>2014-12-07T06:49:50Z</time>
      </trkpt>
      <trkpt lat="45.99736" lon="3.97975">
        <ele>374.57</ele>
        <time>2014-12-07T06:50:02Z</time>
      </trkpt>
      <trkpt lat="45.99737" lon="3.97977">
        <ele>374.09</ele>
        <time>2014-12-07T06:50:03Z</time>
      </trkpt>
      <trkpt lat="45.99738" lon="3.97979">
        <ele>374.57</ele>
        <time>2014-12-07T06:50:04Z</time>
      </trkpt>
      <trkpt lat="45.99738" lon="3.97981">
        <ele>374.09</ele>
        <time>2014-12-07T06:50:05Z</time>
      </trkpt>
      <trkpt lat="45.99739" lon="3.97982">
        <ele>374.09</ele>
        <time>2014-12-07T06:50:06Z</time>
      </trkpt>
      <trkpt lat="45.99744" lon="3.97994">
        <ele>374.09</ele>
        <time>2014-12-07T06:50:12Z</time>
      </trkpt>
      <trkpt lat="45.99744" lon="3.97995">
        <ele>374.57</ele>
        <time>2014-12-07T06:50:13Z</time>
      </trkpt>
      <trkpt lat="45.99745" lon="3.97997">
        <ele>374.09</ele>
        <time>2014-12-07T06:50:14Z</time>
      </trkpt>
      <trkpt lat="45.99746" lon="3.97998">
        <ele>374.57</ele>
        <time>2014-12-07T06:50:15Z</time>
      </trkpt>
      <trkpt lat="45.99746" lon="3.98">
        <ele>374.09</ele>
        <time>2014-12-07T06:50:16Z</time>
      </trkpt>
      <trkpt lat="45.99747" lon="3.98001">
        <ele>374.57</ele>
        <time>2014-12-07T06:50:17Z</time>
      </trkpt>
      <trkpt lat="45.99747" lon="3.98003">
        <ele>374.09</ele>
        <time>2014-12-07T06:50:18Z</time>
      </trkpt>
      <trkpt lat="45.99748" lon="3.98005">
        <ele>374.09</ele>
        <time>2014-12-07T06:50:19Z</time>
      </trkpt>
      <trkpt lat="45.9975" lon="3.9801">
        <ele>374.09</ele>
        <time>2014-12-07T06:50:22Z</time>
      </trkpt>
      <trkpt lat="45.99751" lon="3.98011">
        <ele>373.61</ele>
        <time>2014-12-07T06:50:23Z</time>
      </trkpt>
      <trkpt lat="45.99752" lon="3.98013">
        <ele>374.09</ele>
        <time>2014-12-07T06:50:24Z</time>
      </trkpt>
      <trkpt lat="45.99753" lon="3.98015">
        <ele>373.61</ele>
        <time>2014-12-07T06:50:25Z</time>
      </trkpt>
      <trkpt lat="45.99754" lon="3.98017">
        <ele>374.09</ele>
        <time>2014-12-07T06:50:26Z</time>
      </trkpt>
      <trkpt lat="45.99767" lon="3.98039">
        <ele>372.65</ele>
        <time>2014-12-07T06:50:37Z</time>
      </trkpt>
      <trkpt lat="45.99768" lon="3.98041">
        <ele>372.65</ele>
        <time>2014-12-07T06:50:38Z</time>
      </trkpt>
      <trkpt lat="45.99768" lon="3.98042">
        <ele>372.17</ele>
        <time>2014-12-07T06:50:39Z</time>
      </trkpt>
      <trkpt lat="45.99769" lon="3.98043">
        <ele>372.17</ele>
        <time>2014-12-07T06:50:40Z</time>
      </trkpt>
      <trkpt lat="45.9977" lon="3.98043">
        <ele>372.17</ele>
        <time>2014-12-07T06:50:41Z</time>
      </trkpt>
      <trkpt lat="45.99771" lon="3.98044">
        <ele>372.17</ele>
        <time>2014-12-07T06:50:42Z</time>
      </trkpt>
      <trkpt lat="45.99773" lon="3.98045">
        <ele>372.17</ele>
        <time>2014-12-07T06:50:43Z</time>
      </trkpt>
      <trkpt lat="45.99778" lon="3.9805">
        <ele>371.69</ele>
        <time>2014-12-07T06:50:51Z</time>
      </trkpt>
      <trkpt lat="45.99776" lon="3.98052">
        <ele>371.69</ele>
        <time>2014-12-07T06:50:53Z</time>
      </trkpt>
      <trkpt lat="45.99774" lon="3.98057">
        <ele>371.69</ele>
        <time>2014-12-07T06:51:06Z</time>
      </trkpt>
      <trkpt lat="45.99777" lon="3.98055">
        <ele>371.69</ele>
        <time>2014-12-07T06:51:12Z</time>
      </trkpt>
      <trkpt lat="45.99783" lon="3.98054">
        <ele>371.69</ele>
        <time>2014-12-07T06:51:17Z</time>
      </trkpt>
      <trkpt lat="45.998" lon="3.98055">
        <ele>371.21</ele>
        <time>2014-12-07T06:51:26Z</time>
      </trkpt>
      <trkpt lat="45.99801" lon="3.98055">
        <ele>371.21</ele>
        <time>2014-12-07T06:51:27Z</time>
      </trkpt>
      <trkpt lat="45.99803" lon="3.98054">
        <ele>371.21</ele>
        <time>2014-12-07T06:51:28Z</time>
      </trkpt>
      <trkpt lat="45.99815" lon="3.98051">
        <ele>370.24</ele>
        <time>2014-12-07T06:51:36Z</time>
      </trkpt>
      <trkpt lat="45.99817" lon="3.98052">
        <ele>370.24</ele>
        <time>2014-12-07T06:51:37Z</time>
      </trkpt>
      <trkpt lat="45.9982" lon="3.98051">
        <ele>370.24</ele>
        <time>2014-12-07T06:51:40Z</time>
      </trkpt>
      <trkpt lat="45.99822" lon="3.98052">
        <ele>369.76</ele>
        <time>2014-12-07T06:51:41Z</time>
      </trkpt>
      <trkpt lat="45.99824" lon="3.98052">
        <ele>369.28</ele>
        <time>2014-12-07T06:51:42Z</time>
      </trkpt>
      <trkpt lat="45.99826" lon="3.98053">
        <ele>369.76</ele>
        <time>2014-12-07T06:51:43Z</time>
      </trkpt>
      <trkpt lat="45.99828" lon="3.98052">
        <ele>369.28</ele>
        <time>2014-12-07T06:51:44Z</time>
      </trkpt>
      <trkpt lat="45.99829" lon="3.98053">
        <ele>369.76</ele>
        <time>2014-12-07T06:51:45Z</time>
      </trkpt>
      <trkpt lat="45.99831" lon="3.98053">
        <ele>369.28</ele>
        <time>2014-12-07T06:51:46Z</time>
      </trkpt>
      <trkpt lat="45.99833" lon="3.98053">
        <ele>369.28</ele>
        <time>2014-12-07T06:51:47Z</time>
      </trkpt>
      <trkpt lat="45.99842" lon="3.98054">
        <ele>368.8</ele>
        <time>2014-12-07T06:51:54Z</time>
      </trkpt>
      <trkpt lat="45.99847" lon="3.98053">
        <ele>367.84</ele>
        <time>2014-12-07T06:51:58Z</time>
      </trkpt>
      <trkpt lat="45.99848" lon="3.98054">
        <ele>367.84</ele>
        <time>2014-12-07T06:51:59Z</time>
      </trkpt>
      <trkpt lat="45.9985" lon="3.98054">
        <ele>367.84</ele>
        <time>2014-12-07T06:52:00Z</time>
      </trkpt>
      <trkpt lat="45.99851" lon="3.98055">
        <ele>367.84</ele>
        <time>2014-12-07T06:52:01Z</time>
      </trkpt>
      <trkpt lat="45.99853" lon="3.98056">
        <ele>367.84</ele>
        <time>2014-12-07T06:52:02Z</time>
      </trkpt>
      <trkpt lat="45.99855" lon="3.98057">
        <ele>367.84</ele>
        <time>2014-12-07T06:52:03Z</time>
      </trkpt>
      <trkpt lat="45.99858" lon="3.98056">
        <ele>367.84</ele>
        <time>2014-12-07T06:52:05Z</time>
      </trkpt>
      <trkpt lat="45.99862" lon="3.98053">
        <ele>367.84</ele>
        <time>2014-12-07T06:52:16Z</time>
      </trkpt>
      <trkpt lat="45.99863" lon="3.98048">
        <ele>367.84</ele>
        <time>2014-12-07T06:52:36Z</time>
      </trkpt>
      <trkpt lat="45.99863" lon="3.98045">
        <ele>367.84</ele>
        <time>2014-12-07T06:52:53Z</time>
      </trkpt>
      <trkpt lat="45.99863" lon="3.98048">
        <ele>367.84</ele>
        <time>2014-12-07T06:53:14Z</time>
      </trkpt>
      <trkpt lat="45.99859" lon="3.98052">
        <ele>368.32</ele>
        <time>2014-12-07T06:53:19Z</time>
      </trkpt>
      <trkpt lat="45.99857" lon="3.98051">
        <ele>367.84</ele>
        <time>2014-12-07T06:53:21Z</time>
      </trkpt>
      <trkpt lat="45.99856" lon="3.98051">
        <ele>367.84</ele>
        <time>2014-12-07T06:53:22Z</time>
      </trkpt>
      <trkpt lat="45.99855" lon="3.98051">
        <ele>367.84</ele>
        <time>2014-12-07T06:53:23Z</time>
      </trkpt>
      <trkpt lat="45.99854" lon="3.98051">
        <ele>367.84</ele>
        <time>2014-12-07T06:53:24Z</time>
      </trkpt>
      <trkpt lat="45.99853" lon="3.9805">
        <ele>367.84</ele>
        <time>2014-12-07T06:53:25Z</time>
      </trkpt>
      <trkpt lat="45.99852" lon="3.9805">
        <ele>367.36</ele>
        <time>2014-12-07T06:53:26Z</time>
      </trkpt>
      <trkpt lat="45.9985" lon="3.9805">
        <ele>367.36</ele>
        <time>2014-12-07T06:53:27Z</time>
      </trkpt>
      <trkpt lat="45.99849" lon="3.98049">
        <ele>367.84</ele>
        <time>2014-12-07T06:53:28Z</time>
      </trkpt>
      <trkpt lat="45.99847" lon="3.98049">
        <ele>368.32</ele>
        <time>2014-12-07T06:53:29Z</time>
      </trkpt>
      <trkpt lat="45.99846" lon="3.98049">
        <ele>368.32</ele>
        <time>2014-12-07T06:53:30Z</time>
      </trkpt>
      <trkpt lat="45.99845" lon="3.98049">
        <ele>368.32</ele>
        <time>2014-12-07T06:53:31Z</time>
      </trkpt>
      <trkpt lat="45.99844" lon="3.98049">
        <ele>368.32</ele>
        <time>2014-12-07T06:53:32Z</time>
      </trkpt>
      <trkpt lat="45.99843" lon="3.9805">
        <ele>368.32</ele>
        <time>2014-12-07T06:53:33Z</time>
      </trkpt>
      <trkpt lat="45.99832" lon="3.98053">
        <ele>369.76</ele>
        <time>2014-12-07T06:53:41Z</time>
      </trkpt>
      <trkpt lat="45.99814" lon="3.98051">
        <ele>370.73</ele>
        <time>2014-12-07T06:53:53Z</time>
      </trkpt>
      <trkpt lat="45.99813" lon="3.98052">
        <ele>370.73</ele>
        <time>2014-12-07T06:53:54Z</time>
      </trkpt>
      <trkpt lat="45.99811" lon="3.98052">
        <ele>370.73</ele>
        <time>2014-12-07T06:53:55Z</time>
      </trkpt>
      <trkpt lat="45.9981" lon="3.98053">
        <ele>371.21</ele>
        <time>2014-12-07T06:53:56Z</time>
      </trkpt>
      <trkpt lat="45.99809" lon="3.98053">
        <ele>370.73</ele>
        <time>2014-12-07T06:53:57Z</time>
      </trkpt>
      <trkpt lat="45.99807" lon="3.98053">
        <ele>371.21</ele>
        <time>2014-12-07T06:53:58Z</time>
      </trkpt>
      <trkpt lat="45.99805" lon="3.98053">
        <ele>371.21</ele>
        <time>2014-12-07T06:53:59Z</time>
      </trkpt>
      <trkpt lat="45.99804" lon="3.98053">
        <ele>371.21</ele>
        <time>2014-12-07T06:54:00Z</time>
      </trkpt>
      <trkpt lat="45.99802" lon="3.98053">
        <ele>371.21</ele>
        <time>2014-12-07T06:54:01Z</time>
      </trkpt>
      <trkpt lat="45.99801" lon="3.98053">
        <ele>371.69</ele>
        <time>2014-12-07T06:54:02Z</time>
      </trkpt>
      <trkpt lat="45.99799" lon="3.98052">
        <ele>371.69</ele>
        <time>2014-12-07T06:54:03Z</time>
      </trkpt>
      <trkpt lat="45.99797" lon="3.98052">
        <ele>371.21</ele>
        <time>2014-12-07T06:54:04Z</time>
      </trkpt>
      <trkpt lat="45.99795" lon="3.98052">
        <ele>371.69</ele>
        <time>2014-12-07T06:54:05Z</time>
      </trkpt>
      <trkpt lat="45.99794" lon="3.98053">
        <ele>371.69</ele>
        <time>2014-12-07T06:54:06Z</time>
      </trkpt>
      <trkpt lat="45.9978" lon="3.98054">
        <ele>372.17</ele>
        <time>2014-12-07T06:54:15Z</time>
      </trkpt>
      <trkpt lat="45.9978" lon="3.98056">
        <ele>372.17</ele>
        <time>2014-12-07T06:54:16Z</time>
      </trkpt>
      <trkpt lat="45.9978" lon="3.98058">
        <ele>372.17</ele>
        <time>2014-12-07T06:54:17Z</time>
      </trkpt>
      <trkpt lat="45.9978" lon="3.98061">
        <ele>372.17</ele>
        <time>2014-12-07T06:54:18Z</time>
      </trkpt>
      <trkpt lat="45.99781" lon="3.98063">
        <ele>372.17</ele>
        <time>2014-12-07T06:54:19Z</time>
      </trkpt>
      <trkpt lat="45.99786" lon="3.98079">
        <ele>371.21</ele>
        <time>2014-12-07T06:54:28Z</time>
      </trkpt>
      <trkpt lat="45.99787" lon="3.98082">
        <ele>371.21</ele>
        <time>2014-12-07T06:54:29Z</time>
      </trkpt>
      <trkpt lat="45.99789" lon="3.98087">
        <ele>371.21</ele>
        <time>2014-12-07T06:54:31Z</time>
      </trkpt>
      <trkpt lat="45.9979" lon="3.98089">
        <ele>371.21</ele>
        <time>2014-12-07T06:54:32Z</time>
      </trkpt>
      <trkpt lat="45.99797" lon="3.98113">
        <ele>370.73</ele>
        <time>2014-12-07T06:54:42Z</time>
      </trkpt>
      <trkpt lat="45.998" lon="3.98122">
        <ele>370.24</ele>
        <time>2014-12-07T06:54:46Z</time>
      </trkpt>
      <trkpt lat="45.99801" lon="3.98125">
        <ele>370.24</ele>
        <time>2014-12-07T06:54:47Z</time>
      </trkpt>
      <trkpt lat="45.99808" lon="3.98152">
        <ele>368.8</ele>
        <time>2014-12-07T06:54:59Z</time>
      </trkpt>
      <trkpt lat="45.99811" lon="3.98164">
        <ele>368.8</ele>
        <time>2014-12-07T06:55:05Z</time>
      </trkpt>
      <trkpt lat="45.99812" lon="3.98166">
        <ele>368.8</ele>
        <time>2014-12-07T06:55:06Z</time>
      </trkpt>
      <trkpt lat="45.99814" lon="3.9818">
        <ele>368.32</ele>
        <time>2014-12-07T06:55:12Z</time>
      </trkpt>
      <trkpt lat="45.99815" lon="3.98182">
        <ele>368.32</ele>
        <time>2014-12-07T06:55:13Z</time>
      </trkpt>
      <trkpt lat="45.9982" lon="3.98213">
        <ele>367.36</ele>
        <time>2014-12-07T06:55:26Z</time>
      </trkpt>
      <trkpt lat="45.99826" lon="3.98241">
        <ele>366.88</ele>
        <time>2014-12-07T06:55:37Z</time>
      </trkpt>
      <trkpt lat="45.99829" lon="3.98261">
        <ele>366.4</ele>
        <time>2014-12-07T06:55:46Z</time>
      </trkpt>
      <trkpt lat="45.99829" lon="3.98263">
        <ele>365.92</ele>
        <time>2014-12-07T06:55:47Z</time>
      </trkpt>
      <trkpt lat="45.99831" lon="3.98281">
        <ele>365.92</ele>
        <time>2014-12-07T06:55:55Z</time>
      </trkpt>
      <trkpt lat="45.99832" lon="3.98287">
        <ele>365.44</ele>
        <time>2014-12-07T06:55:58Z</time>
      </trkpt>
      <trkpt lat="45.99832" lon="3.98289">
        <ele>364.96</ele>
        <time>2014-12-07T06:55:59Z</time>
      </trkpt>
      <trkpt lat="45.99837" lon="3.98316">
        <ele>365.44</ele>
        <time>2014-12-07T06:56:10Z</time>
      </trkpt>
      <trkpt lat="45.99838" lon="3.98319">
        <ele>364.96</ele>
        <time>2014-12-07T06:56:11Z</time>
      </trkpt>
      <trkpt lat="45.99838" lon="3.98321">
        <ele>364.96</ele>
        <time>2014-12-07T06:56:12Z</time>
      </trkpt>
      <trkpt lat="45.99838" lon="3.98323">
        <ele>364.96</ele>
        <time>2014-12-07T06:56:13Z</time>
      </trkpt>
      <trkpt lat="45.99839" lon="3.98326">
        <ele>364.96</ele>
        <time>2014-12-07T06:56:14Z</time>
      </trkpt>
      <trkpt lat="45.9984" lon="3.98329">
        <ele>364.96</ele>
        <time>2014-12-07T06:56:15Z</time>
      </trkpt>
      <trkpt lat="45.99841" lon="3.98332">
        <ele>364.96</ele>
        <time>2014-12-07T06:56:16Z</time>
      </trkpt>
      <trkpt lat="45.99844" lon="3.98358">
        <ele>364</ele>
        <time>2014-12-07T06:56:27Z</time>
      </trkpt>
      <trkpt lat="45.99847" lon="3.98374">
        <ele>363.04</ele>
        <time>2014-12-07T06:56:35Z</time>
      </trkpt>
      <trkpt lat="45.99847" lon="3.98377">
        <ele>363.04</ele>
        <time>2014-12-07T06:56:36Z</time>
      </trkpt>
      <trkpt lat="45.99852" lon="3.9841">
        <ele>362.55</ele>
        <time>2014-12-07T06:56:50Z</time>
      </trkpt>
      <trkpt lat="45.99855" lon="3.98432">
        <ele>362.07</ele>
        <time>2014-12-07T06:56:59Z</time>
      </trkpt>
      <trkpt lat="45.99855" lon="3.98434">
        <ele>361.59</ele>
        <time>2014-12-07T06:57:00Z</time>
      </trkpt>
      <trkpt lat="45.99855" lon="3.98437">
        <ele>362.07</ele>
        <time>2014-12-07T06:57:01Z</time>
      </trkpt>
      <trkpt lat="45.99855" lon="3.98443">
        <ele>361.59</ele>
        <time>2014-12-07T06:57:04Z</time>
      </trkpt>
      <trkpt lat="45.99853" lon="3.9847">
        <ele>361.11</ele>
        <time>2014-12-07T06:57:16Z</time>
      </trkpt>
      <trkpt lat="45.99854" lon="3.98497">
        <ele>360.63</ele>
        <time>2014-12-07T06:57:28Z</time>
      </trkpt>
      <trkpt lat="45.99853" lon="3.98526">
        <ele>360.15</ele>
        <time>2014-12-07T06:57:41Z</time>
      </trkpt>
      <trkpt lat="45.99858" lon="3.98554">
        <ele>359.19</ele>
        <time>2014-12-07T06:57:52Z</time>
      </trkpt>
      <trkpt lat="45.99867" lon="3.98584">
        <ele>358.23</ele>
        <time>2014-12-07T06:58:01Z</time>
      </trkpt>
      <trkpt lat="45.99876" lon="3.98619">
        <ele>357.75</ele>
        <time>2014-12-07T06:58:11Z</time>
      </trkpt>
      <trkpt lat="45.99883" lon="3.98652">
        <ele>356.79</ele>
        <time>2014-12-07T06:58:21Z</time>
      </trkpt>
      <trkpt lat="45.99888" lon="3.98686">
        <ele>356.79</ele>
        <time>2014-12-07T06:58:32Z</time>
      </trkpt>
      <trkpt lat="45.99889" lon="3.98691">
        <ele>356.79</ele>
        <time>2014-12-07T06:58:34Z</time>
      </trkpt>
      <trkpt lat="45.99888" lon="3.98694">
        <ele>356.79</ele>
        <time>2014-12-07T06:58:35Z</time>
      </trkpt>
      <trkpt lat="45.99888" lon="3.98696">
        <ele>356.79</ele>
        <time>2014-12-07T06:58:36Z</time>
      </trkpt>
      <trkpt lat="45.99888" lon="3.98699">
        <ele>356.79</ele>
        <time>2014-12-07T06:58:37Z</time>
      </trkpt>
      <trkpt lat="45.99888" lon="3.98702">
        <ele>356.31</ele>
        <time>2014-12-07T06:58:38Z</time>
      </trkpt>
      <trkpt lat="45.99888" lon="3.98705">
        <ele>356.31</ele>
        <time>2014-12-07T06:58:39Z</time>
      </trkpt>
      <trkpt lat="45.99889" lon="3.98708">
        <ele>356.31</ele>
        <time>2014-12-07T06:58:40Z</time>
      </trkpt>
      <trkpt lat="45.9989" lon="3.98711">
        <ele>356.31</ele>
        <time>2014-12-07T06:58:41Z</time>
      </trkpt>
      <trkpt lat="45.99899" lon="3.98742">
        <ele>354.86</ele>
        <time>2014-12-07T06:58:51Z</time>
      </trkpt>
      <trkpt lat="45.9991" lon="3.98773">
        <ele>353.9</ele>
        <time>2014-12-07T06:59:01Z</time>
      </trkpt>
      <trkpt lat="45.99919" lon="3.98789">
        <ele>353.9</ele>
        <time>2014-12-07T06:59:07Z</time>
      </trkpt>
      <trkpt lat="45.9992" lon="3.98792">
        <ele>353.42</ele>
        <time>2014-12-07T06:59:08Z</time>
      </trkpt>
      <trkpt lat="45.99921" lon="3.98795">
        <ele>353.42</ele>
        <time>2014-12-07T06:59:09Z</time>
      </trkpt>
      <trkpt lat="45.99922" lon="3.98798">
        <ele>353.42</ele>
        <time>2014-12-07T06:59:10Z</time>
      </trkpt>
      <trkpt lat="45.99924" lon="3.98801">
        <ele>353.42</ele>
        <time>2014-12-07T06:59:11Z</time>
      </trkpt>
      <trkpt lat="45.99925" lon="3.98804">
        <ele>353.42</ele>
        <time>2014-12-07T06:59:12Z</time>
      </trkpt>
      <trkpt lat="45.99927" lon="3.98807">
        <ele>352.94</ele>
        <time>2014-12-07T06:59:13Z</time>
      </trkpt>
      <trkpt lat="45.99928" lon="3.9881">
        <ele>352.94</ele>
        <time>2014-12-07T06:59:14Z</time>
      </trkpt>
      <trkpt lat="45.99929" lon="3.98813">
        <ele>352.94</ele>
        <time>2014-12-07T06:59:15Z</time>
      </trkpt>
      <trkpt lat="45.9993" lon="3.98816">
        <ele>352.94</ele>
        <time>2014-12-07T06:59:16Z</time>
      </trkpt>
      <trkpt lat="45.99938" lon="3.98832">
        <ele>351.98</ele>
        <time>2014-12-07T06:59:22Z</time>
      </trkpt>
      <trkpt lat="45.99939" lon="3.98835">
        <ele>351.98</ele>
        <time>2014-12-07T06:59:23Z</time>
      </trkpt>
      <trkpt lat="45.9994" lon="3.98838">
        <ele>351.98</ele>
        <time>2014-12-07T06:59:24Z</time>
      </trkpt>
      <trkpt lat="45.99942" lon="3.9884">
        <ele>351.98</ele>
        <time>2014-12-07T06:59:25Z</time>
      </trkpt>
      <trkpt lat="45.99943" lon="3.98843">
        <ele>351.98</ele>
        <time>2014-12-07T06:59:26Z</time>
      </trkpt>
      <trkpt lat="45.99945" lon="3.98846">
        <ele>351.98</ele>
        <time>2014-12-07T06:59:27Z</time>
      </trkpt>
      <trkpt lat="45.99946" lon="3.98848">
        <ele>351.98</ele>
        <time>2014-12-07T06:59:28Z</time>
      </trkpt>
      <trkpt lat="45.99948" lon="3.98851">
        <ele>351.98</ele>
        <time>2014-12-07T06:59:29Z</time>
      </trkpt>
      <trkpt lat="45.9995" lon="3.98854">
        <ele>351.5</ele>
        <time>2014-12-07T06:59:30Z</time>
      </trkpt>
      <trkpt lat="45.99952" lon="3.98857">
        <ele>351.5</ele>
        <time>2014-12-07T06:59:31Z</time>
      </trkpt>
      <trkpt lat="45.99953" lon="3.9886">
        <ele>351.5</ele>
        <time>2014-12-07T06:59:32Z</time>
      </trkpt>
      <trkpt lat="45.99955" lon="3.98863">
        <ele>351.5</ele>
        <time>2014-12-07T06:59:33Z</time>
      </trkpt>
      <trkpt lat="45.99956" lon="3.98865">
        <ele>351.5</ele>
        <time>2014-12-07T06:59:34Z</time>
      </trkpt>
      <trkpt lat="45.99965" lon="3.98885">
        <ele>350.54</ele>
        <time>2014-12-07T06:59:41Z</time>
      </trkpt>
      <trkpt lat="45.99968" lon="3.9889">
        <ele>355.83</ele>
        <time>2014-12-07T06:59:43Z</time>
      </trkpt>
      <trkpt lat="45.99969" lon="3.98893">
        <ele>350.54</ele>
        <time>2014-12-07T06:59:44Z</time>
      </trkpt>
      <trkpt lat="45.99972" lon="3.98899">
        <ele>349.1</ele>
        <time>2014-12-07T06:59:46Z</time>
      </trkpt>
      <trkpt lat="45.99989" lon="3.98935">
        <ele>349.1</ele>
        <time>2014-12-07T06:59:58Z</time>
      </trkpt>
      <trkpt lat="45.99991" lon="3.9894">
        <ele>349.58</ele>
        <time>2014-12-07T07:00:00Z</time>
      </trkpt>
      <trkpt lat="45.99997" lon="3.98949">
        <ele>346.21</ele>
        <time>2014-12-07T07:00:04Z</time>
      </trkpt>
      <trkpt lat="45.99999" lon="3.98952">
        <ele>351.02</ele>
        <time>2014-12-07T07:00:05Z</time>
      </trkpt>
      <trkpt lat="46" lon="3.98955">
        <ele>344.77</ele>
        <time>2014-12-07T07:00:06Z</time>
      </trkpt>
      <trkpt lat="46.00001" lon="3.98958">
        <ele>357.75</ele>
        <time>2014-12-07T07:00:07Z</time>
      </trkpt>
      <trkpt lat="46.00002" lon="3.98961">
        <ele>348.62</ele>
        <time>2014-12-07T07:00:08Z</time>
      </trkpt>
      <trkpt lat="46.00011" lon="3.98986">
        <ele>348.13</ele>
        <time>2014-12-07T07:00:17Z</time>
      </trkpt>
      <trkpt lat="46.00014" lon="3.98992">
        <ele>348.13</ele>
        <time>2014-12-07T07:00:19Z</time>
      </trkpt>
      <trkpt lat="46.00025" lon="3.99018">
        <ele>348.13</ele>
        <time>2014-12-07T07:00:28Z</time>
      </trkpt>
      <trkpt lat="46.00036" lon="3.99047">
        <ele>347.65</ele>
        <time>2014-12-07T07:00:37Z</time>
      </trkpt>
      <trkpt lat="46.00037" lon="3.9905">
        <ele>347.17</ele>
        <time>2014-12-07T07:00:38Z</time>
      </trkpt>
      <trkpt lat="46.00046" lon="3.99077">
        <ele>347.17</ele>
        <time>2014-12-07T07:00:47Z</time>
      </trkpt>
      <trkpt lat="46.00056" lon="3.9911">
        <ele>346.21</ele>
        <time>2014-12-07T07:00:57Z</time>
      </trkpt>
      <trkpt lat="46.00064" lon="3.99145">
        <ele>346.21</ele>
        <time>2014-12-07T07:01:07Z</time>
      </trkpt>
      <trkpt lat="46.00067" lon="3.99156">
        <ele>346.21</ele>
        <time>2014-12-07T07:01:10Z</time>
      </trkpt>
      <trkpt lat="46.00076" lon="3.99195">
        <ele>345.73</ele>
        <time>2014-12-07T07:01:22Z</time>
      </trkpt>
      <trkpt lat="46.00085" lon="3.99223">
        <ele>345.25</ele>
        <time>2014-12-07T07:01:30Z</time>
      </trkpt>
      <trkpt lat="46.00093" lon="3.99257">
        <ele>344.77</ele>
        <time>2014-12-07T07:01:41Z</time>
      </trkpt>
      <trkpt lat="46.00094" lon="3.99261">
        <ele>345.25</ele>
        <time>2014-12-07T07:01:42Z</time>
      </trkpt>
      <trkpt lat="46.00104" lon="3.99291">
        <ele>344.29</ele>
        <time>2014-12-07T07:01:51Z</time>
      </trkpt>
      <trkpt lat="46.00106" lon="3.99298">
        <ele>344.29</ele>
        <time>2014-12-07T07:01:53Z</time>
      </trkpt>
      <trkpt lat="46.00113" lon="3.99311">
        <ele>344.29</ele>
        <time>2014-12-07T07:01:58Z</time>
      </trkpt>
      <trkpt lat="46.00123" lon="3.99334">
        <ele>344.29</ele>
        <time>2014-12-07T07:02:06Z</time>
      </trkpt>
      <trkpt lat="46.00129" lon="3.99347">
        <ele>343.81</ele>
        <time>2014-12-07T07:02:10Z</time>
      </trkpt>
      <trkpt lat="46.00139" lon="3.99369">
        <ele>343.81</ele>
        <time>2014-12-07T07:02:17Z</time>
      </trkpt>
      <trkpt lat="46.00149" lon="3.99395">
        <ele>343.33</ele>
        <time>2014-12-07T07:02:25Z</time>
      </trkpt>
      <trkpt lat="46.00153" lon="3.99403">
        <ele>343.33</ele>
        <time>2014-12-07T07:02:28Z</time>
      </trkpt>
      <trkpt lat="46.0017" lon="3.99438">
        <ele>342.85</ele>
        <time>2014-12-07T07:02:40Z</time>
      </trkpt>
      <trkpt lat="46.00173" lon="3.99443">
        <ele>342.85</ele>
        <time>2014-12-07T07:02:42Z</time>
      </trkpt>
      <trkpt lat="46.00184" lon="3.99467">
        <ele>342.37</ele>
        <time>2014-12-07T07:02:50Z</time>
      </trkpt>
      <trkpt lat="46.00186" lon="3.9947">
        <ele>342.85</ele>
        <time>2014-12-07T07:02:51Z</time>
      </trkpt>
      <trkpt lat="46.00199" lon="3.99496">
        <ele>342.37</ele>
        <time>2014-12-07T07:03:00Z</time>
      </trkpt>
      <trkpt lat="46.00214" lon="3.99522">
        <ele>341.89</ele>
        <time>2014-12-07T07:03:14Z</time>
      </trkpt>
      <trkpt lat="46.00225" lon="3.99543">
        <ele>341.41</ele>
        <time>2014-12-07T07:03:26Z</time>
      </trkpt>
      <trkpt lat="46.00238" lon="3.9957">
        <ele>341.41</ele>
        <time>2014-12-07T07:03:40Z</time>
      </trkpt>
      <trkpt lat="46.00248" lon="3.99593">
        <ele>341.41</ele>
        <time>2014-12-07T07:03:52Z</time>
      </trkpt>
      <trkpt lat="46.00259" lon="3.9962">
        <ele>340.92</ele>
        <time>2014-12-07T07:04:05Z</time>
      </trkpt>
      <trkpt lat="46.00262" lon="3.99629">
        <ele>340.92</ele>
        <time>2014-12-07T07:04:09Z</time>
      </trkpt>
      <trkpt lat="46.00269" lon="3.99649">
        <ele>340.92</ele>
        <time>2014-12-07T07:04:19Z</time>
      </trkpt>
      <trkpt lat="46.00274" lon="3.99661">
        <ele>340.44</ele>
        <time>2014-12-07T07:04:25Z</time>
      </trkpt>
      <trkpt lat="46.00287" lon="3.99687">
        <ele>339.96</ele>
        <time>2014-12-07T07:04:38Z</time>
      </trkpt>
      <trkpt lat="46.00292" lon="3.99696">
        <ele>339.96</ele>
        <time>2014-12-07T07:04:42Z</time>
      </trkpt>
      <trkpt lat="46.00299" lon="3.99729">
        <ele>339.96</ele>
        <time>2014-12-07T07:04:56Z</time>
      </trkpt>
      <trkpt lat="46.003" lon="3.9975">
        <ele>339.96</ele>
        <time>2014-12-07T07:05:06Z</time>
      </trkpt>
      <trkpt lat="46.00307" lon="3.9978">
        <ele>339.48</ele>
        <time>2014-12-07T07:05:19Z</time>
      </trkpt>
      <trkpt lat="46.00314" lon="3.99806">
        <ele>339.48</ele>
        <time>2014-12-07T07:05:30Z</time>
      </trkpt>
      <trkpt lat="46.00323" lon="3.99838">
        <ele>339.48</ele>
        <time>2014-12-07T07:05:44Z</time>
      </trkpt>
      <trkpt lat="46.00331" lon="3.99866">
        <ele>339.48</ele>
        <time>2014-12-07T07:05:56Z</time>
      </trkpt>
      <trkpt lat="46.00336" lon="3.99886">
        <ele>339.48</ele>
        <time>2014-12-07T07:06:05Z</time>
      </trkpt>
      <trkpt lat="46.00344" lon="3.99916">
        <ele>339</ele>
        <time>2014-12-07T07:06:18Z</time>
      </trkpt>
      <trkpt lat="46.00351" lon="3.99941">
        <ele>339</ele>
        <time>2014-12-07T07:06:29Z</time>
      </trkpt>
      <trkpt lat="46.00358" lon="3.99972">
        <ele>339</ele>
        <time>2014-12-07T07:06:42Z</time>
      </trkpt>
      <trkpt lat="46.00364" lon="4.00006">
        <ele>339</ele>
        <time>2014-12-07T07:06:57Z</time>
      </trkpt>
      <trkpt lat="46.00369" lon="4.00023">
        <ele>339</ele>
        <time>2014-12-07T07:07:04Z</time>
      </trkpt>
      <trkpt lat="46.00376" lon="4.00059">
        <ele>338.52</ele>
        <time>2014-12-07T07:07:19Z</time>
      </trkpt>
      <trkpt lat="46.00381" lon="4.00079">
        <ele>338.04</ele>
        <time>2014-12-07T07:07:28Z</time>
      </trkpt>
      <trkpt lat="46.00388" lon="4.00102">
        <ele>338.52</ele>
        <time>2014-12-07T07:07:40Z</time>
      </trkpt>
      <trkpt lat="46.00389" lon="4.00107">
        <ele>338.52</ele>
        <time>2014-12-07T07:07:42Z</time>
      </trkpt>
      <trkpt lat="46.00394" lon="4.00118">
        <ele>338.04</ele>
        <time>2014-12-07T07:07:47Z</time>
      </trkpt>
      <trkpt lat="46.00404" lon="4.00148">
        <ele>338.04</ele>
        <time>2014-12-07T07:08:02Z</time>
      </trkpt>
      <trkpt lat="46.00414" lon="4.00171">
        <ele>334.68</ele>
        <time>2014-12-07T07:08:14Z</time>
      </trkpt>
      <trkpt lat="46.00415" lon="4.00173">
        <ele>339</ele>
        <time>2014-12-07T07:08:15Z</time>
      </trkpt>
      <trkpt lat="46.00416" lon="4.00176">
        <ele>341.89</ele>
        <time>2014-12-07T07:08:16Z</time>
      </trkpt>
      <trkpt lat="46.00417" lon="4.00178">
        <ele>338.04</ele>
        <time>2014-12-07T07:08:17Z</time>
      </trkpt>
      <trkpt lat="46.00419" lon="4.0018">
        <ele>337.56</ele>
        <time>2014-12-07T07:08:18Z</time>
      </trkpt>
      <trkpt lat="46.00425" lon="4.00196">
        <ele>338.04</ele>
        <time>2014-12-07T07:08:25Z</time>
      </trkpt>
      <trkpt lat="46.00432" lon="4.00215">
        <ele>337.08</ele>
        <time>2014-12-07T07:08:34Z</time>
      </trkpt>
      <trkpt lat="46.00445" lon="4.0024">
        <ele>336.6</ele>
        <time>2014-12-07T07:08:48Z</time>
      </trkpt>
      <trkpt lat="46.00462" lon="4.00257">
        <ele>336.12</ele>
        <time>2014-12-07T07:09:00Z</time>
      </trkpt>
      <trkpt lat="46.00467" lon="4.0026">
        <ele>335.64</ele>
        <time>2014-12-07T07:09:03Z</time>
      </trkpt>
      <trkpt lat="46.00487" lon="4.00273">
        <ele>335.64</ele>
        <time>2014-12-07T07:09:15Z</time>
      </trkpt>
      <trkpt lat="46.00508" lon="4.00288">
        <ele>334.68</ele>
        <time>2014-12-07T07:09:30Z</time>
      </trkpt>
      <trkpt lat="46.00527" lon="4.00296">
        <ele>334.68</ele>
        <time>2014-12-07T07:09:41Z</time>
      </trkpt>
      <trkpt lat="46.00541" lon="4.00303">
        <ele>334.68</ele>
        <time>2014-12-07T07:09:50Z</time>
      </trkpt>
      <trkpt lat="46.00564" lon="4.00314">
        <ele>334.2</ele>
        <time>2014-12-07T07:10:04Z</time>
      </trkpt>
      <trkpt lat="46.00582" lon="4.00321">
        <ele>334.2</ele>
        <time>2014-12-07T07:10:16Z</time>
      </trkpt>
      <trkpt lat="46.00603" lon="4.00326">
        <ele>333.71</ele>
        <time>2014-12-07T07:10:28Z</time>
      </trkpt>
      <trkpt lat="46.00604" lon="4.00327">
        <ele>333.71</ele>
        <time>2014-12-07T07:10:29Z</time>
      </trkpt>
      <trkpt lat="46.00632" lon="4.00333">
        <ele>333.23</ele>
        <time>2014-12-07T07:10:42Z</time>
      </trkpt>
      <trkpt lat="46.0066" lon="4.00341">
        <ele>332.75</ele>
        <time>2014-12-07T07:10:54Z</time>
      </trkpt>
      <trkpt lat="46.00686" lon="4.00353">
        <ele>331.79</ele>
        <time>2014-12-07T07:11:05Z</time>
      </trkpt>
      <trkpt lat="46.00711" lon="4.00361">
        <ele>330.83</ele>
        <time>2014-12-07T07:11:16Z</time>
      </trkpt>
      <trkpt lat="46.00744" lon="4.00369">
        <ele>330.35</ele>
        <time>2014-12-07T07:11:29Z</time>
      </trkpt>
      <trkpt lat="46.0077" lon="4.00384">
        <ele>329.39</ele>
        <time>2014-12-07T07:11:40Z</time>
      </trkpt>
      <trkpt lat="46.00797" lon="4.00417">
        <ele>327.95</ele>
        <time>2014-12-07T07:11:54Z</time>
      </trkpt>
      <trkpt lat="46.00803" lon="4.0042">
        <ele>327.95</ele>
        <time>2014-12-07T07:11:57Z</time>
      </trkpt>
      <trkpt lat="46.00809" lon="4.00419">
        <ele>327.47</ele>
        <time>2014-12-07T07:12:00Z</time>
      </trkpt>
      <trkpt lat="46.00815" lon="4.00412">
        <ele>326.99</ele>
        <time>2014-12-07T07:12:03Z</time>
      </trkpt>
      <trkpt lat="46.00825" lon="4.0039">
        <ele>326.5</ele>
        <time>2014-12-07T07:12:11Z</time>
      </trkpt>
      <trkpt lat="46.00833" lon="4.00384">
        <ele>326.5</ele>
        <time>2014-12-07T07:12:16Z</time>
      </trkpt>
      <trkpt lat="46.00855" lon="4.00378">
        <ele>326.5</ele>
        <time>2014-12-07T07:12:29Z</time>
      </trkpt>
      <trkpt lat="46.00873" lon="4.00377">
        <ele>327.47</ele>
        <time>2014-12-07T07:12:41Z</time>
      </trkpt>
      <trkpt lat="46.00883" lon="4.00376">
        <ele>327.95</ele>
        <time>2014-12-07T07:12:48Z</time>
      </trkpt>
      <trkpt lat="46.00887" lon="4.00374">
        <ele>328.43</ele>
        <time>2014-12-07T07:12:52Z</time>
      </trkpt>
      <trkpt lat="46.00909" lon="4.00374">
        <ele>329.39</ele>
        <time>2014-12-07T07:13:06Z</time>
      </trkpt>
      <trkpt lat="46.00929" lon="4.00373">
        <ele>330.83</ele>
        <time>2014-12-07T07:13:18Z</time>
      </trkpt>
      <trkpt lat="46.00954" lon="4.00371">
        <ele>331.79</ele>
        <time>2014-12-07T07:13:33Z</time>
      </trkpt>
      <trkpt lat="46.00976" lon="4.00368">
        <ele>333.23</ele>
        <time>2014-12-07T07:13:48Z</time>
      </trkpt>
      <trkpt lat="46.00983" lon="4.00368">
        <ele>333.71</ele>
        <time>2014-12-07T07:13:54Z</time>
      </trkpt>
      <trkpt lat="46.00993" lon="4.00373">
        <ele>334.68</ele>
        <time>2014-12-07T07:14:00Z</time>
      </trkpt>
      <trkpt lat="46.00998" lon="4.00396">
        <ele>335.64</ele>
        <time>2014-12-07T07:14:11Z</time>
      </trkpt>
      <trkpt lat="46.00998" lon="4.00405">
        <ele>335.16</ele>
        <time>2014-12-07T07:14:15Z</time>
      </trkpt>
      <trkpt lat="46.00994" lon="4.00433">
        <ele>337.08</ele>
        <time>2014-12-07T07:14:28Z</time>
      </trkpt>
      <trkpt lat="46.00993" lon="4.00437">
        <ele>337.08</ele>
        <time>2014-12-07T07:14:30Z</time>
      </trkpt>
      <trkpt lat="46.00991" lon="4.00455">
        <ele>337.08</ele>
        <time>2014-12-07T07:14:38Z</time>
      </trkpt>
      <trkpt lat="46.0099" lon="4.00462">
        <ele>337.08</ele>
        <time>2014-12-07T07:14:41Z</time>
      </trkpt>
      <trkpt lat="46.00988" lon="4.00471">
        <ele>336.6</ele>
        <time>2014-12-07T07:14:45Z</time>
      </trkpt>
      <trkpt lat="46.00986" lon="4.00483">
        <ele>336.6</ele>
        <time>2014-12-07T07:14:51Z</time>
      </trkpt>
      <trkpt lat="46.00984" lon="4.00514">
        <ele>336.6</ele>
        <time>2014-12-07T07:15:04Z</time>
      </trkpt>
      <trkpt lat="46.00986" lon="4.00539">
        <ele>336.6</ele>
        <time>2014-12-07T07:15:13Z</time>
      </trkpt>
      <trkpt lat="46.00993" lon="4.0056">
        <ele>336.6</ele>
        <time>2014-12-07T07:15:23Z</time>
      </trkpt>
      <trkpt lat="46.00996" lon="4.00565">
        <ele>337.08</ele>
        <time>2014-12-07T07:15:26Z</time>
      </trkpt>
      <trkpt lat="46.01005" lon="4.00584">
        <ele>337.08</ele>
        <time>2014-12-07T07:15:36Z</time>
      </trkpt>
      <trkpt lat="46.01016" lon="4.00601">
        <ele>337.08</ele>
        <time>2014-12-07T07:15:45Z</time>
      </trkpt>
      <trkpt lat="46.01023" lon="4.00614">
        <ele>336.6</ele>
        <time>2014-12-07T07:15:52Z</time>
      </trkpt>
      <trkpt lat="46.01032" lon="4.00626">
        <ele>336.6</ele>
        <time>2014-12-07T07:15:59Z</time>
      </trkpt>
      <trkpt lat="46.01041" lon="4.00638">
        <ele>336.6</ele>
        <time>2014-12-07T07:16:06Z</time>
      </trkpt>
      <trkpt lat="46.01053" lon="4.00654">
        <ele>336.12</ele>
        <time>2014-12-07T07:16:17Z</time>
      </trkpt>
      <trkpt lat="46.01055" lon="4.00657">
        <ele>336.12</ele>
        <time>2014-12-07T07:16:19Z</time>
      </trkpt>
      <trkpt lat="46.01073" lon="4.00678">
        <ele>335.64</ele>
        <time>2014-12-07T07:16:33Z</time>
      </trkpt>
      <trkpt lat="46.01088" lon="4.00692">
        <ele>334.68</ele>
        <time>2014-12-07T07:16:44Z</time>
      </trkpt>
      <trkpt lat="46.01104" lon="4.00712">
        <ele>334.68</ele>
        <time>2014-12-07T07:16:56Z</time>
      </trkpt>
      <trkpt lat="46.0113" lon="4.00744">
        <ele>333.23</ele>
        <time>2014-12-07T07:17:10Z</time>
      </trkpt>
      <trkpt lat="46.01152" lon="4.00772">
        <ele>332.75</ele>
        <time>2014-12-07T07:17:22Z</time>
      </trkpt>
      <trkpt lat="46.0117" lon="4.00794">
        <ele>332.75</ele>
        <time>2014-12-07T07:17:31Z</time>
      </trkpt>
      <trkpt lat="46.01176" lon="4.00805">
        <ele>332.27</ele>
        <time>2014-12-07T07:17:36Z</time>
      </trkpt>
      <trkpt lat="46.01204" lon="4.00835">
        <ele>331.79</ele>
        <time>2014-12-07T07:17:50Z</time>
      </trkpt>
      <trkpt lat="46.01219" lon="4.00854">
        <ele>331.31</ele>
        <time>2014-12-07T07:17:58Z</time>
      </trkpt>
      <trkpt lat="46.0123" lon="4.00869">
        <ele>331.79</ele>
        <time>2014-12-07T07:18:04Z</time>
      </trkpt>
      <trkpt lat="46.01251" lon="4.00898">
        <ele>331.31</ele>
        <time>2014-12-07T07:18:15Z</time>
      </trkpt>
      <trkpt lat="46.0127" lon="4.0093">
        <ele>330.83</ele>
        <time>2014-12-07T07:18:26Z</time>
      </trkpt>
      <trkpt lat="46.01286" lon="4.00967">
        <ele>331.31</ele>
        <time>2014-12-07T07:18:39Z</time>
      </trkpt>
      <trkpt lat="46.01302" lon="4.01009">
        <ele>331.31</ele>
        <time>2014-12-07T07:18:51Z</time>
      </trkpt>
      <trkpt lat="46.01311" lon="4.01046">
        <ele>331.31</ele>
        <time>2014-12-07T07:19:01Z</time>
      </trkpt>
      <trkpt lat="46.0132" lon="4.01089">
        <ele>331.79</ele>
        <time>2014-12-07T07:19:14Z</time>
      </trkpt>
      <trkpt lat="46.01322" lon="4.01098">
        <ele>332.27</ele>
        <time>2014-12-07T07:19:17Z</time>
      </trkpt>
      <trkpt lat="46.01326" lon="4.01128">
        <ele>332.27</ele>
        <time>2014-12-07T07:19:28Z</time>
      </trkpt>
      <trkpt lat="46.0133" lon="4.01156">
        <ele>332.75</ele>
        <time>2014-12-07T07:19:40Z</time>
      </trkpt>
      <trkpt lat="46.01331" lon="4.01166">
        <ele>333.23</ele>
        <time>2014-12-07T07:19:44Z</time>
      </trkpt>
      <trkpt lat="46.01333" lon="4.01172">
        <ele>332.75</ele>
        <time>2014-12-07T07:19:47Z</time>
      </trkpt>
      <trkpt lat="46.01338" lon="4.01207">
        <ele>333.23</ele>
        <time>2014-12-07T07:20:01Z</time>
      </trkpt>
      <trkpt lat="46.01342" lon="4.01235">
        <ele>333.23</ele>
        <time>2014-12-07T07:20:12Z</time>
      </trkpt>
      <trkpt lat="46.01347" lon="4.01271">
        <ele>333.71</ele>
        <time>2014-12-07T07:20:27Z</time>
      </trkpt>
      <trkpt lat="46.01354" lon="4.01307">
        <ele>333.71</ele>
        <time>2014-12-07T07:20:42Z</time>
      </trkpt>
      <trkpt lat="46.01358" lon="4.01337">
        <ele>333.71</ele>
        <time>2014-12-07T07:20:55Z</time>
      </trkpt>
      <trkpt lat="46.01361" lon="4.01375">
        <ele>332.75</ele>
        <time>2014-12-07T07:21:10Z</time>
      </trkpt>
      <trkpt lat="46.01361" lon="4.01376">
        <ele>333.23</ele>
        <time>2014-12-07T07:21:11Z</time>
      </trkpt>
      <trkpt lat="46.01361" lon="4.014">
        <ele>333.23</ele>
        <time>2014-12-07T07:21:20Z</time>
      </trkpt>
      <trkpt lat="46.01362" lon="4.01411">
        <ele>332.75</ele>
        <time>2014-12-07T07:21:25Z</time>
      </trkpt>
      <trkpt lat="46.01363" lon="4.0144">
        <ele>332.75</ele>
        <time>2014-12-07T07:21:37Z</time>
      </trkpt>
      <trkpt lat="46.01364" lon="4.0145">
        <ele>332.75</ele>
        <time>2014-12-07T07:21:41Z</time>
      </trkpt>
      <trkpt lat="46.01367" lon="4.01473">
        <ele>332.27</ele>
        <time>2014-12-07T07:21:51Z</time>
      </trkpt>
      <trkpt lat="46.01374" lon="4.01508">
        <ele>332.27</ele>
        <time>2014-12-07T07:22:07Z</time>
      </trkpt>
      <trkpt lat="46.01375" lon="4.01512">
        <ele>331.79</ele>
        <time>2014-12-07T07:22:09Z</time>
      </trkpt>
      <trkpt lat="46.01378" lon="4.01521">
        <ele>331.79</ele>
        <time>2014-12-07T07:22:13Z</time>
      </trkpt>
      <trkpt lat="46.01387" lon="4.01548">
        <ele>331.79</ele>
        <time>2014-12-07T07:22:25Z</time>
      </trkpt>
      <trkpt lat="46.01393" lon="4.01566">
        <ele>331.79</ele>
        <time>2014-12-07T07:22:33Z</time>
      </trkpt>
      <trkpt lat="46.01399" lon="4.01581">
        <ele>331.79</ele>
        <time>2014-12-07T07:22:40Z</time>
      </trkpt>
      <trkpt lat="46.01406" lon="4.01598">
        <ele>331.31</ele>
        <time>2014-12-07T07:22:48Z</time>
      </trkpt>
      <trkpt lat="46.01412" lon="4.01608">
        <ele>331.31</ele>
        <time>2014-12-07T07:22:53Z</time>
      </trkpt>
      <trkpt lat="46.01424" lon="4.01635">
        <ele>331.31</ele>
        <time>2014-12-07T07:23:06Z</time>
      </trkpt>
      <trkpt lat="46.01435" lon="4.01657">
        <ele>331.31</ele>
        <time>2014-12-07T07:23:18Z</time>
      </trkpt>
      <trkpt lat="46.01445" lon="4.01679">
        <ele>330.83</ele>
        <time>2014-12-07T07:23:29Z</time>
      </trkpt>
      <trkpt lat="46.01454" lon="4.01702">
        <ele>330.83</ele>
        <time>2014-12-07T07:23:40Z</time>
      </trkpt>
      <trkpt lat="46.01464" lon="4.01725">
        <ele>330.83</ele>
        <time>2014-12-07T07:23:51Z</time>
      </trkpt>
      <trkpt lat="46.01475" lon="4.01753">
        <ele>329.87</ele>
        <time>2014-12-07T07:24:04Z</time>
      </trkpt>
      <trkpt lat="46.01485" lon="4.0178">
        <ele>329.87</ele>
        <time>2014-12-07T07:24:16Z</time>
      </trkpt>
      <trkpt lat="46.0149" lon="4.01797">
        <ele>329.87</ele>
        <time>2014-12-07T07:24:24Z</time>
      </trkpt>
      <trkpt lat="46.01495" lon="4.01809">
        <ele>329.39</ele>
        <time>2014-12-07T07:24:30Z</time>
      </trkpt>
      <trkpt lat="46.015" lon="4.01823">
        <ele>329.87</ele>
        <time>2014-12-07T07:24:36Z</time>
      </trkpt>
      <trkpt lat="46.01506" lon="4.01852">
        <ele>329.39</ele>
        <time>2014-12-07T07:24:48Z</time>
      </trkpt>
      <trkpt lat="46.01513" lon="4.01875">
        <ele>328.91</ele>
        <time>2014-12-07T07:24:58Z</time>
      </trkpt>
      <trkpt lat="46.01516" lon="4.0189">
        <ele>328.91</ele>
        <time>2014-12-07T07:25:04Z</time>
      </trkpt>
      <trkpt lat="46.01521" lon="4.01914">
        <ele>328.91</ele>
        <time>2014-12-07T07:25:15Z</time>
      </trkpt>
      <trkpt lat="46.01525" lon="4.01934">
        <ele>328.91</ele>
        <time>2014-12-07T07:25:23Z</time>
      </trkpt>
      <trkpt lat="46.01528" lon="4.01942">
        <ele>328.91</ele>
        <time>2014-12-07T07:25:27Z</time>
      </trkpt>
      <trkpt lat="46.01535" lon="4.01969">
        <ele>328.91</ele>
        <time>2014-12-07T07:25:39Z</time>
      </trkpt>
      <trkpt lat="46.01544" lon="4.01991">
        <ele>328.91</ele>
        <time>2014-12-07T07:25:49Z</time>
      </trkpt>
      <trkpt lat="46.01549" lon="4.02001">
        <ele>328.91</ele>
        <time>2014-12-07T07:25:54Z</time>
      </trkpt>
      <trkpt lat="46.01557" lon="4.02019">
        <ele>328.43</ele>
        <time>2014-12-07T07:26:03Z</time>
      </trkpt>
      <trkpt lat="46.01561" lon="4.02025">
        <ele>328.43</ele>
        <time>2014-12-07T07:26:06Z</time>
      </trkpt>
      <trkpt lat="46.01568" lon="4.02041">
        <ele>328.91</ele>
        <time>2014-12-07T07:26:14Z</time>
      </trkpt>
      <trkpt lat="46.01573" lon="4.02051">
        <ele>328.91</ele>
        <time>2014-12-07T07:26:20Z</time>
      </trkpt>
      <trkpt lat="46.01582" lon="4.02071">
        <ele>329.39</ele>
        <time>2014-12-07T07:26:31Z</time>
      </trkpt>
      <trkpt lat="46.01589" lon="4.02078">
        <ele>328.91</ele>
        <time>2014-12-07T07:26:35Z</time>
      </trkpt>
      <trkpt lat="46.01607" lon="4.02099">
        <ele>329.39</ele>
        <time>2014-12-07T07:26:48Z</time>
      </trkpt>
      <trkpt lat="46.01623" lon="4.02116">
        <ele>329.39</ele>
        <time>2014-12-07T07:27:00Z</time>
      </trkpt>
      <trkpt lat="46.01632" lon="4.0213">
        <ele>329.39</ele>
        <time>2014-12-07T07:27:08Z</time>
      </trkpt>
      <trkpt lat="46.01636" lon="4.02138">
        <ele>329.87</ele>
        <time>2014-12-07T07:27:12Z</time>
      </trkpt>
      <trkpt lat="46.01649" lon="4.02157">
        <ele>329.87</ele>
        <time>2014-12-07T07:27:24Z</time>
      </trkpt>
      <trkpt lat="46.01656" lon="4.02164">
        <ele>329.87</ele>
        <time>2014-12-07T07:27:29Z</time>
      </trkpt>
      <trkpt lat="46.01659" lon="4.02171">
        <ele>329.87</ele>
        <time>2014-12-07T07:27:33Z</time>
      </trkpt>
      <trkpt lat="46.01671" lon="4.02191">
        <ele>330.35</ele>
        <time>2014-12-07T07:27:44Z</time>
      </trkpt>
      <trkpt lat="46.01688" lon="4.0221">
        <ele>330.35</ele>
        <time>2014-12-07T07:27:56Z</time>
      </trkpt>
      <trkpt lat="46.01689" lon="4.02211">
        <ele>330.35</ele>
        <time>2014-12-07T07:27:57Z</time>
      </trkpt>
      <trkpt lat="46.01694" lon="4.02218">
        <ele>330.35</ele>
        <time>2014-12-07T07:28:02Z</time>
      </trkpt>
      <trkpt lat="46.01704" lon="4.0223">
        <ele>330.35</ele>
        <time>2014-12-07T07:28:10Z</time>
      </trkpt>
      <trkpt lat="46.0172" lon="4.02246">
        <ele>330.35</ele>
        <time>2014-12-07T07:28:20Z</time>
      </trkpt>
      <trkpt lat="46.01736" lon="4.02262">
        <ele>330.35</ele>
        <time>2014-12-07T07:28:32Z</time>
      </trkpt>
      <trkpt lat="46.01754" lon="4.02282">
        <ele>330.35</ele>
        <time>2014-12-07T07:28:46Z</time>
      </trkpt>
      <trkpt lat="46.01773" lon="4.02299">
        <ele>329.87</ele>
        <time>2014-12-07T07:28:58Z</time>
      </trkpt>
      <trkpt lat="46.01779" lon="4.02305">
        <ele>329.87</ele>
        <time>2014-12-07T07:29:03Z</time>
      </trkpt>
      <trkpt lat="46.01794" lon="4.02317">
        <ele>329.87</ele>
        <time>2014-12-07T07:29:12Z</time>
      </trkpt>
      <trkpt lat="46.01802" lon="4.02327">
        <ele>329.39</ele>
        <time>2014-12-07T07:29:20Z</time>
      </trkpt>
      <trkpt lat="46.01807" lon="4.02332">
        <ele>329.39</ele>
        <time>2014-12-07T07:29:24Z</time>
      </trkpt>
      <trkpt lat="46.01817" lon="4.02344">
        <ele>329.39</ele>
        <time>2014-12-07T07:29:31Z</time>
      </trkpt>
      <trkpt lat="46.01827" lon="4.02357">
        <ele>329.39</ele>
        <time>2014-12-07T07:29:39Z</time>
      </trkpt>
      <trkpt lat="46.01841" lon="4.02373">
        <ele>328.91</ele>
        <time>2014-12-07T07:29:49Z</time>
      </trkpt>
      <trkpt lat="46.01849" lon="4.02382">
        <ele>328.91</ele>
        <time>2014-12-07T07:29:54Z</time>
      </trkpt>
      <trkpt lat="46.01862" lon="4.024">
        <ele>328.43</ele>
        <time>2014-12-07T07:30:04Z</time>
      </trkpt>
      <trkpt lat="46.01873" lon="4.02417">
        <ele>328.43</ele>
        <time>2014-12-07T07:30:13Z</time>
      </trkpt>
      <trkpt lat="46.01886" lon="4.02437">
        <ele>327.95</ele>
        <time>2014-12-07T07:30:25Z</time>
      </trkpt>
      <trkpt lat="46.01899" lon="4.02455">
        <ele>327.95</ele>
        <time>2014-12-07T07:30:36Z</time>
      </trkpt>
      <trkpt lat="46.01914" lon="4.02474">
        <ele>327.95</ele>
        <time>2014-12-07T07:30:48Z</time>
      </trkpt>
      <trkpt lat="46.01926" lon="4.02492">
        <ele>327.47</ele>
        <time>2014-12-07T07:30:58Z</time>
      </trkpt>
      <trkpt lat="46.01938" lon="4.0251">
        <ele>327.47</ele>
        <time>2014-12-07T07:31:09Z</time>
      </trkpt>
      <trkpt lat="46.01946" lon="4.02523">
        <ele>327.47</ele>
        <time>2014-12-07T07:31:16Z</time>
      </trkpt>
      <trkpt lat="46.01952" lon="4.02533">
        <ele>326.99</ele>
        <time>2014-12-07T07:31:22Z</time>
      </trkpt>
      <trkpt lat="46.01956" lon="4.02538">
        <ele>326.5</ele>
        <time>2014-12-07T07:31:25Z</time>
      </trkpt>
      <trkpt lat="46.01963" lon="4.02552">
        <ele>326.02</ele>
        <time>2014-12-07T07:31:33Z</time>
      </trkpt>
      <trkpt lat="46.01975" lon="4.02567">
        <ele>326.02</ele>
        <time>2014-12-07T07:31:42Z</time>
      </trkpt>
      <trkpt lat="46.01993" lon="4.02587">
        <ele>326.02</ele>
        <time>2014-12-07T07:31:55Z</time>
      </trkpt>
      <trkpt lat="46.02009" lon="4.0261">
        <ele>325.06</ele>
        <time>2014-12-07T07:32:08Z</time>
      </trkpt>
      <trkpt lat="46.02023" lon="4.02635">
        <ele>324.58</ele>
        <time>2014-12-07T07:32:22Z</time>
      </trkpt>
      <trkpt lat="46.02038" lon="4.02654">
        <ele>323.62</ele>
        <time>2014-12-07T07:32:34Z</time>
      </trkpt>
      <trkpt lat="46.02042" lon="4.0266">
        <ele>323.62</ele>
        <time>2014-12-07T07:32:37Z</time>
      </trkpt>
      <trkpt lat="46.02048" lon="4.02669">
        <ele>323.14</ele>
        <time>2014-12-07T07:32:42Z</time>
      </trkpt>
      <trkpt lat="46.02063" lon="4.02701">
        <ele>322.18</ele>
        <time>2014-12-07T07:32:57Z</time>
      </trkpt>
      <trkpt lat="46.02072" lon="4.0272">
        <ele>321.22</ele>
        <time>2014-12-07T07:33:07Z</time>
      </trkpt>
      <trkpt lat="46.0208" lon="4.02735">
        <ele>320.74</ele>
        <time>2014-12-07T07:33:14Z</time>
      </trkpt>
      <trkpt lat="46.02095" lon="4.02773">
        <ele>319.78</ele>
        <time>2014-12-07T07:33:28Z</time>
      </trkpt>
      <trkpt lat="46.02115" lon="4.02815">
        <ele>318.33</ele>
        <time>2014-12-07T07:33:42Z</time>
      </trkpt>
      <trkpt lat="46.02138" lon="4.02855">
        <ele>317.37</ele>
        <time>2014-12-07T07:33:56Z</time>
      </trkpt>
      <trkpt lat="46.0216" lon="4.02894">
        <ele>316.89</ele>
        <time>2014-12-07T07:34:09Z</time>
      </trkpt>
      <trkpt lat="46.02175" lon="4.02936">
        <ele>315.93</ele>
        <time>2014-12-07T07:34:22Z</time>
      </trkpt>
      <trkpt lat="46.0219" lon="4.0298">
        <ele>315.93</ele>
        <time>2014-12-07T07:34:35Z</time>
      </trkpt>
      <trkpt lat="46.02206" lon="4.03029">
        <ele>315.45</ele>
        <time>2014-12-07T07:34:49Z</time>
      </trkpt>
      <trkpt lat="46.02222" lon="4.03072">
        <ele>315.45</ele>
        <time>2014-12-07T07:35:02Z</time>
      </trkpt>
      <trkpt lat="46.02233" lon="4.03111">
        <ele>315.45</ele>
        <time>2014-12-07T07:35:13Z</time>
      </trkpt>
      <trkpt lat="46.02245" lon="4.03162">
        <ele>314.97</ele>
        <time>2014-12-07T07:35:27Z</time>
      </trkpt>
      <trkpt lat="46.02257" lon="4.03208">
        <ele>314.97</ele>
        <time>2014-12-07T07:35:40Z</time>
      </trkpt>
      <trkpt lat="46.02268" lon="4.03243">
        <ele>314.49</ele>
        <time>2014-12-07T07:35:50Z</time>
      </trkpt>
      <trkpt lat="46.02281" lon="4.03285">
        <ele>314.49</ele>
        <time>2014-12-07T07:36:02Z</time>
      </trkpt>
      <trkpt lat="46.02294" lon="4.03318">
        <ele>314.49</ele>
        <time>2014-12-07T07:36:13Z</time>
      </trkpt>
      <trkpt lat="46.02308" lon="4.03363">
        <ele>314.01</ele>
        <time>2014-12-07T07:36:26Z</time>
      </trkpt>
      <trkpt lat="46.02324" lon="4.03412">
        <ele>313.53</ele>
        <time>2014-12-07T07:36:41Z</time>
      </trkpt>
      <trkpt lat="46.02337" lon="4.03453">
        <ele>314.49</ele>
        <time>2014-12-07T07:36:54Z</time>
      </trkpt>
      <trkpt lat="46.02347" lon="4.03492">
        <ele>314.01</ele>
        <time>2014-12-07T07:37:06Z</time>
      </trkpt>
      <trkpt lat="46.02356" lon="4.0353">
        <ele>314.01</ele>
        <time>2014-12-07T07:37:18Z</time>
      </trkpt>
      <trkpt lat="46.02363" lon="4.0357">
        <ele>314.97</ele>
        <time>2014-12-07T07:37:29Z</time>
      </trkpt>
      <trkpt lat="46.02374" lon="4.03604">
        <ele>314.49</ele>
        <time>2014-12-07T07:37:40Z</time>
      </trkpt>
      <trkpt lat="46.02377" lon="4.03627">
        <ele>314.49</ele>
        <time>2014-12-07T07:37:50Z</time>
      </trkpt>
      <trkpt lat="46.02382" lon="4.03647">
        <ele>314.49</ele>
        <time>2014-12-07T07:37:59Z</time>
      </trkpt>
      <trkpt lat="46.02395" lon="4.03684">
        <ele>314.01</ele>
        <time>2014-12-07T07:38:15Z</time>
      </trkpt>
      <trkpt lat="46.02403" lon="4.03704">
        <ele>314.01</ele>
        <time>2014-12-07T07:38:23Z</time>
      </trkpt>
      <trkpt lat="46.02414" lon="4.03732">
        <ele>314.01</ele>
        <time>2014-12-07T07:38:35Z</time>
      </trkpt>
      <trkpt lat="46.02426" lon="4.03765">
        <ele>313.53</ele>
        <time>2014-12-07T07:38:49Z</time>
      </trkpt>
      <trkpt lat="46.02427" lon="4.03768">
        <ele>313.53</ele>
        <time>2014-12-07T07:38:51Z</time>
      </trkpt>
      <trkpt lat="46.02437" lon="4.03799">
        <ele>313.53</ele>
        <time>2014-12-07T07:39:04Z</time>
      </trkpt>
      <trkpt lat="46.02448" lon="4.03828">
        <ele>313.53</ele>
        <time>2014-12-07T07:39:17Z</time>
      </trkpt>
      <trkpt lat="46.02456" lon="4.03851">
        <ele>313.05</ele>
        <time>2014-12-07T07:39:27Z</time>
      </trkpt>
      <trkpt lat="46.02468" lon="4.03884">
        <ele>313.05</ele>
        <time>2014-12-07T07:39:41Z</time>
      </trkpt>
      <trkpt lat="46.02475" lon="4.03901">
        <ele>313.05</ele>
        <time>2014-12-07T07:39:48Z</time>
      </trkpt>
      <trkpt lat="46.02484" lon="4.03924">
        <ele>312.57</ele>
        <time>2014-12-07T07:39:58Z</time>
      </trkpt>
      <trkpt lat="46.02491" lon="4.0394">
        <ele>312.57</ele>
        <time>2014-12-07T07:40:05Z</time>
      </trkpt>
      <trkpt lat="46.02505" lon="4.03965">
        <ele>312.09</ele>
        <time>2014-12-07T07:40:18Z</time>
      </trkpt>
      <trkpt lat="46.02523" lon="4.03997">
        <ele>311.6</ele>
        <time>2014-12-07T07:40:31Z</time>
      </trkpt>
      <trkpt lat="46.02544" lon="4.04023">
        <ele>310.16</ele>
        <time>2014-12-07T07:40:42Z</time>
      </trkpt>
      <trkpt lat="46.02562" lon="4.04046">
        <ele>308.72</ele>
        <time>2014-12-07T07:40:52Z</time>
      </trkpt>
      <trkpt lat="46.02588" lon="4.04071">
        <ele>305.36</ele>
        <time>2014-12-07T07:41:03Z</time>
      </trkpt>
      <trkpt lat="46.02611" lon="4.04094">
        <ele>302.47</ele>
        <time>2014-12-07T07:41:14Z</time>
      </trkpt>
      <trkpt lat="46.02634" lon="4.0412">
        <ele>299.59</ele>
        <time>2014-12-07T07:41:25Z</time>
      </trkpt>
      <trkpt lat="46.02643" lon="4.0413">
        <ele>298.63</ele>
        <time>2014-12-07T07:41:29Z</time>
      </trkpt>
      <trkpt lat="46.02656" lon="4.0415">
        <ele>296.7</ele>
        <time>2014-12-07T07:41:36Z</time>
      </trkpt>
      <trkpt lat="46.02679" lon="4.04191">
        <ele>294.78</ele>
        <time>2014-12-07T07:41:49Z</time>
      </trkpt>
      <trkpt lat="46.02696" lon="4.04217">
        <ele>293.34</ele>
        <time>2014-12-07T07:41:58Z</time>
      </trkpt>
      <trkpt lat="46.02717" lon="4.04243">
        <ele>292.38</ele>
        <time>2014-12-07T07:42:10Z</time>
      </trkpt>
      <trkpt lat="46.02726" lon="4.04253">
        <ele>291.9</ele>
        <time>2014-12-07T07:42:15Z</time>
      </trkpt>
      <trkpt lat="46.02729" lon="4.04264">
        <ele>291.9</ele>
        <time>2014-12-07T07:42:19Z</time>
      </trkpt>
      <trkpt lat="46.02732" lon="4.04311">
        <ele>290.94</ele>
        <time>2014-12-07T07:42:33Z</time>
      </trkpt>
      <trkpt lat="46.02737" lon="4.04346">
        <ele>290.94</ele>
        <time>2014-12-07T07:42:41Z</time>
      </trkpt>
      <trkpt lat="46.02738" lon="4.04354">
        <ele>290.94</ele>
        <time>2014-12-07T07:42:44Z</time>
      </trkpt>
      <trkpt lat="46.02742" lon="4.04375">
        <ele>290.94</ele>
        <time>2014-12-07T07:42:51Z</time>
      </trkpt>
      <trkpt lat="46.02744" lon="4.04388">
        <ele>289.97</ele>
        <time>2014-12-07T07:42:55Z</time>
      </trkpt>
      <trkpt lat="46.02744" lon="4.04424">
        <ele>290.46</ele>
        <time>2014-12-07T07:43:04Z</time>
      </trkpt>
      <trkpt lat="46.02747" lon="4.04438">
        <ele>289.97</ele>
        <time>2014-12-07T07:43:08Z</time>
      </trkpt>
      <trkpt lat="46.02753" lon="4.04453">
        <ele>289.97</ele>
        <time>2014-12-07T07:43:14Z</time>
      </trkpt>
      <trkpt lat="46.02754" lon="4.04457">
        <ele>289.49</ele>
        <time>2014-12-07T07:43:16Z</time>
      </trkpt>
      <trkpt lat="46.02752" lon="4.04496">
        <ele>289.01</ele>
        <time>2014-12-07T07:43:26Z</time>
      </trkpt>
      <trkpt lat="46.02755" lon="4.0454">
        <ele>289.01</ele>
        <time>2014-12-07T07:43:36Z</time>
      </trkpt>
      <trkpt lat="46.02758" lon="4.04554">
        <ele>288.53</ele>
        <time>2014-12-07T07:43:41Z</time>
      </trkpt>
      <trkpt lat="46.02759" lon="4.04579">
        <ele>288.53</ele>
        <time>2014-12-07T07:43:49Z</time>
      </trkpt>
      <trkpt lat="46.02759" lon="4.04589">
        <ele>288.53</ele>
        <time>2014-12-07T07:43:52Z</time>
      </trkpt>
      <trkpt lat="46.02761" lon="4.04621">
        <ele>288.05</ele>
        <time>2014-12-07T07:44:03Z</time>
      </trkpt>
      <trkpt lat="46.02761" lon="4.04658">
        <ele>287.57</ele>
        <time>2014-12-07T07:44:12Z</time>
      </trkpt>
      <trkpt lat="46.02761" lon="4.04701">
        <ele>287.09</ele>
        <time>2014-12-07T07:44:21Z</time>
      </trkpt>
      <trkpt lat="46.02762" lon="4.0471">
        <ele>286.61</ele>
        <time>2014-12-07T07:44:23Z</time>
      </trkpt>
      <trkpt lat="46.02762" lon="4.04725">
        <ele>286.61</ele>
        <time>2014-12-07T07:44:27Z</time>
      </trkpt>
      <trkpt lat="46.02765" lon="4.04759">
        <ele>286.61</ele>
        <time>2014-12-07T07:44:37Z</time>
      </trkpt>
      <trkpt lat="46.02763" lon="4.04783">
        <ele>286.61</ele>
        <time>2014-12-07T07:44:44Z</time>
      </trkpt>
      <trkpt lat="46.02761" lon="4.04796">
        <ele>287.09</ele>
        <time>2014-12-07T07:44:48Z</time>
      </trkpt>
      <trkpt lat="46.02756" lon="4.04827">
        <ele>287.09</ele>
        <time>2014-12-07T07:44:58Z</time>
      </trkpt>
      <trkpt lat="46.02749" lon="4.04847">
        <ele>287.57</ele>
        <time>2014-12-07T07:45:04Z</time>
      </trkpt>
      <trkpt lat="46.02746" lon="4.04857">
        <ele>287.57</ele>
        <time>2014-12-07T07:45:07Z</time>
      </trkpt>
      <trkpt lat="46.02743" lon="4.04871">
        <ele>287.57</ele>
        <time>2014-12-07T07:45:11Z</time>
      </trkpt>
      <trkpt lat="46.02726" lon="4.04909">
        <ele>288.53</ele>
        <time>2014-12-07T07:45:20Z</time>
      </trkpt>
      <trkpt lat="46.02725" lon="4.04921">
        <ele>288.53</ele>
        <time>2014-12-07T07:45:25Z</time>
      </trkpt>
      <trkpt lat="46.02723" lon="4.04931">
        <ele>288.53</ele>
        <time>2014-12-07T07:45:30Z</time>
      </trkpt>
      <trkpt lat="46.02711" lon="4.04962">
        <ele>289.49</ele>
        <time>2014-12-07T07:45:41Z</time>
      </trkpt>
      <trkpt lat="46.02704" lon="4.04979">
        <ele>289.97</ele>
        <time>2014-12-07T07:45:46Z</time>
      </trkpt>
      <trkpt lat="46.027" lon="4.04997">
        <ele>289.97</ele>
        <time>2014-12-07T07:45:53Z</time>
      </trkpt>
      <trkpt lat="46.02699" lon="4.05002">
        <ele>289.97</ele>
        <time>2014-12-07T07:45:55Z</time>
      </trkpt>
      <trkpt lat="46.02684" lon="4.05036">
        <ele>289.97</ele>
        <time>2014-12-07T07:46:05Z</time>
      </trkpt>
      <trkpt lat="46.02679" lon="4.05059">
        <ele>290.46</ele>
        <time>2014-12-07T07:46:11Z</time>
      </trkpt>
      <trkpt lat="46.02677" lon="4.05068">
        <ele>290.46</ele>
        <time>2014-12-07T07:46:13Z</time>
      </trkpt>
      <trkpt lat="46.02671" lon="4.05101">
        <ele>290.46</ele>
        <time>2014-12-07T07:46:21Z</time>
      </trkpt>
      <trkpt lat="46.02671" lon="4.05111">
        <ele>290.94</ele>
        <time>2014-12-07T07:46:26Z</time>
      </trkpt>
      <trkpt lat="46.02671" lon="4.05117">
        <ele>290.46</ele>
        <time>2014-12-07T07:46:30Z</time>
      </trkpt>
      <trkpt lat="46.02666" lon="4.05145">
        <ele>290.94</ele>
        <time>2014-12-07T07:46:38Z</time>
      </trkpt>
      <trkpt lat="46.0266" lon="4.05175">
        <ele>290.94</ele>
        <time>2014-12-07T07:46:45Z</time>
      </trkpt>
      <trkpt lat="46.02648" lon="4.05219">
        <ele>290.94</ele>
        <time>2014-12-07T07:46:55Z</time>
      </trkpt>
      <trkpt lat="46.02646" lon="4.05244">
        <ele>291.42</ele>
        <time>2014-12-07T07:47:01Z</time>
      </trkpt>
      <trkpt lat="46.02655" lon="4.05257">
        <ele>291.42</ele>
        <time>2014-12-07T07:47:06Z</time>
      </trkpt>
      <trkpt lat="46.02672" lon="4.05254">
        <ele>291.9</ele>
        <time>2014-12-07T07:47:14Z</time>
      </trkpt>
      <trkpt lat="46.02679" lon="4.05245">
        <ele>291.42</ele>
        <time>2014-12-07T07:47:28Z</time>
      </trkpt>
      <trkpt lat="46.02681" lon="4.05239">
        <ele>291.42</ele>
        <time>2014-12-07T07:47:48Z</time>
      </trkpt>
      <trkpt lat="46.0269" lon="4.05237">
        <ele>291.42</ele>
        <time>2014-12-07T07:48:12Z</time>
      </trkpt>
      <trkpt lat="46.02688" lon="4.05234">
        <ele>291.42</ele>
        <time>2014-12-07T07:48:31Z</time>
      </trkpt>
      <trkpt lat="46.02686" lon="4.05228">
        <ele>287.57</ele>
        <time>2014-12-07T07:48:51Z</time>
      </trkpt>
      <trkpt lat="46.02686" lon="4.05228">
        <ele>296.22</ele>
        <time>2014-12-07T07:48:52Z</time>
      </trkpt>
      <trkpt lat="46.02686" lon="4.05227">
        <ele>291.42</ele>
        <time>2014-12-07T07:48:53Z</time>
      </trkpt>
      <trkpt lat="46.02687" lon="4.05229">
        <ele>290.94</ele>
        <time>2014-12-07T07:49:17Z</time>
      </trkpt>
      <trkpt lat="46.02687" lon="4.05228">
        <ele>290.94</ele>
        <time>2014-12-07T07:49:40Z</time>
      </trkpt>
      <trkpt lat="46.02688" lon="4.05223">
        <ele>290.46</ele>
        <time>2014-12-07T07:49:59Z</time>
      </trkpt>
      <trkpt lat="46.02688" lon="4.05222">
        <ele>290.94</ele>
        <time>2014-12-07T07:50:11Z</time>
      </trkpt>
      <trkpt lat="46.02685" lon="4.05229">
        <ele>289.97</ele>
        <time>2014-12-07T07:50:26Z</time>
      </trkpt>
      <trkpt lat="46.02683" lon="4.05234">
        <ele>289.97</ele>
        <time>2014-12-07T07:50:43Z</time>
      </trkpt>
      <trkpt lat="46.02687" lon="4.05231">
        <ele>290.46</ele>
        <time>2014-12-07T07:50:59Z</time>
      </trkpt>
      <trkpt lat="46.02692" lon="4.05236">
        <ele>289.97</ele>
        <time>2014-12-07T07:51:15Z</time>
      </trkpt>
    </trkseg>
  </trk>
</gpx>